# Wetter Temperatur Luftdruck Luftfeuchtigkeit Sichtweite Windgeschwindigkeit Windrichtung Zeit
1 Rain 7 1037 81 8000 5.7 210 02:51 05.04.2020
2 Clouds 8 1036 75 10000 7.2 210 01:47 05.04.2020
3 Clouds 8 1036 75 10000 7.2 210 01:28 05.04.2020
4 Clouds 13 1034 47 10000 3.6 110 00:44 05.04.2020
5 Clouds 13 1034 47 10000 3.6 110 00:21 05.04.2020
6 Clouds 15 1034 41 10000 3.6 90 23:43 04.04.2020
7 Clouds 15 1034 41 10000 3.6 90 23:23 04.04.2020
8 Clouds 14 1034 44 10000 4.6 70 22:57 04.04.2020
9 Clouds 14 1034 44 10000 4.6 70 22:39 04.04.2020
10 Clouds 14 1034 44 10000 4.6 70 22:21 04.04.2020
11 Thunderstorm 12 1035 50 10000 7.7 60 21:58 04.04.2020
12 Thunderstorm 12 1035 50 10000 7.7 60 21:39 04.04.2020
13 Thunderstorm 12 1035 50 10000 7.7 60 21:19 04.04.2020
14 Thunderstorm 13 1036 47 10000 5.1 70 20:56 04.04.2020
15 Thunderstorm 13 1036 47 10000 5.1 70 20:37 04.04.2020
16 Thunderstorm 13 1037 50 10000 4.1 50 20:19 04.04.2020
17 Thunderstorm 13 1037 50 10000 4.1 50 19:55 04.04.2020
18 Thunderstorm 13 1037 50 10000 4.1 50 19:36 04.04.2020
19 Thunderstorm 13 1037 50 10000 4.1 50 19:36 04.04.2020
20 Thunderstorm 13 1037 50 10000 4.1 50 19:18 04.04.2020
21 Clouds 16 1038 41 10000 2.6 240 18:54 04.04.2020
22 Clouds 16 1038 41 10000 2.6 240 18:36 04.04.2020
23 Clouds 16 1038 41 10000 2.6 240 18:18 04.04.2020
24 Clouds 13 1039 54 10000 1 0 17:39 04.04.2020
25 Clouds 13 1039 54 10000 1 0 17:20 04.04.2020
26 Clouds 12 1039 62 10000 2.6 260 16:46 04.04.2020
27 Clouds 12 1039 62 10000 2.6 260 16:27 04.04.2020
28 Clouds 10 1038 66 10000 1 0 15:59 04.04.2020
29 Clouds 10 1038 66 10000 1 0 15:39 04.04.2020
30 Clouds 10 1038 66 10000 1 0 15:20 04.04.2020
31 Clouds 7 1038 93 6000 1 0 14:56 04.04.2020
32 Clouds 7 1038 93 6000 1 0 14:37 04.04.2020
33 Clouds 7 1038 93 6000 1 0 14:18 04.04.2020
34 Fog 5 1037 93 4000 2.1 80 13:42 04.04.2020
35 Fog 5 1037 93 4000 2.1 80 13:22 04.04.2020
36 Fog 5 1037 93 4000 2.1 80 13:22 04.04.2020
37 Fog 5 1037 100 4000 2.6 70 12:58 04.04.2020
38 Fog 5 1037 100 4000 2.6 70 12:40 04.04.2020
39 Fog 5 1037 100 4000 2.6 70 12:21 04.04.2020
40 Fog 6 1037 100 4000 1.38 316 11:42 04.04.2020
41 Fog 6 1037 100 4000 1.38 316 11:23 04.04.2020
42 Fog 6 1037 93 4000 2.6 70 10:59 04.04.2020
43 Fog 6 1037 93 4000 2.6 70 10:41 04.04.2020
44 Fog 6 1037 93 4000 2.6 70 10:23 04.04.2020
45 Fog 5 1037 93 4000 2.1 80 09:57 04.04.2020
46 Fog 5 1037 93 4000 2.1 80 09:39 04.04.2020
47 Fog 5 1037 93 4000 2.1 80 09:21 04.04.2020
48 Fog 7 1038 93 4000 2.6 120 08:45 04.04.2020
49 Fog 7 1038 93 4000 2.6 120 08:25 04.04.2020
50 Fog 7 1038 93 4000 3.1 90 07:59 04.04.2020
51 Fog 7 1038 93 4000 3.1 90 07:40 04.04.2020
52 Fog 7 1038 93 4000 3.1 90 07:21 04.04.2020
53 Fog 7 1039 87 4000 2.6 80 06:40 04.04.2020
54 Clouds 7 1039 93 10000 1 0 05:52 04.04.2020
55 Clouds 7 1039 93 10000 1 0 05:52 04.04.2020
56 Clouds 7 1039 93 10000 1 0 05:33 04.04.2020
57 Clouds 8 1039 81 10000 2.1 80 04:34 04.04.2020
58 Clouds 10 1038 76 10000 2.1 70 03:57 04.04.2020
59 Clouds 10 1038 76 10000 2.1 70 03:37 04.04.2020
60 Clouds 10 1037 66 10000 2.1 70 02:48 04.04.2020
61 Clouds 10 1037 66 10000 2.1 70 02:29 04.04.2020
62 Clouds 12 1036 58 10000 1 0 01:46 04.04.2020
63 Clouds 12 1036 58 10000 1 0 01:20 04.04.2020
64 Thunderstorm 12 1036 54 10000 3.1 110 00:43 04.04.2020
65 Thunderstorm 12 1036 54 10000 3.1 110 00:23 04.04.2020
66 Thunderstorm 14 1036 50 10000 4.6 110 23:38 03.04.2020
67 Thunderstorm 14 1036 50 10000 4.6 110 23:19 03.04.2020
68 Clouds 15 1036 44 10000 2.1 90 22:41 03.04.2020
69 Clouds 15 1036 44 10000 2.1 90 22:20 03.04.2020
70 Clouds 17 1037 36 10000 1 0 21:59 03.04.2020
71 Clouds 17 1037 36 10000 1 0 21:40 03.04.2020
72 Clouds 17 1037 36 10000 1 0 21:21 03.04.2020
73 Clouds 15 1038 44 10000 1.5 100 20:56 03.04.2020
74 Clouds 15 1038 44 10000 1.5 100 20:36 03.04.2020
75 Clouds 15 1038 44 10000 1.5 100 20:18 03.04.2020
76 Clouds 14 1040 47 10000 2.6 140 19:55 03.04.2020
77 Clouds 14 1040 47 10000 2.6 140 19:36 03.04.2020
78 Clouds 14 1040 47 10000 2.6 140 19:18 03.04.2020
79 Clouds 14 1041 50 10000 2.1 150 18:57 03.04.2020
80 Clouds 14 1041 50 10000 2.1 150 18:39 03.04.2020
81 Clouds 14 1041 50 10000 2.1 150 18:39 03.04.2020
82 Clouds 14 1041 50 10000 2.1 150 18:21 03.04.2020
83 Clouds 13 1042 54 10000 2.6 80 17:41 03.04.2020
84 Clouds 13 1042 54 10000 2.6 80 17:19 03.04.2020
85 Clouds 10 1042 71 10000 3.6 140 16:55 03.04.2020
86 Clouds 10 1042 71 10000 3.6 140 16:36 03.04.2020
87 Clouds 10 1042 71 10000 3.6 140 16:18 03.04.2020
88 Clouds 10 1041 61 10000 1 0 15:41 03.04.2020
89 Clouds 10 1041 61 10000 1 0 15:22 03.04.2020
90 Clouds 10 1041 61 10000 1 0 14:58 03.04.2020
91 Clouds 8 1023 26 0 1.2 41 14:40 03.04.2020
92 Fog 5 1041 100 4000 4.1 110 14:21 03.04.2020
93 Fog 5 1041 100 4000 4.1 110 13:46 03.04.2020
94 Fog 5 1041 100 4000 4.1 110 13:27 03.04.2020
95 Fog 5 1041 100 500 5.1 130 12:57 03.04.2020
96 Fog 5 1041 100 500 5.1 130 12:39 03.04.2020
97 Fog 5 1041 100 500 5.1 130 12:18 03.04.2020
98 Fog 5 1040 93 4000 4.6 120 11:55 03.04.2020
99 Fog 5 1040 93 4000 4.6 120 11:55 03.04.2020
100 Fog 5 1040 93 4000 4.6 120 11:37 03.04.2020
101 Fog 5 1040 93 4000 4.6 120 11:18 03.04.2020
102 Fog 6 1040 93 4000 3.6 110 10:56 03.04.2020
103 Fog 6 1040 93 4000 3.6 110 10:37 03.04.2020
104 Fog 6 1040 93 4000 3.6 110 10:18 03.04.2020
105 Fog 6 1041 93 4000 5.1 100 09:55 03.04.2020
106 Fog 6 1041 93 4000 5.1 100 09:37 03.04.2020
107 Fog 6 1041 93 4000 5.1 100 09:18 03.04.2020
108 Clouds 7 1041 81 10000 3.6 110 08:43 03.04.2020
109 Clouds 7 1041 81 10000 3.6 110 08:22 03.04.2020
110 Clouds 8 1041 65 10000 4.6 90 07:50 03.04.2020
111 Clouds 8 1041 65 10000 4.6 90 07:32 03.04.2020
112 Clouds 8 1042 65 10000 4.1 40 06:55 03.04.2020
113 Clouds 8 1042 65 10000 4.1 40 06:25 03.04.2020
114 Clouds 8 1042 65 10000 7.7 80 05:42 03.04.2020
115 Clouds 9 1040 70 10000 3.6 70 03:47 03.04.2020
116 Clouds 9 1040 70 10000 3.6 70 03:29 03.04.2020
117 Clouds 9 1040 66 10000 3.1 80 02:29 03.04.2020
118 Clouds 11 1039 57 10000 5.1 110 01:24 03.04.2020
119 Clouds 15 1038 25 10000 4.1 80 00:41 03.04.2020
120 Clouds 15 1038 19 10000 4.1 80 00:20 03.04.2020
121 Clouds 15 1038 33 10000 3.1 70 23:42 02.04.2020
122 Clouds 15 1038 33 10000 3.1 70 23:42 02.04.2020
123 Clouds 15 1038 33 10000 3.1 70 23:23 02.04.2020
124 Clouds 16 1039 31 10000 6.2 40 22:59 02.04.2020
125 Clouds 16 1039 31 10000 6.2 40 22:41 02.04.2020
126 -273 0 0 0 0 0 22:20 02.04.2020
127 Clouds 17 1040 19 10000 7.2 40 21:54 02.04.2020
128 Clouds 17 1040 19 10000 7.2 40 21:36 02.04.2020
129 Clouds 17 1040 18 10000 7.2 40 21:18 02.04.2020
130 Clouds 17 1041 33 10000 5.1 90 20:42 02.04.2020
131 Clouds 17 1041 33 10000 5.1 90 20:22 02.04.2020
132 Clouds 16 1041 38 10000 4.6 70 19:45 02.04.2020
133 Clouds 16 1041 38 10000 4.6 70 19:21 02.04.2020
134 Clouds 15 1042 44 10000 4.6 80 19:00 02.04.2020
135 Clouds 15 1042 44 10000 4.6 80 18:41 02.04.2020
136 Clouds 15 1042 44 10000 4.6 80 18:21 02.04.2020
137 Clouds 14 1043 50 10000 3.6 100 17:57 02.04.2020
138 Clouds 14 1043 50 10000 3.6 100 17:39 02.04.2020
139 Clouds 14 1043 50 10000 3.6 100 17:20 02.04.2020
140 Clouds 13 1043 54 10000 2.6 70 16:56 02.04.2020
141 Clouds 13 1043 54 10000 2.6 70 16:37 02.04.2020
142 Clouds 13 1043 54 10000 2.6 70 16:19 02.04.2020
143 Clouds 11 1043 62 10000 2.1 50 15:45 02.04.2020
144 Clouds 11 1043 62 10000 2.1 50 15:22 02.04.2020
145 Clouds 7 1042 81 10000 1 0 14:59 02.04.2020
146 Clouds 7 1042 81 10000 1 0 14:40 02.04.2020
147 Clouds 7 1042 81 10000 1 0 14:20 02.04.2020
148 Clouds 4 1041 93 10000 1.5 60 13:58 02.04.2020
149 Clouds 4 1041 93 10000 1.5 60 13:38 02.04.2020
150 Clouds 6 1041 87 10000 3.6 110 13:20 02.04.2020
151 Clouds 6 1041 87 10000 3.6 110 12:56 02.04.2020
152 Clouds 6 1041 87 10000 3.6 110 12:37 02.04.2020
153 Fog 6 1041 100 3000 2.6 140 12:19 02.04.2020
154 Fog 6 1041 100 3000 2.6 140 11:56 02.04.2020
155 Fog 6 1041 100 3000 2.6 140 11:37 02.04.2020
156 Fog 6 1041 100 3000 2.6 140 11:37 02.04.2020
157 Fog 6 1041 100 3000 2.6 140 11:18 02.04.2020
158 Fog 6 1040 93 4000 3.1 80 10:54 02.04.2020
159 Fog 6 1040 93 4000 3.1 80 10:36 02.04.2020
160 Fog 6 1040 93 4000 3.1 80 10:36 02.04.2020
161 Fog 6 1040 93 4000 3.1 80 10:18 02.04.2020
162 Mist 6 1040 100 2500 2.6 90 09:42 02.04.2020
163 Mist 6 1040 100 2500 2.6 90 09:24 02.04.2020
164 Fog 6 1040 93 4000 1 0 08:58 02.04.2020
165 Fog 6 1040 93 4000 1 0 08:39 02.04.2020
166 Fog 6 1040 93 4000 1 0 08:19 02.04.2020
167 Fog 6 1041 93 4000 1 0 07:42 02.04.2020
168 Fog 6 1041 93 4000 1 0 07:19 02.04.2020
169 Fog 6 1041 93 4000 2.6 60 06:46 02.04.2020
170 Clouds 7 1041 93 10000 2.6 120 06:20 02.04.2020
171 Clouds 7 1041 93 10000 2.6 120 05:42 02.04.2020
172 Clouds 9 1038 76 10000 3.1 80 02:59 02.04.2020
173 Clouds 10 1037 61 10000 3.6 40 01:30 02.04.2020
174 Clouds 14 1037 44 10000 5.1 100 00:42 02.04.2020
175 Clouds 14 1037 44 10000 5.1 100 00:24 02.04.2020
176 Clouds 14 1038 47 10000 5.7 70 23:41 01.04.2020
177 Clouds 14 1038 47 10000 5.7 70 23:20 01.04.2020
178 Clouds 15 1037 44 10000 6.2 130 22:58 01.04.2020
179 Clouds 15 1037 44 10000 6.2 130 22:58 01.04.2020
180 Clouds 15 1037 44 10000 6.2 130 22:39 01.04.2020
181 Clouds 15 1037 44 10000 6.2 130 22:21 01.04.2020
182 Clouds 16 1038 44 10000 4.6 120 21:42 01.04.2020
183 Clouds 16 1038 44 10000 4.6 120 21:22 01.04.2020
184 Clouds 14 1039 54 10000 5.1 120 20:58 01.04.2020
185 Clouds 14 1039 54 10000 5.1 120 20:58 01.04.2020
186 Clouds 14 1039 54 10000 5.1 120 20:40 01.04.2020
187 Clouds 14 1039 54 10000 5.1 120 20:21 01.04.2020
188 Clouds 14 1040 54 10000 4.1 130 19:59 01.04.2020
189 Clouds 14 1040 54 10000 4.1 130 19:41 01.04.2020
190 Clouds 14 1040 54 10000 4.1 130 19:20 01.04.2020
191 Rain 14 1015 18 0 3.1 76 18:44 01.04.2020
192 Clouds 11 1041 71 10000 3.1 130 18:26 01.04.2020
193 Clouds 11 1041 71 10000 3.1 130 17:58 01.04.2020
194 Clouds 11 1041 71 10000 3.1 130 17:38 01.04.2020
195 Clouds 11 1041 71 10000 3.1 130 17:19 01.04.2020
196 Clouds 10 1041 71 10000 3.6 120 16:58 01.04.2020
197 Clouds 10 1041 71 10000 3.6 120 16:58 01.04.2020
198 Clouds 10 1041 71 10000 3.6 120 16:39 01.04.2020
199 Clouds 10 1041 71 10000 3.6 120 16:21 01.04.2020
200 Clouds 9 1041 70 6000 2.1 100 15:57 01.04.2020
201 Clouds 9 1041 70 6000 2.1 100 15:57 01.04.2020
202 Clouds 9 1041 70 6000 2.1 100 15:38 01.04.2020
203 Clouds 9 1041 70 6000 2.1 100 15:18 01.04.2020
204 Fog 6 1041 93 4000 2.1 140 14:55 01.04.2020
205 Fog 6 1041 93 4000 2.1 140 14:55 01.04.2020
206 Fog 6 1041 93 4000 2.1 140 14:36 01.04.2020
207 Fog 6 1041 93 4000 2.1 140 14:18 01.04.2020
208 Fog 4 1040 93 4000 1 0 13:55 01.04.2020
209 Fog 4 1040 93 4000 1 0 13:36 01.04.2020
210 Fog 4 1040 93 4000 1 0 13:18 01.04.2020
211 Clouds 4 1039 86 10000 1.71 61 12:42 01.04.2020
212 Clouds 4 1039 86 10000 1.71 61 12:23 01.04.2020
213 Clouds 5 1039 86 10000 1 0 11:59 01.04.2020
214 Clouds 6 1019 27 0 1.9 67 11:39 01.04.2020
215 Clouds 5 1038 93 10000 1 0 11:20 01.04.2020
216 Clouds 5 1038 93 10000 1 0 10:41 01.04.2020
217 Clouds 5 1038 93 10000 1 0 10:22 01.04.2020
218 Clouds 6 1038 87 10000 1 0 09:59 01.04.2020
219 Clouds 6 1038 87 10000 1 0 09:40 01.04.2020
220 Clouds 6 1038 87 10000 1 0 09:20 01.04.2020
221 Rain 6 1039 93 4000 7.2 100 08:56 01.04.2020
222 Rain 6 1039 93 4000 7.2 100 08:37 01.04.2020
223 Rain 6 1039 93 4000 7.2 100 08:18 01.04.2020
224 Rain 7 1040 93 4000 6.2 120 07:41 01.04.2020
225 Fog 6 1040 93 4000 3.6 90 07:19 01.04.2020
226 Fog 6 1040 93 4000 3.6 90 06:43 01.04.2020
227 Fog 6 1040 93 4000 3.6 90 06:21 01.04.2020
228 Fog 6 1039 93 4000 3.1 70 05:41 01.04.2020
229 Clouds 7 1039 87 10000 2.1 110 03:57 01.04.2020
230 Clouds 7 1039 87 10000 2.1 110 03:19 01.04.2020
231 Clouds 7 1038 87 10000 2.1 70 02:36 01.04.2020
232 Clouds 9 1038 76 10000 3.1 100 01:53 01.04.2020
233 Clouds 9 1038 76 10000 3.1 100 01:25 01.04.2020
234 Clouds 12 1037 66 10000 4.1 110 00:47 01.04.2020
235 Clouds 12 1037 66 10000 4.1 110 00:22 01.04.2020
236 Clouds 14 1037 54 10000 3.6 90 23:57 31.03.2020
237 Clouds 14 1037 54 10000 3.6 90 23:57 31.03.2020
238 Clouds 14 1037 54 10000 3.6 90 23:38 31.03.2020
239 Clouds 14 1037 54 10000 3.6 90 23:19 31.03.2020
240 Clouds 14 1037 54 10000 4.1 100 22:41 31.03.2020
241 Clouds 14 1037 54 10000 4.1 100 22:21 31.03.2020
242 Clouds 14 1038 54 10000 5.7 90 21:58 31.03.2020
243 Clouds 14 1038 54 10000 5.7 90 21:40 31.03.2020
244 Clouds 14 1038 54 10000 5.7 90 21:21 31.03.2020
245 Clouds 13 1039 58 10000 4.6 70 20:57 31.03.2020
246 Clouds 13 1039 58 10000 4.6 70 20:57 31.03.2020
247 Clouds 13 1039 58 10000 4.6 70 20:37 31.03.2020
248 Clouds 13 1039 58 10000 4.6 70 20:19 31.03.2020
249 Clouds 13 1040 58 10000 4.1 60 19:55 31.03.2020
250 Clouds 13 1040 58 10000 4.1 60 19:37 31.03.2020
251 Clouds 13 1040 58 10000 4.6 70 19:18 31.03.2020
252 Clouds 13 1040 58 10000 4.6 70 18:43 31.03.2020
253 Clouds 11 1041 66 10000 3.6 50 18:20 31.03.2020
254 Clouds 11 1041 66 10000 3.6 50 17:56 31.03.2020
255 Clouds 11 1041 66 10000 3.6 50 17:56 31.03.2020
256 Clouds 11 1041 66 10000 3.6 50 17:38 31.03.2020
257 Clouds 11 1041 66 10000 3.6 50 17:38 31.03.2020
258 Clouds 11 1041 66 10000 3.6 50 17:20 31.03.2020
259 Clouds 10 1041 71 10000 1 0 16:42 31.03.2020
260 Clouds 10 1041 71 10000 1 0 16:20 31.03.2020
261 Clouds 7 1040 87 10000 2.1 30 15:59 31.03.2020
262 Clouds 7 1040 87 10000 2.1 30 15:41 31.03.2020
263 Clouds 7 1040 87 10000 2.1 30 15:23 31.03.2020
264 Rain 6 1040 93 6000 3.6 90 14:59 31.03.2020
265 Rain 6 1040 93 6000 3.6 90 14:40 31.03.2020
266 Rain 6 1040 93 6000 3.6 90 14:21 31.03.2020
267 Rain 6 1039 93 4000 3.1 120 13:54 31.03.2020
268 Rain 6 1039 93 4000 3.1 120 13:36 31.03.2020
269 Rain 6 1039 93 4000 3.1 120 13:18 31.03.2020
270 Rain 6 1038 93 4000 4.1 120 12:42 31.03.2020
271 Rain 6 1038 93 4000 4.1 120 12:20 31.03.2020
272 Clouds 6 1038 93 10000 2.1 60 11:55 31.03.2020
273 Clouds 7 1019 28 0 2.14 74 11:36 31.03.2020
274 Clouds 6 1038 93 10000 3.6 70 11:18 31.03.2020
275 Clouds 6 1038 93 10000 3.6 70 10:54 31.03.2020
276 Clouds 6 1038 93 10000 3.6 70 10:36 31.03.2020
277 Clouds 6 1038 93 10000 3.6 70 10:18 31.03.2020
278 Clouds 7 1038 87 10000 3.1 70 09:42 31.03.2020
279 Clouds 7 1038 87 10000 3.1 70 09:24 31.03.2020
280 Rain 7 1039 93 4000 4.1 110 08:57 31.03.2020
281 Rain 7 1039 93 4000 4.1 110 08:39 31.03.2020
282 Rain 7 1039 93 4000 4.1 110 08:19 31.03.2020
283 Fog 7 1039 93 4000 4.1 110 07:56 31.03.2020
284 Fog 7 1039 93 4000 4.1 110 07:56 31.03.2020
285 Fog 7 1039 93 4000 4.1 110 07:38 31.03.2020
286 Fog 7 1039 93 4000 4.1 110 07:19 31.03.2020
287 Fog 7 1039 93 4000 4.6 80 06:46 31.03.2020
288 Fog 7 1039 93 4000 4.6 80 06:20 31.03.2020
289 Clouds 7 1039 93 10000 5.7 100 05:39 31.03.2020
290 Clouds 7 1039 87 10000 3.6 70 03:34 31.03.2020
291 Clouds 10 1037 66 10000 5.1 100 01:59 31.03.2020
292 Clouds 10 1037 66 10000 5.1 100 01:40 31.03.2020
293 Clouds 13 1037 54 10000 5.1 120 00:47 31.03.2020
294 Clouds 13 1037 54 10000 5.1 120 00:25 31.03.2020
295 Clouds 14 1037 50 10000 5.1 110 23:42 30.03.2020
296 Clouds 14 1037 50 10000 4.1 100 23:20 30.03.2020
297 Clouds 14 1037 50 10000 4.1 100 22:59 30.03.2020
298 Clouds 14 1037 50 10000 4.1 100 22:39 30.03.2020
299 Clouds 14 1037 50 10000 4.1 100 22:21 30.03.2020
300 Clouds 15 1038 47 10000 4.1 100 21:58 30.03.2020
301 Clouds 15 1038 47 10000 4.1 100 21:39 30.03.2020
302 Clouds 15 1038 47 10000 4.1 100 21:39 30.03.2020
303 Clouds 15 1038 47 10000 4.1 100 21:21 30.03.2020
304 Clouds 14 1039 54 10000 5.1 80 20:59 30.03.2020
305 Clouds 14 1039 54 10000 5.1 80 20:39 30.03.2020
306 Clouds 14 1039 54 10000 5.1 80 20:20 30.03.2020
307 Clouds 13 1041 54 10000 4.1 90 19:57 30.03.2020
308 Clouds 13 1041 54 10000 4.1 90 19:39 30.03.2020
309 Clouds 13 1041 54 10000 4.1 90 19:20 30.03.2020
310 Clouds 12 1042 62 10000 4.1 90 18:43 30.03.2020
311 Clouds 12 1042 62 10000 4.1 90 18:25 30.03.2020
312 Clouds 11 1042 62 10000 4.6 90 17:58 30.03.2020
313 Clouds 11 1042 62 10000 4.6 90 17:39 30.03.2020
314 Clouds 11 1042 62 10000 4.6 90 17:39 30.03.2020
315 Clouds 11 1042 62 10000 4.6 90 17:20 30.03.2020
316 Clouds 10 1042 71 10000 3.1 80 16:58 30.03.2020
317 Clouds 10 1042 71 10000 3.1 80 16:39 30.03.2020
318 Clouds 10 1042 71 10000 3.1 80 16:20 30.03.2020
319 Clouds 10 1042 71 10000 3.1 80 16:20 30.03.2020
320 Clouds 7 1042 87 10000 2.1 80 15:55 30.03.2020
321 Clouds 7 1042 87 10000 2.1 80 15:37 30.03.2020
322 Clouds 7 1042 87 10000 2.1 80 15:19 30.03.2020
323 Fog 6 1041 93 4000 4.1 90 14:55 30.03.2020
324 Fog 6 1041 93 4000 4.1 90 14:37 30.03.2020
325 Fog 6 1041 93 4000 4.1 90 14:18 30.03.2020
326 Fog 5 1040 93 4000 2.1 330 13:54 30.03.2020
327 Fog 5 1040 93 4000 2.1 330 13:36 30.03.2020
328 Fog 5 1040 93 4000 2.1 330 13:36 30.03.2020
329 Fog 5 1040 93 4000 2.1 330 13:18 30.03.2020
330 Fog 4 1038 93 4000 3.1 80 12:41 30.03.2020
331 Fog 4 1038 93 4000 3.1 80 12:20 30.03.2020
332 Fog 3 1038 93 4000 3.1 80 11:57 30.03.2020
333 Fog 3 1038 93 4000 3.1 80 11:39 30.03.2020
334 Fog 3 1038 93 4000 3.1 80 11:21 30.03.2020
335 Fog 3 1038 93 4000 2.1 90 10:41 30.03.2020
336 Fog 3 1038 93 4000 2.1 90 10:22 30.03.2020
337 Fog 4 1039 93 4000 2.6 100 09:57 30.03.2020
338 Fog 4 1039 93 4000 2.6 100 09:57 30.03.2020
339 Fog 4 1039 93 4000 2.6 100 09:38 30.03.2020
340 Fog 6 1039 93 4000 3.1 100 09:19 30.03.2020
341 Fog 6 1039 93 4000 3.1 100 08:42 30.03.2020
342 Fog 6 1039 93 4000 3.1 100 08:22 30.03.2020
343 Clouds 7 1040 75 10000 5.1 80 07:50 30.03.2020
344 Clouds 7 1040 81 10000 3.6 80 07:31 30.03.2020
345 Clouds 7 1040 81 10000 3.6 80 06:57 30.03.2020
346 Clouds 7 1040 81 10000 3.6 80 06:33 30.03.2020
347 Clouds 7 1040 81 10000 5.1 90 05:54 30.03.2020
348 Clouds 7 1040 81 10000 5.1 90 05:22 30.03.2020
349 Clouds 7 1039 87 10000 4.6 80 04:23 30.03.2020
350 Clouds 8 1039 65 10000 4.1 100 03:44 30.03.2020
351 Clouds 10 1038 53 10000 4.1 60 02:39 30.03.2020
352 Clouds 10 1037 61 10000 4.1 70 01:44 30.03.2020
353 Clouds 14 1036 50 10000 6.2 110 00:49 30.03.2020
354 Clouds 14 1036 50 10000 6.2 110 00:22 30.03.2020
355 Clouds 15 1036 47 10000 6.7 130 23:42 29.03.2020
356 Clouds 15 1036 51 10000 6.7 100 23:23 29.03.2020
357 Clouds 15 1036 51 10000 6.7 100 22:57 29.03.2020
358 Clouds 15 1036 51 10000 6.7 100 22:38 29.03.2020
359 Clouds 15 1036 51 10000 6.7 100 22:19 29.03.2020
360 Clouds 16 1037 48 10000 5.1 100 21:55 29.03.2020
361 Clouds 16 1037 48 10000 5.1 100 21:36 29.03.2020
362 Clouds 16 1037 48 10000 5.1 100 21:36 29.03.2020
363 Clouds 16 1037 48 10000 5.1 100 21:18 29.03.2020
364 Clouds 16 1037 48 8000 6.7 110 20:54 29.03.2020
365 Clouds 16 1037 48 8000 6.7 110 20:36 29.03.2020
366 Clouds 16 1037 48 8000 6.7 110 20:18 29.03.2020
367 Clouds 16 1038 48 10000 6.2 120 19:42 29.03.2020
368 Clouds 16 1038 48 10000 6.2 120 19:24 29.03.2020
369 Clouds 14 1039 58 10000 6.7 120 18:57 29.03.2020
370 Clouds 14 1039 58 10000 6.7 120 18:39 29.03.2020
371 Clouds 30 1015 70 10000 4.1 350 18:20 29.03.2020
372 Clouds 30 1015 70 10000 4.1 350 17:57 29.03.2020
373 Clouds 30 1015 70 10000 4.1 350 17:39 29.03.2020
374 Clouds 30 1015 70 10000 4.1 350 17:20 29.03.2020
375 Clouds 10 1040 76 10000 5.1 110 16:57 29.03.2020
376 Clouds 10 1040 76 10000 5.1 110 16:39 29.03.2020
377 Clouds 10 1040 76 10000 5.1 110 16:20 29.03.2020
378 Clouds 10 1039 76 8000 4.1 110 15:43 29.03.2020
379 Clouds 10 1039 76 8000 4.1 110 15:25 29.03.2020
380 Clouds 7 1038 87 6000 1 0 14:59 29.03.2020
381 Clouds 7 1038 87 6000 1 0 14:40 29.03.2020
382 Clouds 7 1038 87 6000 1 0 14:20 29.03.2020
383 Fog 5 1037 100 4000 1 0 13:58 29.03.2020
384 Fog 5 1037 100 4000 1 0 13:40 29.03.2020
385 Fog 5 1037 100 4000 1 0 13:21 29.03.2020
386 Fog 5 1037 93 4000 1.5 90 12:57 29.03.2020
387 Fog 5 1037 93 4000 1.5 90 12:38 29.03.2020
388 Fog 2 1036 100 4000 1 0 12:19 29.03.2020
389 Fog 2 1036 100 4000 1 0 11:55 29.03.2020
390 Fog 2 1036 100 4000 1 0 11:37 29.03.2020
391 Fog 2 1036 100 4000 1 0 11:19 29.03.2020
392 Fog 4 1036 100 4000 2.1 10 10:38 29.03.2020
393 Fog 4 1036 100 4000 2.1 10 10:19 29.03.2020
394 Fog 4 1036 100 4000 1 0 09:41 29.03.2020
395 Fog 4 1036 100 4000 1 0 09:22 29.03.2020
396 Fog 5 1037 93 4000 1 0 08:56 29.03.2020
397 Fog 5 1037 93 4000 1 0 08:38 29.03.2020
398 Fog 5 1037 93 4000 1 0 08:19 29.03.2020
399 Fog 5 1037 100 4000 1.5 80 07:42 29.03.2020
400 Fog 5 1037 100 4000 1.5 80 07:21 29.03.2020
401 Fog 5 1037 86 4000 1.5 70 05:50 29.03.2020
402 Clouds 7 1037 81 10000 3.6 60 04:29 29.03.2020
403 Clouds 7 1036 81 10000 4.1 70 03:31 29.03.2020
404 Clouds 8 1035 75 10000 4.1 70 01:51 29.03.2020
405 Clouds 8 1035 75 10000 4.1 70 01:23 29.03.2020
406 Clouds 10 1034 66 10000 4.1 70 00:58 29.03.2020
407 Clouds 10 1034 66 10000 4.1 70 00:33 29.03.2020
408 Clouds 12 1033 58 10000 5.7 70 23:57 28.03.2020
409 Clouds 12 1033 58 10000 5.7 70 23:39 28.03.2020
410 Clouds 13 1033 54 10000 4.1 60 23:19 28.03.2020
411 Clouds 13 1033 54 10000 4.1 60 22:41 28.03.2020
412 Clouds 13 1033 54 10000 4.1 60 22:22 28.03.2020
413 Clouds 12 1034 66 10000 4.6 80 21:56 28.03.2020
414 Clouds 12 1034 66 10000 4.6 80 21:37 28.03.2020
415 Clouds 12 1034 66 10000 4.6 80 21:18 28.03.2020
416 Clouds 13 1035 62 10000 4.6 80 20:42 28.03.2020
417 Clouds 13 1035 62 10000 4.6 80 20:24 28.03.2020
418 Clouds 14 1035 58 10000 4.6 80 19:58 28.03.2020
419 Clouds 14 1035 58 10000 4.6 80 19:39 28.03.2020
420 Clouds 14 1035 58 10000 4.6 80 19:21 28.03.2020
421 Clouds 13 1036 62 10000 3.1 130 18:58 28.03.2020
422 Clouds 13 1036 62 10000 3.1 130 18:39 28.03.2020
423 Clouds 13 1036 62 10000 3.1 130 18:19 28.03.2020
424 Clouds 13 1037 62 10000 3.1 140 17:39 28.03.2020
425 Clouds 13 1037 62 10000 3.1 140 17:20 28.03.2020
426 Clouds 12 1037 66 10000 3.6 90 16:55 28.03.2020
427 Clouds 12 1037 66 10000 3.6 90 16:37 28.03.2020
428 Clouds 12 1037 66 10000 3.6 90 16:18 28.03.2020
429 Clouds 10 1037 76 6000 3.6 80 15:39 28.03.2020
430 Clouds 10 1037 76 6000 3.6 80 15:19 28.03.2020
431 Clouds 8 1037 81 6000 3.6 90 14:55 28.03.2020
432 Clouds 8 1037 81 6000 3.6 90 14:37 28.03.2020
433 Clouds 8 1037 81 6000 3.6 90 14:18 28.03.2020
434 Fog 7 1036 87 4000 3.6 90 13:38 28.03.2020
435 Fog 7 1036 87 4000 3.6 90 13:20 28.03.2020
436 Fog 6 1035 93 4000 2.1 70 12:39 28.03.2020
437 Fog 6 1035 93 4000 2.1 70 12:21 28.03.2020
438 Fog 6 1034 93 3000 3.6 100 11:42 28.03.2020
439 Fog 6 1034 93 3000 3.6 100 11:23 28.03.2020
440 Fog 5 1034 100 4000 3.1 90 10:56 28.03.2020
441 Fog 5 1034 100 4000 3.1 90 10:38 28.03.2020
442 Fog 5 1034 100 4000 3.1 90 10:18 28.03.2020
443 Fog 5 1034 93 4000 2.6 80 09:41 28.03.2020
444 Fog 5 1034 93 4000 2.6 80 09:23 28.03.2020
445 Clouds 3 1034 93 10000 2.1 100 08:46 28.03.2020
446 Clouds 3 1034 93 10000 2.1 100 08:27 28.03.2020
447 Fog 5 1034 93 4000 2.1 30 07:59 28.03.2020
448 Fog 5 1034 93 4000 2.1 30 07:41 28.03.2020
449 Fog 6 1035 93 4000 2.1 80 06:55 28.03.2020
450 Fog 6 1035 93 4000 2.1 80 06:32 28.03.2020
451 Fog 7 1036 93 4000 1 0 05:40 28.03.2020
452 Fog 7 1036 93 4000 1 0 05:19 28.03.2020
453 Fog 7 1035 93 3000 2.6 130 04:39 28.03.2020
454 Clouds 8 1034 87 10000 2.1 90 02:55 28.03.2020
455 Clouds 8 1034 81 10000 3.1 80 01:48 28.03.2020
456 Clouds 8 1034 81 10000 3.1 80 01:24 28.03.2020
457 Clouds 9 1033 76 10000 2.6 60 00:52 28.03.2020
458 Clouds 9 1033 76 10000 2.6 60 00:28 28.03.2020
459 Thunderstorm 9 1034 70 10000 3.1 180 23:44 27.03.2020
460 Thunderstorm 9 1034 70 10000 3.1 180 23:26 27.03.2020
461 Thunderstorm 11 1033 57 10000 4.1 270 22:57 27.03.2020
462 Thunderstorm 11 1033 57 10000 5.1 270 22:39 27.03.2020
463 Thunderstorm 11 1033 57 10000 5.1 270 22:21 27.03.2020
464 Clouds 15 1032 44 10000 5.1 90 21:58 27.03.2020
465 Clouds 15 1032 44 10000 5.1 90 21:40 27.03.2020
466 Clouds 15 1032 44 10000 5.1 90 21:22 27.03.2020
467 Clouds 14 1033 50 10000 3.6 60 20:57 27.03.2020
468 Clouds 14 1033 50 10000 3.6 60 20:38 27.03.2020
469 Clouds 14 1033 50 10000 3.6 60 20:19 27.03.2020
470 Clouds 15 1034 51 10000 3.1 110 19:44 27.03.2020
471 Clouds 15 1034 51 10000 3.1 110 19:23 27.03.2020
472 Clouds 14 1035 58 10000 3.6 150 18:57 27.03.2020
473 Clouds 14 1035 58 10000 3.6 150 18:39 27.03.2020
474 Clouds 14 1035 58 10000 3.6 150 18:20 27.03.2020
475 Clouds 12 1036 66 10000 3.6 130 17:41 27.03.2020
476 Clouds 10 1036 71 10000 1 0 17:21 27.03.2020
477 Clouds 10 1036 71 10000 1 0 16:57 27.03.2020
478 Clouds 10 1036 71 10000 1 0 16:39 27.03.2020
479 Clouds 10 1036 71 10000 1 0 16:20 27.03.2020
480 Clouds 9 1036 76 6000 1 0 15:42 27.03.2020
481 Clouds 9 1036 76 6000 1 0 15:24 27.03.2020
482 Clouds 7 1036 87 6000 2.1 120 14:48 27.03.2020
483 Clouds 7 1036 87 6000 2.1 120 14:27 27.03.2020
484 Fog 6 1035 93 4000 4.1 100 13:58 27.03.2020
485 Fog 6 1035 93 4000 4.1 100 13:40 27.03.2020
486 Fog 6 1035 93 4000 4.1 100 13:21 27.03.2020
487 Fog 5 1034 100 4000 3.1 70 12:57 27.03.2020
488 Fog 5 1034 100 4000 3.1 70 12:38 27.03.2020
489 Fog 5 1034 100 4000 3.1 70 12:18 27.03.2020
490 Fog 5 1034 100 3000 2.1 90 11:41 27.03.2020
491 Fog 3 1034 100 3000 2.1 70 11:23 27.03.2020
492 Fog 3 1034 100 3000 2.1 70 10:55 27.03.2020
493 Fog 3 1034 100 3000 2.1 70 10:37 27.03.2020
494 Fog 3 1034 100 3000 2.1 70 10:37 27.03.2020
495 Fog 3 1034 100 3000 2.1 70 10:18 27.03.2020
496 Fog 3 1034 100 4000 1 0 09:56 27.03.2020
497 Fog 3 1034 100 4000 1 0 09:37 27.03.2020
498 Fog 3 1034 100 4000 1 0 09:18 27.03.2020
499 Fog 3 1034 100 4000 0.35 278 08:55 27.03.2020
500 Fog 3 1034 100 4000 0.35 278 08:37 27.03.2020
501 Fog 3 1034 100 4000 1.65 42 08:18 27.03.2020
502 Clouds 5 1034 93 10000 1.5 40 07:49 27.03.2020
503 Clouds 5 1034 93 10000 1.5 40 07:23 27.03.2020
504 Clouds 5 1035 86 10000 2.1 90 06:46 27.03.2020
505 Clouds 5 1035 86 10000 2.1 90 06:27 27.03.2020
506 Clouds 8 1036 87 10000 2.6 110 04:21 27.03.2020
507 Thunderstorm 9 1036 81 10000 5.1 130 02:25 27.03.2020
508 Thunderstorm 9 1035 81 10000 6.2 100 01:22 27.03.2020
509 Clouds 10 1035 76 10000 2.6 90 00:47 27.03.2020
510 Clouds 10 1035 76 10000 2.6 90 00:23 27.03.2020
511 Clouds 12 1034 62 10000 2.1 70 23:42 26.03.2020
512 Clouds 13 1033 62 10000 4.6 110 23:19 26.03.2020
513 Clouds 13 1033 62 10000 4.6 110 22:58 26.03.2020
514 Clouds 13 1033 62 10000 4.6 110 22:58 26.03.2020
515 Clouds 13 1033 62 10000 4.6 110 22:37 26.03.2020
516 Clouds 13 1033 62 10000 4.6 110 22:18 26.03.2020
517 Clouds 14 1033 47 10000 3.6 340 21:40 26.03.2020
518 Clouds 14 1033 47 10000 3.6 340 21:22 26.03.2020
519 Clouds 13 1034 50 10000 3.1 290 20:59 26.03.2020
520 Clouds 13 1034 50 10000 3.1 290 20:40 26.03.2020
521 Clouds 13 1034 50 10000 3.1 290 20:22 26.03.2020
522 Clouds 15 1035 41 10000 5.1 80 19:58 26.03.2020
523 Clouds 15 1035 41 10000 5.1 80 19:40 26.03.2020
524 Clouds 15 1035 41 10000 5.1 80 19:21 26.03.2020
525 Thunderstorm 16 1036 48 10000 6.2 100 18:58 26.03.2020
526 Thunderstorm 16 1036 48 10000 6.2 100 18:40 26.03.2020
527 Thunderstorm 15 1037 54 10000 4.6 110 18:21 26.03.2020
528 Thunderstorm 15 1037 54 10000 4.6 110 17:45 26.03.2020
529 Clouds 12 1037 66 10000 4.1 120 17:20 26.03.2020
530 Clouds 12 1037 66 10000 4.1 120 16:57 26.03.2020
531 Clouds 12 1037 66 10000 4.1 120 16:38 26.03.2020
532 Clouds 12 1037 66 10000 4.1 120 16:38 26.03.2020
533 Clouds 12 1037 66 10000 4.1 120 16:19 26.03.2020
534 Clouds 12 1037 71 10000 2.6 140 15:54 26.03.2020
535 Clouds 12 1037 71 10000 2.6 140 15:36 26.03.2020
536 Clouds 12 1037 71 10000 2.6 140 15:18 26.03.2020
537 Clouds 10 1037 76 10000 2.1 100 14:42 26.03.2020
538 Clouds 10 1037 76 10000 2.1 100 14:24 26.03.2020
539 Fog 7 1037 100 4000 2.6 80 13:54 26.03.2020
540 Fog 7 1037 100 4000 2.6 80 13:36 26.03.2020
541 Fog 7 1037 100 4000 2.6 80 13:18 26.03.2020
542 Fog 6 1036 100 3000 3.6 90 12:38 26.03.2020
543 Fog 6 1036 100 4000 2.6 80 12:20 26.03.2020
544 Fog 6 1036 100 4000 2.6 80 11:46 26.03.2020
545 Fog 6 1036 100 4000 2.6 80 11:22 26.03.2020
546 Fog 6 1035 100 4000 3.1 70 10:56 26.03.2020
547 Fog 6 1035 100 4000 3.1 70 10:38 26.03.2020
548 Fog 6 1035 100 4000 3.1 70 10:19 26.03.2020
549 Fog 4 1035 100 4000 2.1 100 09:44 26.03.2020
550 -273 0 0 0 0 0 09:20 26.03.2020
551 Fog 6 1035 93 4000 2.1 70 08:56 26.03.2020
552 Fog 6 1035 93 4000 2.1 70 08:37 26.03.2020
553 Fog 6 1035 93 4000 2.1 70 08:18 26.03.2020
554 Fog 7 1036 93 3000 2.6 90 07:44 26.03.2020
555 Fog 7 1036 93 3000 2.6 90 07:21 26.03.2020
556 Fog 8 1037 93 4000 3.1 90 06:56 26.03.2020
557 Fog 8 1037 100 4000 3.6 70 05:59 26.03.2020
558 Fog 8 1037 93 4000 2.1 80 04:33 26.03.2020
559 Fog 8 1037 93 4000 3.1 70 03:44 26.03.2020
560 Clouds 10 1036 76 10000 3.1 90 02:55 26.03.2020
561 Clouds 11 1035 71 10000 2.6 90 01:50 26.03.2020
562 Clouds 13 1035 58 10000 2.6 150 00:52 26.03.2020
563 Clouds 14 1034 54 10000 4.1 310 23:59 25.03.2020
564 Clouds 14 1034 54 10000 4.1 310 23:40 25.03.2020
565 Clouds 14 1034 54 10000 4.1 310 23:20 25.03.2020
566 Clouds 14 1034 50 10000 6.2 310 22:39 25.03.2020
567 Clouds 14 1034 50 10000 6.2 310 22:20 25.03.2020
568 Clouds 19 1034 21 10000 4.1 90 21:56 25.03.2020
569 Clouds 19 1034 21 10000 4.1 90 21:37 25.03.2020
570 Clouds 19 1034 21 10000 4.1 90 21:19 25.03.2020
571 Clouds 18 1035 36 10000 5.7 140 20:40 25.03.2020
572 Clouds 18 1035 36 10000 5.7 140 20:20 25.03.2020
573 Clouds 18 1036 36 10000 5.1 170 19:59 25.03.2020
574 Clouds 18 1036 36 10000 5.1 170 19:41 25.03.2020
575 Clouds 18 1036 36 10000 5.1 170 19:21 25.03.2020
576 Clouds 16 1037 48 10000 2.1 110 18:56 25.03.2020
577 Clouds 16 1037 48 10000 2.1 110 18:37 25.03.2020
578 Clouds 16 1037 48 10000 2.1 110 18:37 25.03.2020
579 Clouds 16 1038 48 10000 2.6 100 18:19 25.03.2020
580 Clouds 16 1038 48 10000 2.6 100 17:42 25.03.2020
581 Clouds 13 1039 62 10000 2.1 270 17:23 25.03.2020
582 Clouds 13 1039 62 10000 2.1 270 16:59 25.03.2020
583 Clouds 13 1039 62 10000 2.1 270 16:41 25.03.2020
584 Clouds 13 1039 62 10000 2.1 270 16:21 25.03.2020
585 Clouds 13 1039 66 10000 3.1 200 15:44 25.03.2020
586 Clouds 13 1039 66 10000 3.1 200 15:21 25.03.2020
587 Clouds 11 1039 71 10000 1 0 14:59 25.03.2020
588 Clouds 11 1039 71 10000 1 0 14:40 25.03.2020
589 Clouds 11 1039 71 10000 1 0 14:20 25.03.2020
590 Clouds 8 1039 93 6000 2.6 90 13:45 25.03.2020
591 Clouds 8 1039 93 6000 2.6 90 13:25 25.03.2020
592 Fog 6 1038 100 4000 1 0 12:40 25.03.2020
593 Fog 6 1038 100 4000 1 0 12:21 25.03.2020
594 Fog 4 1037 100 3000 2.1 70 11:59 25.03.2020
595 Fog 4 1037 100 3000 2.1 70 11:41 25.03.2020
596 Fog 4 1037 100 3000 2.1 70 11:21 25.03.2020
597 Fog 4 1037 100 3000 2.1 70 11:21 25.03.2020
598 Fog 5 1037 93 4000 1.5 70 10:58 25.03.2020
599 Fog 5 1037 93 4000 1.5 70 10:40 25.03.2020
600 Fog 5 1037 93 4000 1.5 70 10:18 25.03.2020
601 Fog 6 1037 100 4000 2.1 80 09:56 25.03.2020
602 Fog 6 1037 100 4000 2.1 80 09:38 25.03.2020
603 Fog 6 1037 100 4000 2.1 80 09:19 25.03.2020
604 Fog 6 1038 100 4000 2.1 80 08:41 25.03.2020
605 Fog 6 1038 100 4000 2.1 80 08:23 25.03.2020
606 Fog 5 1038 100 4000 2.6 70 07:55 25.03.2020
607 Fog 5 1038 100 4000 2.6 70 07:36 25.03.2020
608 Fog 5 1038 100 4000 2.6 70 07:18 25.03.2020
609 Fog 7 1039 100 4000 1 0 06:41 25.03.2020
610 Fog 7 1039 100 4000 1 0 06:22 25.03.2020
611 Fog 7 1039 93 4000 1 0 05:47 25.03.2020
612 Clouds 7 1039 87 10000 2.1 80 04:42 25.03.2020
613 Clouds 8 1039 87 10000 2.1 70 03:57 25.03.2020
614 Clouds 8 1039 87 10000 2.1 70 03:30 25.03.2020
615 Clouds 10 1037 61 10000 3.1 70 01:40 25.03.2020
616 Clouds 12 1037 54 10000 4.6 60 00:50 25.03.2020
617 Clouds 12 1037 54 10000 4.6 60 00:27 25.03.2020
618 Clouds 15 1036 44 10000 4.1 110 23:54 24.03.2020
619 Clouds 15 1036 44 10000 4.1 110 23:28 24.03.2020
620 Clouds 16 1036 44 10000 3.6 70 22:58 24.03.2020
621 Clouds 16 1036 44 10000 3.6 70 22:38 24.03.2020
622 Clouds 16 1036 44 10000 3.6 70 22:20 24.03.2020
623 Rain 14 1010 20 0 2.76 44 21:58 24.03.2020
624 Rain 14 1010 20 0 2.76 44 21:39 24.03.2020
625 Clouds 17 1038 39 10000 4.1 130 21:18 24.03.2020
626 Clouds 17 1038 39 10000 4.1 130 20:57 24.03.2020
627 Clouds 17 1038 39 10000 4.1 130 20:39 24.03.2020
628 Clouds 17 1038 39 10000 4.1 130 20:21 24.03.2020
629 Clouds 17 1039 45 10000 4.1 70 19:45 24.03.2020
630 Clouds 17 1039 45 10000 4.1 70 19:20 24.03.2020
631 Clouds 15 1040 47 10000 4.1 150 18:56 24.03.2020
632 Clouds 15 1040 47 10000 4.1 150 18:37 24.03.2020
633 Clouds 14 1041 50 10000 3.1 230 18:19 24.03.2020
634 Clouds 14 1041 50 10000 3.1 230 17:43 24.03.2020
635 Clouds 14 1041 50 10000 3.1 230 17:24 24.03.2020
636 Clouds 14 1042 50 10000 1 0 16:59 24.03.2020
637 Clouds 14 1042 50 10000 1 0 16:41 24.03.2020
638 Clouds 14 1042 50 10000 1 0 16:23 24.03.2020
639 Clouds 14 1042 50 10000 1 0 16:23 24.03.2020
640 Clouds 11 1042 66 10000 3.1 300 15:59 24.03.2020
641 Clouds 11 1042 66 10000 3.1 300 15:39 24.03.2020
642 Clouds 11 1042 66 10000 3.1 300 15:21 24.03.2020
643 Clouds 11 1042 66 10000 3.1 300 15:21 24.03.2020
644 Clouds 11 1042 66 10000 3.1 300 15:21 24.03.2020
645 Clouds 10 1042 71 6000 1 0 14:43 24.03.2020
646 Clouds 10 1042 71 6000 1 0 14:21 24.03.2020
647 Clouds 8 1041 81 6000 1.5 130 13:55 24.03.2020
648 Clouds 8 1041 81 6000 1.5 130 13:36 24.03.2020
649 Clouds 8 1041 81 6000 1.5 130 13:18 24.03.2020
650 Clouds 7 1040 87 10000 1.5 120 12:41 24.03.2020
651 Clouds 7 1040 87 10000 1.5 120 12:41 24.03.2020
652 Clouds 7 1040 87 10000 1.5 120 12:22 24.03.2020
653 Fog 6 1039 93 4000 1 0 11:41 24.03.2020
654 Fog 6 1039 93 4000 2.6 90 11:20 24.03.2020
655 Fog 6 1039 93 4000 2.6 90 10:55 24.03.2020
656 Fog 6 1039 93 4000 2.6 90 10:36 24.03.2020
657 Fog 6 1039 93 4000 2.6 90 10:18 24.03.2020
658 Clouds 3 1018 85 0 2.06 21 09:43 24.03.2020
659 Fog 6 1039 100 2000 2.1 110 09:24 24.03.2020
660 Fog 6 1039 100 2000 2.1 110 08:40 24.03.2020
661 Fog 6 1039 100 2000 2.1 110 08:21 24.03.2020
662 Fog 6 1039 93 3000 3.6 70 07:51 24.03.2020
663 Fog 6 1039 93 3000 3.6 70 07:25 24.03.2020
664 Fog 6 1040 93 4000 4.6 80 06:59 24.03.2020
665 Clouds 4 1019 84 0 2.33 28 06:33 24.03.2020
666 Fog 6 1040 93 4000 2.6 80 05:30 24.03.2020
667 Clouds 6 1041 93 10000 2.6 70 04:41 24.03.2020
668 Clouds 6 1041 93 10000 2.6 80 03:19 24.03.2020
669 Clouds 9 1040 81 10000 3.1 90 01:50 24.03.2020
670 Clouds 10 1039 71 10000 4.1 120 00:51 24.03.2020
671 Clouds 10 1039 71 10000 4.1 120 00:26 24.03.2020
672 Clouds 12 1038 66 10000 5.1 110 23:49 23.03.2020
673 Clouds 12 1038 66 10000 5.1 110 23:29 23.03.2020
674 Clouds 13 1038 58 10000 4.6 120 22:58 23.03.2020
675 Clouds 13 1038 58 10000 4.6 120 22:39 23.03.2020
676 Clouds 13 1038 58 10000 4.6 120 22:21 23.03.2020
677 Clouds 14 1038 50 10000 4.6 100 21:44 23.03.2020
678 Clouds 14 1038 50 10000 4.6 100 21:21 23.03.2020
679 Clouds 16 1038 44 10000 4.1 90 20:58 23.03.2020
680 Clouds 16 1038 44 10000 4.1 90 20:58 23.03.2020
681 Clouds 16 1038 44 10000 4.1 90 20:40 23.03.2020
682 Clouds 16 1038 44 10000 4.1 90 20:22 23.03.2020
683 Clouds 16 1040 44 10000 5.1 100 19:54 23.03.2020
684 Clouds 16 1040 44 10000 5.1 100 19:36 23.03.2020
685 Clouds 16 1040 44 10000 5.1 100 19:18 23.03.2020
686 Clouds 16 1041 44 10000 5.7 90 18:42 23.03.2020
687 Clouds 15 1041 47 10000 5.7 80 18:23 23.03.2020
688 Clouds 15 1041 47 10000 5.7 80 17:56 23.03.2020
689 Clouds 15 1041 47 10000 5.7 80 17:56 23.03.2020
690 Clouds 15 1041 47 10000 5.7 80 17:38 23.03.2020
691 Rain 9 1021 70 0 2.7 60 17:18 23.03.2020
692 Rain 9 1021 70 0 2.7 60 16:43 23.03.2020
693 Clouds 11 1042 71 10000 3.6 140 16:25 23.03.2020
694 Clouds 11 1042 71 10000 3.6 140 15:43 23.03.2020
695 Clouds 11 1042 71 10000 3.6 140 15:21 23.03.2020
696 Clouds 9 1042 76 6000 2.1 100 14:57 23.03.2020
697 Clouds 9 1042 76 6000 2.1 100 14:37 23.03.2020
698 Clouds 9 1042 76 6000 2.1 100 14:18 23.03.2020
699 Fog 5 1041 100 4000 1 0 13:41 23.03.2020
700 Fog 5 1041 100 4000 1 0 13:22 23.03.2020
701 Fog 4 1040 100 3000 1 0 12:58 23.03.2020
702 Fog 4 1040 100 3000 1 0 12:58 23.03.2020
703 Fog 4 1040 100 3000 1 0 12:40 23.03.2020
704 Fog 4 1040 100 3000 1 0 12:21 23.03.2020
705 Mist 4 1039 100 1500 1 0 11:42 23.03.2020
706 Mist 4 1039 100 1500 1 0 11:42 23.03.2020
707 Mist 4 1039 100 1500 1 0 11:21 23.03.2020
708 Fog 3 1038 93 4000 1 0 10:58 23.03.2020
709 Fog 3 1038 93 4000 1 0 10:39 23.03.2020
710 Fog 3 1038 93 4000 1 0 10:21 23.03.2020
711 Fog 4 1038 93 4000 2.76 47 09:48 23.03.2020
712 Fog 4 1038 93 4000 2.76 47 09:21 23.03.2020
713 Fog 4 1038 93 4000 2.76 47 09:21 23.03.2020
714 Fog 3 1038 93 4000 1.5 90 08:58 23.03.2020
715 Fog 3 1038 93 4000 1.5 90 08:37 23.03.2020
716 Fog 3 1038 93 4000 1.5 90 08:19 23.03.2020
717 Fog 5 1039 100 4000 2.6 80 07:47 23.03.2020
718 Fog 5 1039 100 4000 2.6 80 07:29 23.03.2020
719 Fog 7 1040 93 4000 3.6 100 06:52 23.03.2020
720 Fog 7 1040 93 4000 3.1 90 05:55 23.03.2020
721 Fog 7 1040 93 4000 3.1 90 05:29 23.03.2020
722 Fog 7 1039 93 4000 3.6 80 03:41 23.03.2020
723 Clouds 8 1038 87 10000 3.1 90 02:29 23.03.2020
724 Clouds 9 1037 87 10000 4.1 100 01:34 23.03.2020
725 Clouds 10 1037 66 10000 4.1 80 00:40 23.03.2020
726 Clouds 11 1036 71 10000 2.6 40 23:53 22.03.2020
727 Clouds 11 1036 71 10000 2.6 40 23:26 22.03.2020
728 Clouds 11 1036 71 10000 2.6 40 23:26 22.03.2020
729 Thunderstorm 11 1036 76 10000 3.6 50 22:47 22.03.2020
730 Thunderstorm 11 1036 76 10000 3.6 50 22:26 22.03.2020
731 Thunderstorm 14 1035 58 10000 3.6 120 21:57 22.03.2020
732 Thunderstorm 14 1035 58 10000 3.6 120 21:57 22.03.2020
733 Thunderstorm 14 1035 58 10000 3.6 120 21:39 22.03.2020
734 Thunderstorm 14 1035 58 10000 3.6 120 21:20 22.03.2020
735 Clouds 14 1036 62 10000 4.1 130 20:54 22.03.2020
736 Clouds 14 1036 62 10000 4.1 130 20:36 22.03.2020
737 Clouds 14 1036 62 10000 4.1 130 20:18 22.03.2020
738 Thunderstorm 15 1037 54 10000 5.1 120 19:54 22.03.2020
739 Thunderstorm 15 1037 54 10000 5.1 120 19:36 22.03.2020
740 Thunderstorm 15 1037 54 10000 5.1 120 19:18 22.03.2020
741 Thunderstorm 15 1037 54 10000 5.1 120 18:41 22.03.2020
742 Thunderstorm 15 1037 54 10000 5.1 120 18:22 22.03.2020
743 Thunderstorm 15 1037 54 10000 5.1 120 18:22 22.03.2020
744 Clouds 14 1038 58 10000 4.6 130 17:59 22.03.2020
745 Clouds 14 1038 58 10000 4.6 130 17:39 22.03.2020
746 Clouds 14 1038 58 10000 4.6 130 17:39 22.03.2020
747 Clouds 13 1039 62 10000 4.1 100 17:21 22.03.2020
748 Clouds 13 1039 62 10000 4.1 100 16:58 22.03.2020
749 Clouds 13 1039 62 10000 4.1 100 16:40 22.03.2020
750 Clouds 13 1039 62 10000 4.1 100 16:21 22.03.2020
751 Clouds 10 1039 71 10000 3.6 130 15:57 22.03.2020
752 Clouds 10 1039 71 10000 3.6 130 15:39 22.03.2020
753 Clouds 9 1038 76 10000 3.1 110 14:47 22.03.2020
754 Clouds 9 1038 76 10000 3.1 110 14:19 22.03.2020
755 Clouds 7 1038 87 6000 1 0 13:56 22.03.2020
756 Clouds 7 1038 87 6000 1 0 13:37 22.03.2020
757 Clouds 7 1038 87 6000 1 0 13:19 22.03.2020
758 Fog 5 1037 93 4000 2.1 70 12:43 22.03.2020
759 Fog 5 1037 93 4000 2.1 70 12:20 22.03.2020
760 Fog 7 1036 93 4000 2.1 80 11:56 22.03.2020
761 Fog 7 1036 93 4000 2.1 80 11:37 22.03.2020
762 Fog 7 1036 93 4000 2.1 80 11:19 22.03.2020
763 Fog 7 1036 87 4000 2.1 70 10:43 22.03.2020
764 Fog 7 1036 87 4000 2.1 70 10:23 22.03.2020
765 Fog 6 1035 93 4000 3.6 90 09:48 22.03.2020
766 Fog 6 1035 93 4000 3.6 90 09:29 22.03.2020
767 Fog 6 1035 100 4000 3.6 80 08:54 22.03.2020
768 Fog 6 1035 100 4000 3.6 80 08:54 22.03.2020
769 Rain 5 1016 97 0 1.24 111 08:36 22.03.2020
770 Fog 7 1036 93 4000 4.1 80 08:18 22.03.2020
771 Fog 7 1036 93 4000 4.1 80 07:41 22.03.2020
772 Fog 7 1036 93 3000 3.6 80 07:18 22.03.2020
773 Fog 7 1037 100 3000 3.6 90 05:54 22.03.2020
774 Fog 8 1037 93 2500 4.1 90 04:39 22.03.2020
775 Clouds 9 1036 81 10000 4.1 50 02:34 22.03.2020
776 Clouds 9 1036 76 10000 1 0 01:19 22.03.2020
777 Clouds 9 1035 76 10000 3.1 240 00:34 22.03.2020
778 Thunderstorm 10 1034 66 10000 3.6 290 23:47 21.03.2020
779 Clouds 12 1034 58 10000 3.1 60 23:23 21.03.2020
780 Clouds 12 1034 58 10000 3.1 60 22:59 21.03.2020
781 Clouds 12 1034 58 10000 3.1 60 22:38 21.03.2020
782 Clouds 12 1034 58 10000 3.1 60 22:20 21.03.2020
783 Clouds 13 1034 58 10000 5.1 70 21:58 21.03.2020
784 Clouds 13 1034 58 10000 5.1 70 21:38 21.03.2020
785 Clouds 13 1034 58 10000 5.1 70 21:20 21.03.2020
786 Clouds 14 1034 58 10000 6.2 90 20:43 21.03.2020
787 Clouds 14 1034 58 10000 6.2 90 20:22 21.03.2020
788 Clouds 13 1035 62 10000 6.2 100 19:55 21.03.2020
789 Clouds 13 1035 62 10000 6.2 100 19:37 21.03.2020
790 Clouds 13 1035 62 10000 6.2 100 19:18 21.03.2020
791 Clouds 11 1036 71 10000 6.2 110 18:41 21.03.2020
792 Clouds 11 1036 71 10000 6.2 110 18:21 21.03.2020
793 Clouds 11 1036 71 10000 6.2 110 17:59 21.03.2020
794 Clouds 11 1037 71 10000 6.2 110 17:41 21.03.2020
795 Clouds 11 1037 71 10000 6.2 110 17:22 21.03.2020
796 Clouds 9 1037 76 10000 5.1 130 16:42 21.03.2020
797 Clouds 9 1037 76 10000 5.1 130 16:24 21.03.2020
798 Clouds 8 1038 81 6000 4.1 130 15:59 21.03.2020
799 Clouds 8 1038 81 6000 4.1 130 15:40 21.03.2020
800 Clouds 8 1038 81 6000 4.1 130 15:22 21.03.2020
801 Clouds 7 1037 87 6000 4.1 120 14:57 21.03.2020
802 Clouds 7 1037 87 6000 4.1 120 14:38 21.03.2020
803 Clouds 7 1037 87 6000 4.1 120 14:38 21.03.2020
804 Clouds 7 1037 87 6000 4.1 120 14:19 21.03.2020
805 Fog 6 1036 93 4000 2.6 120 13:58 21.03.2020
806 Fog 6 1036 93 4000 2.6 120 13:39 21.03.2020
807 Fog 6 1036 93 4000 2.6 120 13:21 21.03.2020
808 Fog 6 1035 93 4000 2.1 110 12:55 21.03.2020
809 Fog 6 1035 93 4000 2.1 110 12:36 21.03.2020
810 Fog 6 1035 93 4000 2.6 120 12:18 21.03.2020
811 Fog 6 1035 93 4000 2.6 120 11:55 21.03.2020
812 Fog 6 1035 93 4000 2.6 120 11:37 21.03.2020
813 Fog 6 1034 93 4000 2.6 80 11:18 21.03.2020
814 Fog 6 1034 93 4000 2.6 80 10:55 21.03.2020
815 Fog 6 1034 93 4000 2.6 80 10:37 21.03.2020
816 Fog 6 1034 93 4000 2.6 80 10:18 21.03.2020
817 Fog 6 1035 93 4000 3.1 100 09:40 21.03.2020
818 Fog 6 1035 93 4000 3.1 100 09:21 21.03.2020
819 Fog 6 1035 93 4000 2.6 120 08:56 21.03.2020
820 Fog 6 1035 93 4000 2.6 120 08:38 21.03.2020
821 Fog 6 1035 93 4000 2.6 120 08:20 21.03.2020
822 Fog 6 1035 93 4000 2.1 110 07:39 21.03.2020
823 Fog 6 1035 93 4000 2.1 110 07:20 21.03.2020
824 Fog 6 1035 93 4000 2.1 110 07:20 21.03.2020
825 Clouds 6 1036 93 10000 2.1 80 06:45 21.03.2020
826 Clouds 6 1036 93 10000 2.1 80 06:25 21.03.2020
827 Clouds 6 1037 93 10000 2.6 80 05:41 21.03.2020
828 Rain 6 1037 93 8000 3.6 60 04:34 21.03.2020
829 Clouds 6 1037 100 10000 3.1 270 02:37 21.03.2020
830 Clouds 7 1036 87 10000 5.1 220 01:49 21.03.2020
831 Clouds 7 1036 87 10000 5.1 220 01:26 21.03.2020
832 Clouds 9 1035 81 8000 4.6 150 00:43 21.03.2020
833 Clouds 9 1034 81 10000 2.6 70 00:23 21.03.2020
834 Clouds 9 1034 81 10000 2.6 70 23:44 20.03.2020
835 Clouds 9 1034 81 10000 2.6 70 23:22 20.03.2020
836 Clouds 10 1034 76 10000 4.1 70 22:44 20.03.2020
837 Clouds 10 1034 76 10000 4.1 70 22:44 20.03.2020
838 Clouds 10 1034 76 10000 4.1 70 22:25 20.03.2020
839 Clouds 11 1034 62 10000 1 0 21:59 20.03.2020
840 Clouds 11 1034 62 10000 1 0 21:40 20.03.2020
841 Clouds 11 1034 62 10000 1 0 21:20 20.03.2020
842 Clouds 11 1035 62 10000 4.6 10 20:59 20.03.2020
843 Clouds 11 1035 62 10000 4.6 10 20:41 20.03.2020
844 Clouds 11 1035 62 10000 4.6 10 20:20 20.03.2020
845 Clouds 11 1036 62 10000 4.6 30 19:48 20.03.2020
846 Clouds 11 1036 62 10000 4.6 30 19:21 20.03.2020
847 Clouds 13 1037 62 10000 1 0 18:58 20.03.2020
848 Clouds 13 1037 62 10000 1 0 18:38 20.03.2020
849 Clouds 12 1037 62 10000 2.1 280 18:20 20.03.2020
850 Clouds 12 1037 62 10000 2.1 280 18:20 20.03.2020
851 Clouds 12 1037 62 10000 2.1 280 17:56 20.03.2020
852 Clouds 12 1037 62 10000 2.1 280 17:37 20.03.2020
853 Clouds 10 1038 76 10000 1 0 17:19 20.03.2020
854 Clouds 10 1038 76 10000 1 0 16:41 20.03.2020
855 Clouds 10 1038 76 10000 1 0 16:21 20.03.2020
856 Clouds 9 1038 87 6000 2.1 150 15:45 20.03.2020
857 Clouds 9 1038 87 6000 2.1 150 15:23 20.03.2020
858 Clouds 8 1038 87 6000 1 0 14:59 20.03.2020
859 Clouds 8 1038 87 6000 1 0 14:59 20.03.2020
860 Clouds 8 1038 87 6000 1 0 14:41 20.03.2020
861 Clouds 8 1038 87 6000 1 0 14:20 20.03.2020
862 Clouds 7 1037 93 10000 1 0 13:48 20.03.2020
863 Clouds 7 1037 93 10000 1 0 13:24 20.03.2020
864 Clouds 7 1037 93 10000 1 0 13:24 20.03.2020
865 Clouds 5 1037 100 10000 1.5 80 12:58 20.03.2020
866 Clouds 5 1037 100 10000 1.5 80 12:38 20.03.2020
867 Clouds 5 1037 100 10000 1.5 80 12:19 20.03.2020
868 Clouds 5 1036 93 10000 1.5 40 11:39 20.03.2020
869 Clouds 5 1036 100 10000 1 0 11:20 20.03.2020
870 Clouds 5 1036 100 10000 1 0 10:54 20.03.2020
871 Clouds 5 1036 100 10000 1 0 10:36 20.03.2020
872 Clouds 5 1036 100 10000 1 0 10:18 20.03.2020
873 Clouds 4 1036 100 10000 1 0 09:44 20.03.2020
874 Clouds 4 1036 100 10000 1 0 09:20 20.03.2020
875 Clouds 3 1037 100 10000 1 0 08:43 20.03.2020
876 Clouds 3 1037 100 10000 1 0 08:23 20.03.2020
877 Clouds 4 1037 93 10000 1 0 07:57 20.03.2020
878 Clouds 4 1037 93 10000 1 0 07:38 20.03.2020
879 Clouds 4 1037 93 10000 1 0 07:19 20.03.2020
880 Clouds 5 1038 93 10000 1 0 06:42 20.03.2020
881 Clouds 6 1039 93 10000 2.6 40 05:57 20.03.2020
882 Clouds 7 1039 87 10000 1.5 340 04:27 20.03.2020
883 Thunderstorm 7 1039 87 8000 3.1 220 02:43 20.03.2020
884 Clouds 8 1037 93 10000 3.1 110 01:50 20.03.2020
885 Clouds 9 1036 87 10000 3.6 110 00:38 20.03.2020
886 Clouds 9 1036 87 10000 3.6 110 23:55 19.03.2020
887 Clouds 10 1036 81 10000 2.6 110 23:36 19.03.2020
888 Clouds 12 1035 76 10000 2.1 180 23:18 19.03.2020
889 Clouds 12 1035 76 10000 2.1 180 22:38 19.03.2020
890 Clouds 12 1035 76 10000 2.1 180 22:20 19.03.2020
891 Clouds 13 1035 58 10000 1 0 21:56 19.03.2020
892 Clouds 13 1035 58 10000 1 0 21:37 19.03.2020
893 Clouds 13 1035 58 10000 1 0 21:18 19.03.2020
894 Rain 10 1037 71 10000 1 0 20:42 19.03.2020
895 Rain 10 1037 71 10000 1 0 20:23 19.03.2020
896 Thunderstorm 12 1037 76 10000 5.1 100 19:57 19.03.2020
897 Thunderstorm 12 1037 76 10000 5.1 100 19:38 19.03.2020
898 Thunderstorm 12 1037 76 10000 5.1 100 19:19 19.03.2020
899 Rain 12 1038 76 10000 2.1 110 18:56 19.03.2020
900 Rain 12 1038 76 10000 2.1 110 18:38 19.03.2020
901 Rain 12 1038 76 10000 2.1 110 18:19 19.03.2020
902 Clouds 13 1039 66 10000 3.1 90 17:41 19.03.2020
903 Clouds 13 1040 71 10000 2.1 80 17:19 19.03.2020
904 Clouds 13 1040 71 10000 2.1 80 16:45 19.03.2020
905 Clouds 13 1040 71 10000 2.1 80 16:24 19.03.2020
906 Clouds 12 1040 66 10000 2.1 100 15:54 19.03.2020
907 Clouds 12 1040 66 10000 2.1 100 15:36 19.03.2020
908 Clouds 10 1040 81 10000 3.6 110 15:18 19.03.2020
909 Clouds 10 1040 81 10000 3.6 110 14:42 19.03.2020
910 Clouds 10 1040 81 10000 3.6 110 14:21 19.03.2020
911 Fog 7 1040 93 4000 1.5 70 13:41 19.03.2020
912 Clouds 5 1039 100 10000 1 0 13:19 19.03.2020
913 Clouds 5 1039 100 10000 1 0 12:57 19.03.2020
914 Clouds 5 1039 100 10000 1 0 12:39 19.03.2020
915 -273 0 0 0 0 0 12:20 19.03.2020
916 Clouds 4 1038 100 10000 0.77 77 11:42 19.03.2020
917 Clouds 6 1038 87 10000 2.6 50 11:23 19.03.2020
918 Clouds 6 1038 87 10000 2.6 50 10:57 19.03.2020
919 Clouds 6 1038 87 10000 2.6 50 10:37 19.03.2020
920 Clouds 6 1038 87 10000 2.6 50 10:18 19.03.2020
921 Fog 6 1038 100 4000 3.6 80 09:44 19.03.2020
922 Fog 6 1038 100 4000 3.6 80 09:26 19.03.2020
923 Clouds 6 1038 100 10000 0.34 59 08:57 19.03.2020
924 Clouds 6 1038 100 10000 0.34 59 08:38 19.03.2020
925 Clouds 6 1038 100 10000 2.01 27 08:18 19.03.2020
926 Thunderstorm 6 1039 100 7000 3.1 210 07:43 19.03.2020
927 Thunderstorm 6 1039 100 7000 3.1 210 07:22 19.03.2020
928 Fog 8 1039 93 3000 1 0 06:29 19.03.2020
929 Fog 7 1040 100 4000 1 0 05:25 19.03.2020
930 Fog 6 1039 100 3000 2.1 60 04:51 19.03.2020
931 Fog 6 1039 100 3000 2.1 60 04:22 19.03.2020
932 Clouds 7 1038 93 10000 2.6 90 02:33 19.03.2020
933 Clouds 9 1036 81 10000 1 0 00:53 19.03.2020
934 Clouds 11 1036 66 10000 1 0 00:20 19.03.2020
935 Clouds 11 1036 66 10000 1 0 23:44 18.03.2020
936 Clouds 11 1036 66 10000 1 0 23:26 18.03.2020
937 Clouds 11 1036 66 10000 2.6 50 22:43 18.03.2020
938 Clouds 11 1036 66 10000 2.6 50 22:23 18.03.2020
939 Clouds 10 1037 71 10000 1 0 21:58 18.03.2020
940 Clouds 10 1037 71 10000 1 0 21:40 18.03.2020
941 Clouds 10 1037 71 10000 1 0 21:20 18.03.2020
942 Clouds 9 1038 81 8000 3.1 290 20:55 18.03.2020
943 Clouds 9 1038 81 8000 3.1 290 20:37 18.03.2020
944 Clouds 9 1038 81 8000 3.1 290 20:19 18.03.2020
945 Thunderstorm 11 1038 66 10000 3.6 70 19:41 18.03.2020
946 Thunderstorm 11 1038 66 10000 3.6 70 19:21 18.03.2020
947 Thunderstorm 11 1038 66 10000 3.6 70 19:21 18.03.2020
948 Clouds 13 1038 62 10000 3.1 100 18:58 18.03.2020
949 Clouds 13 1038 62 10000 3.1 100 18:58 18.03.2020
950 Clouds 13 1038 62 10000 3.1 100 18:39 18.03.2020
951 Clouds 13 1038 62 10000 3.1 100 18:19 18.03.2020
952 Clouds 13 1038 62 10000 3.1 100 18:19 18.03.2020
953 Clouds 13 1038 62 10000 3.1 100 17:55 18.03.2020
954 Clouds 14 1039 58 10000 3.1 120 17:37 18.03.2020
955 Clouds 12 1040 66 10000 4.1 90 17:19 18.03.2020
956 Clouds 12 1040 66 10000 4.1 90 16:42 18.03.2020
957 Clouds 12 1040 66 10000 4.1 90 16:21 18.03.2020
958 Clouds 10 1040 76 6000 3.1 150 15:57 18.03.2020
959 Clouds 10 1040 76 6000 3.1 150 15:38 18.03.2020
960 Clouds 10 1040 76 6000 3.1 150 15:20 18.03.2020
961 Fog 9 1039 87 4000 2.6 100 14:42 18.03.2020
962 Fog 9 1039 87 4000 2.6 100 14:21 18.03.2020
963 Fog 7 1038 93 4000 2.1 60 13:42 18.03.2020
964 Fog 7 1038 93 4000 2.1 60 13:19 18.03.2020
965 Fog 6 1038 100 3000 3.1 70 12:55 18.03.2020
966 Fog 6 1038 100 3000 3.1 70 12:37 18.03.2020
967 Fog 6 1038 93 4000 2.1 70 12:18 18.03.2020
968 Fog 6 1038 93 4000 2.1 70 11:38 18.03.2020
969 Fog 7 1037 93 4000 3.1 100 11:19 18.03.2020
970 Fog 7 1037 93 4000 3.1 100 10:57 18.03.2020
971 Fog 7 1037 93 4000 3.1 100 10:37 18.03.2020
972 Fog 7 1037 93 4000 3.1 100 10:19 18.03.2020
973 Fog 7 1037 87 4000 3.1 120 09:42 18.03.2020
974 Fog 7 1037 87 4000 3.1 120 09:23 18.03.2020
975 Fog 7 1037 93 4000 3.1 110 08:55 18.03.2020
976 Fog 7 1037 93 4000 3.1 110 08:37 18.03.2020
977 Fog 7 1037 93 4000 3.1 110 08:19 18.03.2020
978 Fog 7 1038 93 4000 2.1 110 07:41 18.03.2020
979 Fog 7 1038 93 4000 2.1 110 07:23 18.03.2020
980 Fog 8 1038 87 4000 2.1 200 06:43 18.03.2020
981 Clouds 4 1018 86 0 1.71 42 05:53 18.03.2020
982 Fog 8 1039 100 4000 2.6 80 05:19 18.03.2020
983 Fog 8 1038 93 4000 1.5 60 03:53 18.03.2020
984 Fog 8 1038 100 4000 2.1 70 02:37 18.03.2020
985 Clouds 8 1037 87 10000 2.1 110 01:46 18.03.2020
986 Clouds 9 1036 81 10000 2.1 100 01:20 18.03.2020
987 Clouds 9 1036 81 10000 2.1 100 00:23 18.03.2020
988 Clouds 10 1036 76 10000 3.1 110 23:43 17.03.2020
989 Clouds 12 1036 62 10000 2.6 40 23:23 17.03.2020
990 Clouds 12 1036 62 10000 2.6 40 22:47 17.03.2020
991 Clouds 12 1036 62 10000 2.6 40 22:28 17.03.2020
992 Clouds 12 1036 62 10000 3.6 310 21:57 17.03.2020
993 Clouds 12 1036 62 10000 3.6 310 21:37 17.03.2020
994 Clouds 12 1036 62 10000 3.6 310 21:19 17.03.2020
995 Clouds 13 1036 58 10000 3.6 360 20:38 17.03.2020
996 Clouds 13 1036 58 10000 3.6 360 20:20 17.03.2020
997 Clouds 13 1037 62 10000 5.1 80 19:42 17.03.2020
998 Clouds 13 1038 66 10000 4.6 80 19:22 17.03.2020
999 Clouds 13 1038 66 10000 4.6 80 18:59 17.03.2020
1000 Clouds 13 1038 66 10000 4.6 80 18:40 17.03.2020
1001 Clouds 13 1038 66 10000 4.6 80 18:22 17.03.2020
1002 Clouds 13 1039 66 10000 4.1 80 17:59 17.03.2020
1003 Clouds 13 1039 66 10000 4.1 80 17:39 17.03.2020
1004 Clouds 13 1039 66 10000 4.1 80 17:20 17.03.2020
1005 Clouds 12 1039 71 8000 3.6 70 16:43 17.03.2020
1006 Clouds 12 1039 71 8000 3.6 70 16:19 17.03.2020
1007 Clouds 10 1039 71 6000 3.1 100 15:48 17.03.2020
1008 Clouds 10 1039 71 6000 3.1 100 15:23 17.03.2020
1009 Clouds 8 1039 87 6000 2.1 100 14:49 17.03.2020
1010 Clouds 8 1039 87 6000 2.1 100 14:31 17.03.2020
1011 Clouds 6 1038 93 6000 3.1 70 13:59 17.03.2020
1012 Clouds 6 1038 93 6000 3.1 70 13:41 17.03.2020
1013 Clouds 6 1038 93 6000 3.1 70 13:22 17.03.2020
1014 Fog 6 1037 93 4000 3.1 110 12:47 17.03.2020
1015 Fog 6 1037 93 4000 3.1 110 12:25 17.03.2020
1016 Fog 7 1037 87 4000 4.1 90 11:57 17.03.2020
1017 Fog 7 1037 87 4000 4.1 90 11:39 17.03.2020
1018 Fog 6 1036 93 4000 2.6 80 11:20 17.03.2020
1019 Fog 6 1036 93 4000 2.6 80 10:54 17.03.2020
1020 Fog 6 1036 93 4000 2.6 80 10:36 17.03.2020
1021 Fog 6 1036 93 4000 2.6 80 10:18 17.03.2020
1022 Fog 6 1036 93 4000 2.6 70 09:44 17.03.2020
1023 Fog 6 1036 93 4000 2.6 70 09:20 17.03.2020
1024 Clouds 6 1037 93 10000 1 0 08:51 17.03.2020
1025 Clouds 6 1037 93 10000 1 0 08:24 17.03.2020
1026 Clouds 6 1038 87 10000 2.1 100 07:58 17.03.2020
1027 Clouds 6 1038 87 10000 2.1 100 07:40 17.03.2020
1028 Clouds 6 1038 87 10000 2.1 100 07:19 17.03.2020
1029 Clouds 6 1039 93 10000 2.6 120 06:41 17.03.2020
1030 Clouds 6 1039 93 10000 1 0 06:19 17.03.2020
1031 Rain 6 1040 93 10000 4.1 210 04:51 17.03.2020
1032 Clouds 6 1040 87 10000 5.7 230 03:26 17.03.2020
1033 Fog 8 1037 93 4000 2.6 110 01:49 17.03.2020
1034 Fog 8 1037 93 4000 2.6 110 01:29 17.03.2020
1035 Clouds 9 1036 87 10000 3.1 90 00:50 17.03.2020
1036 Clouds 10 1035 76 10000 3.6 90 23:51 16.03.2020
1037 Clouds 10 1035 76 10000 3.6 90 23:33 16.03.2020
1038 Clouds 12 1035 71 10000 5.1 100 22:45 16.03.2020
1039 Clouds 12 1035 71 10000 5.1 100 22:45 16.03.2020
1040 Clouds 12 1035 71 10000 5.1 100 22:26 16.03.2020
1041 Clouds 13 1036 58 10000 2.1 360 21:59 16.03.2020
1042 Clouds 13 1036 58 10000 2.1 360 21:41 16.03.2020
1043 Clouds 13 1036 58 10000 2.1 360 21:23 16.03.2020
1044 Clouds 11 1036 62 10000 2.6 10 20:57 16.03.2020
1045 Clouds 11 1036 62 10000 2.6 10 20:38 16.03.2020
1046 Clouds 11 1036 62 10000 2.6 10 20:19 16.03.2020
1047 Rain 7 1037 93 9000 2.1 20 19:42 16.03.2020
1048 Rain 7 1037 93 9000 2.1 20 19:22 16.03.2020
1049 Thunderstorm 6 1038 87 6000 5.7 360 18:56 16.03.2020
1050 Thunderstorm 6 1038 87 6000 5.7 360 18:37 16.03.2020
1051 Thunderstorm 10 1038 87 10000 4.1 80 18:18 16.03.2020
1052 Clouds 11 1038 71 10000 5.1 120 17:42 16.03.2020
1053 Clouds 11 1038 71 10000 5.1 120 17:22 16.03.2020
1054 Clouds 13 1039 58 10000 2.1 240 16:46 16.03.2020
1055 Clouds 13 1039 58 10000 2.1 240 16:27 16.03.2020
1056 Clouds 12 1039 66 10000 2.1 90 15:56 16.03.2020
1057 Clouds 12 1039 66 10000 2.1 90 15:37 16.03.2020
1058 Clouds 12 1039 66 10000 2.1 90 15:18 16.03.2020
1059 Clouds 9 1039 81 6000 3.6 90 14:39 16.03.2020
1060 Clouds 9 1039 81 6000 3.6 90 14:19 16.03.2020
1061 Fog 7 1039 93 4000 3.1 80 13:41 16.03.2020
1062 Fog 7 1039 93 4000 3.1 80 13:22 16.03.2020
1063 Fog 6 1038 100 2500 3.1 80 12:45 16.03.2020
1064 Fog 6 1038 100 2500 3.1 80 12:26 16.03.2020
1065 Fog 7 1038 93 4000 3.1 70 11:56 16.03.2020
1066 Fog 7 1038 93 4000 3.1 70 11:37 16.03.2020
1067 Fog 7 1038 93 4000 1 0 11:18 16.03.2020
1068 Fog 7 1038 93 4000 1 0 10:40 16.03.2020
1069 Fog 7 1038 93 4000 1 0 10:19 16.03.2020
1070 Fog 7 1038 93 4000 1 0 09:42 16.03.2020
1071 Fog 7 1038 93 4000 1 0 09:24 16.03.2020
1072 Mist 7 1038 93 4000 3.6 180 08:53 16.03.2020
1073 Mist 7 1038 93 4000 3.6 180 08:25 16.03.2020
1074 Fog 8 1039 93 4000 1 0 07:49 16.03.2020
1075 Fog 8 1039 93 4000 1 0 07:25 16.03.2020
1076 Fog 8 1039 93 4000 3.1 120 06:54 16.03.2020
1077 Fog 8 1039 93 4000 3.1 120 06:25 16.03.2020
1078 Fog 8 1040 100 4000 3.6 80 04:55 16.03.2020
1079 Clouds 6 1038 93 10000 1.5 110 02:42 16.03.2020
1080 Clouds 9 1037 87 10000 2.1 70 00:52 16.03.2020
1081 Clouds 9 1037 87 10000 2.1 70 00:33 16.03.2020
1082 Clouds 11 1036 71 10000 1 0 23:46 15.03.2020
1083 Clouds 11 1036 71 10000 1 0 23:20 15.03.2020
1084 Clouds 12 1037 62 10000 3.1 240 22:43 15.03.2020
1085 Clouds 12 1037 62 10000 3.1 240 22:23 15.03.2020
1086 Clouds 11 1037 66 10000 2.6 150 21:58 15.03.2020
1087 Clouds 11 1037 66 10000 2.6 150 21:38 15.03.2020
1088 Clouds 11 1037 66 10000 2.6 150 21:18 15.03.2020
1089 Clouds 12 1038 62 8000 4.1 300 20:42 15.03.2020
1090 Clouds 12 1038 62 8000 4.1 300 20:20 15.03.2020
1091 Thunderstorm 11 1038 66 10000 2.1 330 19:58 15.03.2020
1092 Thunderstorm 11 1038 66 10000 2.1 330 19:38 15.03.2020
1093 Thunderstorm 11 1038 66 10000 2.1 330 19:19 15.03.2020
1094 Clouds 13 1040 62 10000 2.6 100 18:55 15.03.2020
1095 Clouds 13 1040 62 10000 2.6 100 18:37 15.03.2020
1096 Clouds 13 1040 62 10000 2.6 100 18:19 15.03.2020
1097 Clouds 12 1041 71 10000 2.6 110 17:41 15.03.2020
1098 Clouds 12 1041 71 10000 2.6 110 17:21 15.03.2020
1099 Clouds 11 1041 71 10000 3.1 120 16:58 15.03.2020
1100 Clouds 11 1041 71 10000 3.1 120 16:58 15.03.2020
1101 Clouds 11 1041 71 10000 3.1 120 16:38 15.03.2020
1102 Clouds 11 1041 71 10000 3.1 120 16:19 15.03.2020
1103 Clouds 8 1042 87 6000 2.6 130 15:45 15.03.2020
1104 Clouds 8 1042 87 6000 2.6 130 15:27 15.03.2020
1105 Rain 6 1041 100 3000 5.1 130 14:57 15.03.2020
1106 Rain 6 1041 100 3000 5.1 130 14:38 15.03.2020
1107 Rain 6 1041 100 3000 5.1 130 14:18 15.03.2020
1108 Rain 6 1041 100 3000 5.1 130 14:18 15.03.2020
1109 Rain 7 1041 87 2500 2.6 140 13:42 15.03.2020
1110 Fog 8 1041 87 4000 1 0 13:23 15.03.2020
1111 Fog 7 1040 93 4000 2.07 71 12:59 15.03.2020
1112 Fog 7 1040 93 4000 2.07 71 12:39 15.03.2020
1113 Fog 7 1040 93 4000 2.07 71 12:21 15.03.2020
1114 Clouds 7 1040 81 10000 2.07 71 11:43 15.03.2020
1115 Fog 7 1039 87 4000 1 0 11:24 15.03.2020
1116 Fog 7 1039 87 4000 1 0 10:57 15.03.2020
1117 Fog 7 1039 87 4000 1 0 10:38 15.03.2020
1118 Fog 7 1039 87 4000 1 0 10:20 15.03.2020
1119 Fog 8 1038 87 4000 1 0 09:42 15.03.2020
1120 Fog 8 1038 87 4000 1 0 09:22 15.03.2020
1121 Fog 8 1039 93 4000 2.6 100 08:55 15.03.2020
1122 Fog 8 1039 93 4000 2.6 100 08:36 15.03.2020
1123 Fog 8 1039 93 4000 2.6 100 08:18 15.03.2020
1124 Fog 8 1040 87 4000 2.1 140 07:44 15.03.2020
1125 Clouds 8 1040 81 10000 2.6 80 06:54 15.03.2020
1126 Clouds 8 1040 81 10000 2.6 80 06:24 15.03.2020
1127 Clouds 8 1040 70 10000 5.1 10 05:21 15.03.2020
1128 Clouds 9 1040 61 10000 8.2 360 04:43 15.03.2020
1129 Clouds 9 1040 61 10000 8.2 360 04:25 15.03.2020
1130 Clouds 9 1040 87 10000 3.6 90 03:54 15.03.2020
1131 Clouds 9 1039 81 10000 2.6 120 02:44 15.03.2020
1132 Clouds 9 1038 70 10000 1 0 01:35 15.03.2020
1133 Clouds 11 1037 62 10000 3.1 270 00:46 15.03.2020
1134 Clouds 11 1037 62 10000 3.1 270 00:27 15.03.2020
1135 Clouds 14 1037 50 10000 1 0 23:55 14.03.2020
1136 Clouds 14 1037 50 10000 1 0 23:37 14.03.2020
1137 Clouds 14 1037 50 10000 1 0 23:18 14.03.2020
1138 Clouds 14 1037 50 10000 2.6 20 22:42 14.03.2020
1139 Clouds 14 1037 50 10000 2.6 20 22:23 14.03.2020
1140 Clouds 14 1038 47 10000 2.6 50 21:56 14.03.2020
1141 Clouds 14 1038 47 10000 2.6 50 21:36 14.03.2020
1142 Clouds 14 1038 47 10000 2.6 50 21:18 14.03.2020
1143 Rain 12 1039 62 8000 2.6 310 20:58 14.03.2020
1144 Rain 12 1039 62 8000 2.6 310 20:40 14.03.2020
1145 Rain 12 1039 62 8000 2.6 310 20:19 14.03.2020
1146 Rain 10 1040 66 8000 4.6 340 19:43 14.03.2020
1147 Rain 10 1040 66 8000 4.6 340 19:25 14.03.2020
1148 Clouds 13 1040 58 10000 4.1 110 18:42 14.03.2020
1149 Clouds 13 1040 58 10000 4.1 110 18:24 14.03.2020
1150 Clouds 13 1040 58 10000 4.1 110 17:56 14.03.2020
1151 Clouds 12 1041 58 10000 3.6 140 17:38 14.03.2020
1152 Clouds 11 1042 66 10000 1 0 17:20 14.03.2020
1153 Clouds 11 1042 66 10000 1 0 16:41 14.03.2020
1154 Clouds 11 1042 66 10000 1 0 16:23 14.03.2020
1155 Clouds 10 1042 66 10000 2.1 130 15:56 14.03.2020
1156 Clouds 10 1042 66 10000 2.1 130 15:26 14.03.2020
1157 Clouds 9 1042 76 6000 1 0 14:55 14.03.2020
1158 Clouds 9 1042 76 6000 1 0 14:36 14.03.2020
1159 Clouds 9 1042 76 6000 1 0 14:18 14.03.2020
1160 Fog 7 1041 87 4000 1 0 13:42 14.03.2020
1161 Fog 7 1041 87 4000 1 0 13:23 14.03.2020
1162 Fog 6 1040 93 4000 2.1 120 12:47 14.03.2020
1163 Fog 6 1040 93 4000 2.1 120 12:27 14.03.2020
1164 Fog 6 1040 93 4000 2.1 120 11:57 14.03.2020
1165 Fog 6 1040 93 4000 2.6 110 11:38 14.03.2020
1166 Fog 6 1040 87 4000 3.1 20 11:20 14.03.2020
1167 Fog 6 1040 87 4000 3.1 20 11:20 14.03.2020
1168 Fog 6 1040 87 4000 3.1 20 10:45 14.03.2020
1169 Fog 6 1040 87 4000 3.1 20 10:27 14.03.2020
1170 Fog 6 1040 100 4000 2.6 90 09:57 14.03.2020
1171 Fog 6 1040 100 4000 2.6 90 09:39 14.03.2020
1172 Fog 6 1040 100 4000 2.6 90 09:39 14.03.2020
1173 Fog 6 1040 100 4000 2.6 90 09:19 14.03.2020
1174 Fog 6 1040 93 4000 2.1 120 08:42 14.03.2020
1175 Fog 6 1040 93 4000 2.1 120 08:21 14.03.2020
1176 Fog 5 1040 100 4000 2.1 70 07:39 14.03.2020
1177 Fog 5 1040 100 4000 2.1 70 07:20 14.03.2020
1178 Fog 5 1040 93 4000 1 0 06:41 14.03.2020
1179 Clouds 6 1041 93 10000 2.1 260 05:47 14.03.2020
1180 Clouds 6 1041 93 10000 2.1 260 05:47 14.03.2020
1181 Fog 6 1041 100 4000 2.1 90 04:42 14.03.2020
1182 Fog 6 1040 93 4000 2.1 90 03:24 14.03.2020
1183 Clouds 7 1039 87 10000 2.6 80 02:25 14.03.2020
1184 Clouds 10 1037 76 10000 4.6 100 00:57 14.03.2020
1185 Clouds 11 1037 71 10000 5.1 100 23:51 13.03.2020
1186 Clouds 11 1037 71 10000 5.1 100 23:30 13.03.2020
1187 Clouds 13 1036 58 10000 5.1 110 22:52 13.03.2020
1188 Clouds 13 1036 58 10000 5.1 110 22:52 13.03.2020
1189 Clouds 13 1036 58 10000 5.1 110 22:26 13.03.2020
1190 Clouds 15 1037 51 10000 3.6 100 21:44 13.03.2020
1191 Clouds 15 1037 51 10000 5.1 100 21:22 13.03.2020
1192 Clouds 15 1037 51 10000 5.1 100 20:59 13.03.2020
1193 Clouds 15 1037 51 10000 5.1 100 20:41 13.03.2020
1194 Clouds 15 1037 51 10000 5.1 100 20:21 13.03.2020
1195 Clouds 14 1039 54 10000 6.7 90 19:48 13.03.2020
1196 Clouds 14 1039 54 10000 6.7 90 19:30 13.03.2020
1197 Clouds 14 1040 54 10000 6.2 90 18:49 13.03.2020
1198 Clouds 14 1040 54 10000 6.2 90 18:31 13.03.2020
1199 Clouds 14 1040 54 10000 6.2 90 17:57 13.03.2020
1200 Clouds 13 1041 62 10000 7.2 80 17:39 13.03.2020
1201 Clouds 13 1041 62 10000 7.2 80 17:20 13.03.2020
1202 Clouds 12 1041 58 10000 6.2 70 16:42 13.03.2020
1203 Clouds 12 1041 58 10000 6.2 70 16:24 13.03.2020
1204 Clouds 10 1041 71 8000 5.1 100 15:58 13.03.2020
1205 Clouds 10 1041 71 8000 5.1 100 15:38 13.03.2020
1206 Clouds 10 1041 71 8000 5.1 100 15:20 13.03.2020
1207 Clouds 7 1040 87 6000 4.1 100 14:41 13.03.2020
1208 Clouds 7 1040 87 6000 4.1 100 14:22 13.03.2020
1209 Clouds 6 1040 87 6000 4.1 110 13:57 13.03.2020
1210 Clouds 6 1040 87 6000 4.1 110 13:38 13.03.2020
1211 Clouds 6 1040 87 6000 4.1 110 13:19 13.03.2020
1212 Fog 4 1039 93 4000 3.1 70 12:40 13.03.2020
1213 Fog 4 1039 93 4000 3.1 70 12:22 13.03.2020
1214 Fog 4 1039 93 4000 3.1 70 11:59 13.03.2020
1215 Fog 4 1039 100 4000 4.1 100 11:41 13.03.2020
1216 Fog 4 1039 100 4000 4.1 100 11:41 13.03.2020
1217 Fog 5 1038 93 4000 3.1 90 11:22 13.03.2020
1218 Fog 5 1038 93 4000 3.1 90 10:48 13.03.2020
1219 Fog 5 1038 93 4000 3.1 90 10:28 13.03.2020
1220 Fog 5 1038 93 4000 3.1 90 10:28 13.03.2020
1221 Rain 5 1039 93 8000 3.6 80 09:58 13.03.2020
1222 Rain 5 1039 93 8000 3.6 80 09:39 13.03.2020
1223 Rain 5 1039 93 8000 3.6 80 09:20 13.03.2020
1224 Rain 5 1039 93 7000 3.6 70 08:45 13.03.2020
1225 Rain 5 1039 93 7000 3.6 70 08:22 13.03.2020
1226 Rain 6 1039 87 8000 5.1 80 07:49 13.03.2020
1227 Rain 6 1039 87 8000 5.1 80 07:28 13.03.2020
1228 Rain 6 1039 93 8000 5.1 60 06:47 13.03.2020
1229 Rain 6 1039 93 8000 5.1 60 06:28 13.03.2020
1230 Rain 7 1039 93 8000 6.2 60 05:53 13.03.2020
1231 Clouds 6 1039 93 10000 2.6 80 05:20 13.03.2020
1232 Clouds 6 1039 93 10000 2.6 80 04:37 13.03.2020
1233 Clouds 8 1038 65 10000 5.1 60 03:31 13.03.2020
1234 Clouds 9 1036 66 10000 3.6 80 01:45 13.03.2020
1235 Clouds 9 1036 66 10000 3.6 80 01:18 13.03.2020
1236 Clouds 11 1035 53 10000 3.6 80 00:47 13.03.2020
1237 Clouds 11 1035 53 10000 3.6 80 00:23 13.03.2020
1238 Clouds 13 1034 47 10000 5.1 70 23:47 12.03.2020
1239 Clouds 13 1034 47 10000 5.1 70 23:26 12.03.2020
1240 Clouds 15 1034 41 10000 6.2 80 22:55 12.03.2020
1241 Clouds 15 1034 41 10000 6.2 80 22:37 12.03.2020
1242 Clouds 15 1034 41 10000 6.2 80 22:19 12.03.2020
1243 Clouds 14 1035 47 10000 6.2 100 21:42 12.03.2020
1244 Clouds 14 1035 47 10000 6.2 100 21:24 12.03.2020
1245 Clouds 16 1036 48 10000 6.2 90 20:56 12.03.2020
1246 Clouds 16 1036 48 10000 6.2 90 20:37 12.03.2020
1247 Clouds 16 1036 48 10000 6.2 90 20:18 12.03.2020
1248 Clouds 15 1037 51 10000 6.7 120 19:39 12.03.2020
1249 Clouds 15 1037 51 10000 6.7 120 19:20 12.03.2020
1250 Clouds 15 1037 51 10000 6.7 120 19:20 12.03.2020
1251 Clouds 14 1038 50 10000 5.1 120 18:43 12.03.2020
1252 Clouds 14 1038 50 10000 5.1 120 18:23 12.03.2020
1253 Clouds 13 1039 58 10000 4.6 130 17:56 12.03.2020
1254 Clouds 13 1039 58 10000 4.6 130 17:37 12.03.2020
1255 Clouds 11 1039 66 10000 4.6 120 17:18 12.03.2020
1256 Clouds 11 1039 66 10000 4.6 120 16:43 12.03.2020
1257 Clouds 11 1039 66 10000 4.6 120 16:24 12.03.2020
1258 Clouds 10 1039 71 10000 4.1 110 15:59 12.03.2020
1259 Clouds 10 1039 71 10000 4.1 110 15:39 12.03.2020
1260 Clouds 10 1039 71 10000 4.1 110 15:21 12.03.2020
1261 Clouds 9 1038 76 10000 2.6 120 14:38 12.03.2020
1262 Clouds 9 1038 76 10000 2.6 120 14:19 12.03.2020
1263 Clouds 7 1038 81 6000 2.6 110 13:40 12.03.2020
1264 Clouds 7 1038 81 6000 2.6 110 13:22 12.03.2020
1265 Fog 5 1037 93 3000 3.6 130 12:55 12.03.2020
1266 Fog 5 1037 93 3000 3.6 130 12:37 12.03.2020
1267 Fog 6 1036 87 4000 2.6 50 12:18 12.03.2020
1268 Fog 6 1036 87 4000 2.6 50 11:56 12.03.2020
1269 Fog 6 1036 87 4000 2.6 50 11:37 12.03.2020
1270 Fog 6 1036 93 3000 3.6 120 11:19 12.03.2020
1271 Fog 6 1036 93 3000 3.6 120 10:44 12.03.2020
1272 Fog 6 1036 93 3000 3.6 120 10:26 12.03.2020
1273 Fog 6 1036 87 3000 3.1 110 09:59 12.03.2020
1274 Fog 6 1036 87 3000 3.1 110 09:41 12.03.2020
1275 Fog 6 1036 87 3000 3.1 110 09:23 12.03.2020
1276 Fog 6 1036 93 3000 3.1 110 08:39 12.03.2020
1277 Fog 6 1036 93 3000 3.1 110 08:19 12.03.2020
1278 Fog 6 1037 93 4000 3.1 100 07:48 12.03.2020
1279 Fog 6 1037 93 4000 3.1 100 07:23 12.03.2020
1280 Fog 6 1037 93 4000 3.1 100 06:33 12.03.2020
1281 Fog 5 1037 100 2000 3.6 80 05:36 12.03.2020
1282 Fog 6 1037 93 4000 4.6 90 03:45 12.03.2020
1283 Clouds 6 1036 87 10000 3.1 120 02:19 12.03.2020
1284 Clouds 8 1036 81 10000 3.1 100 01:24 12.03.2020
1285 Clouds 9 1034 76 10000 3.1 100 00:42 12.03.2020
1286 Clouds 10 1035 71 10000 2.6 90 23:59 11.03.2020
1287 Clouds 10 1035 71 10000 2.6 90 23:37 11.03.2020
1288 Clouds 11 1034 62 10000 4.1 80 23:18 11.03.2020
1289 Clouds 11 1034 62 10000 4.1 80 22:41 11.03.2020
1290 Clouds 11 1034 62 10000 4.1 80 22:23 11.03.2020
1291 Clouds 10 1035 66 10000 4.6 110 21:58 11.03.2020
1292 Clouds 10 1035 66 10000 4.6 110 21:39 11.03.2020
1293 Clouds 10 1035 66 10000 4.6 110 21:21 11.03.2020
1294 Rain 8 1036 75 8000 4.6 360 20:56 11.03.2020
1295 Rain 8 1036 75 8000 4.6 360 20:37 11.03.2020
1296 Rain 8 1036 75 8000 4.6 360 20:19 11.03.2020
1297 Clouds 11 1037 62 10000 3.1 220 19:42 11.03.2020
1298 Clouds 11 1037 62 10000 3.1 220 19:24 11.03.2020
1299 Clouds 12 1038 54 10000 1 0 18:57 11.03.2020
1300 Clouds 12 1038 54 10000 1 0 18:37 11.03.2020
1301 Clouds 12 1038 54 10000 1 0 18:18 11.03.2020
1302 Clouds 11 1038 66 10000 1 0 17:54 11.03.2020
1303 Clouds 11 1038 66 10000 1 0 17:36 11.03.2020
1304 Clouds 10 1039 71 10000 1 0 17:18 11.03.2020
1305 Clouds 10 1039 71 10000 1 0 16:41 11.03.2020
1306 Clouds 10 1039 71 10000 1 0 16:19 11.03.2020
1307 Clouds 8 1039 75 6000 3.1 290 15:42 11.03.2020
1308 Clouds 8 1039 75 6000 3.1 290 15:23 11.03.2020
1309 Clouds 7 1039 81 6000 3.1 290 14:46 11.03.2020
1310 Clouds 7 1039 81 6000 3.1 290 14:24 11.03.2020
1311 Clouds 6 1039 81 6000 2.6 320 13:59 11.03.2020
1312 Clouds 6 1039 81 6000 2.6 320 13:40 11.03.2020
1313 Clouds 6 1039 81 6000 2.6 320 13:21 11.03.2020
1314 Clouds 5 1038 86 10000 2.6 300 12:41 11.03.2020
1315 Clouds 5 1038 86 10000 2.6 300 12:21 11.03.2020
1316 Clouds 5 1037 93 10000 1 0 11:57 11.03.2020
1317 Clouds 5 1037 93 10000 1 0 11:39 11.03.2020
1318 Clouds 5 1037 93 10000 1 0 11:19 11.03.2020
1319 Clouds 5 1037 93 10000 1 0 10:46 11.03.2020
1320 Clouds 5 1037 93 10000 1 0 10:19 11.03.2020
1321 Clouds 5 1038 93 10000 1 0 09:54 11.03.2020
1322 Clouds 5 1038 93 10000 1 0 09:36 11.03.2020
1323 Clouds 5 1038 93 10000 1 0 09:18 11.03.2020
1324 Rain 6 1038 93 4000 2.1 70 08:41 11.03.2020
1325 Rain 6 1038 93 4000 2.1 70 08:22 11.03.2020
1326 Rain 6 1039 93 4000 1.5 140 07:45 11.03.2020
1327 Rain 6 1039 93 4000 1.5 140 07:19 11.03.2020
1328 Fog 7 1039 81 4000 1 0 06:48 11.03.2020
1329 Rain 6 1039 81 10000 3.1 70 05:42 11.03.2020
1330 Fog 6 1039 93 4000 5.1 50 04:52 11.03.2020
1331 Clouds 7 1039 93 10000 2.1 80 02:30 11.03.2020
1332 Fog 7 1038 93 4000 1 0 01:30 11.03.2020
1333 Rain 7 1038 93 8000 3.1 220 00:47 11.03.2020
1334 Rain 8 1037 87 8000 4.6 260 00:18 11.03.2020
1335 Rain 8 1037 87 8000 4.6 260 23:40 10.03.2020
1336 Rain 9 1037 76 8000 3.1 280 23:21 10.03.2020
1337 Rain 9 1037 76 8000 3.1 280 22:39 10.03.2020
1338 Rain 9 1037 76 8000 3.1 280 22:20 10.03.2020
1339 Clouds 10 1037 66 10000 4.6 100 21:57 10.03.2020
1340 Clouds 10 1037 66 10000 4.6 100 21:38 10.03.2020
1341 Clouds 10 1037 66 10000 4.6 100 21:20 10.03.2020
1342 Rain 14 1038 54 8000 6.2 80 20:59 10.03.2020
1343 Rain 14 1038 54 8000 6.2 80 20:41 10.03.2020
1344 Rain 14 1038 54 8000 6.2 80 20:18 10.03.2020
1345 Clouds 13 1039 54 10000 5.7 90 19:56 10.03.2020
1346 Clouds 13 1039 54 10000 5.7 90 19:37 10.03.2020
1347 Clouds 13 1039 54 10000 5.7 90 19:19 10.03.2020
1348 Clouds 13 1040 54 10000 6.2 110 18:44 10.03.2020
1349 Clouds 13 1040 54 10000 6.2 110 18:25 10.03.2020
1350 Clouds 11 1041 62 10000 6.2 110 17:57 10.03.2020
1351 Clouds 11 1041 62 10000 6.2 110 17:38 10.03.2020
1352 Clouds 10 1042 66 10000 4.6 110 17:20 10.03.2020
1353 Clouds 10 1042 66 10000 4.6 110 16:39 10.03.2020
1354 Clouds 10 1042 66 10000 4.6 110 16:19 10.03.2020
1355 Clouds 9 1042 70 6000 4.6 100 15:55 10.03.2020
1356 Clouds 9 1042 70 6000 4.6 100 15:55 10.03.2020
1357 Clouds 9 1042 70 6000 4.6 100 15:37 10.03.2020
1358 Clouds 9 1042 70 6000 4.6 100 15:18 10.03.2020
1359 Fog 7 1042 81 3000 3.6 120 14:41 10.03.2020
1360 Fog 7 1042 81 3000 3.6 120 14:20 10.03.2020
1361 Fog 5 1041 93 5000 4.6 90 13:57 10.03.2020
1362 Fog 5 1041 93 5000 4.6 90 13:37 10.03.2020
1363 Fog 5 1041 93 5000 4.6 90 13:19 10.03.2020
1364 Fog 4 1041 100 5000 4.1 110 12:39 10.03.2020
1365 Fog 5 1041 93 500 2.1 120 12:19 10.03.2020
1366 Fog 5 1041 93 500 2.1 120 11:43 10.03.2020
1367 Fog 5 1041 93 500 2.1 120 11:25 10.03.2020
1368 Fog 4 1040 86 4000 1 0 10:59 10.03.2020
1369 Fog 4 1040 86 4000 1 0 10:41 10.03.2020
1370 Fog 4 1040 86 4000 1 0 10:41 10.03.2020
1371 Fog 4 1040 86 4000 1 0 10:22 10.03.2020
1372 Clouds 5 1040 80 10000 2.1 320 09:57 10.03.2020
1373 Clouds 5 1040 80 10000 2.1 320 09:38 10.03.2020
1374 Clouds 5 1040 80 10000 2.1 320 09:18 10.03.2020
1375 Clouds 5 1040 86 10000 5.1 310 08:45 10.03.2020
1376 Clouds 5 1040 86 10000 5.1 310 08:26 10.03.2020
1377 Clouds 6 1041 87 10000 2.6 310 07:49 10.03.2020
1378 Clouds 6 1041 87 10000 2.6 310 07:30 10.03.2020
1379 Clouds 6 1041 75 10000 3.1 300 06:42 10.03.2020
1380 Clouds 4 1042 80 10000 0.68 306 06:23 10.03.2020
1381 Clouds 4 1042 80 10000 0.68 306 05:39 10.03.2020
1382 Clouds 7 1042 75 10000 1 0 04:35 10.03.2020
1383 Clouds 7 1041 75 10000 1 0 03:34 10.03.2020
1384 Clouds 9 1040 66 10000 1.5 230 01:55 10.03.2020
1385 Clouds 9 1038 57 10000 2.6 60 00:53 10.03.2020
1386 Clouds 9 1038 57 10000 2.6 60 00:30 10.03.2020
1387 Clouds 11 1038 53 10000 4.6 40 23:56 09.03.2020
1388 Clouds 11 1038 53 10000 4.6 40 23:37 09.03.2020
1389 Clouds 12 1037 50 10000 6.7 40 23:19 09.03.2020
1390 Clouds 12 1037 50 10000 6.7 40 22:40 09.03.2020
1391 Clouds 12 1037 50 10000 6.7 40 22:21 09.03.2020
1392 Clouds 13 1038 43 10000 5.7 50 21:56 09.03.2020
1393 Clouds 13 1038 43 10000 5.7 50 21:56 09.03.2020
1394 Clouds 13 1038 43 10000 5.7 50 21:38 09.03.2020
1395 Clouds 13 1038 43 10000 5.7 50 21:20 09.03.2020
1396 Clouds 16 1038 38 10000 5.1 90 20:41 09.03.2020
1397 Clouds 16 1038 38 10000 5.1 90 20:23 09.03.2020
1398 Clouds 15 1040 44 10000 5.1 110 19:59 09.03.2020
1399 Clouds 15 1040 44 10000 5.1 110 19:41 09.03.2020
1400 Clouds 15 1040 44 10000 5.1 110 19:20 09.03.2020
1401 Clouds 14 1041 41 10000 5.1 90 18:57 09.03.2020
1402 Clouds 14 1041 41 10000 5.1 90 18:38 09.03.2020
1403 Clouds 11 1042 57 10000 5.1 80 18:18 09.03.2020
1404 Clouds 11 1042 57 10000 5.1 80 17:55 09.03.2020
1405 Clouds 11 1042 57 10000 5.1 80 17:37 09.03.2020
1406 Clouds 11 1042 66 10000 5.7 110 17:19 09.03.2020
1407 Clouds 11 1042 66 10000 5.7 110 16:56 09.03.2020
1408 Rain 8 1019 73 0 3 53 16:37 09.03.2020
1409 Clouds 11 1042 66 8000 5.1 120 16:19 09.03.2020
1410 Clouds 11 1042 66 8000 5.1 120 15:55 09.03.2020
1411 Clouds 11 1042 66 8000 5.1 120 15:37 09.03.2020
1412 Clouds 11 1042 66 8000 5.1 120 15:18 09.03.2020
1413 Clouds 9 1042 76 6000 4.6 90 14:39 09.03.2020
1414 Clouds 9 1042 76 6000 4.6 90 14:20 09.03.2020
1415 Clouds 8 1041 87 6000 3.1 80 13:58 09.03.2020
1416 Clouds 8 1041 87 6000 3.1 80 13:39 09.03.2020
1417 Clouds 8 1041 87 6000 3.1 80 13:20 09.03.2020
1418 Fog 6 1040 93 4000 3.1 110 12:44 09.03.2020
1419 Fog 6 1040 93 4000 3.1 110 12:24 09.03.2020
1420 Fog 4 1040 100 4000 3.6 80 11:58 09.03.2020
1421 Fog 4 1040 100 4000 3.6 80 11:40 09.03.2020
1422 Fog 4 1040 100 4000 3.6 80 11:20 09.03.2020
1423 Fog 6 1039 93 4000 4.1 90 10:55 09.03.2020
1424 Fog 6 1039 93 4000 4.1 90 10:37 09.03.2020
1425 Fog 6 1039 93 4000 4.1 90 10:18 09.03.2020
1426 Fog 4 1039 86 4000 3.1 70 09:42 09.03.2020
1427 Fog 4 1039 86 4000 3.1 70 09:23 09.03.2020
1428 Fog 6 1039 87 4000 2.1 20 08:45 09.03.2020
1429 Fog 6 1039 87 4000 2.1 20 08:27 09.03.2020
1430 Clouds 5 1039 86 10000 1 0 07:43 09.03.2020
1431 Clouds 5 1039 86 10000 1 0 07:22 09.03.2020
1432 Clouds 7 1040 87 10000 3.1 250 06:46 09.03.2020
1433 Clouds 7 1040 87 10000 3.1 250 06:46 09.03.2020
1434 Clouds 7 1040 87 10000 3.1 250 06:28 09.03.2020
1435 Clouds 6 1040 87 10000 1 0 05:58 09.03.2020
1436 Clouds 6 1040 87 10000 1 0 05:40 09.03.2020
1437 Clouds 5 1040 80 10000 1.5 110 04:46 09.03.2020
1438 Clouds 5 1040 80 10000 1.5 110 04:23 09.03.2020
1439 Clouds 6 1038 70 10000 2.6 70 03:28 09.03.2020
1440 Clouds 10 1037 85 10000 5.1 60 01:50 09.03.2020
1441 Clouds 12 1036 84 10000 5.1 50 00:40 09.03.2020
1442 Clouds 12 1036 84 10000 5.1 50 00:22 09.03.2020
1443 Clouds 15 1035 33 10000 6.2 50 23:53 08.03.2020
1444 Clouds 15 1035 33 10000 6.2 50 23:25 08.03.2020
1445 Clouds 16 1035 31 10000 5.7 40 22:58 08.03.2020
1446 Clouds 16 1035 31 10000 5.7 40 22:39 08.03.2020
1447 Clouds 16 1035 31 10000 5.7 40 22:20 08.03.2020
1448 Clouds 17 1036 27 10000 6.2 40 21:56 08.03.2020
1449 Clouds 17 1036 27 10000 6.2 40 21:56 08.03.2020
1450 Clouds 17 1036 27 10000 6.2 40 21:38 08.03.2020
1451 Clouds 17 1036 27 10000 6.2 40 21:19 08.03.2020
1452 Clouds 18 1037 20 10000 5.1 60 20:40 08.03.2020
1453 Clouds 18 1037 20 10000 5.1 60 20:21 08.03.2020
1454 Clouds 18 1037 20 10000 5.1 60 20:21 08.03.2020
1455 Clouds 18 1037 20 10000 5.1 60 19:57 08.03.2020
1456 Clouds 17 1038 29 10000 4.6 90 19:37 08.03.2020
1457 Clouds 17 1038 29 10000 4.6 90 19:19 08.03.2020
1458 Clouds 18 1039 27 10000 3.1 90 18:42 08.03.2020
1459 Clouds 18 1039 27 10000 3.1 90 18:24 08.03.2020
1460 Rain 12 1012 54 0 4.77 53 17:56 08.03.2020
1461 Rain 12 1012 54 0 4.77 53 17:38 08.03.2020
1462 Clouds 15 1040 37 10000 2.6 130 17:19 08.03.2020
1463 Clouds 15 1040 37 10000 2.6 130 16:46 08.03.2020
1464 Clouds 15 1040 37 10000 2.6 130 16:27 08.03.2020
1465 Clouds 13 1041 37 10000 1 0 15:56 08.03.2020
1466 Clouds 13 1041 37 10000 1 0 15:38 08.03.2020
1467 Clouds 13 1041 37 10000 1 0 15:19 08.03.2020
1468 Clouds 11 1040 57 10000 1 0 14:41 08.03.2020
1469 Clouds 11 1040 57 10000 1 0 14:21 08.03.2020
1470 Fog 7 1040 93 4000 2.6 80 13:57 08.03.2020
1471 Fog 7 1040 93 4000 2.6 80 13:38 08.03.2020
1472 Fog 7 1040 93 4000 2.6 80 13:19 08.03.2020
1473 Fog 4 1039 93 4000 1 0 12:41 08.03.2020
1474 Fog 4 1039 93 4000 1 0 12:21 08.03.2020
1475 Fog 3 1038 93 4000 2.1 90 11:54 08.03.2020
1476 Clear 7 1018 47 0 0.88 274 11:36 08.03.2020
1477 Fog 4 1037 93 4000 2.1 70 11:18 08.03.2020
1478 Fog 4 1037 93 4000 2.1 70 10:41 08.03.2020
1479 Fog 4 1037 93 4000 2.1 70 10:23 08.03.2020
1480 Fog 4 1037 93 4000 1 0 09:40 08.03.2020
1481 Fog 4 1037 93 4000 1 0 09:22 08.03.2020
1482 Fog 6 1037 93 4000 1 0 08:50 08.03.2020
1483 Fog 6 1037 93 4000 1 0 08:27 08.03.2020
1484 Fog 7 1038 87 4000 1 0 07:51 08.03.2020
1485 Fog 7 1038 87 4000 1 0 07:29 08.03.2020
1486 Fog 7 1038 93 4000 2.1 130 06:58 08.03.2020
1487 Fog 7 1038 93 4000 2.1 130 06:37 08.03.2020
1488 Clouds 7 1038 87 10000 2.6 90 06:18 08.03.2020
1489 Clouds 8 1039 81 10000 3.1 100 05:18 08.03.2020
1490 Clouds 8 1038 81 10000 2.1 80 03:27 08.03.2020
1491 Clouds 8 1037 75 10000 2.1 80 02:27 08.03.2020
1492 Clouds 11 1037 62 10000 3.6 140 01:21 08.03.2020
1493 Clouds 12 1036 54 10000 4.1 130 00:42 08.03.2020
1494 Clouds 16 1035 86 10000 3.6 80 00:23 08.03.2020
1495 Clouds 16 1035 86 10000 3.6 80 23:43 07.03.2020
1496 Clouds 16 1035 70 10000 3.6 80 23:21 07.03.2020
1497 Clouds 17 1035 27 10000 4.6 110 22:38 07.03.2020
1498 Clouds 17 1035 27 10000 4.6 110 22:20 07.03.2020
1499 Clouds 18 1035 70 10000 4.6 100 21:47 07.03.2020
1500 Clouds 18 1035 70 10000 4.6 100 21:24 07.03.2020
1501 Clouds 16 1036 29 10000 6.2 100 20:42 07.03.2020
1502 Clouds 16 1036 29 10000 6.2 100 20:22 07.03.2020
1503 Clouds 16 1036 29 10000 6.2 100 20:22 07.03.2020
1504 Clouds 16 1037 25 10000 5.1 130 19:55 07.03.2020
1505 Clouds 16 1037 25 10000 5.1 130 19:37 07.03.2020
1506 Clouds 16 1037 25 10000 5.1 130 19:18 07.03.2020
1507 Clouds 15 1039 28 10000 6.2 120 18:40 07.03.2020
1508 Clouds 15 1039 28 10000 6.2 120 18:21 07.03.2020
1509 Clouds 15 1040 38 10000 3.6 130 17:42 07.03.2020
1510 Clouds 15 1040 38 10000 3.6 130 17:21 07.03.2020
1511 Clouds 14 1040 50 10000 2.6 120 16:59 07.03.2020
1512 Clouds 14 1040 50 10000 2.6 120 16:41 07.03.2020
1513 Clouds 14 1040 50 10000 2.6 120 16:22 07.03.2020
1514 Clouds 12 1040 54 10000 1 0 15:57 07.03.2020
1515 Clouds 12 1040 54 10000 1 0 15:37 07.03.2020
1516 Clouds 12 1040 54 10000 1 0 15:19 07.03.2020
1517 Clouds 9 1040 66 10000 2.1 220 14:45 07.03.2020
1518 Clouds 9 1040 66 10000 2.1 220 14:24 07.03.2020
1519 Clouds 8 1039 70 10000 1 0 13:57 07.03.2020
1520 Clouds 8 1039 70 10000 1 0 13:38 07.03.2020
1521 Clouds 8 1039 70 10000 1 0 13:18 07.03.2020
1522 Clouds 7 1038 75 10000 2.1 310 12:40 07.03.2020
1523 Clouds 7 1038 75 10000 2.1 310 12:20 07.03.2020
1524 Fog 6 1038 93 4000 1 0 11:56 07.03.2020
1525 Fog 6 1038 93 4000 1 0 11:37 07.03.2020
1526 Fog 6 1038 93 4000 1 0 11:37 07.03.2020
1527 Fog 6 1038 93 4000 1 0 11:19 07.03.2020
1528 Fog 6 1038 93 4000 1 0 10:39 07.03.2020
1529 Fog 6 1038 93 4000 1 0 10:20 07.03.2020
1530 Fog 6 1038 93 4000 1 0 09:42 07.03.2020
1531 Fog 6 1038 93 4000 1 0 09:20 07.03.2020
1532 Fog 5 1038 93 4000 0.48 211 08:59 07.03.2020
1533 Fog 5 1038 93 4000 0.48 211 08:41 07.03.2020
1534 Fog 5 1038 93 4000 1.61 28 08:20 07.03.2020
1535 Fog 5 1038 93 4000 1.61 28 08:20 07.03.2020
1536 Fog 6 1039 87 4000 1 0 07:48 07.03.2020
1537 Clouds 4 1020 87 0 1.61 28 07:22 07.03.2020
1538 Clouds 4 1020 87 0 1.61 28 06:54 07.03.2020
1539 Clouds 4 1020 87 0 1.61 28 06:29 07.03.2020
1540 Clouds 4 1020 87 0 1.61 28 05:45 07.03.2020
1541 Clouds 7 1040 81 10000 4.1 90 04:25 07.03.2020
1542 Clouds 4 1021 83 0 3.06 48 02:46 07.03.2020
1543 Clouds 9 1038 76 10000 6.2 110 02:18 07.03.2020
1544 Clouds 9 1038 76 10000 6.2 110 01:19 07.03.2020
1545 Clouds 10 1037 57 10000 5.1 90 00:28 07.03.2020
1546 Clouds 13 1036 47 10000 5.7 80 23:59 06.03.2020
1547 Clouds 13 1036 47 10000 5.7 80 23:40 06.03.2020
1548 Clouds 13 1036 50 10000 6.2 120 23:22 06.03.2020
1549 Clouds 13 1036 50 10000 6.2 120 22:46 06.03.2020
1550 Clouds 13 1036 50 10000 6.2 120 22:20 06.03.2020
1551 Clouds 16 1036 77 10000 5.1 140 21:49 06.03.2020
1552 Clouds 16 1036 77 10000 5.1 140 21:21 06.03.2020
1553 Clouds 17 1037 23 10000 4.6 130 20:46 06.03.2020
1554 Clouds 17 1037 23 10000 4.6 130 20:23 06.03.2020
1555 Clouds 16 1038 29 10000 3.6 130 19:58 06.03.2020
1556 Clouds 16 1038 29 10000 3.6 130 19:40 06.03.2020
1557 Clouds 16 1038 29 10000 3.6 130 19:21 06.03.2020
1558 Clouds 15 1040 38 10000 4.1 140 18:42 06.03.2020
1559 Clouds 14 1041 50 10000 3.6 140 18:20 06.03.2020
1560 Clouds 14 1041 50 10000 3.6 140 17:56 06.03.2020
1561 Clouds 14 1041 50 10000 3.6 140 17:38 06.03.2020
1562 Clouds 12 1042 58 10000 3.1 110 17:20 06.03.2020
1563 Clouds 12 1042 58 10000 3.1 110 16:54 06.03.2020
1564 Clouds 12 1042 58 10000 3.1 110 16:36 06.03.2020
1565 Clouds 12 1042 58 10000 3.1 110 16:36 06.03.2020
1566 Clouds 12 1042 58 10000 3.1 110 16:18 06.03.2020
1567 Clouds 9 1042 76 10000 3.6 120 15:41 06.03.2020
1568 Clouds 9 1042 76 10000 3.6 120 15:22 06.03.2020
1569 Clouds 9 1042 70 6000 1 0 14:40 06.03.2020
1570 Clouds 9 1042 70 6000 1 0 14:22 06.03.2020
1571 Clouds 7 1041 81 6000 1 0 13:44 06.03.2020
1572 Clouds 7 1041 81 6000 1 0 13:23 06.03.2020
1573 Clouds 7 1041 81 6000 1 0 13:23 06.03.2020
1574 Fog 5 1040 93 4000 2.1 50 12:59 06.03.2020
1575 Fog 5 1040 93 4000 2.1 50 12:40 06.03.2020
1576 Fog 5 1040 93 4000 2.1 50 12:20 06.03.2020
1577 Fog 6 1040 93 4000 3.1 70 11:59 06.03.2020
1578 Fog 6 1040 93 4000 3.1 70 11:40 06.03.2020
1579 Fog 6 1040 93 4000 3.1 70 11:20 06.03.2020
1580 Fog 6 1039 93 4000 2.6 70 10:40 06.03.2020
1581 Fog 6 1039 93 4000 2.6 70 10:21 06.03.2020
1582 Fog 6 1039 93 4000 4.1 110 09:56 06.03.2020
1583 Fog 6 1039 93 4000 4.1 110 09:37 06.03.2020
1584 Fog 6 1039 93 4000 4.1 110 09:19 06.03.2020
1585 Fog 7 1040 93 4000 4.6 90 08:45 06.03.2020
1586 Fog 7 1040 93 4000 4.6 90 08:27 06.03.2020
1587 Fog 8 1040 87 4000 2.1 110 07:57 06.03.2020
1588 Fog 8 1040 87 4000 2.1 110 07:38 06.03.2020
1589 Fog 8 1040 87 4000 2.1 70 06:58 06.03.2020
1590 Fog 8 1040 87 4000 2.1 70 06:39 06.03.2020
1591 Clouds 8 1041 81 10000 2.6 110 05:46 06.03.2020
1592 Clouds 8 1041 81 10000 2.6 110 05:27 06.03.2020
1593 Clouds 8 1041 81 10000 2.1 110 04:57 06.03.2020
1594 Clouds 9 1039 70 10000 5.1 90 02:36 06.03.2020
1595 Clouds 10 1039 71 10000 4.6 100 01:39 06.03.2020
1596 Clouds 10 1039 71 10000 4.6 100 01:20 06.03.2020
1597 Clouds 12 1037 54 10000 3.6 110 00:32 06.03.2020
1598 Clouds 15 1037 38 10000 2.6 90 23:56 05.03.2020
1599 Clouds 15 1037 38 10000 2.6 90 23:38 05.03.2020
1600 Clouds 15 1037 38 10000 2.6 90 23:19 05.03.2020
1601 Clouds 15 1037 28 10000 2.6 130 22:40 05.03.2020
1602 Clouds 15 1037 28 10000 2.6 130 22:21 05.03.2020
1603 Clouds 14 1038 35 10000 6.2 160 21:57 05.03.2020
1604 Clouds 14 1038 35 10000 6.2 160 21:38 05.03.2020
1605 Clouds 14 1038 35 10000 6.2 160 21:20 05.03.2020
1606 Clouds 17 1038 76 10000 4.6 130 20:57 05.03.2020
1607 Clouds 17 1038 76 10000 4.6 130 20:38 05.03.2020
1608 Clouds 17 1038 73 10000 4.6 130 20:18 05.03.2020
1609 Clouds 15 1040 33 10000 3.1 180 19:55 05.03.2020
1610 Clouds 15 1040 33 10000 3.1 180 19:37 05.03.2020
1611 Clouds 15 1040 33 10000 3.1 180 19:18 05.03.2020
1612 Clouds 15 1041 41 10000 2.1 140 18:38 05.03.2020
1613 Clouds 15 1041 41 10000 2.1 140 18:19 05.03.2020
1614 Clouds 12 1042 54 10000 1 0 17:59 05.03.2020
1615 Clouds 12 1042 54 10000 1 0 17:40 05.03.2020
1616 Clouds 12 1042 54 10000 1 0 17:21 05.03.2020
1617 Clouds 12 1042 54 10000 1 0 16:43 05.03.2020
1618 Clouds 12 1042 54 10000 1 0 16:25 05.03.2020
1619 Clouds 12 1042 54 10000 1 0 16:25 05.03.2020
1620 Clouds 10 1042 66 10000 1 0 15:59 05.03.2020
1621 Clouds 10 1042 66 10000 1 0 15:40 05.03.2020
1622 -273 0 0 0 0 0 15:21 05.03.2020
1623 Clouds 8 1043 75 6000 1 0 14:55 05.03.2020
1624 Clouds 8 1043 75 6000 1 0 14:36 05.03.2020
1625 Clouds 8 1043 75 6000 1 0 14:18 05.03.2020
1626 Fog 6 1042 93 4000 1 0 13:43 05.03.2020
1627 Fog 6 1042 93 4000 1 0 13:21 05.03.2020
1628 Fog 6 1042 93 4000 1 0 13:21 05.03.2020
1629 Fog 5 1041 93 4000 2.6 100 12:57 05.03.2020
1630 Fog 5 1041 93 4000 2.6 100 12:38 05.03.2020
1631 Fog 5 1041 93 4000 2.6 100 12:19 05.03.2020
1632 Fog 5 1040 93 4000 4.1 90 11:56 05.03.2020
1633 Fog 5 1040 93 4000 4.1 90 11:37 05.03.2020
1634 Fog 5 1040 93 4000 4.1 90 11:18 05.03.2020
1635 Fog 5 1040 93 4000 4.6 100 10:56 05.03.2020
1636 Fog 5 1040 93 4000 4.6 100 10:38 05.03.2020
1637 Fog 5 1040 93 4000 4.6 100 10:38 05.03.2020
1638 Fog 5 1040 93 4000 4.6 100 10:38 05.03.2020
1639 Fog 5 1040 93 4000 4.6 100 10:19 05.03.2020
1640 Fog 5 1039 93 4000 4.6 100 09:44 05.03.2020
1641 Fog 5 1039 93 4000 4.6 100 09:26 05.03.2020
1642 Fog 5 1040 93 4000 5.7 100 08:44 05.03.2020
1643 Fog 5 1040 93 4000 5.7 100 08:25 05.03.2020
1644 Fog 6 1040 93 4000 4.1 100 07:47 05.03.2020
1645 Fog 6 1040 93 4000 4.1 100 07:22 05.03.2020
1646 Fog 6 1041 93 4000 3.6 110 06:48 05.03.2020
1647 Fog 6 1041 93 4000 3.6 110 06:22 05.03.2020
1648 Fog 7 1041 87 4000 3.1 130 05:39 05.03.2020
1649 Fog 7 1041 93 4000 3.1 130 04:55 05.03.2020
1650 Fog 7 1041 93 4000 3.1 130 04:22 05.03.2020
1651 Clouds 7 1040 87 10000 2.1 90 03:34 05.03.2020
1652 Clouds 10 1038 71 10000 3.1 100 01:55 05.03.2020
1653 Clouds 10 1038 71 10000 3.1 100 01:20 05.03.2020
1654 Clouds 11 1037 62 10000 4.6 110 00:26 05.03.2020
1655 Clouds 14 1037 50 10000 6.7 120 23:42 04.03.2020
1656 Clouds 14 1037 50 10000 6.7 120 23:23 04.03.2020
1657 Clouds 16 1037 38 10000 6.2 120 22:58 04.03.2020
1658 Clouds 16 1037 38 10000 6.2 120 22:39 04.03.2020
1659 Clouds 16 1037 38 10000 6.2 120 22:19 04.03.2020
1660 Clouds 16 1037 41 10000 6.2 130 21:57 04.03.2020
1661 Clouds 16 1037 41 10000 6.2 130 21:39 04.03.2020
1662 Clouds 16 1037 41 10000 6.2 130 21:20 04.03.2020
1663 Clouds 15 1038 41 10000 6.2 120 20:54 04.03.2020
1664 Clouds 15 1038 41 10000 6.2 120 20:36 04.03.2020
1665 Clouds 15 1038 41 10000 6.2 120 20:18 04.03.2020
1666 Clouds 15 1039 44 10000 5.1 110 19:42 04.03.2020
1667 Clouds 15 1039 44 10000 5.1 110 19:22 04.03.2020
1668 Clouds 14 1040 50 10000 5.7 120 18:43 04.03.2020
1669 Clouds 14 1040 50 10000 5.7 120 18:24 04.03.2020
1670 Clouds 13 1041 54 10000 3.6 140 17:59 04.03.2020
1671 Clouds 13 1041 54 10000 3.6 140 17:40 04.03.2020
1672 Clouds 13 1041 54 10000 3.6 140 17:21 04.03.2020
1673 Clouds 12 1041 62 10000 4.6 120 16:58 04.03.2020
1674 Clouds 12 1041 62 10000 4.6 120 16:38 04.03.2020
1675 Clouds 12 1041 62 10000 4.6 120 16:20 04.03.2020
1676 Clouds 11 1041 62 10000 3.6 110 15:55 04.03.2020
1677 Clouds 11 1041 62 10000 3.6 110 15:36 04.03.2020
1678 Clouds 11 1041 62 10000 3.6 110 15:18 04.03.2020
1679 Clouds 9 1042 70 10000 2.6 110 14:41 04.03.2020
1680 Clouds 9 1042 70 10000 2.6 110 14:21 04.03.2020
1681 Clouds 7 1041 81 6000 3.1 130 13:58 04.03.2020
1682 Clouds 7 1041 81 6000 3.1 130 13:39 04.03.2020
1683 Clouds 7 1041 81 6000 3.1 130 13:21 04.03.2020
1684 Fog 5 1040 93 4000 3.6 110 12:56 04.03.2020
1685 Fog 5 1040 93 4000 3.6 110 12:38 04.03.2020
1686 Fog 5 1040 93 4000 3.6 110 12:19 04.03.2020
1687 Fog 5 1040 93 4000 2.6 80 11:54 04.03.2020
1688 Fog 5 1040 93 4000 2.6 80 11:36 04.03.2020
1689 Fog 5 1040 93 4000 2.6 80 11:18 04.03.2020
1690 Fog 5 1039 93 4000 3.1 110 10:41 04.03.2020
1691 Fog 5 1039 93 4000 3.1 110 10:22 04.03.2020
1692 Fog 5 1039 100 4000 1.5 140 09:44 04.03.2020
1693 Fog 5 1039 100 4000 1.5 140 09:44 04.03.2020
1694 Fog 5 1039 100 4000 1.5 140 09:21 04.03.2020
1695 Fog 5 1039 100 4000 1 0 08:56 04.03.2020
1696 Fog 5 1039 100 4000 1 0 08:37 04.03.2020
1697 Fog 5 1039 100 4000 1 0 08:19 04.03.2020
1698 Fog 5 1039 93 4000 1.5 130 07:39 04.03.2020
1699 Fog 5 1039 93 4000 1.5 130 07:20 04.03.2020
1700 Fog 23 1013 94 4000 1.5 50 06:47 04.03.2020
1701 Fog 23 1013 94 4000 1.5 50 06:47 04.03.2020
1702 Fog 23 1013 94 4000 1.5 50 06:24 04.03.2020
1703 Fog 5 1039 93 4000 4.1 90 05:54 04.03.2020
1704 Fog 6 1038 93 4000 5.7 100 04:34 04.03.2020
1705 Fog 6 1038 93 4000 5.7 90 03:44 04.03.2020
1706 Fog 6 1038 93 4000 5.7 90 03:25 04.03.2020
1707 Clouds 7 1037 93 4000 4.1 100 02:55 04.03.2020
1708 Clouds 7 1037 93 4000 4.1 100 02:21 04.03.2020
1709 Clouds 8 1036 87 10000 5.1 100 01:55 04.03.2020
1710 Clouds 10 1036 71 10000 4.6 90 00:52 04.03.2020
1711 Clouds 10 1036 71 10000 4.6 90 00:52 04.03.2020
1712 Clouds 10 1036 71 10000 4.6 90 00:27 04.03.2020
1713 Clouds 10 1036 71 10000 4.6 90 00:27 04.03.2020
1714 Clouds 12 1035 62 10000 5.1 120 23:47 03.03.2020
1715 Clouds 12 1035 62 10000 5.1 120 23:28 03.03.2020
1716 Clouds 14 1035 50 10000 4.1 130 22:59 03.03.2020
1717 Clouds 14 1035 50 10000 4.1 130 22:40 03.03.2020
1718 Clouds 14 1035 50 10000 4.1 130 22:20 03.03.2020
1719 Clouds 14 1035 50 10000 4.1 130 22:20 03.03.2020
1720 Clouds 15 1035 44 10000 3.1 80 21:57 03.03.2020
1721 Clouds 15 1035 44 10000 3.1 80 21:38 03.03.2020
1722 Clouds 15 1035 44 10000 3.1 80 21:19 03.03.2020
1723 Clouds 14 1036 54 10000 4.1 100 20:55 03.03.2020
1724 Clouds 14 1036 54 10000 4.1 100 20:36 03.03.2020
1725 Clouds 14 1036 54 10000 4.1 100 20:18 03.03.2020
1726 Clouds 14 1038 54 10000 4.1 100 19:54 03.03.2020
1727 Clouds 14 1038 54 10000 4.1 100 19:36 03.03.2020
1728 Clouds 14 1038 54 10000 4.1 100 19:18 03.03.2020
1729 Clouds 12 1039 66 10000 3.6 120 18:42 03.03.2020
1730 Clouds 12 1039 66 10000 3.6 120 18:21 03.03.2020
1731 Clouds 11 1039 71 10000 4.1 100 17:59 03.03.2020
1732 Clouds 11 1039 71 10000 4.1 100 17:39 03.03.2020
1733 Clouds 11 1039 71 10000 4.1 100 17:39 03.03.2020
1734 Clouds 11 1039 71 10000 4.1 100 17:21 03.03.2020
1735 Clouds 10 1040 76 0 4.1 90 16:57 03.03.2020
1736 Clouds 10 1040 76 0 4.1 90 16:37 03.03.2020
1737 Clouds 10 1040 76 0 4.1 90 16:19 03.03.2020
1738 Clouds 10 1039 76 6000 1 0 15:45 03.03.2020
1739 Clouds 10 1039 76 6000 1 0 15:22 03.03.2020
1740 Clouds 9 1039 76 6000 1 0 14:57 03.03.2020
1741 Clouds 9 1039 76 6000 1 0 14:38 03.03.2020
1742 Clouds 9 1039 76 6000 1 0 14:19 03.03.2020
1743 Fog 6 1039 93 4000 2.1 70 13:56 03.03.2020
1744 Fog 6 1039 93 4000 2.1 70 13:38 03.03.2020
1745 Fog 6 1039 93 4000 2.1 70 13:18 03.03.2020
1746 Fog 6 1039 93 4000 2.1 70 13:18 03.03.2020
1747 Fog 5 1038 93 4000 2.6 80 12:42 03.03.2020
1748 Fog 5 1038 93 4000 2.6 80 12:23 03.03.2020
1749 Fog 5 1038 93 4000 2.6 80 12:23 03.03.2020
1750 Fog 5 1038 93 4000 3.6 70 11:55 03.03.2020
1751 Fog 5 1038 93 4000 3.6 70 11:37 03.03.2020
1752 Fog 5 1038 93 4000 3.6 70 11:18 03.03.2020
1753 Fog 5 1037 93 4000 3.1 90 10:54 03.03.2020
1754 Fog 5 1037 93 4000 3.1 90 10:36 03.03.2020
1755 Fog 5 1037 93 4000 3.1 90 10:18 03.03.2020
1756 Fog 5 1037 93 4000 3.1 90 10:18 03.03.2020
1757 Fog 6 1037 93 4000 3.1 80 09:41 03.03.2020
1758 Fog 6 1037 93 4000 3.1 80 09:20 03.03.2020
1759 Fog 6 1038 93 4000 3.1 90 08:42 03.03.2020
1760 Fog 6 1038 93 4000 3.1 90 08:22 03.03.2020
1761 Fog 6 1038 100 3000 4.6 110 07:56 03.03.2020
1762 Fog 6 1038 100 3000 4.6 110 07:37 03.03.2020
1763 Fog 6 1038 100 3000 4.6 110 07:18 03.03.2020
1764 Fog 7 1039 93 2000 4.1 100 06:40 03.03.2020
1765 Fog 7 1039 93 2000 4.1 100 06:20 03.03.2020
1766 Clouds 9 1039 70 10000 3.1 350 05:42 03.03.2020
1767 Clouds 8 1040 75 10000 1 0 04:51 03.03.2020
1768 Clouds 8 1038 87 10000 3.1 20 02:38 03.03.2020
1769 Clouds 9 1038 87 10000 5.7 120 01:27 03.03.2020
1770 Clouds 9 1037 87 10000 2.6 110 00:41 03.03.2020
1771 Clouds 9 1037 87 10000 2.6 110 00:22 03.03.2020
1772 Clouds 10 1036 81 10000 3.6 60 23:48 02.03.2020
1773 Clouds 10 1036 81 10000 3.6 60 23:23 02.03.2020
1774 Clouds 12 1036 66 10000 4.6 100 22:57 02.03.2020
1775 Clouds 12 1036 66 10000 4.6 100 22:38 02.03.2020
1776 Clouds 12 1036 66 10000 4.6 100 22:19 02.03.2020
1777 Thunderstorm 12 1036 71 10000 5.1 100 21:55 02.03.2020
1778 Thunderstorm 8 1036 87 8000 4.1 50 21:36 02.03.2020
1779 Thunderstorm 8 1036 87 8000 4.1 50 21:18 02.03.2020
1780 Clouds 12 1036 66 8000 3.6 140 20:41 02.03.2020
1781 Clouds 12 1036 66 8000 3.6 140 20:22 02.03.2020
1782 Thunderstorm 12 1037 71 8000 3.6 140 19:58 02.03.2020
1783 Clouds 14 1038 54 10000 2.1 100 19:39 02.03.2020
1784 Clouds 14 1038 54 10000 2.1 100 19:20 02.03.2020
1785 Clouds 14 1039 54 10000 2.6 60 18:55 02.03.2020
1786 Clouds 14 1039 54 10000 2.6 60 18:37 02.03.2020
1787 Clouds 14 1039 54 10000 2.6 60 18:18 02.03.2020
1788 Clouds 13 1040 54 10000 1 0 17:55 02.03.2020
1789 Clouds 13 1040 54 10000 1 0 17:37 02.03.2020
1790 Clouds 13 1040 54 10000 1 0 17:19 02.03.2020
1791 Clouds 11 1041 62 10000 1 0 16:41 02.03.2020
1792 Clouds 11 1041 62 10000 1 0 16:23 02.03.2020
1793 Clouds 10 1041 71 10000 1 0 15:45 02.03.2020
1794 Clouds 10 1041 71 10000 1 0 15:45 02.03.2020
1795 Clouds 10 1041 71 10000 1 0 15:22 02.03.2020
1796 Clouds 8 1041 87 10000 1 0 14:58 02.03.2020
1797 Clouds 8 1041 87 10000 1 0 14:37 02.03.2020
1798 Clouds 8 1041 87 10000 1 0 14:37 02.03.2020
1799 Clouds 8 1041 87 10000 1 0 14:19 02.03.2020
1800 Fog 6 1040 100 3000 2.6 80 13:44 02.03.2020
1801 Fog 6 1040 100 3000 2.6 80 13:20 02.03.2020
1802 Fog 6 1039 100 3000 2.1 70 12:59 02.03.2020
1803 Fog 6 1039 100 3000 2.1 70 12:40 02.03.2020
1804 Fog 6 1039 100 3000 2.1 70 12:18 02.03.2020
1805 Fog 6 1039 100 4000 2.6 80 11:38 02.03.2020
1806 Fog 6 1039 100 4000 2.6 80 11:19 02.03.2020
1807 Fog 6 1038 93 3000 3.1 90 10:55 02.03.2020
1808 Fog 6 1038 93 3000 3.1 90 10:37 02.03.2020
1809 Fog 6 1038 93 3000 3.1 90 10:18 02.03.2020
1810 Fog 7 1039 93 3000 3.6 90 09:45 02.03.2020
1811 Fog 7 1039 93 3000 3.6 90 09:26 02.03.2020
1812 Fog 7 1039 93 3000 3.1 80 08:48 02.03.2020
1813 Fog 7 1039 93 3000 3.1 80 08:22 02.03.2020
1814 Fog 7 1040 93 4000 4.6 100 07:47 02.03.2020
1815 Fog 7 1040 93 4000 4.6 100 07:28 02.03.2020
1816 Fog 6 1040 100 4000 2.6 70 06:50 02.03.2020
1817 Fog 8 1040 87 4000 1 0 05:59 02.03.2020
1818 Clouds 7 1041 93 10000 2.59 42 04:56 02.03.2020
1819 Clouds 8 1041 87 10000 2.6 270 03:25 02.03.2020
1820 Rain 8 1040 81 10000 1 0 02:53 02.03.2020
1821 Rain 9 1040 76 8000 5.1 200 01:55 02.03.2020
1822 Rain 9 1040 76 8000 5.1 200 01:33 02.03.2020
1823 Clouds 10 1039 71 10000 4.6 140 00:24 02.03.2020
1824 Clouds 11 1037 66 8000 5.7 130 23:59 01.03.2020
1825 Clouds 11 1037 66 8000 5.7 130 23:41 01.03.2020
1826 Clouds 11 1037 66 8000 5.7 130 23:21 01.03.2020
1827 Clouds 15 1036 54 10000 5.7 100 22:43 01.03.2020
1828 Clouds 15 1036 54 10000 5.7 100 22:21 01.03.2020
1829 Clouds 17 1037 42 10000 3.6 130 21:57 01.03.2020
1830 Clouds 17 1037 42 10000 3.6 130 21:39 01.03.2020
1831 Clouds 17 1037 42 10000 3.6 130 21:20 01.03.2020
1832 Clouds 16 1038 44 10000 3.1 130 20:44 01.03.2020
1833 Clouds 16 1038 44 10000 3.1 130 20:25 01.03.2020
1834 Clouds 16 1038 44 10000 3.1 130 20:25 01.03.2020
1835 Clouds 15 1039 47 10000 3.6 110 19:57 01.03.2020
1836 Clouds 15 1039 47 10000 3.6 110 19:39 01.03.2020
1837 Clouds 15 1039 47 10000 3.6 110 19:21 01.03.2020
1838 Clouds 14 1040 54 10000 3.1 120 18:41 01.03.2020
1839 Clouds 14 1040 54 10000 3.1 120 18:20 01.03.2020
1840 Clouds 12 1041 58 10000 3.6 110 17:58 01.03.2020
1841 Clouds 12 1041 58 10000 3.6 110 17:40 01.03.2020
1842 Clouds 12 1041 58 10000 3.6 110 17:21 01.03.2020
1843 Clouds 12 1042 58 8000 3.1 120 16:58 01.03.2020
1844 Clouds 12 1042 58 8000 3.1 120 16:39 01.03.2020
1845 Clouds 12 1042 58 8000 3.1 120 16:19 01.03.2020
1846 Clouds 9 1042 70 8000 2.6 130 15:57 01.03.2020
1847 Clouds 9 1042 70 8000 2.6 130 15:39 01.03.2020
1848 Clouds 9 1042 70 8000 2.6 130 15:20 01.03.2020
1849 Clouds 8 1042 81 6000 2.6 120 14:57 01.03.2020
1850 Clouds 8 1042 81 6000 2.6 120 14:38 01.03.2020
1851 Clouds 8 1042 81 6000 2.6 120 14:20 01.03.2020
1852 Clouds 8 1041 75 6000 1 0 13:56 01.03.2020
1853 Clouds 8 1041 75 6000 1 0 13:37 01.03.2020
1854 Clouds 8 1041 75 6000 1 0 13:37 01.03.2020
1855 Clouds 8 1041 75 6000 1 0 13:18 01.03.2020
1856 Fog 6 1041 87 4000 2.6 350 12:42 01.03.2020
1857 Fog 6 1041 87 4000 2.6 350 12:21 01.03.2020
1858 Fog 5 1040 93 4000 1 0 11:44 01.03.2020
1859 Fog 5 1040 93 4000 1 0 11:26 01.03.2020
1860 Fog 5 1040 93 4000 1 0 11:26 01.03.2020
1861 Fog 5 1039 93 4000 2.6 90 10:58 01.03.2020
1862 Fog 5 1039 93 4000 2.6 90 10:38 01.03.2020
1863 Fog 5 1039 93 4000 2.6 90 10:20 01.03.2020
1864 Fog 5 1039 93 4000 2.6 90 10:20 01.03.2020
1865 Fog 5 1039 100 3000 4.1 100 09:59 01.03.2020
1866 Fog 5 1039 100 3000 4.1 100 09:41 01.03.2020
1867 Fog 5 1039 100 3000 4.1 100 09:21 01.03.2020
1868 Fog 6 1040 93 4000 3.6 80 08:43 01.03.2020
1869 Fog 6 1040 93 4000 3.6 80 08:25 01.03.2020
1870 Fog 6 1040 93 4000 3.6 100 07:43 01.03.2020
1871 Fog 6 1040 93 4000 3.6 100 07:24 01.03.2020
1872 Fog 6 1041 93 4000 3.6 90 06:58 01.03.2020
1873 Fog 6 1041 93 4000 3.6 90 06:38 01.03.2020
1874 Clouds 8 1042 87 10000 4.1 100 04:27 01.03.2020
1875 Clouds 8 1040 87 10000 3.1 90 02:55 01.03.2020
1876 Clouds 9 1039 76 10000 3.1 80 01:54 01.03.2020
1877 Clouds 9 1039 76 10000 3.1 80 01:31 01.03.2020
1878 Clouds 10 1038 66 10000 3.1 60 00:45 01.03.2020
1879 Clouds 10 1038 66 10000 3.1 60 00:22 01.03.2020
1880 Clouds 12 1037 58 10000 3.1 50 23:54 29.02.2020
1881 Clouds 12 1037 58 10000 3.1 50 23:33 29.02.2020
1882 Clouds 13 1037 58 10000 2.1 70 22:45 29.02.2020
1883 Clouds 13 1037 58 10000 2.1 70 22:25 29.02.2020
1884 Thunderstorm 14 1038 58 10000 3.6 100 21:44 29.02.2020
1885 Thunderstorm 14 1038 58 10000 3.6 100 21:26 29.02.2020
1886 Thunderstorm 15 1038 54 10000 4.6 120 20:45 29.02.2020
1887 Thunderstorm 15 1038 54 10000 4.6 120 20:22 29.02.2020
1888 Thunderstorm 15 1040 54 10000 5.1 120 19:58 29.02.2020
1889 Thunderstorm 15 1040 54 10000 5.1 120 19:39 29.02.2020
1890 Thunderstorm 15 1040 54 10000 5.1 120 19:39 29.02.2020
1891 Thunderstorm 15 1040 54 10000 5.1 120 19:21 29.02.2020
1892 Clouds 14 1041 58 10000 4.6 110 18:44 29.02.2020
1893 Clouds 14 1041 58 10000 4.6 110 18:25 29.02.2020
1894 Clouds 13 1042 66 10000 6.2 120 17:58 29.02.2020
1895 Clouds 13 1042 66 10000 6.2 120 17:40 29.02.2020
1896 Clouds 13 1042 66 10000 6.2 120 17:21 29.02.2020
1897 Clouds 12 1042 66 10000 5.1 110 16:57 29.02.2020
1898 Clouds 12 1042 66 10000 5.1 110 16:39 29.02.2020
1899 Clouds 12 1042 66 10000 5.1 110 16:18 29.02.2020
1900 Clouds 11 1042 71 8000 4.6 110 15:41 29.02.2020
1901 Clouds 11 1042 71 8000 4.6 110 15:23 29.02.2020
1902 Clouds 9 1042 81 6000 4.6 100 14:42 29.02.2020
1903 Clouds 9 1042 81 6000 4.6 100 14:24 29.02.2020
1904 Clouds 8 1041 87 6000 3.6 80 13:58 29.02.2020
1905 Clouds 8 1041 87 6000 3.6 80 13:38 29.02.2020
1906 Clouds 8 1041 87 6000 3.6 80 13:20 29.02.2020
1907 Fog 5 1040 93 4000 2.6 70 12:43 29.02.2020
1908 Fog 5 1040 93 4000 2.6 70 12:22 29.02.2020
1909 Fog 5 1040 93 4000 1 0 11:57 29.02.2020
1910 Fog 5 1040 93 4000 1 0 11:39 29.02.2020
1911 Fog 5 1040 93 4000 1 0 11:21 29.02.2020
1912 Fog 5 1039 100 4000 3.1 80 10:46 29.02.2020
1913 Fog 5 1039 100 4000 3.1 80 10:28 29.02.2020
1914 Fog 7 1039 93 4000 3.1 90 09:50 29.02.2020
1915 Fog 7 1039 93 4000 3.1 90 09:27 29.02.2020
1916 Fog 6 1039 93 4000 4.1 70 08:43 29.02.2020
1917 Fog 6 1039 93 4000 4.1 70 08:24 29.02.2020
1918 Fog 7 1039 93 4000 4.6 90 07:59 29.02.2020
1919 Rain 6 1020 87 0 2.64 40 07:41 29.02.2020
1920 Fog 7 1040 93 4000 3.6 80 07:18 29.02.2020
1921 Fog 7 1040 93 4000 3.6 80 06:45 29.02.2020
1922 Fog 7 1040 93 4000 3.6 80 06:25 29.02.2020
1923 Fog 7 1040 93 4000 3.1 80 05:47 29.02.2020
1924 Fog 7 1040 93 4000 2.6 80 04:46 29.02.2020
1925 Clouds 8 1040 87 10000 3.6 100 03:40 29.02.2020
1926 Clouds 8 1040 87 10000 3.6 100 03:22 29.02.2020
1927 Clouds 9 1039 81 10000 3.1 120 02:37 29.02.2020
1928 Clouds 11 1037 71 10000 3.1 110 00:59 29.02.2020
1929 Clouds 11 1037 71 10000 3.1 110 00:37 29.02.2020
1930 Clouds 13 1036 62 10000 4.1 110 23:46 28.02.2020
1931 Clouds 13 1036 62 10000 4.1 110 23:25 28.02.2020
1932 Clouds 14 1036 58 10000 4.6 100 22:55 28.02.2020
1933 Clouds 14 1036 58 10000 4.6 100 22:36 28.02.2020
1934 Clouds 14 1036 58 10000 4.6 100 22:18 28.02.2020
1935 Clouds 15 1036 54 10000 4.6 110 21:41 28.02.2020
1936 Clouds 15 1036 54 10000 4.6 110 21:41 28.02.2020
1937 Clouds 15 1036 54 10000 4.6 110 21:21 28.02.2020
1938 Clouds 16 1037 48 10000 4.1 120 20:41 28.02.2020
1939 Clouds 16 1037 48 10000 4.1 120 20:22 28.02.2020
1940 Clouds 16 1037 48 10000 4.1 120 20:22 28.02.2020
1941 Clouds 15 1038 51 10000 2.6 150 19:59 28.02.2020
1942 Clouds 15 1038 51 10000 2.6 150 19:39 28.02.2020
1943 Clouds 15 1038 51 10000 2.6 150 19:21 28.02.2020
1944 Clouds 14 1040 54 10000 2.6 140 18:57 28.02.2020
1945 Clouds 14 1040 54 10000 2.6 140 18:38 28.02.2020
1946 Clouds 14 1040 54 10000 2.6 140 18:20 28.02.2020
1947 Clouds 13 1040 58 10000 3.1 130 17:41 28.02.2020
1948 Clouds 13 1040 58 10000 3.1 130 17:22 28.02.2020
1949 Clouds 13 1041 62 10000 2.6 120 16:46 28.02.2020
1950 Clouds 13 1041 62 10000 2.6 120 16:20 28.02.2020
1951 Clouds 11 1041 71 10000 2.6 130 15:58 28.02.2020
1952 Clouds 11 1041 71 10000 2.6 130 15:40 28.02.2020
1953 Clouds 11 1041 71 10000 2.6 130 15:19 28.02.2020
1954 Clouds 11 1041 71 10000 2.6 130 15:19 28.02.2020
1955 Clouds 11 1041 62 10000 1 0 14:57 28.02.2020
1956 Clouds 11 1041 62 10000 1 0 14:38 28.02.2020
1957 Clouds 11 1041 62 10000 1 0 14:38 28.02.2020
1958 Clouds 11 1041 62 10000 1 0 14:18 28.02.2020
1959 Clouds 8 1040 81 6000 2.6 60 13:41 28.02.2020
1960 Clouds 8 1040 81 6000 2.6 60 13:20 28.02.2020
1961 Clouds 8 1040 81 6000 2.6 60 13:20 28.02.2020
1962 Fog 5 1039 93 4000 1.5 100 12:58 28.02.2020
1963 Fog 5 1039 93 4000 1.5 100 12:40 28.02.2020
1964 Fog 5 1039 93 4000 1.5 100 12:22 28.02.2020
1965 Fog 6 1038 93 3000 1.5 80 11:41 28.02.2020
1966 Fog 6 1038 93 3000 1.5 80 11:23 28.02.2020
1967 Fog 6 1038 100 3000 2.1 110 10:57 28.02.2020
1968 Fog 6 1038 100 3000 2.1 110 10:37 28.02.2020
1969 Fog 6 1038 100 3000 2.1 110 10:37 28.02.2020
1970 Fog 6 1038 100 3000 2.1 110 10:18 28.02.2020
1971 Fog 6 1038 93 4000 2.1 70 09:43 28.02.2020
1972 Fog 6 1038 93 4000 2.1 70 09:20 28.02.2020
1973 Fog 7 1038 93 4000 1 0 08:54 28.02.2020
1974 Fog 7 1038 93 4000 1 0 08:36 28.02.2020
1975 Fog 7 1038 93 4000 1 0 08:18 28.02.2020
1976 Fog 7 1039 93 4000 1 0 07:38 28.02.2020
1977 Fog 7 1039 93 4000 1 0 07:19 28.02.2020
1978 Fog 8 1040 93 4000 1.5 260 06:41 28.02.2020
1979 Fog 8 1040 93 4000 2.6 270 05:37 28.02.2020
1980 Fog 8 1040 93 4000 1.5 50 04:32 28.02.2020
1981 Clouds 9 1039 81 10000 4.1 100 03:34 28.02.2020
1982 Clouds 9 1038 87 10000 2.6 100 02:41 28.02.2020
1983 Clouds 9 1038 87 10000 4.6 120 01:48 28.02.2020
1984 Clouds 10 1036 76 10000 4.1 110 00:33 28.02.2020
1985 Thunderstorm 11 1036 71 10000 4.1 120 23:47 27.02.2020
1986 Thunderstorm 11 1036 71 10000 4.1 120 23:23 27.02.2020
1987 Thunderstorm 12 1035 62 10000 6.7 90 22:58 27.02.2020
1988 Thunderstorm 12 1035 62 10000 6.7 90 22:39 27.02.2020
1989 Thunderstorm 12 1035 62 10000 6.7 90 22:21 27.02.2020
1990 Clouds 15 1036 54 10000 6.2 100 21:42 27.02.2020
1991 Clouds 15 1036 54 10000 6.2 100 21:23 27.02.2020
1992 Clouds 14 1036 58 10000 3.1 150 20:59 27.02.2020
1993 Clouds 14 1036 58 10000 3.1 150 20:41 27.02.2020
1994 Clouds 14 1036 58 10000 3.1 150 20:23 27.02.2020
1995 Clouds 14 1036 58 10000 3.1 150 20:23 27.02.2020
1996 Clouds 15 1038 54 10000 3.1 200 19:57 27.02.2020
1997 Clouds 15 1038 54 10000 3.1 200 19:39 27.02.2020
1998 Clouds 13 1038 62 10000 2.6 130 19:20 27.02.2020
1999 Clouds 13 1038 62 10000 2.6 130 18:54 27.02.2020
2000 Clouds 13 1038 62 10000 2.6 130 18:36 27.02.2020
2001 Clouds 13 1038 62 10000 2.6 130 18:18 27.02.2020
2002 Clouds 14 1039 58 10000 1 0 17:40 27.02.2020
2003 Clouds 14 1039 58 10000 1 0 17:20 27.02.2020
2004 Clouds 12 1040 58 10000 3.1 280 16:59 27.02.2020
2005 Clouds 12 1040 58 10000 3.1 280 16:40 27.02.2020
2006 Clouds 12 1040 58 10000 3.1 280 16:20 27.02.2020
2007 Clouds 10 1040 71 6000 2.6 300 15:59 27.02.2020
2008 Clouds 10 1040 71 6000 2.6 300 15:37 27.02.2020
2009 Clouds 10 1040 71 6000 2.6 300 15:19 27.02.2020
2010 Clouds 8 1040 81 6000 2.1 340 14:56 27.02.2020
2011 Clouds 8 1040 81 6000 2.1 340 14:37 27.02.2020
2012 Clouds 8 1040 81 6000 2.1 340 14:19 27.02.2020
2013 Fog 7 1039 93 4000 1 0 13:42 27.02.2020
2014 Fog 7 1039 93 4000 1 0 13:42 27.02.2020
2015 Fog 7 1039 93 4000 1 0 13:21 27.02.2020
2016 Fog 7 1039 93 4000 1 0 13:21 27.02.2020
2017 Fog 7 1038 93 4000 1 0 12:48 27.02.2020
2018 Fog 7 1038 93 4000 1 0 12:25 27.02.2020
2019 Fog 6 1038 93 4000 2.6 110 11:59 27.02.2020
2020 Fog 6 1038 93 4000 2.6 110 11:41 27.02.2020
2021 Fog 6 1038 93 4000 2.6 110 11:21 27.02.2020
2022 Fog 6 1038 93 4000 2.6 120 10:43 27.02.2020
2023 Fog 6 1038 93 4000 2.6 120 10:23 27.02.2020
2024 Fog 7 1038 93 4000 2.1 100 09:48 27.02.2020
2025 Fog 7 1038 93 4000 2.1 100 09:29 27.02.2020
2026 Rain 4 1019 95 0 1.17 230 08:57 27.02.2020
2027 Rain 4 1019 95 0 1.17 230 08:39 27.02.2020
2028 Rain 4 1019 92 0 0.91 348 08:21 27.02.2020
2029 Fog 6 1039 93 4000 2.6 110 07:44 27.02.2020
2030 Fog 6 1039 93 4000 2.6 110 07:25 27.02.2020
2031 Fog 7 1040 93 4000 2.6 110 06:45 27.02.2020
2032 Fog 7 1040 93 4000 1 0 05:34 27.02.2020
2033 Clouds 7 1040 93 10000 3.6 120 03:38 27.02.2020
2034 Fog 8 1039 93 4000 3.6 110 02:20 27.02.2020
2035 Clouds 9 1037 76 10000 5.1 90 00:44 27.02.2020
2036 Clouds 9 1037 76 10000 5.1 90 00:24 27.02.2020
2037 Clouds 10 1036 66 10000 4.6 130 23:39 26.02.2020
2038 Clouds 10 1036 66 10000 4.6 130 23:19 26.02.2020
2039 Thunderstorm 12 1036 71 10000 6.2 50 22:56 26.02.2020
2040 Thunderstorm 12 1036 71 10000 6.2 50 22:38 26.02.2020
2041 Thunderstorm 12 1036 71 10000 6.2 50 22:19 26.02.2020
2042 Clouds 12 1036 66 10000 5.7 290 21:40 26.02.2020
2043 Clouds 12 1036 66 10000 5.7 290 21:21 26.02.2020
2044 Clouds 10 1036 76 10000 5.1 300 20:57 26.02.2020
2045 Clouds 10 1036 76 10000 5.1 300 20:39 26.02.2020
2046 Clouds 10 1036 76 10000 5.1 300 20:19 26.02.2020
2047 Thunderstorm 13 1036 62 10000 2.1 40 19:57 26.02.2020
2048 Thunderstorm 13 1036 62 10000 2.1 40 19:38 26.02.2020
2049 Thunderstorm 13 1036 62 10000 2.1 40 19:19 26.02.2020
2050 Clouds 15 1037 58 10000 6.2 90 18:57 26.02.2020
2051 Clouds 15 1037 58 10000 6.2 90 18:38 26.02.2020
2052 Clouds 15 1037 58 10000 6.2 90 18:19 26.02.2020
2053 Clouds 13 1038 71 10000 5.1 130 17:41 26.02.2020
2054 Clouds 13 1038 71 10000 5.1 130 17:20 26.02.2020
2055 Clouds 13 1038 66 10000 4.6 120 16:57 26.02.2020
2056 Clouds 13 1038 66 10000 4.6 120 16:38 26.02.2020
2057 Clouds 13 1038 66 10000 4.6 120 16:20 26.02.2020
2058 Clouds 12 1039 71 10000 2.6 130 15:45 26.02.2020
2059 Clouds 12 1039 71 10000 2.6 130 15:27 26.02.2020
2060 Clouds 11 1039 71 10000 2.1 90 14:55 26.02.2020
2061 Clouds 11 1039 71 10000 2.1 90 14:37 26.02.2020
2062 Clouds 11 1039 71 10000 2.1 90 14:37 26.02.2020
2063 Clouds 11 1039 71 10000 2.1 90 14:18 26.02.2020
2064 Clouds 8 1038 87 10000 2.1 60 13:41 26.02.2020
2065 Clouds 8 1038 87 10000 2.1 60 13:19 26.02.2020
2066 Clouds 4 1037 93 6000 2.1 40 12:39 26.02.2020
2067 Clouds 4 1037 93 6000 2.1 40 12:19 26.02.2020
2068 Fog 4 1037 93 4000 1 0 11:56 26.02.2020
2069 Fog 4 1037 93 4000 1 0 11:37 26.02.2020
2070 Fog 4 1037 93 4000 1 0 11:19 26.02.2020
2071 Fog 3 1036 100 4000 2.6 60 10:41 26.02.2020
2072 Fog 3 1036 100 4000 2.6 60 10:22 26.02.2020
2073 Fog 4 1036 93 4000 2.1 70 09:55 26.02.2020
2074 Fog 4 1036 93 4000 2.1 70 09:37 26.02.2020
2075 Fog 4 1036 93 4000 2.1 70 09:18 26.02.2020
2076 Fog 5 1036 93 4000 2.6 360 08:38 26.02.2020
2077 Fog 5 1036 93 4000 2.6 360 08:19 26.02.2020
2078 Fog 5 1037 93 4000 1 0 07:45 26.02.2020
2079 Fog 5 1037 93 4000 1 0 07:26 26.02.2020
2080 Fog 6 1037 93 4000 1 0 06:53 26.02.2020
2081 Fog 6 1037 93 4000 1 0 06:34 26.02.2020
2082 Clouds 8 1038 81 10000 1.5 360 05:53 26.02.2020
2083 Clouds 8 1038 81 10000 1.5 360 05:25 26.02.2020
2084 Clouds 8 1038 87 10000 2.1 20 04:34 26.02.2020
2085 Clouds 8 1036 81 10000 2.1 60 02:28 26.02.2020
2086 Clouds 9 1035 76 10000 2.1 10 01:45 26.02.2020
2087 Clouds 10 1034 71 10000 1.5 320 00:48 26.02.2020
2088 Clouds 10 1034 71 10000 1.5 320 00:24 26.02.2020
2089 Clouds 10 1034 71 10000 1.5 320 00:24 26.02.2020
2090 Clouds 11 1034 66 10000 1 0 23:45 25.02.2020
2091 Clouds 11 1034 66 10000 1 0 23:27 25.02.2020
2092 Clouds 12 1034 54 10000 3.6 200 22:59 25.02.2020
2093 Clouds 12 1034 54 10000 3.6 200 22:41 25.02.2020
2094 Clouds 12 1034 54 10000 3.6 200 22:19 25.02.2020
2095 Clouds 12 1034 54 10000 3.6 20 21:40 25.02.2020
2096 Clouds 12 1034 54 10000 3.6 20 21:21 25.02.2020
2097 Clouds 12 1034 54 10000 3.6 20 21:21 25.02.2020
2098 Clouds 11 1035 57 10000 5.7 40 20:58 25.02.2020
2099 Clouds 11 1035 57 10000 5.7 40 20:39 25.02.2020
2100 Clouds 11 1035 57 10000 5.7 40 20:20 25.02.2020
2101 Thunderstorm 11 1035 62 8000 9.3 50 19:59 25.02.2020
2102 Thunderstorm 11 1035 62 8000 9.3 50 19:40 25.02.2020
2103 Thunderstorm 11 1035 62 8000 9.3 50 19:19 25.02.2020
2104 Rain 16 1036 51 8000 5.7 300 18:42 25.02.2020
2105 Rain 16 1036 51 8000 5.7 300 18:21 25.02.2020
2106 Rain 16 1036 51 8000 5.7 300 18:21 25.02.2020
2107 Clouds 15 1037 58 10000 5.1 280 17:58 25.02.2020
2108 Clouds 15 1037 58 10000 5.1 280 17:38 25.02.2020
2109 Clouds 15 1037 58 10000 5.1 280 17:19 25.02.2020
2110 Clouds 13 1038 62 10000 4.6 280 16:58 25.02.2020
2111 Clouds 13 1038 62 10000 4.6 280 16:39 25.02.2020
2112 Clouds 13 1038 62 10000 4.6 280 16:21 25.02.2020
2113 Clouds 11 1038 71 10000 2.1 270 15:56 25.02.2020
2114 Clouds 11 1038 71 10000 2.1 270 15:37 25.02.2020
2115 Clouds 11 1038 71 10000 2.1 270 15:18 25.02.2020
2116 Clouds 9 1037 76 10000 2.1 240 14:54 25.02.2020
2117 Clouds 9 1037 76 10000 2.1 240 14:36 25.02.2020
2118 Clouds 9 1037 76 10000 2.1 240 14:18 25.02.2020
2119 Clouds 9 1037 76 10000 2.1 240 14:18 25.02.2020
2120 Clouds 8 1037 81 10000 1.69 265 13:42 25.02.2020
2121 Clouds 8 1037 81 10000 2.04 250 13:22 25.02.2020
2122 Clouds 8 1037 81 10000 2.04 250 13:21 25.02.2020
2123 Clouds 3 1036 93 10000 1 0 12:59 25.02.2020
2124 Clouds 3 1036 93 10000 1 0 12:39 25.02.2020
2125 Clouds 3 1036 93 10000 1 0 12:20 25.02.2020
2126 Clouds 2 1035 93 10000 1 0 11:56 25.02.2020
2127 Clouds 2 1035 93 10000 1 0 11:38 25.02.2020
2128 Clouds 2 1035 93 10000 1 0 11:18 25.02.2020
2129 Clouds 2 1035 93 10000 1 0 11:18 25.02.2020
2130 Clouds 3 1035 93 10000 1 0 10:42 25.02.2020
2131 Clouds 3 1035 93 10000 1 0 10:23 25.02.2020
2132 Clouds 4 1035 93 10000 1.5 360 09:57 25.02.2020
2133 Clouds 4 1035 93 10000 1.5 360 09:39 25.02.2020
2134 Clouds 4 1035 93 10000 1.5 360 09:18 25.02.2020
2135 Clouds 4 1036 93 10000 1.5 10 08:42 25.02.2020
2136 Clouds 4 1036 93 10000 1.5 10 08:24 25.02.2020
2137 Clouds 5 1036 100 10000 2.1 340 07:49 25.02.2020
2138 Clouds 5 1036 100 10000 2.1 340 07:24 25.02.2020
2139 Clouds 4 1037 100 10000 1 0 06:56 25.02.2020
2140 Clouds 4 1037 93 10000 1 0 05:54 25.02.2020
2141 Clouds 4 1037 93 10000 1 0 05:19 25.02.2020
2142 Rain 7 1037 87 8000 3.6 210 02:34 25.02.2020
2143 Clouds 8 1034 87 10000 2.1 80 00:58 25.02.2020
2144 Clouds 8 1034 87 10000 2.1 80 00:31 25.02.2020
2145 Clouds 11 1034 71 10000 2.6 160 23:48 24.02.2020
2146 Clouds 11 1034 71 10000 2.6 160 23:29 24.02.2020
2147 Clouds 12 1033 62 10000 1 0 22:56 24.02.2020
2148 Clouds 12 1033 62 10000 1 0 22:37 24.02.2020
2149 Clouds 12 1033 62 10000 1 0 22:18 24.02.2020
2150 Clouds 9 1034 81 10000 1 0 21:54 24.02.2020
2151 Clouds 9 1034 81 10000 1 0 21:36 24.02.2020
2152 Clouds 9 1034 81 10000 1 0 21:18 24.02.2020
2153 Clouds 8 1035 87 8000 3.6 310 20:41 24.02.2020
2154 Clouds 8 1035 87 8000 3.6 310 20:20 24.02.2020
2155 Thunderstorm 7 1035 93 8000 4.1 320 19:59 24.02.2020
2156 Clouds 5 1036 100 8000 5.1 60 19:40 24.02.2020
2157 Clouds 5 1036 100 8000 5.1 60 19:22 24.02.2020
2158 Clouds 9 1036 81 5000 7.7 360 18:56 24.02.2020
2159 Clouds 14 1036 62 10000 3.6 260 18:38 24.02.2020
2160 Clouds 14 1036 62 10000 3.6 260 18:38 24.02.2020
2161 Clouds 14 1036 62 10000 3.6 260 18:19 24.02.2020
2162 Clouds 13 1037 66 10000 3.1 190 17:42 24.02.2020
2163 Clouds 13 1037 66 10000 3.1 190 17:21 24.02.2020
2164 Clouds 13 1038 62 10000 3.1 250 16:59 24.02.2020
2165 Clouds 13 1038 62 10000 3.1 250 16:40 24.02.2020
2166 Clouds 13 1038 62 10000 3.1 250 16:21 24.02.2020
2167 Clouds 13 1038 66 10000 2.1 250 15:59 24.02.2020
2168 Clouds 13 1038 66 10000 2.1 250 15:40 24.02.2020
2169 Clouds 13 1038 66 10000 2.1 250 15:21 24.02.2020
2170 Clouds 11 1038 62 6000 1 0 14:58 24.02.2020
2171 Clouds 11 1038 62 6000 1 0 14:39 24.02.2020
2172 Clouds 11 1038 62 6000 1 0 14:19 24.02.2020
2173 Clouds 9 1037 87 6000 1 0 13:56 24.02.2020
2174 Clouds 9 1037 87 6000 1 0 13:37 24.02.2020
2175 Clouds 9 1037 87 6000 1 0 13:19 24.02.2020
2176 Fog 7 1036 100 3000 1 0 12:54 24.02.2020
2177 Fog 7 1036 100 3000 1 0 12:36 24.02.2020
2178 Fog 7 1036 100 3000 1 0 12:18 24.02.2020
2179 Fog 7 1036 93 4000 1 0 11:41 24.02.2020
2180 Fog 7 1036 93 4000 1 0 11:41 24.02.2020
2181 Fog 7 1036 93 4000 1 0 11:23 24.02.2020
2182 Mist 6 1035 100 3000 2.6 10 10:44 24.02.2020
2183 Mist 6 1035 100 3000 2.6 10 10:24 24.02.2020
2184 Mist 7 1035 100 2500 1.5 240 09:41 24.02.2020
2185 Mist 7 1035 100 2500 1.5 240 09:19 24.02.2020
2186 Mist 7 1035 100 3000 2.1 250 08:53 24.02.2020
2187 Mist 7 1035 100 3000 2.1 250 08:30 24.02.2020
2188 Clouds 8 1036 93 10000 2.1 60 07:56 24.02.2020
2189 Clouds 8 1036 93 10000 2.1 60 07:56 24.02.2020
2190 Clouds 8 1036 93 10000 2.1 60 07:36 24.02.2020
2191 Clouds 8 1036 93 10000 2.1 60 07:36 24.02.2020
2192 Clouds 8 1037 87 10000 3.1 30 06:55 24.02.2020
2193 Clouds 8 1037 87 10000 3.1 30 06:28 24.02.2020
2194 Rain 7 1038 100 8000 1 0 05:46 24.02.2020
2195 Rain 7 1038 100 8000 1 0 05:46 24.02.2020
2196 Rain 7 1038 100 8000 1 0 05:25 24.02.2020
2197 Rain 9 1037 87 8000 3.6 280 02:58 24.02.2020
2198 Rain 9 1037 87 8000 3.6 280 02:31 24.02.2020
2199 Thunderstorm 11 1036 81 8000 2.1 140 01:31 24.02.2020
2200 Thunderstorm 11 1036 81 8000 2.1 140 01:31 24.02.2020
2201 Thunderstorm 12 1036 66 8000 3.1 260 00:47 24.02.2020
2202 Thunderstorm 13 1035 66 10000 2.1 140 00:21 24.02.2020
2203 Clouds 14 1034 58 10000 2.6 130 23:45 23.02.2020
2204 Clouds 14 1034 58 10000 2.6 130 23:24 23.02.2020
2205 Clouds 15 1034 47 10000 3.1 140 22:59 23.02.2020
2206 Clouds 15 1034 47 10000 3.1 140 22:41 23.02.2020
2207 Clouds 15 1034 47 10000 3.1 140 22:21 23.02.2020
2208 Clouds 16 1035 44 10000 3.1 160 21:54 23.02.2020
2209 Clouds 16 1035 44 10000 3.1 160 21:36 23.02.2020
2210 Clouds 16 1035 44 10000 3.1 160 21:18 23.02.2020
2211 Clouds 16 1036 48 10000 3.1 30 20:55 23.02.2020
2212 Clouds 16 1036 48 10000 3.1 30 20:36 23.02.2020
2213 Clouds 16 1036 48 10000 3.1 30 20:18 23.02.2020
2214 Clouds 14 1037 58 10000 3.6 130 19:41 23.02.2020
2215 Clouds 14 1037 58 10000 3.6 130 19:20 23.02.2020
2216 Clouds 16 1038 44 10000 1.5 140 18:59 23.02.2020
2217 Clouds 16 1038 44 10000 1.5 140 18:38 23.02.2020
2218 Clouds 16 1038 44 10000 1.5 140 18:19 23.02.2020
2219 Clouds 13 1040 58 10000 2.1 220 17:58 23.02.2020
2220 Clouds 13 1040 58 10000 2.1 220 17:39 23.02.2020
2221 Clouds 13 1040 58 10000 2.1 220 17:21 23.02.2020
2222 Clouds 13 1040 54 10000 2.6 270 16:56 23.02.2020
2223 Clouds 13 1040 54 10000 2.6 270 16:36 23.02.2020
2224 Clouds 13 1040 54 10000 2.6 270 16:18 23.02.2020
2225 Clouds 12 1040 58 10000 2.1 330 15:40 23.02.2020
2226 Clouds 12 1040 58 10000 2.1 330 15:21 23.02.2020
2227 Clouds 9 1040 70 10000 2.6 280 14:59 23.02.2020
2228 Clouds 9 1040 70 10000 2.6 280 14:59 23.02.2020
2229 Clouds 9 1040 70 10000 2.6 280 14:40 23.02.2020
2230 Clouds 9 1040 70 10000 2.6 280 14:22 23.02.2020
2231 Clouds 9 1040 70 10000 2.6 280 14:22 23.02.2020
2232 Clouds 9 1039 70 10000 3.1 270 13:57 23.02.2020
2233 Clouds 9 1039 70 10000 3.1 270 13:39 23.02.2020
2234 Clouds 9 1039 70 10000 3.1 270 13:20 23.02.2020
2235 Fog 7 1038 87 4000 4.1 290 12:43 23.02.2020
2236 Fog 7 1038 87 4000 4.1 290 12:43 23.02.2020
2237 Fog 7 1038 87 4000 4.1 290 12:22 23.02.2020
2238 Fog 6 1038 93 4000 2.1 280 11:57 23.02.2020
2239 Fog 6 1038 93 4000 2.1 280 11:37 23.02.2020
2240 Fog 6 1038 93 4000 2.1 280 11:18 23.02.2020
2241 Fog 6 1038 100 4000 1.5 240 10:54 23.02.2020
2242 Fog 6 1038 100 4000 1.5 240 10:36 23.02.2020
2243 Fog 6 1038 100 4000 1.5 240 10:18 23.02.2020
2244 Fog 7 1038 93 4000 1.5 260 09:40 23.02.2020
2245 Fog 7 1038 93 4000 1.5 260 09:21 23.02.2020
2246 Fog 7 1038 93 4000 1.5 260 08:51 23.02.2020
2247 Fog 7 1038 93 4000 1.5 260 08:30 23.02.2020
2248 Fog 7 1039 93 4000 1 0 07:58 23.02.2020
2249 Fog 7 1039 93 4000 1 0 07:39 23.02.2020
2250 Fog 7 1039 93 4000 1 0 06:39 23.02.2020
2251 Fog 8 1040 87 4000 1 70 05:47 23.02.2020
2252 Fog 8 1039 87 4000 2.6 120 04:35 23.02.2020
2253 Fog 8 1039 87 4000 2.6 120 04:35 23.02.2020
2254 Fog 9 1038 87 4000 3.1 80 02:59 23.02.2020
2255 Fog 9 1038 87 4000 3.1 80 02:26 23.02.2020
2256 Fog 9 1037 93 4000 4.1 110 01:24 23.02.2020
2257 Clouds 10 1036 87 10000 4.6 100 00:46 23.02.2020
2258 Clouds 10 1036 87 10000 4.6 100 00:24 23.02.2020
2259 Clouds 11 1036 87 10000 6.7 120 23:45 22.02.2020
2260 Clouds 11 1036 87 10000 6.7 120 23:45 22.02.2020
2261 Clouds 11 1036 87 10000 6.7 120 23:26 22.02.2020
2262 Clouds 13 1036 66 10000 5.1 90 22:56 22.02.2020
2263 Clouds 13 1036 66 10000 5.1 90 22:36 22.02.2020
2264 Clouds 13 1036 66 10000 5.1 90 22:18 22.02.2020
2265 Clouds 14 1036 62 10000 5.1 80 21:40 22.02.2020
2266 Clouds 14 1036 62 10000 5.1 80 21:21 22.02.2020
2267 Clouds 15 1037 58 10000 4.6 110 20:43 22.02.2020
2268 Clouds 15 1037 58 10000 4.6 110 20:24 22.02.2020
2269 Clouds 13 1038 66 10000 4.6 100 19:54 22.02.2020
2270 Clouds 13 1038 66 10000 4.6 100 19:54 22.02.2020
2271 Clouds 13 1038 66 10000 4.6 100 19:54 22.02.2020
2272 Clouds 13 1038 66 10000 4.6 100 19:36 22.02.2020
2273 Clouds 13 1038 66 10000 4.6 100 19:18 22.02.2020
2274 Clouds 13 1039 66 10000 6.2 110 18:39 22.02.2020
2275 Clouds 13 1039 66 10000 6.2 110 18:20 22.02.2020
2276 Clouds 13 1040 66 10000 4.6 100 17:55 22.02.2020
2277 Clouds 13 1040 66 10000 4.6 100 17:37 22.02.2020
2278 Clouds 13 1040 66 10000 4.6 100 17:37 22.02.2020
2279 Clouds 13 1040 66 10000 4.6 100 17:37 22.02.2020
2280 Clouds 13 1040 66 10000 4.6 100 17:19 22.02.2020
2281 Clouds 11 1041 76 10000 5.1 100 16:54 22.02.2020
2282 Clouds 11 1041 76 10000 5.1 100 16:36 22.02.2020
2283 Clouds 11 1041 76 10000 5.1 100 16:18 22.02.2020
2284 Clouds 10 1041 76 6000 3.6 110 15:42 22.02.2020
2285 Clouds 10 1041 76 6000 3.6 110 15:22 22.02.2020
2286 Fog 8 1041 93 4000 4.1 110 14:43 22.02.2020
2287 Fog 8 1041 93 4000 4.1 110 14:22 22.02.2020
2288 Fog 7 1040 93 3000 2.1 90 13:55 22.02.2020
2289 Fog 7 1040 93 3000 2.1 90 13:55 22.02.2020
2290 Fog 7 1040 93 3000 2.1 90 13:36 22.02.2020
2291 Fog 7 1040 93 3000 2.1 90 13:18 22.02.2020
2292 Fog 6 1039 100 4000 2.6 110 12:41 22.02.2020
2293 Fog 6 1039 100 4000 2.6 110 12:22 22.02.2020
2294 Fog 6 1039 93 4000 3.1 90 11:44 22.02.2020
2295 Fog 6 1039 93 4000 3.1 90 11:26 22.02.2020
2296 Rain 6 1039 93 4000 4.1 90 10:56 22.02.2020
2297 Rain 6 1039 93 4000 4.1 90 10:38 22.02.2020
2298 Rain 6 1039 93 4000 4.1 90 10:19 22.02.2020
2299 Rain 6 1038 93 4000 3.6 100 09:56 22.02.2020
2300 Rain 6 1038 93 4000 3.6 100 09:37 22.02.2020
2301 Rain 6 1038 93 4000 3.6 100 09:37 22.02.2020
2302 Rain 6 1038 93 4000 3.6 100 09:18 22.02.2020
2303 Rain 6 1039 100 4000 3.1 100 08:44 22.02.2020
2304 Rain 6 1039 100 4000 3.1 100 08:26 22.02.2020
2305 Rain 6 1039 100 4000 4.1 90 07:43 22.02.2020
2306 Rain 6 1039 100 4000 4.1 90 07:18 22.02.2020
2307 Rain 7 1040 93 4000 3.1 80 06:45 22.02.2020
2308 Rain 8 1040 93 4000 2.6 110 04:54 22.02.2020
2309 Rain 8 1040 93 4000 2.6 110 04:28 22.02.2020
2310 Clouds 8 1039 87 10000 1 0 02:42 22.02.2020
2311 Clouds 9 1038 87 10000 3.1 50 01:51 22.02.2020
2312 Clouds 9 1038 87 10000 3.1 50 01:30 22.02.2020
2313 Clouds 9 1038 81 10000 2.6 90 00:50 22.02.2020
2314 Clouds 9 1038 81 10000 2.6 90 00:32 22.02.2020
2315 Clouds 10 1037 76 10000 4.6 60 23:56 21.02.2020
2316 Clouds 10 1037 76 10000 4.6 60 23:37 21.02.2020
2317 Clouds 10 1037 76 10000 4.6 60 23:18 21.02.2020
2318 Clouds 10 1037 76 10000 4.6 60 23:18 21.02.2020
2319 Clouds 11 1036 62 10000 6.2 40 22:42 21.02.2020
2320 Clouds 11 1036 62 10000 6.2 40 22:24 21.02.2020
2321 Clouds 13 1036 54 10000 4.6 60 21:56 21.02.2020
2322 Clouds 13 1036 54 10000 4.6 60 21:37 21.02.2020
2323 Clouds 13 1036 54 10000 4.6 60 21:37 21.02.2020
2324 Clouds 13 1036 54 10000 4.6 60 21:18 21.02.2020
2325 Clouds 12 1037 58 10000 4.6 50 20:41 21.02.2020
2326 Clouds 12 1037 58 10000 4.6 50 20:23 21.02.2020
2327 Clouds 12 1037 62 10000 5.1 80 19:40 21.02.2020
2328 Clouds 12 1037 62 10000 5.1 80 19:20 21.02.2020
2329 Clouds 12 1038 71 10000 5.7 100 18:43 21.02.2020
2330 Clouds 12 1038 71 10000 5.7 100 18:23 21.02.2020
2331 Clouds 11 1039 76 8000 5.1 100 17:57 21.02.2020
2332 Clouds 11 1039 76 8000 5.1 100 17:37 21.02.2020
2333 Clouds 11 1039 76 8000 5.1 100 17:19 21.02.2020
2334 Clouds 10 1039 81 6000 5.1 120 16:42 21.02.2020
2335 Clouds 10 1039 81 6000 5.1 120 16:22 21.02.2020
2336 Fog 9 1039 87 10000 4.6 120 15:58 21.02.2020
2337 Fog 9 1039 87 10000 4.6 120 15:38 21.02.2020
2338 Fog 9 1039 87 10000 4.6 120 15:18 21.02.2020
2339 Fog 9 1039 87 10000 4.6 120 15:18 21.02.2020
2340 Fog 9 1039 87 10000 4.6 120 15:18 21.02.2020
2341 Fog 8 1039 93 10000 4.1 120 14:42 21.02.2020
2342 Fog 8 1039 93 10000 4.1 120 14:21 21.02.2020
2343 Fog 7 1038 93 4000 4.1 110 13:45 21.02.2020
2344 Fog 7 1038 93 4000 4.1 110 13:24 21.02.2020
2345 Fog 6 1037 93 4000 3.1 110 12:59 21.02.2020
2346 Fog 6 1037 93 4000 3.1 110 12:40 21.02.2020
2347 Fog 6 1037 93 4000 3.1 110 12:22 21.02.2020
2348 Fog 6 1037 93 4000 2.6 100 11:43 21.02.2020
2349 Fog 6 1037 93 4000 2.6 100 11:23 21.02.2020
2350 Rain 7 1037 93 4000 2.6 90 10:59 21.02.2020
2351 Rain 7 1037 93 4000 2.6 90 10:41 21.02.2020
2352 Rain 7 1037 93 4000 2.6 90 10:19 21.02.2020
2353 Rain 7 1037 93 4000 1.5 120 09:57 21.02.2020
2354 Rain 7 1037 93 4000 1.5 120 09:38 21.02.2020
2355 Rain 7 1037 93 4000 1.5 120 09:38 21.02.2020
2356 Rain 7 1037 93 4000 1.5 120 09:19 21.02.2020
2357 Rain 7 1037 93 4000 2.1 130 08:43 21.02.2020
2358 Rain 7 1037 93 4000 2.1 130 08:22 21.02.2020
2359 Rain 7 1038 93 4000 2.1 110 07:59 21.02.2020
2360 Clouds 5 1018 89 0 0.22 57 07:41 21.02.2020
2361 Rain 7 1038 93 4000 1.5 100 07:19 21.02.2020
2362 Rain 7 1038 93 4000 1.5 100 06:52 21.02.2020
2363 Rain 7 1038 93 4000 1.5 100 06:31 21.02.2020
2364 Rain 8 1039 87 4000 1 0 05:50 21.02.2020
2365 Fog 7 1039 93 4000 1 0 04:38 21.02.2020
2366 Fog 7 1039 93 4000 1 0 04:19 21.02.2020
2367 Fog 7 1039 93 4000 1 0 04:19 21.02.2020
2368 Clouds 8 1038 87 10000 3.1 250 03:42 21.02.2020
2369 Clouds 8 1038 93 10000 2.6 250 02:43 21.02.2020
2370 Clouds 8 1037 93 10000 1 0 01:24 21.02.2020
2371 Clouds 8 1036 93 10000 2.1 60 00:45 21.02.2020
2372 Clouds 8 1036 93 10000 2.1 60 00:23 21.02.2020
2373 Clouds 11 1035 66 6000 1 0 23:46 20.02.2020
2374 Clouds 11 1035 66 6000 1 0 23:46 20.02.2020
2375 Clouds 11 1035 66 6000 1 0 23:46 20.02.2020
2376 Clouds 11 1035 66 6000 1 0 23:46 20.02.2020
2377 Clouds 11 1035 66 6000 1 0 23:25 20.02.2020
2378 Clouds 10 1035 71 10000 2.6 350 22:57 20.02.2020
2379 Clouds 10 1035 71 10000 2.6 350 22:38 20.02.2020
2380 Clouds 10 1035 71 10000 2.6 350 22:20 20.02.2020
2381 Rain 8 1036 81 4000 2.6 350 21:56 20.02.2020
2382 Rain 8 1036 81 4000 2.6 350 21:37 20.02.2020
2383 Rain 8 1036 81 4000 2.6 350 21:37 20.02.2020
2384 Rain 8 1036 81 4000 2.6 350 21:37 20.02.2020
2385 Rain 8 1036 81 4000 2.6 350 21:19 20.02.2020
2386 Rain 8 1037 87 4000 2.6 300 20:54 20.02.2020
2387 Rain 8 1037 87 4000 2.6 300 20:36 20.02.2020
2388 Rain 8 1037 87 4000 2.6 300 20:18 20.02.2020
2389 Rain 8 1038 93 4000 5.1 300 19:43 20.02.2020
2390 Rain 8 1038 93 4000 5.1 300 19:25 20.02.2020
2391 Rain 9 1039 81 8000 3.6 310 18:59 20.02.2020
2392 Rain 9 1039 81 8000 3.6 310 18:39 20.02.2020
2393 Rain 9 1038 81 6000 2.6 310 18:19 20.02.2020
2394 Rain 9 1038 81 6000 2.6 310 17:41 20.02.2020
2395 Rain 9 1038 81 6000 2.6 310 17:23 20.02.2020
2396 Rain 8 1038 87 8000 1 0 16:59 20.02.2020
2397 Rain 8 1038 87 8000 1 0 16:41 20.02.2020
2398 Rain 8 1038 87 8000 1 0 16:21 20.02.2020
2399 Rain 7 1038 87 6000 2.6 350 15:59 20.02.2020
2400 Rain 7 1038 87 6000 2.6 350 15:41 20.02.2020
2401 Rain 7 1038 87 6000 2.6 350 15:20 20.02.2020
2402 Rain 7 1038 93 4000 2.1 340 14:55 20.02.2020
2403 Rain 7 1038 93 4000 2.1 340 14:37 20.02.2020
2404 Rain 7 1038 93 4000 2.1 340 14:18 20.02.2020
2405 Thunderstorm 7 1038 93 2000 2.1 310 13:44 20.02.2020
2406 Rain 8 1037 93 4000 2.6 280 13:20 20.02.2020
2407 Rain 8 1037 93 3000 2.6 240 12:57 20.02.2020
2408 Fog 9 1036 87 4000 1 0 12:37 20.02.2020
2409 Fog 9 1036 87 4000 1 0 12:19 20.02.2020
2410 Clouds 9 1036 81 10000 3.1 330 11:43 20.02.2020
2411 Clouds 9 1036 81 10000 3.1 330 11:23 20.02.2020
2412 Thunderstorm 9 1035 87 10000 2.6 340 10:57 20.02.2020
2413 Thunderstorm 8 1035 93 8000 2.6 270 10:39 20.02.2020
2414 Thunderstorm 8 1035 93 8000 2.6 270 10:21 20.02.2020
2415 Thunderstorm 8 1035 93 8000 2.6 270 10:21 20.02.2020
2416 Fog 8 1035 93 4000 1 0 09:46 20.02.2020
2417 Fog 8 1035 93 4000 1 0 09:25 20.02.2020
2418 Fog 8 1036 93 4000 1 0 08:59 20.02.2020
2419 Fog 8 1036 93 4000 1 0 08:38 20.02.2020
2420 Fog 8 1036 93 4000 1 0 08:20 20.02.2020
2421 Clouds 8 1036 93 10000 1.5 360 07:45 20.02.2020
2422 Clouds 8 1036 93 10000 1.5 360 07:21 20.02.2020
2423 Clouds 9 1036 87 10000 2.6 90 06:52 20.02.2020
2424 Clouds 9 1036 87 10000 2.6 90 06:26 20.02.2020
2425 Clouds 9 1037 87 10000 2.1 60 05:45 20.02.2020
2426 Clouds 10 1038 76 10000 1 0 04:51 20.02.2020
2427 Thunderstorm 10 1037 71 10000 4.6 310 03:58 20.02.2020
2428 Thunderstorm 10 1037 71 10000 4.6 310 03:20 20.02.2020
2429 Clouds 11 1036 66 10000 3.1 300 01:52 20.02.2020
2430 Clouds 12 1035 62 10000 4.6 320 00:56 20.02.2020
2431 Clouds 12 1035 62 10000 4.6 320 00:26 20.02.2020
2432 Clouds 15 1034 54 10000 3.6 130 23:49 19.02.2020
2433 Clouds 15 1034 54 10000 3.6 130 23:22 19.02.2020
2434 Clouds 17 1034 45 10000 4.1 110 22:44 19.02.2020
2435 Clouds 17 1034 45 10000 4.1 110 22:26 19.02.2020
2436 Clouds 17 1035 45 10000 3.6 140 21:59 19.02.2020
2437 Clouds 17 1035 45 10000 3.6 140 21:40 19.02.2020
2438 Clouds 17 1036 45 10000 3.6 130 21:19 19.02.2020
2439 Clouds 17 1036 45 10000 3.6 130 20:58 19.02.2020
2440 Clouds 17 1036 45 10000 3.6 130 20:39 19.02.2020
2441 Clouds 17 1036 45 10000 3.6 130 20:20 19.02.2020
2442 Clouds 17 1036 45 10000 3.6 130 20:20 19.02.2020
2443 Clouds 16 1038 51 10000 3.6 140 19:58 19.02.2020
2444 Clouds 16 1038 51 10000 3.6 140 19:38 19.02.2020
2445 Clouds 16 1038 51 10000 3.6 140 19:19 19.02.2020
2446 Rain 16 1039 48 10000 2.6 130 18:58 19.02.2020
2447 Rain 11 1011 70 0 2.4 58 18:39 19.02.2020
2448 Rain 11 1011 70 0 2.4 58 18:21 19.02.2020
2449 Rain 11 1011 70 0 2.4 58 17:55 19.02.2020
2450 Rain 11 1011 70 0 2.4 58 17:37 19.02.2020
2451 Clouds 13 1040 58 10000 1 0 17:18 19.02.2020
2452 Clouds 13 1040 58 10000 1 0 16:41 19.02.2020
2453 Clouds 13 1040 58 10000 1 0 16:18 19.02.2020
2454 Clouds 10 1040 71 10000 2.6 150 15:44 19.02.2020
2455 Clouds 10 1040 71 10000 2.6 150 15:26 19.02.2020
2456 Clouds 9 1040 81 6000 2.6 130 14:59 19.02.2020
2457 Clouds 9 1040 81 6000 2.6 130 14:40 19.02.2020
2458 Clouds 9 1040 81 6000 2.6 130 14:21 19.02.2020
2459 Clouds 8 1039 87 6000 2.6 110 13:42 19.02.2020
2460 Clouds 8 1039 87 6000 2.6 110 13:23 19.02.2020
2461 Fog 7 1038 93 4000 1 0 12:57 19.02.2020
2462 Fog 7 1038 93 4000 1 0 12:37 19.02.2020
2463 Fog 7 1038 93 4000 1 0 12:18 19.02.2020
2464 Fog 7 1038 93 4000 1 0 11:39 19.02.2020
2465 Fog 7 1038 93 4000 1 0 11:20 19.02.2020
2466 Fog 7 1037 93 4000 1 0 10:58 19.02.2020
2467 Fog 7 1037 93 4000 1 0 10:38 19.02.2020
2468 Fog 7 1037 93 4000 1 0 10:20 19.02.2020
2469 Fog 7 1037 93 4000 1 0 09:59 19.02.2020
2470 Fog 7 1037 93 4000 1 0 09:38 19.02.2020
2471 Fog 7 1037 93 4000 1 0 09:19 19.02.2020
2472 Fog 7 1038 93 4000 3.1 70 08:47 19.02.2020
2473 Fog 7 1038 93 4000 3.1 70 08:24 19.02.2020
2474 Fog 8 1038 93 2000 4.6 70 07:47 19.02.2020
2475 Fog 8 1038 93 2000 4.6 70 07:29 19.02.2020
2476 Fog 8 1038 93 4000 3.6 100 06:57 19.02.2020
2477 Fog 8 1038 93 4000 3.6 100 06:34 19.02.2020
2478 Fog 7 1039 93 4000 2.6 90 04:49 19.02.2020
2479 Clouds 9 1039 93 10000 2.6 70 03:22 19.02.2020
2480 Clouds 10 1038 87 10000 1.5 90 02:33 19.02.2020
2481 Clouds 9 1036 87 10000 1.5 70 01:33 19.02.2020
2482 Clouds 12 1035 76 10000 2.1 120 00:53 19.02.2020
2483 Clouds 12 1035 76 10000 2.1 120 00:34 19.02.2020
2484 Clouds 13 1035 71 10000 2.1 110 23:57 18.02.2020
2485 Clouds 13 1035 71 10000 2.1 110 23:39 18.02.2020
2486 Clouds 13 1035 71 10000 2.1 110 23:19 18.02.2020
2487 Clouds 13 1035 71 10000 2.1 110 23:19 18.02.2020
2488 Clouds 14 1035 62 10000 2.6 140 22:45 18.02.2020
2489 Clouds 14 1035 62 10000 2.6 140 22:20 18.02.2020
2490 Clouds 15 1036 51 10000 2.1 200 21:59 18.02.2020
2491 Clouds 15 1036 51 10000 2.1 200 21:38 18.02.2020
2492 Clouds 15 1036 51 10000 2.1 200 21:19 18.02.2020
2493 Clouds 14 1037 58 10000 2.6 180 20:58 18.02.2020
2494 Clouds 14 1037 58 10000 2.6 180 20:38 18.02.2020
2495 Clouds 14 1037 58 10000 2.6 180 20:20 18.02.2020
2496 Clouds 14 1038 58 10000 3.6 140 19:56 18.02.2020
2497 Clouds 14 1038 58 10000 3.6 140 19:37 18.02.2020
2498 Clouds 14 1038 58 10000 3.6 140 19:18 18.02.2020
2499 Clouds 13 1039 54 10000 2.6 90 18:41 18.02.2020
2500 Clouds 13 1039 54 10000 2.6 90 18:21 18.02.2020
2501 Clouds 10 1040 66 10000 2.6 30 17:57 18.02.2020
2502 Clouds 10 1040 66 10000 2.6 30 17:38 18.02.2020
2503 Clouds 10 1040 66 10000 2.6 30 17:19 18.02.2020
2504 Clouds 9 1040 81 10000 2.1 80 16:40 18.02.2020
2505 Clouds 9 1040 81 10000 2.1 80 16:40 18.02.2020
2506 Clouds 9 1040 81 10000 2.1 80 16:20 18.02.2020
2507 Clouds 9 1040 81 10000 2.6 90 15:42 18.02.2020
2508 Clouds 9 1040 81 10000 2.6 90 15:21 18.02.2020
2509 Clouds 9 1040 81 10000 2.1 120 14:58 18.02.2020
2510 Clouds 9 1040 81 10000 2.1 120 14:39 18.02.2020
2511 Clouds 9 1040 81 10000 2.1 120 14:21 18.02.2020
2512 Fog 7 1039 100 4000 3.1 90 13:56 18.02.2020
2513 Fog 7 1039 100 4000 3.1 90 13:38 18.02.2020
2514 Fog 7 1039 100 4000 3.1 90 13:38 18.02.2020
2515 Fog 7 1039 100 4000 3.1 90 13:19 18.02.2020
2516 Fog 6 1038 100 6000 3.1 70 12:42 18.02.2020
2517 Fog 6 1038 100 6000 3.1 70 12:23 18.02.2020
2518 Fog 5 1037 100 2500 1 0 11:55 18.02.2020
2519 Fog 5 1037 100 2500 1 0 11:37 18.02.2020
2520 Fog 5 1037 100 2500 1 0 11:37 18.02.2020
2521 Fog 5 1037 100 2500 1 0 11:18 18.02.2020
2522 Clouds 6 1037 93 10000 2.6 290 10:41 18.02.2020
2523 Clouds 6 1037 93 10000 2.6 290 10:18 18.02.2020
2524 Clouds 6 1036 93 10000 1 0 09:56 18.02.2020
2525 Clouds 6 1036 93 10000 1 0 09:38 18.02.2020
2526 Clouds 6 1036 93 10000 1 0 09:19 18.02.2020
2527 Clouds 4 1036 100 10000 2.6 90 08:44 18.02.2020
2528 Clouds 4 1036 100 10000 2.6 90 08:21 18.02.2020
2529 Clouds 5 1037 93 10000 1 0 07:59 18.02.2020
2530 Clouds 5 1037 93 10000 1 0 07:41 18.02.2020
2531 Clouds 5 1037 93 10000 1 0 07:22 18.02.2020
2532 Clouds 6 1037 93 10000 3.1 80 06:43 18.02.2020
2533 Clouds 6 1037 93 10000 3.1 80 06:25 18.02.2020
2534 Clouds 7 1038 87 10000 2.1 340 05:47 18.02.2020
2535 Clouds 7 1039 93 10000 2.6 320 04:43 18.02.2020
2536 Clouds 8 1039 87 10000 3.6 240 03:36 18.02.2020
2537 Thunderstorm 8 1038 81 10000 5.1 210 02:53 18.02.2020
2538 Clouds 10 1036 76 10000 3.1 70 01:23 18.02.2020
2539 Clouds 10 1035 66 10000 3.6 110 00:22 18.02.2020
2540 Clouds 10 1035 66 10000 3.6 110 00:22 18.02.2020
2541 Clouds 14 1034 54 10000 3.6 90 23:57 17.02.2020
2542 Clouds 14 1034 54 10000 3.6 90 23:38 17.02.2020
2543 Clouds 14 1034 54 10000 3.6 90 23:19 17.02.2020
2544 Clouds 14 1034 50 10000 4.1 90 22:41 17.02.2020
2545 Clouds 14 1034 50 10000 4.1 90 22:21 17.02.2020
2546 Clouds 14 1035 47 10000 5.1 70 21:59 17.02.2020
2547 Clouds 14 1035 47 10000 5.1 70 21:38 17.02.2020
2548 Clouds 14 1035 47 10000 5.1 70 21:18 17.02.2020
2549 Clouds 14 1035 47 10000 5.1 70 21:18 17.02.2020
2550 Clouds 12 1036 58 10000 3.1 20 20:42 17.02.2020
2551 Clouds 12 1036 58 10000 3.1 20 20:21 17.02.2020
2552 Clouds 10 1037 66 8000 5.7 20 19:58 17.02.2020
2553 Clouds 10 1037 66 8000 5.7 20 19:40 17.02.2020
2554 Clouds 10 1037 66 8000 5.7 20 19:20 17.02.2020
2555 Thunderstorm 12 1037 66 8000 5.7 280 18:38 17.02.2020
2556 Thunderstorm 12 1037 66 8000 5.7 280 18:20 17.02.2020
2557 Thunderstorm 13 1037 62 10000 4.1 290 17:58 17.02.2020
2558 Clouds 14 1037 62 10000 4.1 240 17:38 17.02.2020
2559 Clouds 14 1037 62 10000 4.1 240 17:38 17.02.2020
2560 Clouds 14 1037 62 10000 4.1 240 17:19 17.02.2020
2561 Clouds 13 1038 66 10000 3.1 280 16:55 17.02.2020
2562 Clouds 13 1038 66 10000 3.1 280 16:55 17.02.2020
2563 Clouds 13 1038 66 10000 3.1 280 16:37 17.02.2020
2564 Clouds 13 1038 66 10000 3.1 280 16:18 17.02.2020
2565 Clouds 11 1038 76 8000 4.1 280 15:44 17.02.2020
2566 Clouds 11 1038 76 8000 4.1 280 15:44 17.02.2020
2567 Clouds 11 1038 76 8000 4.1 280 15:26 17.02.2020
2568 Clouds 9 1038 87 6000 3.6 280 14:47 17.02.2020
2569 Clouds 9 1038 87 6000 3.6 280 14:29 17.02.2020
2570 Clouds 8 1036 75 10000 2.1 60 13:59 17.02.2020
2571 Clouds 8 1036 75 10000 2.1 60 13:40 17.02.2020
2572 Clouds 8 1036 75 10000 2.1 60 13:40 17.02.2020
2573 Clouds 8 1036 75 10000 2.1 60 13:20 17.02.2020
2574 Clouds 7 1037 87 10000 3.6 60 12:56 17.02.2020
2575 Clouds 7 1037 87 10000 3.6 60 12:37 17.02.2020
2576 Clouds 7 1037 87 10000 3.6 60 12:19 17.02.2020
2577 Fog 7 1036 93 4000 4.1 90 11:43 17.02.2020
2578 Fog 7 1036 93 4000 4.1 90 11:24 17.02.2020
2579 Fog 7 1036 93 2000 2.6 60 10:56 17.02.2020
2580 Fog 7 1036 93 2000 2.6 60 10:38 17.02.2020
2581 Fog 7 1036 93 2000 2.6 60 10:19 17.02.2020
2582 Fog 7 1036 93 4000 4.1 100 09:55 17.02.2020
2583 Fog 7 1036 93 4000 4.1 100 09:36 17.02.2020
2584 Fog 7 1036 93 4000 4.1 100 09:18 17.02.2020
2585 Fog 7 1036 93 2000 3.1 80 08:41 17.02.2020
2586 Fog 7 1036 93 2000 3.1 80 08:22 17.02.2020
2587 Fog 8 1036 93 4000 2.6 70 07:55 17.02.2020
2588 Fog 8 1036 93 4000 2.6 70 07:26 17.02.2020
2589 Fog 6 1036 93 3000 2.6 80 06:53 17.02.2020
2590 Fog 6 1036 93 3000 2.6 80 06:33 17.02.2020
2591 Clouds 7 1037 93 10000 1.5 120 05:59 17.02.2020
2592 Clouds 7 1037 93 10000 1.5 120 05:38 17.02.2020
2593 Thunderstorm 8 1038 81 8000 5.1 230 03:22 17.02.2020
2594 Clouds 9 1036 87 10000 2.6 70 01:59 17.02.2020
2595 Clouds 11 1035 76 10000 4.1 110 00:51 17.02.2020
2596 Clouds 11 1035 76 10000 4.1 110 00:22 17.02.2020
2597 Clouds 11 1034 81 10000 3.1 100 23:54 16.02.2020
2598 Clouds 11 1034 81 10000 3.1 100 23:54 16.02.2020
2599 Clouds 11 1034 81 10000 3.1 100 23:33 16.02.2020
2600 Clouds 11 1034 81 10000 3.1 120 22:58 16.02.2020
2601 Clouds 11 1034 81 10000 3.1 120 22:39 16.02.2020
2602 Clouds 11 1034 81 10000 3.1 120 22:39 16.02.2020
2603 Clouds 11 1034 81 10000 3.1 120 22:39 16.02.2020
2604 Clouds 11 1034 81 10000 3.1 120 22:21 16.02.2020
2605 Clouds 11 1035 81 10000 3.6 140 21:58 16.02.2020
2606 Thunderstorm 10 1036 81 8000 3.1 160 21:40 16.02.2020
2607 Thunderstorm 10 1036 81 8000 3.1 160 21:22 16.02.2020
2608 Clouds 14 1036 62 8000 2.6 100 20:57 16.02.2020
2609 Clouds 14 1036 62 8000 2.6 100 20:39 16.02.2020
2610 Clouds 14 1036 62 8000 2.6 100 20:21 16.02.2020
2611 Clouds 15 1037 58 10000 3.1 170 19:58 16.02.2020
2612 Clouds 15 1037 58 10000 3.1 170 19:38 16.02.2020
2613 Clouds 15 1037 58 10000 3.1 170 19:19 16.02.2020
2614 Clouds 14 1038 54 10000 2.1 150 18:44 16.02.2020
2615 Clouds 14 1038 54 10000 2.1 150 18:25 16.02.2020
2616 Clouds 14 1038 58 10000 2.6 150 17:57 16.02.2020
2617 Clouds 14 1038 58 10000 2.6 150 17:39 16.02.2020
2618 Clouds 14 1038 58 10000 2.6 150 17:19 16.02.2020
2619 Clouds 13 1039 62 10000 2.1 170 16:54 16.02.2020
2620 Clouds 13 1039 62 10000 2.1 170 16:36 16.02.2020
2621 Clouds 13 1039 62 10000 2.1 170 16:18 16.02.2020
2622 Clouds 13 1039 58 10000 1 0 15:41 16.02.2020
2623 Clouds 13 1039 58 10000 1 0 15:21 16.02.2020
2624 Clouds 11 1039 66 10000 1 0 14:44 16.02.2020
2625 Clouds 11 1039 66 10000 1 0 14:24 16.02.2020
2626 Fog 9 1038 93 4000 1 0 13:57 16.02.2020
2627 Fog 9 1038 93 4000 1 0 13:38 16.02.2020
2628 Fog 9 1038 93 4000 1 0 13:20 16.02.2020
2629 Fog 6 1037 100 3000 2.6 90 12:39 16.02.2020
2630 Fog 6 1037 100 3000 2.6 90 12:39 16.02.2020
2631 Fog 6 1037 100 3000 2.6 90 12:19 16.02.2020
2632 Fog 6 1037 100 3000 2.6 90 12:19 16.02.2020
2633 Fog 6 1037 100 3000 2.6 90 11:40 16.02.2020
2634 Fog 6 1037 100 3000 2.6 90 11:20 16.02.2020
2635 Fog 6 1036 100 3000 2.1 90 10:58 16.02.2020
2636 Fog 6 1036 100 3000 2.1 90 10:40 16.02.2020
2637 Fog 6 1036 100 3000 2.1 90 10:21 16.02.2020
2638 Fog 6 1036 100 3000 2.6 80 09:59 16.02.2020
2639 Fog 6 1036 100 3000 2.6 80 09:59 16.02.2020
2640 Fog 6 1036 100 3000 2.6 80 09:38 16.02.2020
2641 Fog 7 1036 93 3000 2.1 110 09:20 16.02.2020
2642 Fog 7 1036 93 3000 2.1 110 08:50 16.02.2020
2643 Fog 7 1036 93 3000 2.1 110 08:22 16.02.2020
2644 Fog 7 1037 93 4000 1.5 80 07:59 16.02.2020
2645 Fog 7 1037 93 4000 1.5 80 07:39 16.02.2020
2646 Fog 8 1038 100 4000 2.1 80 06:39 16.02.2020
2647 Fog 8 1038 100 3000 3.1 70 05:43 16.02.2020
2648 Fog 8 1038 100 2000 2.6 70 04:35 16.02.2020
2649 Fog 8 1038 93 4000 1 0 03:18 16.02.2020
2650 Clouds 9 1036 93 10000 2.1 160 01:57 16.02.2020
2651 Clouds 9 1036 93 10000 2.1 160 01:37 16.02.2020
2652 Clouds 9 1036 93 10000 2.1 160 01:19 16.02.2020
2653 Clouds 10 1036 81 10000 2.1 80 00:41 16.02.2020
2654 Clouds 10 1036 81 10000 2.1 80 00:21 16.02.2020
2655 Clouds 11 1036 71 10000 1 0 23:42 15.02.2020
2656 Clouds 11 1036 71 10000 1 0 23:24 15.02.2020
2657 Clouds 11 1037 71 10000 3.6 320 22:56 15.02.2020
2658 Clouds 11 1037 71 10000 3.6 320 22:38 15.02.2020
2659 Clouds 11 1037 71 10000 3.6 320 22:19 15.02.2020
2660 Thunderstorm 13 1037 54 10000 1 0 21:43 15.02.2020
2661 Thunderstorm 13 1037 54 10000 1 0 21:24 15.02.2020
2662 Clouds 11 1037 71 10000 1 0 20:56 15.02.2020
2663 Clouds 11 1037 71 10000 1 0 20:37 15.02.2020
2664 Clouds 11 1037 71 10000 1 0 20:37 15.02.2020
2665 Clouds 11 1037 71 10000 1 0 20:19 15.02.2020
2666 Thunderstorm 9 1038 76 7000 4.6 310 19:41 15.02.2020
2667 Thunderstorm 9 1038 76 7000 4.6 310 19:22 15.02.2020
2668 Clouds 12 1039 66 10000 3.1 150 18:41 15.02.2020
2669 Clouds 12 1039 66 10000 3.1 150 18:21 15.02.2020
2670 Clouds 11 1040 76 10000 3.6 100 17:55 15.02.2020
2671 Clouds 11 1040 76 10000 3.6 100 17:37 15.02.2020
2672 Clouds 11 1040 76 10000 3.6 100 17:18 15.02.2020
2673 Clouds 13 1040 62 10000 3.1 250 16:41 15.02.2020
2674 Clouds 13 1040 62 10000 3.1 250 16:21 15.02.2020
2675 Clouds 12 1040 71 6000 1 0 15:50 15.02.2020
2676 Clouds 12 1040 71 6000 1 0 15:31 15.02.2020
2677 Clouds 9 1040 81 6000 2.1 90 14:57 15.02.2020
2678 Clouds 9 1040 81 6000 2.1 90 14:39 15.02.2020
2679 Clouds 9 1040 81 6000 2.1 90 14:18 15.02.2020
2680 Clouds 9 1040 81 6000 2.1 90 14:18 15.02.2020
2681 Fog 8 1039 93 4000 3.1 80 13:42 15.02.2020
2682 Fog 8 1039 93 4000 3.1 80 13:22 15.02.2020
2683 Fog 6 1038 100 3000 3.6 80 12:57 15.02.2020
2684 Fog 6 1038 100 3000 3.6 80 12:38 15.02.2020
2685 Fog 6 1038 100 3000 3.6 80 12:19 15.02.2020
2686 Fog 7 1038 100 4000 3.6 80 11:45 15.02.2020
2687 Fog 7 1038 100 4000 3.6 80 11:26 15.02.2020
2688 Fog 5 1037 100 4000 2.1 60 10:47 15.02.2020
2689 Fog 5 1037 100 4000 2.1 60 10:29 15.02.2020
2690 Fog 7 1038 100 2500 3.1 70 09:55 15.02.2020
2691 Fog 7 1038 100 2500 3.1 70 09:36 15.02.2020
2692 Fog 7 1038 100 2500 3.1 70 09:18 15.02.2020
2693 Fog 7 1038 100 3000 3.1 70 08:41 15.02.2020
2694 Fog 7 1038 100 3000 3.1 70 08:22 15.02.2020
2695 Fog 7 1038 100 4000 3.1 80 07:44 15.02.2020
2696 Fog 7 1038 100 4000 3.1 80 07:25 15.02.2020
2697 Fog 7 1038 100 4000 3.1 80 07:25 15.02.2020
2698 Fog 7 1038 100 3000 3.1 80 06:40 15.02.2020
2699 Fog 7 1038 100 3000 3.1 80 06:21 15.02.2020
2700 Fog 5 1039 100 500 2.6 90 04:57 15.02.2020
2701 Fog 6 1039 93 4000 2.1 80 04:31 15.02.2020
2702 Clouds 7 1038 93 10000 2.6 70 02:59 15.02.2020
2703 Clouds 7 1038 93 10000 2.6 70 02:29 15.02.2020
2704 Clouds 9 1037 76 10000 1 0 01:59 15.02.2020
2705 Clouds 9 1037 76 10000 1 0 01:37 15.02.2020
2706 Clouds 10 1036 76 10000 2.6 330 00:31 15.02.2020
2707 Clouds 11 1036 71 10000 2.6 320 23:59 14.02.2020
2708 Clouds 11 1036 71 10000 2.6 320 23:38 14.02.2020
2709 Clouds 11 1036 71 10000 2.6 320 23:18 14.02.2020
2710 Clouds 11 1036 71 10000 2.6 320 23:18 14.02.2020
2711 Clouds 11 1036 66 10000 3.1 340 22:42 14.02.2020
2712 Clouds 11 1036 66 10000 3.1 340 22:22 14.02.2020
2713 Rain 11 1037 81 8000 4.6 290 21:49 14.02.2020
2714 Rain 11 1037 81 8000 4.6 290 21:31 14.02.2020
2715 Rain 12 1037 71 8000 3.1 290 20:48 14.02.2020
2716 Rain 12 1037 71 8000 3.1 290 20:21 14.02.2020
2717 Rain 9 1038 87 5000 1 0 19:59 14.02.2020
2718 Rain 9 1038 87 5000 1 0 19:41 14.02.2020
2719 Rain 9 1038 87 5000 1 0 19:23 14.02.2020
2720 Rain 8 1039 81 5000 4.1 310 18:57 14.02.2020
2721 Rain 8 1039 81 5000 4.1 310 18:39 14.02.2020
2722 Rain 8 1039 81 5000 4.1 310 18:20 14.02.2020
2723 Rain 12 1039 66 7000 1 0 17:44 14.02.2020
2724 Rain 12 1039 66 7000 1 0 17:22 14.02.2020
2725 Rain 10 1040 76 8000 3.1 300 16:59 14.02.2020
2726 Rain 10 1040 76 8000 3.1 300 16:59 14.02.2020
2727 Rain 10 1040 76 8000 3.1 300 16:40 14.02.2020
2728 Rain 10 1040 76 8000 3.1 300 16:22 14.02.2020
2729 Clouds 10 1040 76 10000 3.1 250 15:56 14.02.2020
2730 Clouds 10 1040 76 10000 3.1 250 15:37 14.02.2020
2731 Clouds 10 1040 76 10000 3.1 250 15:19 14.02.2020
2732 Clouds 8 1040 87 10000 3.6 270 14:58 14.02.2020
2733 Clouds 8 1040 87 10000 3.6 270 14:39 14.02.2020
2734 Clouds 8 1040 87 10000 3.6 270 14:21 14.02.2020
2735 Clouds 7 1039 87 10000 3.6 280 13:40 14.02.2020
2736 Clouds 7 1039 87 10000 3.6 280 13:21 14.02.2020
2737 Clouds 6 1038 93 6000 1 0 12:58 14.02.2020
2738 Clouds 6 1038 93 6000 1 0 12:40 14.02.2020
2739 Clouds 6 1038 93 6000 1 0 12:21 14.02.2020
2740 Rain 6 1037 93 4000 1 0 11:59 14.02.2020
2741 Rain 6 1037 93 4000 1 0 11:40 14.02.2020
2742 Rain 6 1037 93 4000 1 0 11:20 14.02.2020
2743 Rain 7 1037 93 4000 1 0 10:55 14.02.2020
2744 Rain 7 1037 93 4000 1 0 10:37 14.02.2020
2745 Rain 7 1037 93 4000 1 0 10:19 14.02.2020
2746 Rain 6 1036 93 4000 3.6 60 09:40 14.02.2020
2747 Rain 6 1036 93 4000 3.6 60 09:20 14.02.2020
2748 Fog 6 1036 100 3000 3.6 60 08:43 14.02.2020
2749 Fog 6 1036 100 3000 3.6 60 08:25 14.02.2020
2750 Fog 6 1036 100 3000 4.6 90 07:56 14.02.2020
2751 Fog 6 1036 100 3000 4.6 90 07:38 14.02.2020
2752 Fog 6 1036 100 3000 4.6 90 07:18 14.02.2020
2753 Fog 7 1037 93 4000 4.1 80 06:23 14.02.2020
2754 Fog 7 1037 93 4000 4.1 90 05:44 14.02.2020
2755 Fog 7 1038 100 2000 5.1 90 04:28 14.02.2020
2756 Fog 7 1038 93 3000 4.6 80 03:28 14.02.2020
2757 Rain 8 1037 93 3000 4.1 80 02:20 14.02.2020
2758 Rain 8 1036 93 4000 5.7 90 01:22 14.02.2020
2759 Fog 9 1035 93 4000 4.6 90 00:42 14.02.2020
2760 Fog 9 1035 93 4000 4.6 90 00:42 14.02.2020
2761 Fog 9 1035 93 4000 4.6 90 00:42 14.02.2020
2762 Fog 9 1035 93 4000 4.6 90 00:21 14.02.2020
2763 Rain 10 1034 71 8000 2.6 340 23:42 13.02.2020
2764 Rain 10 1034 71 8000 2.6 340 23:19 13.02.2020
2765 Clouds 11 1034 76 8000 3.1 340 22:42 13.02.2020
2766 Clouds 11 1034 76 8000 3.1 340 22:20 13.02.2020
2767 Clouds 12 1034 71 8000 3.6 280 21:59 13.02.2020
2768 Clouds 12 1034 71 8000 3.6 280 21:40 13.02.2020
2769 Clouds 12 1034 71 8000 3.6 280 21:21 13.02.2020
2770 Clouds 11 1035 81 8000 2.1 230 20:56 13.02.2020
2771 Thunderstorm 10 1035 81 8000 4.6 250 20:37 13.02.2020
2772 Thunderstorm 10 1035 81 8000 4.6 250 20:19 13.02.2020
2773 Thunderstorm 9 1036 87 8000 7.2 270 19:55 13.02.2020
2774 Thunderstorm 9 1036 87 8000 7.2 270 19:36 13.02.2020
2775 Thunderstorm 9 1036 87 8000 7.2 270 19:18 13.02.2020
2776 Clouds 13 1036 66 6000 4.6 130 18:41 13.02.2020
2777 Clouds 13 1036 66 6000 4.6 130 18:22 13.02.2020
2778 Clouds 13 1037 66 8000 4.1 130 17:58 13.02.2020
2779 Clouds 14 1037 62 10000 4.1 130 17:38 13.02.2020
2780 Clouds 14 1037 62 10000 4.1 130 17:20 13.02.2020
2781 Clouds 11 1038 71 10000 4.1 130 16:56 13.02.2020
2782 Clouds 11 1038 71 10000 4.1 130 16:36 13.02.2020
2783 Clouds 11 1038 71 10000 4.1 130 16:36 13.02.2020
2784 Clouds 11 1038 71 10000 4.1 130 16:18 13.02.2020
2785 Clouds 11 1038 76 8000 2.6 100 15:55 13.02.2020
2786 Clouds 11 1038 76 8000 2.6 100 15:36 13.02.2020
2787 Clouds 11 1038 76 8000 2.6 100 15:18 13.02.2020
2788 Clouds 10 1038 81 6000 2.6 100 14:54 13.02.2020
2789 Clouds 10 1038 81 6000 2.6 100 14:36 13.02.2020
2790 Clouds 10 1038 81 6000 2.6 100 14:18 13.02.2020
2791 Clouds 8 1037 87 6000 3.1 110 13:41 13.02.2020
2792 Clouds 8 1037 87 6000 3.1 110 13:18 13.02.2020
2793 -273 0 0 0 0 0 12:48 13.02.2020
2794 Clouds 6 1037 93 6000 3.1 130 12:30 13.02.2020
2795 Mist 6 1036 100 2000 3.6 140 11:58 13.02.2020
2796 Mist 6 1036 100 2000 3.6 140 11:40 13.02.2020
2797 Mist 6 1036 100 2000 3.6 140 11:19 13.02.2020
2798 Fog 7 1036 93 4000 1 0 10:43 13.02.2020
2799 Fog 7 1036 93 4000 1 0 10:25 13.02.2020
2800 Fog 7 1036 93 4000 1 0 09:50 13.02.2020
2801 Fog 7 1036 93 4000 1 0 09:26 13.02.2020
2802 Fog 7 1036 93 4000 1 0 08:48 13.02.2020
2803 Fog 7 1036 93 4000 1 0 08:20 13.02.2020
2804 Fog 7 1037 100 4000 2.6 250 07:46 13.02.2020
2805 Fog 7 1037 100 4000 2.6 250 07:25 13.02.2020
2806 Fog 8 1037 87 4000 1 0 06:59 13.02.2020
2807 Fog 8 1037 87 4000 1 0 06:41 13.02.2020
2808 Fog 8 1038 87 4000 2.1 80 05:57 13.02.2020
2809 Fog 8 1038 87 4000 2.1 80 05:20 13.02.2020
2810 Fog 9 1038 87 4000 1.5 100 04:24 13.02.2020
2811 Fog 9 1037 93 4000 2.6 90 03:45 13.02.2020
2812 Fog 9 1036 93 4000 2.6 110 02:59 13.02.2020
2813 Fog 9 1036 93 4000 2.6 110 02:37 13.02.2020
2814 Fog 9 1036 93 4000 2.6 110 02:18 13.02.2020
2815 Clouds 9 1035 93 10000 2.6 70 01:25 13.02.2020
2816 Rain 10 1035 87 8000 2.6 90 00:32 13.02.2020
2817 Clouds 10 1034 76 10000 3.6 120 23:57 12.02.2020
2818 Clouds 10 1034 76 10000 3.6 120 23:37 12.02.2020
2819 Clouds 10 1034 76 10000 3.6 120 23:18 12.02.2020
2820 Rain 12 1034 66 8000 4.6 100 22:41 12.02.2020
2821 Rain 12 1034 66 8000 4.6 100 22:23 12.02.2020
2822 Clouds 12 1034 62 10000 4.6 110 21:55 12.02.2020
2823 Clouds 12 1034 62 10000 4.6 110 21:37 12.02.2020
2824 Clouds 12 1034 62 10000 4.6 110 21:18 12.02.2020
2825 Clouds 16 1035 55 10000 5.1 100 20:43 12.02.2020
2826 Clouds 16 1035 55 10000 5.1 100 20:25 12.02.2020
2827 Clouds 15 1036 58 10000 5.7 120 20:00 12.02.2020
2828 Clouds 15 1036 58 10000 5.7 120 19:41 12.02.2020
2829 Clouds 15 1036 58 10000 5.7 120 19:22 12.02.2020
2830 Clouds 14 1038 62 10000 5.1 110 18:54 12.02.2020
2831 Clouds 14 1038 62 10000 5.1 110 18:36 12.02.2020
2832 Clouds 14 1038 62 10000 5.1 110 18:18 12.02.2020
2833 Clouds 13 1038 62 10000 5.7 120 17:40 12.02.2020
2834 Clouds 13 1038 62 10000 5.7 120 17:19 12.02.2020
2835 Clouds 12 1039 71 10000 4.6 100 16:57 12.02.2020
2836 Clouds 12 1039 71 10000 4.6 100 16:36 12.02.2020
2837 Clouds 12 1039 71 10000 4.6 100 16:18 12.02.2020
2838 Clouds 11 1039 76 6000 3.1 100 15:38 12.02.2020
2839 Clouds 11 1039 76 6000 3.1 100 15:19 12.02.2020
2840 Clouds 9 1039 81 6000 3.6 80 14:43 12.02.2020
2841 Clouds 9 1039 81 6000 3.6 80 14:43 12.02.2020
2842 Clouds 9 1039 81 6000 3.6 80 14:21 12.02.2020
2843 Fog 8 1038 87 4000 3.1 80 13:59 12.02.2020
2844 Fog 8 1038 87 4000 3.1 80 13:40 12.02.2020
2845 Fog 8 1038 87 4000 3.1 80 13:22 12.02.2020
2846 Fog 6 1038 100 3000 2.6 110 12:58 12.02.2020
2847 Fog 6 1038 100 3000 2.6 110 12:39 12.02.2020
2848 Fog 6 1038 100 3000 2.6 110 12:19 12.02.2020
2849 Fog 6 1037 93 3000 2.6 100 11:59 12.02.2020
2850 Fog 6 1037 93 3000 2.6 100 11:40 12.02.2020
2851 Fog 6 1037 93 3000 2.6 100 11:21 12.02.2020
2852 Fog 6 1037 100 3000 3.1 90 10:58 12.02.2020
2853 Fog 6 1037 100 3000 3.1 90 10:39 12.02.2020
2854 Fog 6 1037 100 3000 3.1 90 10:20 12.02.2020
2855 Fog 6 1037 100 3000 3.1 90 09:42 12.02.2020
2856 Fog 6 1037 100 3000 3.1 90 09:42 12.02.2020
2857 Fog 6 1037 100 3000 3.1 90 09:42 12.02.2020
2858 Fog 6 1037 100 3000 3.1 90 09:24 12.02.2020
2859 Fog 6 1037 100 3000 3.1 90 09:24 12.02.2020
2860 Fog 7 1037 93 4000 2.1 80 08:58 12.02.2020
2861 Fog 7 1037 93 4000 2.1 80 08:58 12.02.2020
2862 Fog 7 1037 93 4000 2.1 80 08:38 12.02.2020
2863 Fog 7 1037 93 4000 2.1 80 08:20 12.02.2020
2864 Fog 7 1037 93 4000 2.1 80 08:20 12.02.2020
2865 Fog 7 1037 93 4000 2.1 80 08:20 12.02.2020
2866 Rain 7 1038 93 4000 2.6 80 07:47 12.02.2020
2867 Rain 7 1038 93 4000 2.6 80 07:47 12.02.2020
2868 Rain 7 1038 93 4000 2.6 80 07:24 12.02.2020
2869 Fog 7 1039 93 4000 4.6 90 06:59 12.02.2020
2870 Fog 7 1039 93 4000 4.6 90 06:25 12.02.2020
2871 Rain 7 1039 100 3000 3.6 80 05:47 12.02.2020
2872 Rain 7 1039 100 3000 3.6 80 05:21 12.02.2020
2873 Rain 8 1040 93 4000 3.6 110 04:41 12.02.2020
2874 Fog 8 1039 93 4000 3.1 110 03:43 12.02.2020
2875 Fog 8 1039 93 4000 3.1 110 03:43 12.02.2020
2876 Fog 8 1039 93 4000 3.1 110 03:24 12.02.2020
2877 Fog 9 1038 87 4000 4.1 120 02:32 12.02.2020
2878 Fog 9 1037 93 4000 3.6 120 01:59 12.02.2020
2879 Fog 9 1037 93 4000 3.6 120 01:27 12.02.2020
2880 Clouds 10 1037 81 10000 4.1 120 00:39 12.02.2020
2881 Clouds 10 1037 81 10000 4.1 120 00:21 12.02.2020
2882 Rain 10 1036 71 8000 4.6 60 23:45 11.02.2020
2883 Rain 10 1036 71 8000 4.6 60 23:27 11.02.2020
2884 Clouds 11 1036 76 8000 5.1 90 22:56 11.02.2020
2885 -273 0 0 0 0 0 22:38 11.02.2020
2886 Clouds 11 1036 76 8000 5.1 90 22:19 11.02.2020
2887 Clouds 14 1035 54 8000 4.1 50 21:56 11.02.2020
2888 Clouds 13 1036 62 10000 2.6 60 21:37 11.02.2020
2889 Clouds 13 1036 62 10000 2.6 60 21:18 11.02.2020
2890 Clouds 13 1036 62 10000 2.6 60 21:18 11.02.2020
2891 Clouds 14 1037 58 10000 5.1 100 20:56 11.02.2020
2892 Clouds 14 1037 58 10000 5.1 100 20:37 11.02.2020
2893 Clouds 14 1037 58 10000 5.1 100 20:37 11.02.2020
2894 Clouds 14 1037 58 10000 5.1 100 20:18 11.02.2020
2895 Clouds 15 1038 58 10000 3.6 90 19:43 11.02.2020
2896 Clouds 15 1038 58 10000 3.6 90 19:43 11.02.2020
2897 Clouds 15 1038 58 10000 3.6 90 19:24 11.02.2020
2898 Clouds 13 1039 62 10000 4.1 70 18:57 11.02.2020
2899 Clouds 13 1039 62 10000 4.1 70 18:57 11.02.2020
2900 Clouds 13 1039 62 10000 4.1 70 18:39 11.02.2020
2901 Clouds 13 1039 62 10000 4.1 70 18:39 11.02.2020
2902 Clouds 13 1039 62 10000 4.1 70 18:20 11.02.2020
2903 Clouds 12 1040 71 10000 5.1 100 17:55 11.02.2020
2904 Clouds 12 1040 71 10000 5.1 100 17:36 11.02.2020
2905 Clouds 12 1040 71 10000 5.1 100 17:18 11.02.2020
2906 Clouds 11 1040 76 10000 4.6 100 16:57 11.02.2020
2907 Clouds 11 1040 76 10000 4.6 100 16:37 11.02.2020
2908 Clouds 11 1040 76 10000 4.6 100 16:19 11.02.2020
2909 Clouds 11 1040 71 8000 3.6 100 15:45 11.02.2020
2910 Clouds 11 1040 71 8000 3.6 100 15:26 11.02.2020
2911 Clouds 10 1040 71 8000 2.6 120 14:57 11.02.2020
2912 -273 0 0 0 0 0 14:38 11.02.2020
2913 Clouds 10 1040 71 8000 2.6 120 14:18 11.02.2020
2914 Clouds 10 1039 76 10000 2.6 100 13:42 11.02.2020
2915 Clouds 10 1039 76 10000 2.6 100 13:21 11.02.2020
2916 Clouds 10 1039 76 10000 2.6 100 13:21 11.02.2020
2917 Fog 6 1039 93 4000 2.1 90 12:58 11.02.2020
2918 Fog 6 1039 93 4000 2.1 90 12:40 11.02.2020
2919 Fog 6 1039 93 4000 2.1 90 12:20 11.02.2020
2920 Clouds 5 1038 93 10000 3.1 100 11:55 11.02.2020
2921 Clouds 5 1038 93 10000 3.1 100 11:36 11.02.2020
2922 Clouds 5 1038 93 10000 3.1 100 11:18 11.02.2020
2923 Rain 6 1038 93 6000 3.1 60 10:39 11.02.2020
2924 Rain 6 1038 93 6000 3.1 60 10:20 11.02.2020
2925 Rain 6 1038 93 6000 4.1 60 09:56 11.02.2020
2926 Rain 6 1038 93 6000 4.1 60 09:38 11.02.2020
2927 Rain 6 1038 93 6000 4.1 60 09:20 11.02.2020
2928 Rain 7 1039 93 4000 4.1 100 08:46 11.02.2020
2929 Rain 7 1039 93 4000 4.1 100 08:24 11.02.2020
2930 Fog 7 1039 93 3000 2.6 110 07:48 11.02.2020
2931 Fog 7 1039 93 3000 2.6 110 07:26 11.02.2020
2932 Fog 7 1040 93 3000 3.1 90 06:44 11.02.2020
2933 Fog 7 1040 93 3000 3.1 90 06:22 11.02.2020
2934 Fog 7 1040 93 3000 3.1 80 05:58 11.02.2020
2935 Fog 7 1040 93 3000 3.1 80 05:25 11.02.2020
2936 Fog 7 1040 100 3000 3.1 120 04:42 11.02.2020
2937 Fog 7 1040 93 4000 2.1 90 03:21 11.02.2020
2938 Fog 7 1039 100 4000 2.6 140 02:32 11.02.2020
2939 Fog 7 1038 100 4000 3.1 100 01:38 11.02.2020
2940 Rain 7 1038 100 4000 4.6 110 00:41 11.02.2020
2941 Rain 9 1037 93 3000 6.7 140 23:59 10.02.2020
2942 Rain 9 1037 93 3000 6.7 140 23:38 10.02.2020
2943 Rain 9 1037 93 3000 6.7 140 23:20 10.02.2020
2944 Rain 9 1037 93 3000 6.7 140 23:20 10.02.2020
2945 Clouds 10 1037 87 10000 5.1 120 22:40 10.02.2020
2946 Clouds 10 1037 87 10000 5.1 120 22:20 10.02.2020
2947 Rain 11 1037 81 8000 5.1 110 21:46 10.02.2020
2948 Rain 11 1037 81 8000 5.1 110 21:27 10.02.2020
2949 Clouds 12 1038 76 10000 6.2 120 20:58 10.02.2020
2950 Clouds 12 1038 76 10000 6.2 120 20:39 10.02.2020
2951 Clouds 12 1038 76 10000 6.2 120 20:21 10.02.2020
2952 Rain 9 1039 87 8000 3.1 130 19:58 10.02.2020
2953 Rain 9 1039 87 8000 3.1 130 19:38 10.02.2020
2954 Rain 9 1039 87 8000 3.1 130 19:19 10.02.2020
2955 Rain 8 1040 87 3000 5.1 120 18:59 10.02.2020
2956 Rain 8 1040 87 3000 5.1 120 18:40 10.02.2020
2957 Rain 8 1040 87 3000 5.1 120 18:21 10.02.2020
2958 Rain 9 1040 87 2000 5.1 120 17:58 10.02.2020
2959 Clouds 10 1040 76 10000 4.1 130 17:37 10.02.2020
2960 Clouds 10 1040 76 10000 4.1 130 17:37 10.02.2020
2961 Clouds 10 1040 76 10000 4.1 130 17:19 10.02.2020
2962 Rain 9 1040 81 8000 3.6 140 16:58 10.02.2020
2963 Rain 9 1040 81 8000 3.6 140 16:39 10.02.2020
2964 Rain 9 1040 81 8000 3.6 140 16:39 10.02.2020
2965 Rain 9 1040 81 8000 3.6 140 16:19 10.02.2020
2966 Clouds 10 1040 76 6000 5.1 110 15:55 10.02.2020
2967 Clouds 10 1040 76 6000 5.1 110 15:37 10.02.2020
2968 Clouds 10 1040 76 6000 5.1 110 15:18 10.02.2020
2969 Clouds 8 1040 87 6000 4.1 110 14:41 10.02.2020
2970 Clouds 8 1040 87 6000 4.1 110 14:20 10.02.2020
2971 Clouds 8 1040 87 6000 4.1 110 14:20 10.02.2020
2972 Fog 7 1039 93 4000 3.1 120 13:57 10.02.2020
2973 Fog 7 1039 93 4000 3.1 120 13:39 10.02.2020
2974 Fog 7 1039 93 4000 3.1 120 13:21 10.02.2020
2975 Fog 6 1039 93 4000 2.1 120 12:47 10.02.2020
2976 Fog 6 1039 93 4000 2.1 120 12:26 10.02.2020
2977 Fog 5 1038 93 4000 1.5 70 11:56 10.02.2020
2978 Fog 5 1038 93 4000 1.5 70 11:37 10.02.2020
2979 Fog 5 1038 93 4000 1.5 70 11:19 10.02.2020
2980 Fog 6 1038 87 4000 0.63 18 10:46 10.02.2020
2981 Fog 6 1038 87 4000 0.63 18 10:26 10.02.2020
2982 Clouds 5 1038 93 10000 0.63 18 09:45 10.02.2020
2983 Clouds 5 1038 93 10000 0.63 18 09:26 10.02.2020
2984 Rain 6 1038 93 4000 1 0 08:55 10.02.2020
2985 Rain 6 1038 93 4000 1 0 08:36 10.02.2020
2986 Rain 6 1038 93 4000 1 0 08:18 10.02.2020
2987 Fog 7 1039 93 4000 3.1 110 07:46 10.02.2020
2988 Fog 7 1039 93 4000 3.1 110 07:25 10.02.2020
2989 Fog 7 1039 93 4000 2.1 80 05:52 10.02.2020
2990 Fog 7 1040 93 4000 2.1 110 04:26 10.02.2020
2991 Fog 7 1039 93 4000 2.1 120 03:31 10.02.2020
2992 Rain 6 1039 93 6000 1 0 02:54 10.02.2020
2993 Rain 6 1038 100 6000 2.1 60 01:36 10.02.2020
2994 Rain 6 1038 100 6000 2.1 60 01:36 10.02.2020
2995 Rain 8 1037 93 4000 4.6 130 00:48 10.02.2020
2996 Rain 8 1037 93 4000 4.6 130 00:28 10.02.2020
2997 Rain 9 1036 93 6000 4.1 100 23:45 09.02.2020
2998 Rain 9 1036 93 6000 4.1 100 23:45 09.02.2020
2999 Rain 9 1036 93 6000 4.1 100 23:26 09.02.2020
3000 Thunderstorm 11 1036 76 8000 7.7 80 22:58 09.02.2020
3001 Thunderstorm 11 1036 76 8000 7.7 80 22:38 09.02.2020
3002 Thunderstorm 11 1036 76 8000 7.7 80 22:19 09.02.2020
3003 Clouds 13 1036 58 10000 3.6 130 21:41 09.02.2020
3004 Clouds 13 1036 58 10000 3.6 130 21:22 09.02.2020
3005 Clouds 13 1036 58 10000 3.6 130 21:22 09.02.2020
3006 Clouds 13 1036 66 10000 2.6 100 20:47 09.02.2020
3007 Clouds 13 1036 66 10000 2.6 100 20:23 09.02.2020
3008 Rain 11 1037 71 10000 2.6 120 19:57 09.02.2020
3009 Rain 11 1037 71 10000 2.6 120 19:38 09.02.2020
3010 Rain 11 1037 71 10000 2.6 120 19:20 09.02.2020
3011 Rain 12 1038 66 8000 4.1 280 18:42 09.02.2020
3012 Rain 12 1038 66 8000 4.1 280 18:24 09.02.2020
3013 Clouds 11 1039 66 10000 3.1 260 17:59 09.02.2020
3014 Clouds 11 1039 66 10000 3.1 260 17:39 09.02.2020
3015 Clouds 11 1039 66 10000 3.1 260 17:21 09.02.2020
3016 Clouds 11 1039 66 10000 1 0 16:41 09.02.2020
3017 Clouds 11 1039 66 10000 1 0 16:22 09.02.2020
3018 Clouds 10 1040 66 10000 1 0 15:58 09.02.2020
3019 Clouds 10 1040 66 10000 1 0 15:40 09.02.2020
3020 Clouds 10 1040 66 10000 1 0 15:21 09.02.2020
3021 Rain 23 1012 100 10000 3.6 200 14:56 09.02.2020
3022 Rain 23 1012 100 10000 3.6 200 14:37 09.02.2020
3023 Rain 23 1012 100 10000 3.6 200 14:19 09.02.2020
3024 Clouds 5 1039 86 6000 1.5 320 13:43 09.02.2020
3025 Clouds 5 1039 86 6000 1.5 320 13:25 09.02.2020
3026 Clouds 4 1038 93 6000 2.6 320 12:55 09.02.2020
3027 Clouds 4 1038 93 6000 2.6 320 12:37 09.02.2020
3028 Clouds 4 1038 93 6000 2.6 320 12:18 09.02.2020
3029 Rain 5 1037 93 5000 2.1 310 11:40 09.02.2020
3030 Rain 5 1037 93 5000 2.1 310 11:19 09.02.2020
3031 Rain 5 1037 93 6000 1.5 360 10:56 09.02.2020
3032 Rain 5 1037 93 6000 1.5 360 10:38 09.02.2020
3033 Rain 5 1037 93 6000 1.5 360 10:19 09.02.2020
3034 Rain 5 1037 100 4000 1 0 09:39 09.02.2020
3035 Rain 5 1037 100 4000 1 0 09:20 09.02.2020
3036 Rain 5 1037 93 5000 1 0 08:42 09.02.2020
3037 Rain 5 1037 93 5000 1 0 08:23 09.02.2020
3038 Rain 5 1038 93 6000 1 0 07:54 09.02.2020
3039 Rain 5 1038 93 6000 1 0 07:34 09.02.2020
3040 Rain 5 1038 93 6000 2.1 50 06:42 09.02.2020
3041 Rain 5 1039 100 5000 1 0 05:56 09.02.2020
3042 Rain 5 1039 100 5000 1 0 05:56 09.02.2020
3043 Rain 5 1039 100 5000 1 0 05:34 09.02.2020
3044 Rain 6 1039 93 4000 4.1 190 04:49 09.02.2020
3045 Rain 8 1037 93 4000 2.1 270 02:58 09.02.2020
3046 Rain 8 1037 93 4000 2.1 270 02:38 09.02.2020
3047 Clouds 8 1036 93 10000 3.1 230 01:40 09.02.2020
3048 Clouds 8 1036 93 10000 3.1 230 01:19 09.02.2020
3049 Rain 8 1036 93 7000 2.1 290 00:31 09.02.2020
3050 Thunderstorm 9 1034 93 3000 4.6 270 23:50 08.02.2020
3051 Thunderstorm 9 1034 93 3000 4.6 270 23:25 08.02.2020
3052 Clouds 9 1034 93 2000 5.7 270 22:59 08.02.2020
3053 Thunderstorm 10 1034 87 6000 6.7 280 22:40 08.02.2020
3054 Thunderstorm 10 1034 87 6000 6.7 280 22:20 08.02.2020
3055 Clouds 12 1035 71 10000 3.1 110 21:47 08.02.2020
3056 Clouds 12 1035 71 10000 3.1 110 21:29 08.02.2020
3057 Clouds 14 1035 62 10000 3.6 80 20:59 08.02.2020
3058 Clouds 14 1035 62 10000 3.6 80 20:40 08.02.2020
3059 Clouds 14 1035 62 10000 3.6 80 20:20 08.02.2020
3060 Clouds 12 1036 81 10000 3.6 100 19:58 08.02.2020
3061 Clouds 12 1036 81 10000 3.6 100 19:38 08.02.2020
3062 Clouds 12 1036 81 10000 3.6 100 19:38 08.02.2020
3063 Clouds 12 1036 81 10000 3.6 100 19:20 08.02.2020
3064 Rain 10 1037 93 9000 6.2 120 18:56 08.02.2020
3065 Rain 10 1037 93 9000 6.2 120 18:37 08.02.2020
3066 Rain 10 1037 93 9000 6.2 120 18:19 08.02.2020
3067 Clouds 12 1037 76 10000 5.1 120 17:41 08.02.2020
3068 Clouds 12 1037 76 10000 5.1 120 17:19 08.02.2020
3069 Clouds 12 1038 71 10000 2.6 110 16:41 08.02.2020
3070 Clouds 12 1038 71 10000 2.6 110 16:23 08.02.2020
3071 Clouds 12 1038 71 10000 2.6 110 16:23 08.02.2020
3072 Clouds 11 1038 71 10000 2.1 110 15:57 08.02.2020
3073 Clouds 11 1038 71 10000 2.1 110 15:39 08.02.2020
3074 Clouds 11 1038 71 10000 2.1 110 15:18 08.02.2020
3075 Clouds 10 1038 76 8000 1 0 14:44 08.02.2020
3076 Clouds 10 1038 76 8000 1 0 14:20 08.02.2020
3077 Clouds 8 1038 81 10000 1.5 70 13:56 08.02.2020
3078 Clouds 8 1038 81 10000 1.5 70 13:38 08.02.2020
3079 Clouds 8 1038 81 10000 1.5 70 13:19 08.02.2020
3080 Clouds 7 1037 81 10000 1.5 20 12:40 08.02.2020
3081 Clouds 7 1037 81 10000 1.5 20 12:20 08.02.2020
3082 Clouds 6 1037 93 10000 1 0 11:48 08.02.2020
3083 Clouds 6 1037 93 10000 1 0 11:22 08.02.2020
3084 Rain 7 1036 93 4000 3.6 60 10:59 08.02.2020
3085 Rain 7 1036 93 4000 3.6 60 10:40 08.02.2020
3086 Rain 7 1036 93 4000 3.6 60 10:20 08.02.2020
3087 Rain 7 1036 100 4000 1 0 09:51 08.02.2020
3088 Rain 7 1036 100 4000 1 0 09:26 08.02.2020
3089 Rain 8 1036 93 4000 1 0 08:49 08.02.2020
3090 Rain 8 1036 93 4000 1 0 08:29 08.02.2020
3091 Clouds 7 1037 100 10000 1.5 90 07:59 08.02.2020
3092 Clouds 7 1037 100 10000 1.5 90 07:40 08.02.2020
3093 Clouds 7 1038 100 10000 1 0 06:56 08.02.2020
3094 Clouds 7 1038 100 10000 1 0 06:23 08.02.2020
3095 Clouds 8 1039 87 10000 1 0 05:40 08.02.2020
3096 Clouds 8 1039 87 10000 1 0 05:21 08.02.2020
3097 Rain 8 1039 87 8000 1 0 04:31 08.02.2020
3098 Rain 7 1039 93 6000 2.6 340 03:39 08.02.2020
3099 Rain 8 1038 93 6000 3.6 320 02:43 08.02.2020
3100 Thunderstorm 7 1037 93 4000 4.6 100 01:35 08.02.2020
3101 Thunderstorm 10 1036 87 6000 4.6 70 00:57 08.02.2020
3102 Thunderstorm 10 1036 87 6000 4.6 70 00:25 08.02.2020
3103 Thunderstorm 12 1035 76 8000 4.1 280 23:59 07.02.2020
3104 Thunderstorm 12 1035 76 8000 4.1 280 23:39 07.02.2020
3105 Thunderstorm 12 1035 76 8000 4.1 280 23:20 07.02.2020
3106 Clouds 13 1034 62 8000 4.1 300 22:55 07.02.2020
3107 Clouds 13 1034 62 8000 4.1 300 22:37 07.02.2020
3108 Clouds 13 1034 62 8000 4.1 300 22:18 07.02.2020
3109 Clouds 13 1035 71 10000 4.6 300 21:41 07.02.2020
3110 Clouds 13 1035 71 10000 4.6 300 21:21 07.02.2020
3111 Clouds 15 1036 58 10000 2.1 210 20:40 07.02.2020
3112 Clouds 15 1036 58 10000 2.1 210 20:21 07.02.2020
3113 Clouds 12 1037 71 10000 4.1 140 19:56 07.02.2020
3114 Clouds 12 1037 71 10000 4.1 140 19:37 07.02.2020
3115 Clouds 12 1037 71 10000 4.1 140 19:18 07.02.2020
3116 Clouds 11 1038 76 10000 3.1 120 18:44 07.02.2020
3117 Clouds 11 1038 76 10000 3.1 120 18:44 07.02.2020
3118 Clouds 11 1038 76 10000 3.1 120 18:44 07.02.2020
3119 Clouds 11 1038 76 10000 3.1 120 18:25 07.02.2020
3120 Clouds 12 1038 66 10000 1.5 140 17:55 07.02.2020
3121 Clouds 12 1038 66 10000 1.5 140 17:37 07.02.2020
3122 Clouds 12 1038 66 10000 1.5 140 17:19 07.02.2020
3123 Clouds 10 1039 71 8000 1 0 16:43 07.02.2020
3124 Clouds 10 1039 71 8000 1 0 16:23 07.02.2020
3125 Clouds 8 1039 81 8000 2.1 230 15:54 07.02.2020
3126 Clouds 8 1039 81 8000 2.1 230 15:28 07.02.2020
3127 Clouds 7 1039 87 6000 2.1 250 14:55 07.02.2020
3128 Clouds 7 1039 87 6000 2.1 250 14:55 07.02.2020
3129 Clouds 7 1039 87 6000 2.1 250 14:37 07.02.2020
3130 Clouds 7 1039 87 6000 2.1 250 14:19 07.02.2020
3131 Clouds 6 1038 93 6000 2.1 260 13:56 07.02.2020
3132 Clouds 6 1038 93 6000 2.1 260 13:38 07.02.2020
3133 Clouds 6 1038 93 6000 2.1 260 13:18 07.02.2020
3134 Clouds 5 1038 93 6000 1 0 12:41 07.02.2020
3135 Clouds 5 1038 93 6000 1 0 12:23 07.02.2020
3136 Rain 5 1037 100 6000 2.1 290 11:45 07.02.2020
3137 Rain 5 1037 100 6000 2.1 290 11:22 07.02.2020
3138 Rain 5 1037 100 8000 2.1 300 10:58 07.02.2020
3139 Rain 5 1037 100 8000 2.1 300 10:38 07.02.2020
3140 Rain 5 1037 100 8000 2.1 300 10:19 07.02.2020
3141 Rain 5 1037 93 6000 4.1 300 09:41 07.02.2020
3142 Rain 5 1037 93 6000 4.1 300 09:22 07.02.2020
3143 Rain 6 1037 93 6000 4.1 260 08:45 07.02.2020
3144 Rain 6 1037 93 6000 4.1 260 08:21 07.02.2020
3145 Rain 6 1037 93 6000 4.1 260 08:21 07.02.2020
3146 Rain 6 1038 93 3000 6.2 220 07:53 07.02.2020
3147 Rain 6 1038 93 3000 6.2 220 07:32 07.02.2020
3148 Rain 7 1038 93 3000 4.1 100 06:57 07.02.2020
3149 Rain 7 1038 93 3000 4.1 100 06:38 07.02.2020
3150 Rain 7 1038 93 3000 4.1 100 06:18 07.02.2020
3151 Rain 8 1038 100 4000 4.1 130 05:37 07.02.2020
3152 Clouds 9 1037 93 10000 3.6 90 03:43 07.02.2020
3153 Clouds 9 1036 81 10000 3.1 70 01:53 07.02.2020
3154 Clouds 10 1035 87 10000 5.1 100 00:59 07.02.2020
3155 Clouds 10 1035 87 10000 5.1 100 00:26 07.02.2020
3156 Clouds 11 1035 81 10000 5.1 90 23:38 06.02.2020
3157 Clouds 11 1035 81 10000 5.1 90 23:19 06.02.2020
3158 Clouds 11 1035 66 10000 5.1 340 22:46 06.02.2020
3159 Clouds 11 1035 66 10000 5.1 340 22:26 06.02.2020
3160 Clouds 10 1035 76 6000 4.1 50 21:57 06.02.2020
3161 Clouds 10 1035 76 6000 4.1 50 21:36 06.02.2020
3162 Clouds 10 1035 76 6000 4.1 50 21:18 06.02.2020
3163 Clouds 11 1036 71 8000 4.1 50 20:54 06.02.2020
3164 Clouds 15 1035 54 10000 2.1 130 20:36 06.02.2020
3165 Clouds 15 1035 54 10000 2.1 130 20:18 06.02.2020
3166 Clouds 12 1036 71 10000 2.6 200 19:55 06.02.2020
3167 Clouds 12 1036 71 10000 2.6 200 19:55 06.02.2020
3168 Clouds 12 1036 71 10000 2.6 200 19:36 06.02.2020
3169 Clouds 12 1036 71 10000 2.6 200 19:18 06.02.2020
3170 Clouds 8 1037 81 8000 3.1 210 18:40 06.02.2020
3171 Clouds 8 1037 81 8000 3.1 210 18:22 06.02.2020
3172 Clouds 8 1037 81 8000 3.1 210 18:22 06.02.2020
3173 Clouds 10 1037 76 8000 6.2 260 17:46 06.02.2020
3174 Rain 12 1037 76 8000 2.6 130 17:22 06.02.2020
3175 Rain 12 1037 76 8000 2.6 130 17:22 06.02.2020
3176 Rain 10 1038 76 10000 4.6 110 16:59 06.02.2020
3177 Rain 10 1038 76 10000 4.6 110 16:41 06.02.2020
3178 Rain 10 1038 76 10000 4.6 110 16:22 06.02.2020
3179 Clouds 11 1038 71 10000 4.6 120 15:42 06.02.2020
3180 Clouds 11 1038 71 10000 4.6 120 15:42 06.02.2020
3181 Clouds 11 1038 71 10000 4.6 120 15:22 06.02.2020
3182 Clouds 11 1037 76 10000 2.6 120 14:51 06.02.2020
3183 Clouds 11 1037 76 10000 2.6 120 14:28 06.02.2020
3184 Fog 7 1037 93 4000 2.6 100 13:58 06.02.2020
3185 Fog 7 1037 93 4000 2.6 100 13:40 06.02.2020
3186 Fog 7 1037 93 4000 2.6 100 13:19 06.02.2020
3187 Fog 7 1036 93 2000 2.6 80 12:44 06.02.2020
3188 Fog 7 1036 93 2000 2.6 80 12:19 06.02.2020
3189 Fog 7 1035 93 3000 2.1 110 11:57 06.02.2020
3190 Fog 7 1035 93 3000 2.1 110 11:39 06.02.2020
3191 Fog 7 1035 93 3000 2.1 110 11:19 06.02.2020
3192 Fog 8 1035 87 3000 2.6 100 10:56 06.02.2020
3193 Fog 8 1035 87 3000 2.6 100 10:38 06.02.2020
3194 Fog 8 1035 87 3000 2.6 100 10:18 06.02.2020
3195 Fog 8 1035 87 4000 1 0 09:44 06.02.2020
3196 Fog 8 1035 87 4000 1 0 09:21 06.02.2020
3197 Fog 8 1035 93 4000 1 0 08:47 06.02.2020
3198 Fog 8 1035 93 4000 1 0 08:27 06.02.2020
3199 Fog 8 1035 93 4000 2.1 310 07:59 06.02.2020
3200 Fog 8 1035 93 4000 2.1 310 07:39 06.02.2020
3201 Fog 8 1035 93 4000 2.1 310 07:21 06.02.2020
3202 Clouds 8 1035 93 10000 2.1 60 06:21 06.02.2020
3203 Clouds 8 1036 93 10000 2.6 90 05:44 06.02.2020
3204 Clouds 8 1037 93 10000 2.6 70 04:18 06.02.2020
3205 Clouds 8 1036 87 10000 3.1 90 03:19 06.02.2020
3206 Clouds 9 1035 81 10000 1 0 02:25 06.02.2020
3207 Clouds 10 1034 76 10000 2.6 110 01:25 06.02.2020
3208 Clouds 11 1033 71 10000 3.6 110 00:42 06.02.2020
3209 Clouds 11 1033 71 10000 3.6 110 00:21 06.02.2020
3210 Clouds 13 1032 54 10000 2.6 110 23:43 05.02.2020
3211 Clouds 13 1032 54 10000 2.6 110 23:24 05.02.2020
3212 Clouds 14 1033 54 10000 2.6 130 22:56 05.02.2020
3213 Clouds 14 1033 54 10000 2.6 130 22:37 05.02.2020
3214 Clouds 14 1033 54 10000 2.6 130 22:19 05.02.2020
3215 Clouds 14 1034 47 10000 3.1 140 21:40 05.02.2020
3216 Clouds 14 1034 47 10000 3.1 140 21:22 05.02.2020
3217 Clouds 14 1035 54 10000 2.1 80 20:55 05.02.2020
3218 Clouds 14 1035 54 10000 2.1 80 20:36 05.02.2020
3219 Clouds 14 1035 54 10000 2.1 80 20:18 05.02.2020
3220 Rain 12 1036 62 8000 4.6 60 19:55 05.02.2020
3221 Rain 12 1036 62 8000 4.6 60 19:36 05.02.2020
3222 Rain 12 1036 62 8000 4.6 60 19:18 05.02.2020
3223 Rain 13 1037 62 8000 3.6 100 18:43 05.02.2020
3224 Rain 13 1037 62 8000 3.6 100 18:20 05.02.2020
3225 Clouds 11 1038 62 10000 2.6 70 17:55 05.02.2020
3226 Clouds 11 1038 62 10000 2.6 70 17:36 05.02.2020
3227 Clouds 9 1038 70 10000 3.6 50 17:18 05.02.2020
3228 Clouds 9 1038 70 10000 3.6 50 16:42 05.02.2020
3229 Clouds 9 1038 70 10000 3.6 50 16:24 05.02.2020
3230 Rain 8 1038 81 10000 2.6 60 15:57 05.02.2020
3231 Rain 8 1038 81 10000 2.6 60 15:38 05.02.2020
3232 Rain 8 1038 81 10000 2.6 60 15:18 05.02.2020
3233 Clouds 7 1037 93 6000 3.1 70 14:42 05.02.2020
3234 Clouds 7 1037 93 6000 3.1 70 14:23 05.02.2020
3235 Fog 6 1037 100 4000 3.1 70 13:57 05.02.2020
3236 Fog 6 1037 100 4000 3.1 70 13:38 05.02.2020
3237 Clouds 6 1035 93 10000 1 0 13:19 05.02.2020
3238 Clouds 6 1035 93 10000 1 0 12:40 05.02.2020
3239 Clouds 6 1035 93 10000 1 0 12:21 05.02.2020
3240 Clouds 6 1035 93 10000 1 0 11:41 05.02.2020
3241 Clouds 6 1035 93 10000 1 0 11:23 05.02.2020
3242 Clouds 6 1035 100 10000 2.1 90 10:59 05.02.2020
3243 Clouds 6 1035 100 10000 2.1 90 10:39 05.02.2020
3244 Clouds 6 1035 100 10000 2.1 90 10:19 05.02.2020
3245 Clouds 4 1035 93 10000 2.1 90 09:43 05.02.2020
3246 Clouds 4 1035 93 10000 2.1 90 09:22 05.02.2020
3247 Clouds 5 1036 100 10000 2.44 51 08:57 05.02.2020
3248 Clouds 5 1036 100 10000 2.44 51 08:39 05.02.2020
3249 Clouds 5 1036 100 10000 1.74 239 08:21 05.02.2020
3250 Clouds 6 1036 93 10000 2.6 250 07:43 05.02.2020
3251 Clouds 6 1036 93 10000 2.6 250 07:19 05.02.2020
3252 Clouds 7 1037 87 10000 1 0 06:40 05.02.2020
3253 Clouds 7 1037 87 10000 1 0 06:21 05.02.2020
3254 Clouds 7 1037 81 10000 3.6 10 05:47 05.02.2020
3255 Clouds 7 1037 81 10000 3.6 10 05:18 05.02.2020
3256 Rain 7 1039 93 8000 2.6 40 04:27 05.02.2020
3257 Thunderstorm 8 1038 87 8000 2.62 34 02:53 05.02.2020
3258 Thunderstorm 8 1038 87 8000 2.62 34 02:22 05.02.2020
3259 Thunderstorm 11 1036 71 5000 4.6 190 01:29 05.02.2020
3260 Clouds 11 1035 71 10000 2.1 130 00:24 05.02.2020
3261 Clouds 11 1034 71 10000 2.6 240 23:41 04.02.2020
3262 Thunderstorm 11 1035 71 10000 4.6 260 23:21 04.02.2020
3263 Thunderstorm 11 1035 71 10000 4.6 260 22:57 04.02.2020
3264 Thunderstorm 11 1035 71 10000 4.6 260 22:57 04.02.2020
3265 Thunderstorm 12 1035 66 10000 6.7 230 22:39 04.02.2020
3266 Thunderstorm 12 1035 66 10000 6.7 230 22:20 04.02.2020
3267 Thunderstorm 13 1035 62 10000 6.7 210 21:55 04.02.2020
3268 Thunderstorm 13 1035 62 10000 6.7 210 21:55 04.02.2020
3269 Clouds 17 1035 39 10000 5.7 90 21:37 04.02.2020
3270 Clouds 17 1035 39 10000 5.7 90 21:18 04.02.2020
3271 Clouds 16 1035 44 10000 5.1 120 20:44 04.02.2020
3272 Clouds 16 1035 44 10000 5.1 120 20:44 04.02.2020
3273 Clouds 16 1035 44 10000 5.1 120 20:22 04.02.2020
3274 Clouds 14 1037 54 10000 4.6 60 19:59 04.02.2020
3275 Clouds 14 1037 54 10000 4.6 60 19:41 04.02.2020
3276 Clouds 14 1037 54 10000 4.6 60 19:22 04.02.2020
3277 Clouds 12 1037 62 10000 5.1 80 18:59 04.02.2020
3278 Clouds 12 1037 62 10000 5.1 80 18:38 04.02.2020
3279 Clouds 12 1037 62 10000 5.1 80 18:19 04.02.2020
3280 Clouds 12 1037 62 10000 5.1 80 18:19 04.02.2020
3281 Clouds 14 1039 62 10000 1.5 140 17:43 04.02.2020
3282 Clouds 14 1039 62 10000 1.5 140 17:23 04.02.2020
3283 Clouds 11 1039 62 10000 1 0 16:59 04.02.2020
3284 Clouds 11 1039 62 10000 1 0 16:38 04.02.2020
3285 Clouds 11 1039 62 10000 1 0 16:20 04.02.2020
3286 Clouds 10 1039 66 10000 2.1 220 15:56 04.02.2020
3287 Clouds 10 1039 66 10000 2.1 220 15:38 04.02.2020
3288 Clouds 10 1039 66 10000 2.1 220 15:19 04.02.2020
3289 Clouds 11 1039 62 10000 1 0 14:44 04.02.2020
3290 Clouds 11 1039 62 10000 1 0 14:23 04.02.2020
3291 Clouds 8 1039 81 10000 1 0 13:58 04.02.2020
3292 Clouds 8 1039 81 10000 1 0 13:39 04.02.2020
3293 Clouds 8 1039 81 10000 1 0 13:20 04.02.2020
3294 Rain 6 1038 93 4000 2.6 60 12:44 04.02.2020
3295 Rain 6 1038 93 4000 2.6 60 12:26 04.02.2020
3296 Rain 7 1037 93 4000 1 0 11:58 04.02.2020
3297 Rain 7 1037 93 4000 1 0 11:39 04.02.2020
3298 Rain 7 1037 93 4000 1 0 11:21 04.02.2020
3299 Fog 6 1037 93 4000 1.5 120 10:56 04.02.2020
3300 Fog 6 1037 93 4000 1.5 120 10:36 04.02.2020
3301 Fog 6 1037 93 4000 1.5 120 10:18 04.02.2020
3302 Rain 7 1037 87 6000 2.6 30 09:41 04.02.2020
3303 Rain 7 1037 87 6000 2.6 30 09:23 04.02.2020
3304 Rain 7 1037 87 6000 3.6 30 08:50 04.02.2020
3305 Rain 7 1037 87 6000 3.6 30 08:29 04.02.2020
3306 Rain 7 1037 87 6000 3.6 30 08:29 04.02.2020
3307 Thunderstorm 7 1038 93 6000 2.6 20 07:59 04.02.2020
3308 Thunderstorm 7 1038 93 6000 2.6 20 07:39 04.02.2020
3309 Thunderstorm 7 1038 93 6000 2.6 20 07:21 04.02.2020
3310 Clouds 4 1017 87 0 1.51 21 06:42 04.02.2020
3311 Clouds 8 1039 87 10000 1.51 21 05:40 04.02.2020
3312 Clouds 8 1040 87 10000 2.1 250 04:55 04.02.2020
3313 Clouds 9 1039 81 10000 2.1 230 03:49 04.02.2020
3314 Clouds 9 1039 81 10000 2.1 230 03:31 04.02.2020
3315 Clouds 8 1038 87 10000 1.5 110 02:51 04.02.2020
3316 Clouds 8 1038 87 10000 1.5 110 02:28 04.02.2020
3317 Clouds 9 1038 81 10000 1 0 01:48 04.02.2020
3318 Clouds 9 1038 81 10000 1 0 01:21 04.02.2020
3319 Clouds 9 1037 87 10000 2.1 80 00:25 04.02.2020
3320 Clouds 9 1036 81 10000 3.35 36 23:57 03.02.2020
3321 Clouds 9 1036 81 10000 3.35 36 23:38 03.02.2020
3322 Clouds 9 1036 81 10000 2.88 52 23:18 03.02.2020
3323 Rain 9 1037 70 8000 2.6 310 22:39 03.02.2020
3324 Rain 9 1037 70 8000 2.6 310 22:39 03.02.2020
3325 Rain 9 1037 70 8000 2.6 310 22:19 03.02.2020
3326 Clouds 15 1037 51 10000 1 0 21:42 03.02.2020
3327 Clouds 15 1037 51 10000 1 0 21:42 03.02.2020
3328 Clouds 15 1037 51 10000 1 0 21:20 03.02.2020
3329 Clouds 12 1038 62 10000 2.1 130 20:57 03.02.2020
3330 Clouds 12 1038 62 10000 2.1 130 20:57 03.02.2020
3331 Clouds 12 1038 62 10000 2.1 130 20:39 03.02.2020
3332 Clouds 12 1038 62 10000 2.1 130 20:18 03.02.2020
3333 Clouds 11 1039 66 10000 3.1 20 19:42 03.02.2020
3334 Clouds 11 1039 66 10000 3.1 20 19:23 03.02.2020
3335 Rain 11 1039 76 6000 5.1 80 18:59 03.02.2020
3336 Rain 11 1039 76 6000 5.1 80 18:40 03.02.2020
3337 Rain 11 1039 76 6000 5.1 80 18:21 03.02.2020
3338 Clouds 10 1040 66 10000 1 0 17:57 03.02.2020
3339 Clouds 10 1040 66 10000 1 0 17:39 03.02.2020
3340 Clouds 10 1040 66 10000 1 0 17:19 03.02.2020
3341 Clouds 10 1040 71 10000 2.1 250 16:40 03.02.2020
3342 Clouds 10 1040 71 10000 2.1 250 16:21 03.02.2020
3343 Clouds 10 1041 66 10000 2.1 270 15:57 03.02.2020
3344 Clouds 10 1041 66 10000 2.1 270 15:39 03.02.2020
3345 Clouds 10 1041 66 10000 2.1 270 15:19 03.02.2020
3346 Clouds 10 1040 71 10000 1 0 14:56 03.02.2020
3347 Clouds 10 1040 71 10000 1 0 14:37 03.02.2020
3348 Clouds 10 1040 71 10000 1 0 14:19 03.02.2020
3349 Clouds 8 1040 87 10000 1 0 13:42 03.02.2020
3350 Clouds 8 1040 87 10000 1 0 13:21 03.02.2020
3351 Fog 6 1039 93 4000 2.1 60 12:57 03.02.2020
3352 Fog 6 1039 93 4000 2.1 60 12:38 03.02.2020
3353 Fog 6 1039 93 4000 2.1 60 12:20 03.02.2020
3354 Fog 5 1038 100 4000 1 0 11:40 03.02.2020
3355 Fog 5 1038 100 4000 1 0 11:20 03.02.2020
3356 Clouds 6 1038 93 10000 2.6 210 10:58 03.02.2020
3357 Clouds 6 1038 93 10000 2.6 210 10:39 03.02.2020
3358 Clouds 6 1038 93 10000 2.6 210 10:20 03.02.2020
3359 Rain 7 1038 93 8000 1.5 290 09:42 03.02.2020
3360 Rain 7 1038 93 8000 1.5 290 09:21 03.02.2020
3361 Fog 7 1038 93 4000 2.6 110 08:41 03.02.2020
3362 Fog 7 1038 93 4000 2.6 110 08:23 03.02.2020
3363 Fog 7 1039 93 4000 2.1 70 07:58 03.02.2020
3364 Fog 7 1039 93 4000 2.1 70 07:39 03.02.2020
3365 Fog 7 1039 93 4000 2.1 70 07:20 03.02.2020
3366 Fog 7 1039 93 4000 2.1 70 07:20 03.02.2020
3367 Fog 8 1040 87 4000 2.6 100 06:43 03.02.2020
3368 Fog 8 1040 87 4000 2.6 100 06:24 03.02.2020
3369 Clouds 8 1040 81 10000 1 0 05:36 03.02.2020
3370 Clouds 8 1040 75 10000 2.1 340 04:50 03.02.2020
3371 Rain 9 1040 76 10000 5.1 180 02:58 03.02.2020
3372 Rain 9 1040 76 10000 5.1 180 02:33 03.02.2020
3373 Clouds 10 1039 81 10000 3.6 130 01:24 03.02.2020
3374 Clouds 11 1038 62 10000 2.1 130 00:37 03.02.2020
3375 Clouds 11 1038 62 10000 2.1 130 00:19 03.02.2020
3376 Clouds 12 1037 58 10000 3.6 110 23:37 02.02.2020
3377 Clouds 12 1037 58 10000 3.6 110 23:19 02.02.2020
3378 Clouds 13 1037 47 10000 2.6 40 22:40 02.02.2020
3379 Clouds 13 1037 47 10000 2.6 40 22:22 02.02.2020
3380 Clouds 13 1037 47 10000 2.6 40 22:22 02.02.2020
3381 Clouds 13 1038 47 10000 3.1 80 21:59 02.02.2020
3382 Clouds 13 1038 47 10000 3.1 80 21:39 02.02.2020
3383 Clouds 13 1038 47 10000 3.1 80 21:21 02.02.2020
3384 Thunderstorm 14 1038 50 10000 4.6 10 20:58 02.02.2020
3385 Thunderstorm 14 1038 50 10000 4.6 10 20:39 02.02.2020
3386 Thunderstorm 14 1038 50 10000 4.6 10 20:20 02.02.2020
3387 Thunderstorm 12 1039 54 10000 4.6 30 19:58 02.02.2020
3388 Thunderstorm 12 1039 54 10000 4.6 30 19:40 02.02.2020
3389 Thunderstorm 12 1039 54 10000 4.6 30 19:21 02.02.2020
3390 Thunderstorm 15 1039 47 10000 3.1 110 18:56 02.02.2020
3391 Thunderstorm 15 1039 47 10000 3.1 110 18:56 02.02.2020
3392 Thunderstorm 15 1039 47 10000 3.1 110 18:37 02.02.2020
3393 Thunderstorm 15 1039 47 10000 3.1 110 18:37 02.02.2020
3394 Thunderstorm 15 1039 47 10000 3.1 110 18:37 02.02.2020
3395 Thunderstorm 15 1039 47 10000 3.1 110 18:19 02.02.2020
3396 Clouds 15 1040 54 10000 4.1 110 17:57 02.02.2020
3397 Clouds 15 1040 54 10000 4.1 110 17:37 02.02.2020
3398 Clouds 15 1040 54 10000 4.1 110 17:18 02.02.2020
3399 Clouds 15 1040 54 10000 4.1 110 17:18 02.02.2020
3400 Clouds 13 1040 66 10000 2.1 130 16:57 02.02.2020
3401 Clouds 13 1040 66 10000 2.1 130 16:37 02.02.2020
3402 Clouds 13 1040 66 10000 2.1 130 16:18 02.02.2020
3403 Clouds 12 1041 71 8000 3.1 90 15:55 02.02.2020
3404 Clouds 12 1041 71 8000 3.1 90 15:36 02.02.2020
3405 Clouds 12 1041 71 8000 3.1 90 15:18 02.02.2020
3406 Clouds 11 1040 76 6000 3.1 100 14:43 02.02.2020
3407 Clouds 11 1040 76 6000 3.1 100 14:19 02.02.2020
3408 Clouds 11 1040 76 6000 3.1 100 14:19 02.02.2020
3409 Fog 9 1040 87 4000 2.6 100 13:58 02.02.2020
3410 Fog 9 1040 87 4000 2.6 100 13:39 02.02.2020
3411 Fog 9 1040 87 4000 2.6 100 13:20 02.02.2020
3412 Fog 8 1039 87 4000 2.1 80 12:55 02.02.2020
3413 Fog 8 1039 87 4000 2.1 80 12:36 02.02.2020
3414 Fog 8 1039 87 4000 2.1 80 12:18 02.02.2020
3415 Fog 8 1038 93 4000 2.6 120 11:41 02.02.2020
3416 Fog 8 1038 93 4000 2.6 120 11:41 02.02.2020
3417 Fog 8 1038 93 4000 2.6 120 11:19 02.02.2020
3418 Fog 7 1038 93 4000 2.6 80 10:57 02.02.2020
3419 Fog 7 1038 93 4000 2.6 80 10:38 02.02.2020
3420 Fog 7 1038 93 4000 2.6 80 10:20 02.02.2020
3421 Clouds 5 1017 95 0 0.04 154 09:56 02.02.2020
3422 Clouds 5 1017 95 0 0.04 154 09:38 02.02.2020
3423 Clouds 5 1017 95 0 0.04 154 09:19 02.02.2020
3424 Clouds 5 1017 95 0 0.04 154 08:44 02.02.2020
3425 Fog 8 1038 93 2000 3.6 80 08:24 02.02.2020
3426 Fog 8 1038 93 2000 3.6 80 07:47 02.02.2020
3427 Fog 8 1038 93 2000 3.6 80 07:28 02.02.2020
3428 Rain 6 1017 91 0 2.25 52 06:44 02.02.2020
3429 Fog 8 1039 93 4000 3.1 70 06:26 02.02.2020
3430 Fog 8 1039 93 4000 3.1 70 05:47 02.02.2020
3431 Fog 9 1040 93 4000 1 0 04:47 02.02.2020
3432 Fog 8 1039 93 4000 1 0 03:26 02.02.2020
3433 Clouds 7 1038 93 10000 2.1 70 02:33 02.02.2020
3434 Clouds 10 1036 81 10000 2.1 110 01:54 02.02.2020
3435 Clouds 10 1036 81 10000 2.1 110 01:54 02.02.2020
3436 Clouds 10 1036 81 10000 2.1 110 01:23 02.02.2020
3437 Clouds 11 1036 71 10000 4.1 50 00:44 02.02.2020
3438 Clouds 11 1036 71 10000 4.1 50 00:22 02.02.2020
3439 Clouds 13 1036 58 10000 3.1 270 23:47 01.02.2020
3440 Clouds 13 1036 58 10000 3.1 270 23:22 01.02.2020
3441 Clouds 13 1036 58 10000 2.1 290 22:51 01.02.2020
3442 Clouds 13 1036 58 10000 2.1 290 22:20 01.02.2020
3443 Clouds 13 1036 58 10000 2.1 290 22:20 01.02.2020
3444 Clouds 12 1038 58 10000 3.1 320 21:57 01.02.2020
3445 Clouds 12 1038 58 10000 3.1 320 21:38 01.02.2020
3446 Clouds 12 1038 58 10000 3.1 320 21:18 01.02.2020
3447 Thunderstorm 12 1037 62 10000 3.6 60 20:40 01.02.2020
3448 Thunderstorm 12 1037 62 10000 3.6 60 20:20 01.02.2020
3449 Thunderstorm 13 1038 66 10000 5.1 100 19:57 01.02.2020
3450 Thunderstorm 13 1038 66 10000 5.1 100 19:39 01.02.2020
3451 Thunderstorm 13 1038 66 10000 5.1 100 19:19 01.02.2020
3452 Clouds 14 1039 62 10000 5.1 100 18:57 01.02.2020
3453 Clouds 14 1039 62 10000 5.1 100 18:38 01.02.2020
3454 Clouds 14 1039 62 10000 5.1 100 18:20 01.02.2020
3455 Clouds 13 1040 66 10000 4.1 130 17:56 01.02.2020
3456 Clouds 13 1040 66 10000 4.1 130 17:38 01.02.2020
3457 Clouds 13 1040 66 10000 4.1 130 17:19 01.02.2020
3458 Clouds 12 1040 66 8000 4.1 120 16:42 01.02.2020
3459 Clouds 12 1040 66 8000 4.1 120 16:23 01.02.2020
3460 Clouds 10 1040 81 8000 4.1 110 15:56 01.02.2020
3461 Clouds 10 1040 81 8000 4.1 110 15:38 01.02.2020
3462 Clouds 10 1040 81 8000 4.1 110 15:18 01.02.2020
3463 Clouds 10 1040 81 8000 4.1 110 15:18 01.02.2020
3464 Clouds 10 1040 76 6000 3.6 120 14:40 01.02.2020
3465 Clouds 10 1040 76 6000 3.6 120 14:21 01.02.2020
3466 Clouds 8 1039 87 6000 3.1 80 13:45 01.02.2020
3467 Clouds 8 1039 87 6000 3.1 80 13:24 01.02.2020
3468 Fog 5 1039 93 3000 3.1 60 12:57 01.02.2020
3469 Fog 5 1039 93 3000 3.1 60 12:38 01.02.2020
3470 Fog 5 1039 93 3000 3.1 60 12:20 01.02.2020
3471 Fog 5 1039 93 3000 3.1 60 12:20 01.02.2020
3472 Fog 4 1038 93 4000 2.6 70 11:39 01.02.2020
3473 Fog 4 1038 93 4000 2.6 70 11:21 01.02.2020
3474 Fog 5 1037 93 3000 3.1 90 10:58 01.02.2020
3475 Fog 5 1037 93 3000 3.1 90 10:39 01.02.2020
3476 Fog 5 1037 93 3000 3.1 90 10:21 01.02.2020
3477 Fog 5 1037 100 2000 3.1 80 09:58 01.02.2020
3478 Fog 5 1037 100 2000 3.1 80 09:39 01.02.2020
3479 Fog 5 1037 100 2000 3.1 80 09:20 01.02.2020
3480 Fog 5 1037 93 3000 2.6 80 08:45 01.02.2020
3481 Fog 4 1038 100 3000 2.1 70 07:49 01.02.2020
3482 Fog 4 1038 100 3000 2.1 70 07:26 01.02.2020
3483 Fog 5 1039 93 4000 2.6 60 06:55 01.02.2020
3484 Fog 5 1039 93 4000 2.6 60 06:32 01.02.2020
3485 Fog 6 1040 100 3000 2.1 90 05:51 01.02.2020
3486 Fog 7 1039 93 4000 1 0 03:53 01.02.2020
3487 Fog 7 1039 93 4000 1 0 03:21 01.02.2020
3488 Fog 7 1038 100 4000 2.6 80 02:45 01.02.2020
3489 Fog 7 1038 100 4000 2.6 80 02:25 01.02.2020
3490 Clouds 8 1037 93 10000 2.6 80 01:50 01.02.2020
3491 Clouds 8 1037 93 10000 2.6 80 01:30 01.02.2020
3492 Clouds 9 1037 87 10000 3.6 100 00:29 01.02.2020
3493 Clouds 10 1036 81 10000 3.1 90 23:43 31.01.2020
3494 Clouds 10 1036 81 10000 3.1 90 23:20 31.01.2020
3495 Thunderstorm 9 1036 81 10000 3.1 50 22:59 31.01.2020
3496 Thunderstorm 9 1036 81 10000 3.1 50 22:40 31.01.2020
3497 Thunderstorm 9 1036 81 10000 3.1 50 22:21 31.01.2020
3498 Thunderstorm 10 1036 87 10000 2.6 120 21:56 31.01.2020
3499 Thunderstorm 10 1036 87 10000 2.6 120 21:37 31.01.2020
3500 Thunderstorm 10 1036 87 10000 2.6 120 21:19 31.01.2020
3501 Thunderstorm 12 1036 71 10000 6.7 110 20:56 31.01.2020
3502 Thunderstorm 12 1036 71 10000 6.7 110 20:37 31.01.2020
3503 Thunderstorm 13 1037 71 10000 6.2 100 20:18 31.01.2020
3504 Thunderstorm 13 1037 71 10000 6.2 100 19:55 31.01.2020
3505 Clouds 13 1038 66 10000 5.1 110 19:36 31.01.2020
3506 Clouds 13 1038 66 10000 5.1 110 19:18 31.01.2020
3507 Clouds 13 1038 71 10000 4.1 120 18:39 31.01.2020
3508 Clouds 13 1038 71 10000 4.1 120 18:21 31.01.2020
3509 Clouds 11 1039 76 10000 3.6 110 17:46 31.01.2020
3510 Clouds 11 1039 76 10000 3.6 110 17:28 31.01.2020
3511 Clouds 11 1039 71 10000 2.6 90 16:58 31.01.2020
3512 Clouds 11 1039 71 10000 2.6 90 16:39 31.01.2020
3513 Clouds 11 1039 71 10000 2.6 90 16:39 31.01.2020
3514 Clouds 11 1039 71 10000 2.6 90 16:19 31.01.2020
3515 Clouds 10 1039 71 6000 1 0 15:58 31.01.2020
3516 Clouds 10 1039 71 6000 1 0 15:40 31.01.2020
3517 Clouds 10 1039 71 6000 1 0 15:20 31.01.2020
3518 Clouds 9 1039 76 6000 1 0 14:44 31.01.2020
3519 Clouds 9 1039 76 6000 1 0 14:24 31.01.2020
3520 Clouds 7 1038 81 6000 1 0 13:56 31.01.2020
3521 Clouds 7 1038 81 6000 1 0 13:37 31.01.2020
3522 Clouds 7 1038 81 6000 1 0 13:18 31.01.2020
3523 Fog 7 1038 93 4000 1 0 12:43 31.01.2020
3524 Fog 7 1038 93 4000 1 0 12:23 31.01.2020
3525 Clouds 7 1037 81 6000 2.6 330 11:55 31.01.2020
3526 Clouds 7 1037 81 6000 2.6 330 11:37 31.01.2020
3527 Clouds 7 1037 81 6000 2.6 330 11:18 31.01.2020
3528 Rain 7 1037 87 5000 2.1 310 10:43 31.01.2020
3529 Rain 7 1037 87 5000 2.1 310 10:22 31.01.2020
3530 Rain 7 1037 87 5000 3.1 280 09:57 31.01.2020
3531 Rain 7 1037 87 5000 3.1 280 09:39 31.01.2020
3532 Rain 7 1037 87 5000 3.1 280 09:39 31.01.2020
3533 Rain 7 1037 87 5000 3.1 280 09:19 31.01.2020
3534 Rain 7 1037 87 5000 3.1 280 09:19 31.01.2020
3535 Rain 7 1037 93 2000 2.6 90 08:52 31.01.2020
3536 Rain 7 1037 93 2000 2.6 90 08:27 31.01.2020
3537 Fog 7 1038 100 2000 3.1 90 07:53 31.01.2020
3538 Fog 7 1038 100 2000 3.1 90 07:25 31.01.2020
3539 Rain 8 1038 93 3000 2.1 80 06:48 31.01.2020
3540 Rain 8 1038 93 3000 2.1 80 06:18 31.01.2020
3541 Rain 8 1039 93 2500 3.1 70 05:46 31.01.2020
3542 Fog 8 1039 93 4000 2.6 80 04:55 31.01.2020
3543 Fog 8 1038 87 4000 3.6 100 02:58 31.01.2020
3544 Fog 8 1037 93 4000 3.6 100 01:38 31.01.2020
3545 Fog 8 1036 93 4000 5.1 100 00:45 31.01.2020
3546 Fog 8 1036 93 4000 5.1 100 00:26 31.01.2020
3547 Clouds 10 1035 81 6000 4.6 90 23:53 30.01.2020
3548 Clouds 10 1035 81 6000 4.6 90 23:24 30.01.2020
3549 Clouds 11 1034 81 10000 5.7 90 22:56 30.01.2020
3550 Clouds 11 1034 81 10000 5.7 90 22:36 30.01.2020
3551 Clouds 11 1034 81 10000 5.7 90 22:18 30.01.2020
3552 Clouds 12 1035 71 10000 3.1 70 21:43 30.01.2020
3553 Clouds 12 1035 71 10000 3.1 70 21:20 30.01.2020
3554 Clouds 10 1036 76 10000 3.6 70 20:59 30.01.2020
3555 Clouds 10 1036 76 10000 3.6 70 20:39 30.01.2020
3556 Clouds 10 1036 76 10000 3.6 70 20:39 30.01.2020
3557 Clouds 10 1036 76 10000 3.6 70 20:21 30.01.2020
3558 Clouds 8 1037 81 8000 3.6 30 19:55 30.01.2020
3559 Clouds 8 1037 81 8000 3.6 30 19:36 30.01.2020
3560 Clouds 8 1037 81 8000 3.6 30 19:18 30.01.2020
3561 Thunderstorm 8 1038 81 6000 5.7 30 18:39 30.01.2020
3562 Thunderstorm 8 1038 81 6000 5.7 30 18:19 30.01.2020
3563 Thunderstorm 11 1038 71 6000 2.1 20 17:55 30.01.2020
3564 Rain 12 1038 62 8000 2.1 290 17:36 30.01.2020
3565 Rain 12 1038 62 8000 2.1 290 17:18 30.01.2020
3566 Clouds 11 1038 76 10000 3.1 260 16:41 30.01.2020
3567 Clouds 11 1038 76 10000 3.1 260 16:21 30.01.2020
3568 Clouds 8 1039 87 8000 2.6 290 15:58 30.01.2020
3569 Clouds 8 1039 87 8000 2.6 290 15:40 30.01.2020
3570 Clouds 8 1039 87 8000 2.6 290 15:19 30.01.2020
3571 Rain 7 1038 93 6000 1 0 14:43 30.01.2020
3572 Rain 7 1038 93 6000 1 0 14:43 30.01.2020
3573 Rain 7 1038 93 6000 1 0 14:25 30.01.2020
3574 Rain 7 1038 87 6000 2.1 100 13:43 30.01.2020
3575 Rain 7 1038 87 6000 2.1 100 13:24 30.01.2020
3576 Fog 7 1037 93 4000 2.1 100 12:57 30.01.2020
3577 Fog 7 1037 93 4000 2.1 100 12:38 30.01.2020
3578 Fog 7 1037 93 4000 2.1 100 12:38 30.01.2020
3579 Fog 7 1037 93 4000 2.1 100 12:20 30.01.2020
3580 Fog 6 1036 93 4000 2.1 70 11:41 30.01.2020
3581 Fog 6 1036 93 4000 2.1 70 11:23 30.01.2020
3582 Fog 6 1035 93 4000 1.5 90 10:59 30.01.2020
3583 Fog 6 1035 93 4000 1.5 90 10:40 30.01.2020
3584 Fog 6 1035 93 4000 1.5 90 10:21 30.01.2020
3585 Fog 6 1036 93 4000 2.1 80 09:46 30.01.2020
3586 Fog 6 1036 93 4000 2.1 80 09:27 30.01.2020
3587 Fog 6 1036 93 4000 1.5 60 08:55 30.01.2020
3588 Fog 6 1036 93 4000 1.5 60 08:36 30.01.2020
3589 Fog 6 1036 93 4000 1.5 60 08:18 30.01.2020
3590 Fog 7 1036 93 4000 1.5 70 07:44 30.01.2020
3591 Fog 7 1036 93 4000 1.5 70 07:19 30.01.2020
3592 Fog 6 1037 93 4000 2.1 80 06:45 30.01.2020
3593 Fog 6 1037 93 4000 2.1 80 06:26 30.01.2020
3594 Fog 6 1037 93 4000 2.1 80 06:26 30.01.2020
3595 Fog 6 1037 100 3000 2.6 40 05:39 30.01.2020
3596 Fog 6 1037 100 3000 2.6 40 05:19 30.01.2020
3597 Clouds 7 1036 93 10000 2.6 90 03:48 30.01.2020
3598 Clouds 7 1036 93 10000 2.6 90 03:24 30.01.2020
3599 Clouds 8 1034 81 10000 4.1 80 01:35 30.01.2020
3600 Clouds 11 1035 57 10000 3.1 140 00:37 30.01.2020
3601 Clouds 11 1035 57 10000 3.1 140 00:18 30.01.2020
3602 Clouds 11 1034 53 10000 3.6 130 23:43 29.01.2020
3603 Clouds 11 1034 53 10000 3.6 130 23:20 29.01.2020
3604 Clouds 12 1034 58 10000 7.2 80 22:56 29.01.2020
3605 Clouds 12 1034 58 10000 7.2 80 22:56 29.01.2020
3606 Clouds 12 1034 58 10000 7.2 80 22:37 29.01.2020
3607 Clouds 12 1034 58 10000 7.2 80 22:18 29.01.2020
3608 Clouds 12 1035 66 8000 7.2 60 21:55 29.01.2020
3609 Rain 9 1008 80 0 3.92 38 21:36 29.01.2020
3610 Thunderstorm 7 1036 87 8000 5.7 80 21:18 29.01.2020
3611 Thunderstorm 7 1036 87 8000 5.7 80 20:41 29.01.2020
3612 Thunderstorm 7 1036 87 8000 5.7 80 20:22 29.01.2020
3613 Clouds 13 1035 58 8000 5.1 100 19:58 29.01.2020
3614 Clouds 13 1035 58 8000 5.1 100 19:38 29.01.2020
3615 Clouds 13 1035 58 8000 5.1 100 19:20 29.01.2020
3616 Clouds 14 1036 50 10000 3.1 110 18:58 29.01.2020
3617 Clouds 14 1036 50 10000 3.1 110 18:38 29.01.2020
3618 Clouds 14 1036 50 10000 3.1 110 18:18 29.01.2020
3619 Clouds 14 1037 50 10000 2.6 140 17:41 29.01.2020
3620 Clouds 14 1037 50 10000 2.6 140 17:22 29.01.2020
3621 Clouds 12 1037 50 10000 1 0 16:54 29.01.2020
3622 Clouds 12 1037 50 10000 1 0 16:36 29.01.2020
3623 Clouds 12 1037 50 10000 1 0 16:18 29.01.2020
3624 Clouds 10 1038 57 8000 2.1 140 15:39 29.01.2020
3625 Clouds 10 1038 57 8000 2.1 140 15:20 29.01.2020
3626 Clouds 9 1037 66 6000 1 0 14:46 29.01.2020
3627 Clouds 9 1037 66 6000 1 0 14:23 29.01.2020
3628 Clouds 6 1037 81 6000 1 0 13:57 29.01.2020
3629 Clouds 6 1037 81 6000 1 0 13:39 29.01.2020
3630 Clouds 6 1037 81 6000 1 0 13:20 29.01.2020
3631 Clouds 5 1036 86 6000 0.26 202 12:56 29.01.2020
3632 Clouds 5 1036 86 6000 0.26 202 12:37 29.01.2020
3633 Clouds 5 1036 86 6000 0.26 202 12:19 29.01.2020
3634 Fog 4 1035 93 4000 1 0 11:45 29.01.2020
3635 Fog 4 1035 93 4000 1 0 11:22 29.01.2020
3636 Fog 5 1035 93 4000 1.5 70 10:47 29.01.2020
3637 Fog 6 1035 93 4000 2.6 100 10:28 29.01.2020
3638 Fog 6 1035 93 4000 2.6 100 09:59 29.01.2020
3639 Fog 6 1035 93 4000 2.6 100 09:40 29.01.2020
3640 Fog 6 1035 93 4000 2.6 100 09:21 29.01.2020
3641 Fog 6 1035 87 4000 1.5 120 08:56 29.01.2020
3642 Fog 6 1035 87 4000 1.5 120 08:38 29.01.2020
3643 Fog 6 1035 87 4000 1.5 120 08:18 29.01.2020
3644 Fog 8 1035 87 4000 1 0 07:43 29.01.2020
3645 Fog 8 1035 87 4000 1 0 07:24 29.01.2020
3646 Clouds 8 1036 75 10000 1 0 06:39 29.01.2020
3647 Clouds 8 1036 75 10000 1 0 06:21 29.01.2020
3648 Clouds 8 1037 75 10000 2.1 260 05:55 29.01.2020
3649 Clouds 8 1037 75 10000 2.1 260 05:36 29.01.2020
3650 Clouds 10 1037 66 10000 2.6 170 04:49 29.01.2020
3651 Clouds 10 1037 66 10000 2.6 170 04:49 29.01.2020
3652 Clouds 10 1037 66 10000 2.6 170 04:25 29.01.2020
3653 Rain 6 1017 91 0 2.49 42 02:41 29.01.2020
3654 Clouds 11 1034 62 10000 4.1 100 01:44 29.01.2020
3655 Clouds 15 1033 28 10000 2.1 60 00:41 29.01.2020
3656 Clouds 15 1033 28 10000 2.1 60 00:23 29.01.2020
3657 Clouds 15 1033 30 10000 2.6 320 23:41 28.01.2020
3658 Clouds 15 1033 30 10000 2.6 320 23:21 28.01.2020
3659 Clouds 16 1033 31 10000 5.7 260 22:57 28.01.2020
3660 Clouds 16 1033 31 10000 5.7 260 22:39 28.01.2020
3661 Clouds 16 1033 31 10000 5.7 260 22:20 28.01.2020
3662 Clouds 16 1033 31 10000 5.7 260 22:20 28.01.2020
3663 Clouds 17 1034 81 10000 5.1 290 21:41 28.01.2020
3664 Clouds 17 1034 81 10000 5.1 290 21:20 28.01.2020
3665 Clouds 17 1034 81 10000 5.1 290 21:20 28.01.2020
3666 Clouds 16 1035 31 10000 4.6 250 20:46 28.01.2020
3667 Clouds 16 1035 31 10000 4.6 250 20:28 28.01.2020
3668 Clouds 16 1036 31 10000 3.1 230 19:58 28.01.2020
3669 Clouds 16 1036 31 10000 3.1 230 19:38 28.01.2020
3670 Clouds 16 1036 31 10000 3.1 230 19:19 28.01.2020
3671 Clouds 14 1037 76 10000 1 0 18:54 28.01.2020
3672 Clouds 14 1037 76 10000 1 0 18:36 28.01.2020
3673 Clouds 14 1037 76 10000 1 0 18:36 28.01.2020
3674 Clouds 14 1037 76 10000 1 0 18:18 28.01.2020
3675 Clouds 13 1038 50 10000 3.1 150 17:55 28.01.2020
3676 Clouds 13 1038 50 10000 3.1 150 17:36 28.01.2020
3677 Clouds 13 1038 50 10000 3.1 150 17:18 28.01.2020
3678 Clouds 13 1038 54 10000 3.6 110 16:44 28.01.2020
3679 Clouds 13 1038 54 10000 3.6 110 16:26 28.01.2020
3680 Clouds 12 1039 54 10000 2.1 110 15:59 28.01.2020
3681 Clouds 12 1039 54 10000 2.1 110 15:40 28.01.2020
3682 Clouds 12 1039 54 10000 2.1 110 15:18 28.01.2020
3683 Clouds 9 1039 61 6000 1 0 14:44 28.01.2020
3684 Clouds 9 1039 61 6000 1 0 14:20 28.01.2020
3685 Fog 7 1038 93 4000 1 0 13:43 28.01.2020
3686 Fog 7 1038 93 4000 1 0 13:24 28.01.2020
3687 Fog 6 1038 100 4000 1 0 12:46 28.01.2020
3688 Mist 5 1038 100 1200 1 0 12:25 28.01.2020
3689 Mist 5 1037 93 2000 2.1 110 11:59 28.01.2020
3690 Mist 5 1037 93 2000 2.1 110 11:41 28.01.2020
3691 Mist 5 1037 93 2000 2.1 110 11:22 28.01.2020
3692 Fog 5 1037 93 2000 2.6 80 10:55 28.01.2020
3693 Fog 5 1037 93 2000 2.6 80 10:36 28.01.2020
3694 Fog 5 1037 93 2000 2.6 80 10:18 28.01.2020
3695 Fog 4 1037 100 4000 1 0 09:41 28.01.2020
3696 Fog 4 1037 100 4000 1 0 09:20 28.01.2020
3697 Fog 4 1037 100 4000 1 0 09:20 28.01.2020
3698 Fog 4 1038 86 4000 1.5 80 08:45 28.01.2020
3699 Fog 4 1038 86 4000 1.5 80 08:25 28.01.2020
3700 Clouds 5 1038 93 10000 1 0 07:44 28.01.2020
3701 Clouds 5 1038 93 10000 1 0 07:26 28.01.2020
3702 Clouds 5 1039 93 10000 1 0 06:47 28.01.2020
3703 Clouds 5 1039 93 10000 1 0 06:24 28.01.2020
3704 Clouds 5 1039 93 10000 2.1 80 05:37 28.01.2020
3705 Clouds 5 1039 93 10000 2.1 80 05:19 28.01.2020
3706 Clouds 7 1039 87 10000 2.1 30 03:46 28.01.2020
3707 Clouds 6 1039 93 10000 2.6 60 02:44 28.01.2020
3708 Clouds 6 1039 93 10000 2.6 60 02:24 28.01.2020
3709 Clouds 7 1039 81 10000 1 0 01:52 28.01.2020
3710 Clouds 9 1038 66 10000 1 0 00:58 28.01.2020
3711 Clouds 9 1038 66 10000 1 0 00:39 28.01.2020
3712 Clouds 9 1038 66 10000 1 0 00:19 28.01.2020
3713 Clouds 10 1037 61 10000 1 0 23:42 27.01.2020
3714 Clouds 10 1037 61 10000 1 0 23:18 27.01.2020
3715 Clouds 10 1037 66 10000 3.1 230 22:44 27.01.2020
3716 Clouds 10 1037 66 10000 3.1 230 22:20 27.01.2020
3717 Clouds 10 1037 66 10000 3.1 230 22:20 27.01.2020
3718 Clouds 10 1037 66 10000 3.1 230 22:20 27.01.2020
3719 Clouds 7 1038 81 10000 5.7 80 21:57 27.01.2020
3720 Clouds 7 1038 81 10000 5.7 80 21:57 27.01.2020
3721 Clouds 7 1038 81 10000 5.7 80 21:38 27.01.2020
3722 Clouds 7 1038 81 10000 5.7 80 21:38 27.01.2020
3723 Clouds 7 1038 81 10000 5.7 80 21:18 27.01.2020
3724 Rain 6 1039 81 6000 7.7 80 20:56 27.01.2020
3725 Rain 6 1039 81 6000 7.7 80 20:37 27.01.2020
3726 Rain 6 1039 81 6000 7.7 80 20:18 27.01.2020
3727 Thunderstorm 6 1040 81 6000 1 0 19:42 27.01.2020
3728 Thunderstorm 6 1040 81 6000 1 0 19:23 27.01.2020
3729 Clouds 8 1040 70 8000 4.6 220 18:58 27.01.2020
3730 Clouds 5 1040 80 6000 4.6 70 18:39 27.01.2020
3731 Clouds 5 1040 80 6000 4.6 70 18:20 27.01.2020
3732 Clouds 9 1039 76 6000 4.6 130 17:57 27.01.2020
3733 Rain 11 1013 66 0 5.43 48 17:37 27.01.2020
3734 Clouds 14 1040 54 10000 1 0 17:18 27.01.2020
3735 Clouds 14 1040 54 10000 1 0 16:42 27.01.2020
3736 Clouds 14 1040 54 10000 1 0 16:24 27.01.2020
3737 Clouds 14 1040 54 10000 1 0 16:24 27.01.2020
3738 Clouds 13 1041 62 10000 2.1 100 15:55 27.01.2020
3739 Clouds 13 1041 62 10000 2.1 100 15:37 27.01.2020
3740 Clouds 13 1041 62 10000 2.1 100 15:19 27.01.2020
3741 Clouds 12 1040 54 8000 1 0 14:54 27.01.2020
3742 Clouds 12 1040 54 8000 1 0 14:36 27.01.2020
3743 Clouds 12 1040 54 8000 1 0 14:18 27.01.2020
3744 Clouds 8 1040 81 6000 1 0 13:41 27.01.2020
3745 Clouds 8 1040 81 6000 1 0 13:20 27.01.2020
3746 Fog 4 1039 93 4000 2.1 70 12:55 27.01.2020
3747 Fog 4 1039 93 4000 2.1 70 12:37 27.01.2020
3748 Fog 4 1039 93 4000 2.1 70 12:18 27.01.2020
3749 Fog 3 1038 93 4000 1.5 90 11:41 27.01.2020
3750 Fog 3 1038 93 4000 1.5 90 11:41 27.01.2020
3751 Fog 3 1038 93 4000 1.5 90 11:20 27.01.2020
3752 Clouds 5 1038 80 10000 1 0 10:43 27.01.2020
3753 Clouds 5 1038 80 10000 1 0 10:24 27.01.2020
3754 Clouds 6 1038 75 10000 2.1 20 09:56 27.01.2020
3755 Clouds 6 1038 75 10000 2.1 20 09:38 27.01.2020
3756 Clouds 6 1038 75 10000 2.1 20 09:18 27.01.2020
3757 Clouds 6 1038 81 10000 1 0 08:42 27.01.2020
3758 Clouds 6 1038 81 10000 1 0 08:20 27.01.2020
3759 Clouds 7 1039 75 10000 1 0 07:54 27.01.2020
3760 Clouds 7 1039 75 10000 1 0 07:54 27.01.2020
3761 Clouds 7 1039 75 10000 1 0 07:33 27.01.2020
3762 Clouds 9 1040 70 10000 1 0 06:52 27.01.2020
3763 Clouds 9 1040 70 10000 1 0 06:24 27.01.2020
3764 Clouds 9 1040 70 10000 1 0 05:22 27.01.2020
3765 Clouds 11 1041 53 10000 3.1 130 03:43 27.01.2020
3766 Thunderstorm 11 1040 57 10000 5.1 180 02:32 27.01.2020
3767 Clouds 13 1038 50 10000 4.1 240 01:29 27.01.2020
3768 Clouds 15 1037 41 10000 4.6 110 00:43 27.01.2020
3769 Clouds 15 1037 41 10000 4.6 110 00:22 27.01.2020
3770 Clouds 16 1036 36 10000 5.1 110 23:59 26.01.2020
3771 Clouds 16 1036 36 10000 5.1 110 23:41 26.01.2020
3772 Clouds 16 1036 36 10000 5.1 110 23:18 26.01.2020
3773 Clouds 18 1037 31 10000 6.2 90 22:39 26.01.2020
3774 Clouds 18 1037 31 10000 6.2 90 22:20 26.01.2020
3775 Clouds 18 1037 31 10000 6.2 70 21:59 26.01.2020
3776 Clouds 18 1037 31 10000 6.2 70 21:40 26.01.2020
3777 Clouds 18 1037 31 10000 6.2 70 21:22 26.01.2020
3778 Clouds 18 1037 31 10000 6.2 70 21:22 26.01.2020
3779 Rain 20 1038 24 10000 5.7 70 20:58 26.01.2020
3780 Rain 20 1038 24 10000 5.7 70 20:39 26.01.2020
3781 Rain 20 1038 24 10000 5.7 70 20:20 26.01.2020
3782 Clouds 19 1039 25 10000 5.1 120 19:59 26.01.2020
3783 Clouds 19 1039 25 10000 5.1 120 19:59 26.01.2020
3784 Clouds 19 1039 25 10000 5.1 120 19:39 26.01.2020
3785 Clouds 19 1039 25 10000 5.1 120 19:21 26.01.2020
3786 Clouds 18 1040 20 10000 6.7 130 18:56 26.01.2020
3787 Clouds 18 1040 20 10000 6.7 130 18:38 26.01.2020
3788 Clouds 18 1040 20 10000 6.7 130 18:20 26.01.2020
3789 Clouds 16 1040 29 10000 4.6 130 17:55 26.01.2020
3790 Clouds 16 1040 29 10000 4.6 130 17:37 26.01.2020
3791 Clouds 16 1040 29 10000 4.6 130 17:18 26.01.2020
3792 Clouds 15 1041 44 10000 2.6 120 16:56 26.01.2020
3793 Clouds 15 1041 44 10000 2.6 120 16:38 26.01.2020
3794 Rain 12 1016 54 0 1.79 120 16:18 26.01.2020
3795 Rain 12 1016 54 0 1.79 120 15:43 26.01.2020
3796 Rain 12 1016 54 0 1.79 120 15:21 26.01.2020
3797 Rain 12 1016 54 0 1.79 120 14:58 26.01.2020
3798 Rain 12 1016 54 0 1.79 120 14:38 26.01.2020
3799 Clouds 6 1019 75 0 0.59 63 14:19 26.01.2020
3800 Clouds 6 1019 75 0 0.59 63 13:40 26.01.2020
3801 Clouds 6 1019 75 0 0.59 63 13:19 26.01.2020
3802 Clouds 7 1019 70 0 0.37 82 12:56 26.01.2020
3803 Clouds 7 1019 70 0 0.37 82 12:36 26.01.2020
3804 Clouds 7 1019 70 0 0.37 82 12:18 26.01.2020
3805 Clouds 7 1019 70 0 0.37 82 11:56 26.01.2020
3806 Clouds 7 1019 70 0 0.37 82 11:36 26.01.2020
3807 Fog 4 1039 93 4000 2.6 70 11:18 26.01.2020
3808 Fog 4 1039 93 4000 2.6 70 10:39 26.01.2020
3809 Fog 4 1039 93 4000 2.6 70 10:21 26.01.2020
3810 Fog 5 1038 93 4000 2.6 70 09:59 26.01.2020
3811 Fog 5 1038 93 4000 2.6 70 09:41 26.01.2020
3812 Fog 5 1038 93 4000 2.6 70 09:22 26.01.2020
3813 Fog 7 1039 87 4000 3.6 110 08:55 26.01.2020
3814 Fog 7 1039 87 4000 3.6 110 08:37 26.01.2020
3815 Fog 7 1039 87 4000 3.6 110 08:18 26.01.2020
3816 Clouds 7 1039 87 10000 1 0 07:45 26.01.2020
3817 Clouds 7 1039 87 10000 1 0 07:45 26.01.2020
3818 Clouds 7 1039 87 10000 1 0 07:22 26.01.2020
3819 Clouds 5 1039 86 10000 1 0 06:32 26.01.2020
3820 Clouds 5 1040 86 10000 1 0 05:37 26.01.2020
3821 Clouds 8 1040 70 10000 3.1 110 04:58 26.01.2020
3822 Clouds 10 1038 61 10000 4.1 80 02:59 26.01.2020
3823 Clouds 10 1038 61 10000 4.1 80 02:59 26.01.2020
3824 Clouds 12 1037 50 10000 6.2 60 01:59 26.01.2020
3825 Clouds 12 1037 50 10000 6.2 60 01:38 26.01.2020
3826 Clouds 12 1037 50 10000 6.2 60 01:19 26.01.2020
3827 Clouds 14 1036 50 10000 6.2 110 00:39 26.01.2020
3828 Clouds 14 1036 50 10000 6.2 110 00:20 26.01.2020
3829 Clouds 14 1036 50 10000 6.2 110 00:20 26.01.2020
3830 Clouds 14 1036 50 10000 6.2 110 00:20 26.01.2020
3831 Clouds 7 1013 79 0 3.61 39 23:37 25.01.2020
3832 Clouds 12 1010 57 0 3.65 52 23:19 25.01.2020
3833 Clouds 12 1010 57 0 3.65 52 22:43 25.01.2020
3834 Clouds 12 1010 57 0 3.65 52 22:20 25.01.2020
3835 Clouds 12 1010 57 0 3.65 52 21:57 25.01.2020
3836 Clouds 12 1010 57 0 3.65 52 21:39 25.01.2020
3837 Clouds 12 1010 57 0 3.65 52 21:20 25.01.2020
3838 Clouds 12 1010 57 0 3.65 52 20:45 25.01.2020
3839 Clouds 12 1010 57 0 3.65 52 20:25 25.01.2020
3840 Rain 12 1012 61 0 4.32 57 19:56 25.01.2020
3841 Rain 12 1012 63 0 4.17 56 19:37 25.01.2020
3842 Rain 12 1012 63 0 4.17 56 19:18 25.01.2020
3843 Rain 12 1012 63 0 4.17 56 18:43 25.01.2020
3844 Rain 12 1012 61 0 4.32 57 18:23 25.01.2020
3845 Rain 12 1012 63 0 4.17 56 17:58 25.01.2020
3846 Rain 12 1012 61 0 4.32 57 17:38 25.01.2020
3847 Rain 11 1016 63 0 2.38 110 17:19 25.01.2020
3848 Rain 11 1016 63 0 2.38 110 16:43 25.01.2020
3849 Rain 11 1016 63 0 2.38 110 16:23 25.01.2020
3850 Rain 11 1016 63 0 2.38 110 15:58 25.01.2020
3851 Rain 11 1016 63 0 2.38 110 15:58 25.01.2020
3852 Rain 11 1016 63 0 2.38 110 15:40 25.01.2020
3853 Rain 11 1016 63 0 2.38 110 15:21 25.01.2020
3854 Rain 11 1016 63 0 2.38 110 14:43 25.01.2020
3855 Clouds 7 1019 76 0 1.66 44 14:19 25.01.2020
3856 Clouds 7 1019 76 0 1.66 44 13:54 25.01.2020
3857 Clouds 7 1019 76 0 1.66 44 13:36 25.01.2020
3858 Clouds 7 1019 73 0 1.67 51 13:18 25.01.2020
3859 Clouds 7 1019 73 0 1.67 51 12:39 25.01.2020
3860 Fog 7 1038 87 4000 2.1 90 12:20 25.01.2020
3861 Fog 7 1038 87 4000 2.1 90 11:40 25.01.2020
3862 Fog 7 1038 87 4000 2.1 90 11:20 25.01.2020
3863 Fog 6 1037 93 4000 2.1 80 10:56 25.01.2020
3864 Fog 6 1037 93 4000 2.1 80 10:38 25.01.2020
3865 Fog 6 1037 93 4000 2.1 80 10:18 25.01.2020
3866 Fog 7 1037 87 4000 2.6 120 09:40 25.01.2020
3867 Fog 7 1037 87 4000 2.6 120 09:19 25.01.2020
3868 Fog 7 1037 87 4000 4.1 120 08:43 25.01.2020
3869 Fog 8 1038 87 4000 3.1 90 07:58 25.01.2020
3870 Fog 8 1038 87 4000 3.1 90 07:36 25.01.2020
3871 Clouds 5 1017 86 0 3.2 44 06:41 25.01.2020
3872 Fog 8 1038 93 4000 3.6 80 06:22 25.01.2020
3873 Fog 8 1038 93 4000 3.6 80 05:43 25.01.2020
3874 Fog 8 1038 100 4000 4.1 90 04:19 25.01.2020
3875 Fog 8 1038 93 4000 4.1 80 03:49 25.01.2020
3876 Clouds 11 1036 76 10000 4.6 100 02:37 25.01.2020
3877 Clouds 11 1036 71 10000 5.7 100 01:57 25.01.2020
3878 Clouds 11 1036 71 10000 5.7 100 01:23 25.01.2020
3879 Clouds 13 1035 58 10000 4.6 110 00:39 25.01.2020
3880 Clouds 13 1035 58 10000 4.6 110 00:18 25.01.2020
3881 Clouds 16 1034 44 10000 6.2 100 23:42 24.01.2020
3882 Clouds 16 1034 44 10000 6.2 100 23:23 24.01.2020
3883 Clouds 18 1034 34 10000 5.7 110 22:46 24.01.2020
3884 Clouds 18 1034 34 10000 5.7 110 22:46 24.01.2020
3885 Clouds 18 1034 34 10000 5.7 110 22:28 24.01.2020
3886 Clouds 18 1035 34 10000 4.1 120 21:58 24.01.2020
3887 Clouds 18 1035 34 10000 4.1 120 21:40 24.01.2020
3888 Clouds 18 1035 34 10000 4.1 120 21:18 24.01.2020
3889 Clouds 18 1036 34 10000 5.1 150 20:43 24.01.2020
3890 Clouds 18 1036 34 10000 5.1 150 20:22 24.01.2020
3891 Clouds 17 1037 39 10000 5.1 130 19:58 24.01.2020
3892 Clouds 17 1037 39 10000 5.1 130 19:40 24.01.2020
3893 Clouds 17 1037 39 10000 5.1 130 19:21 24.01.2020
3894 Clouds 16 1038 44 10000 4.6 110 18:44 24.01.2020
3895 Clouds 16 1038 44 10000 4.6 110 18:25 24.01.2020
3896 Clouds 15 1038 51 10000 4.6 120 17:59 24.01.2020
3897 Clouds 15 1038 51 10000 4.6 120 17:41 24.01.2020
3898 Clouds 15 1038 51 10000 4.6 120 17:20 24.01.2020
3899 Clouds 13 1039 62 10000 3.1 120 16:40 24.01.2020
3900 Clouds 13 1039 62 10000 3.1 120 16:21 24.01.2020
3901 Clouds 11 1039 71 8000 2.6 140 15:56 24.01.2020
3902 Clouds 11 1039 71 8000 2.6 140 15:38 24.01.2020
3903 Clouds 11 1039 71 8000 2.6 140 15:19 24.01.2020
3904 Clouds 10 1038 76 6000 2.6 150 14:41 24.01.2020
3905 Clouds 10 1038 76 6000 2.6 150 14:22 24.01.2020
3906 Fog 8 1038 87 4000 2.6 150 13:45 24.01.2020
3907 Fog 8 1038 87 4000 2.6 150 13:24 24.01.2020
3908 Fog 7 1037 93 4000 2.6 120 12:45 24.01.2020
3909 Fog 7 1037 93 4000 2.6 120 12:45 24.01.2020
3910 Fog 7 1037 93 4000 2.6 120 12:24 24.01.2020
3911 Fog 7 1036 87 4000 2.1 150 11:59 24.01.2020
3912 Fog 7 1036 87 4000 2.1 150 11:40 24.01.2020
3913 Fog 7 1036 87 4000 2.1 150 11:18 24.01.2020
3914 Fog 7 1036 87 4000 2.1 80 10:43 24.01.2020
3915 Fog 7 1036 87 4000 2.1 80 10:21 24.01.2020
3916 Fog 7 1036 87 4000 3.1 120 09:55 24.01.2020
3917 Fog 7 1036 87 4000 3.1 120 09:37 24.01.2020
3918 Fog 7 1036 87 4000 3.1 120 09:18 24.01.2020
3919 Fog 6 1036 93 4000 2.6 100 08:39 24.01.2020
3920 Fog 6 1036 93 4000 2.6 100 08:19 24.01.2020
3921 Fog 5 1036 100 4000 2.1 70 07:48 24.01.2020
3922 Fog 5 1036 100 4000 2.1 70 07:22 24.01.2020
3923 Fog 5 1037 93 4000 2.6 60 06:45 24.01.2020
3924 Clouds 6 1037 93 10000 2.6 70 06:24 24.01.2020
3925 Clouds 6 1037 93 10000 2.6 70 05:33 24.01.2020
3926 Clouds 8 1037 81 10000 3.1 70 03:36 24.01.2020
3927 Clouds 8 1036 75 10000 2.6 70 02:40 24.01.2020
3928 Clouds 8 1036 75 10000 2.6 70 02:21 24.01.2020
3929 Clouds 10 1036 66 10000 3.6 100 01:39 24.01.2020
3930 Clouds 12 1035 54 10000 4.1 110 00:49 24.01.2020
3931 Clouds 12 1035 54 10000 4.1 110 00:19 24.01.2020
3932 Clouds 14 1035 44 10000 4.6 100 23:42 23.01.2020
3933 Clouds 14 1035 44 10000 4.6 100 23:22 23.01.2020
3934 Clouds 15 1035 41 10000 4.6 120 22:58 23.01.2020
3935 Clouds 15 1035 41 10000 4.6 120 22:37 23.01.2020
3936 Clouds 15 1035 41 10000 4.6 120 22:37 23.01.2020
3937 Clouds 15 1035 41 10000 4.6 120 22:18 23.01.2020
3938 Clouds 16 1036 65 10000 5.1 110 21:55 23.01.2020
3939 Clouds 16 1036 65 10000 5.1 110 21:37 23.01.2020
3940 Clouds 16 1036 65 10000 5.1 110 21:18 23.01.2020
3941 Clouds 15 1036 65 10000 4.1 100 20:41 23.01.2020
3942 Clouds 15 1036 53 10000 4.1 100 20:22 23.01.2020
3943 Clouds 15 1037 41 10000 4.1 130 19:57 23.01.2020
3944 Clouds 15 1037 41 10000 4.1 130 19:39 23.01.2020
3945 Clouds 15 1037 41 10000 4.1 130 19:39 23.01.2020
3946 Clouds 15 1037 41 10000 4.1 130 19:21 23.01.2020
3947 Clouds 14 1038 50 10000 3.6 130 18:56 23.01.2020
3948 Clouds 14 1038 50 10000 3.6 130 18:38 23.01.2020
3949 Clouds 14 1038 50 10000 3.6 130 18:19 23.01.2020
3950 Clouds 14 1038 50 10000 3.6 130 18:19 23.01.2020
3951 Clouds 13 1039 50 10000 3.6 150 17:44 23.01.2020
3952 Clouds 13 1039 50 10000 3.6 150 17:21 23.01.2020
3953 Clouds 11 1040 62 8000 1 0 16:58 23.01.2020
3954 Clouds 11 1040 62 8000 1 0 16:38 23.01.2020
3955 Clouds 11 1040 62 8000 1 0 16:19 23.01.2020
3956 Clouds 11 1039 62 6000 3.1 100 15:57 23.01.2020
3957 Clouds 11 1039 62 6000 3.1 100 15:38 23.01.2020
3958 Clouds 11 1039 62 6000 3.1 100 15:18 23.01.2020
3959 -273 0 0 0 0 0 15:18 23.01.2020
3960 Clouds 9 1039 76 6000 2.6 60 14:56 23.01.2020
3961 Clouds 9 1039 76 6000 2.6 60 14:56 23.01.2020
3962 Clouds 9 1039 76 6000 2.6 60 14:38 23.01.2020
3963 Clouds 9 1039 76 6000 2.6 60 14:20 23.01.2020
3964 Clouds 9 1038 76 6000 2.1 80 13:45 23.01.2020
3965 Clouds 9 1038 76 6000 2.1 80 13:21 23.01.2020
3966 Fog 6 1038 93 4000 2.6 120 12:55 23.01.2020
3967 Fog 6 1038 93 4000 2.6 120 12:37 23.01.2020
3968 Fog 6 1038 93 4000 2.6 120 12:18 23.01.2020
3969 Fog 6 1037 87 4000 2.6 60 11:43 23.01.2020
3970 Fog 6 1037 87 4000 2.6 60 11:24 23.01.2020
3971 Clouds 6 1036 75 10000 4.6 50 10:58 23.01.2020
3972 Clouds 6 1036 75 10000 4.6 50 10:40 23.01.2020
3973 Clouds 6 1036 75 10000 4.6 50 10:18 23.01.2020
3974 Clouds 6 1037 81 10000 1.5 40 09:40 23.01.2020
3975 Clouds 6 1037 81 10000 1.5 40 09:21 23.01.2020
3976 Clouds 6 1037 87 10000 2.1 90 08:43 23.01.2020
3977 Clouds 6 1037 87 10000 2.1 90 08:25 23.01.2020
3978 Rain 5 1038 86 10000 4.6 50 07:52 23.01.2020
3979 Rain 5 1038 86 10000 4.6 50 07:27 23.01.2020
3980 Rain 6 1038 87 4000 6.2 50 06:55 23.01.2020
3981 Rain 6 1038 87 4000 6.2 50 06:25 23.01.2020
3982 Fog 8 1038 93 4000 4.6 100 05:59 23.01.2020
3983 Fog 8 1038 87 4000 4.6 100 04:25 23.01.2020
3984 Clouds 8 1036 87 10000 3.6 80 02:50 23.01.2020
3985 Clouds 9 1035 76 10000 4.6 100 01:51 23.01.2020
3986 Clouds 11 1034 62 10000 5.1 120 00:41 23.01.2020
3987 Clouds 11 1034 62 10000 5.1 120 00:20 23.01.2020
3988 Clouds 13 1034 62 10000 5.1 100 23:45 22.01.2020
3989 Clouds 13 1034 62 10000 5.1 100 23:27 22.01.2020
3990 Clouds 14 1034 54 10000 4.6 100 22:43 22.01.2020
3991 Clouds 14 1034 54 10000 4.6 100 22:24 22.01.2020
3992 Clouds 13 1035 66 10000 5.1 100 21:58 22.01.2020
3993 Clouds 13 1035 66 10000 5.1 100 21:36 22.01.2020
3994 Clouds 13 1035 66 10000 5.1 100 21:36 22.01.2020
3995 Clouds 13 1035 66 10000 5.1 100 21:18 22.01.2020
3996 Rain 12 1036 66 10000 2.6 70 20:41 22.01.2020
3997 Rain 12 1036 66 10000 2.6 70 20:23 22.01.2020
3998 Clouds 12 1037 66 10000 2.6 80 19:58 22.01.2020
3999 Clouds 12 1037 66 10000 2.6 80 19:39 22.01.2020
4000 Clouds 12 1037 66 10000 2.6 80 19:19 22.01.2020
4001 Clouds 12 1038 66 10000 3.1 90 18:57 22.01.2020
4002 Clouds 12 1038 66 10000 3.1 90 18:38 22.01.2020
4003 Clouds 12 1038 66 10000 3.1 90 18:20 22.01.2020
4004 Clouds 11 1038 76 6000 5.1 110 17:55 22.01.2020
4005 Clouds 11 1038 76 6000 5.1 110 17:55 22.01.2020
4006 Clouds 11 1038 76 6000 5.1 110 17:37 22.01.2020
4007 Clouds 11 1038 76 6000 5.1 110 17:19 22.01.2020
4008 Clouds 10 1038 81 6000 4.6 100 16:43 22.01.2020
4009 Clouds 10 1038 81 6000 4.6 100 16:23 22.01.2020
4010 Fog 8 1038 87 4000 5.1 90 15:59 22.01.2020
4011 Fog 8 1038 87 4000 5.1 90 15:40 22.01.2020
4012 Fog 8 1038 87 4000 5.1 90 15:22 22.01.2020
4013 Rain 7 1038 93 3000 5.1 90 14:57 22.01.2020
4014 Rain 7 1038 93 3000 5.1 90 14:37 22.01.2020
4015 Rain 7 1038 93 3000 5.1 90 14:18 22.01.2020
4016 Rain 6 1037 93 4000 7.7 80 13:54 22.01.2020
4017 Rain 6 1037 93 4000 7.7 80 13:36 22.01.2020
4018 Rain 6 1037 93 4000 7.7 80 13:18 22.01.2020
4019 Fog 6 1037 93 1200 7.7 90 12:54 22.01.2020
4020 Fog 5 1037 100 1200 7.2 100 12:36 22.01.2020
4021 Fog 5 1037 100 1200 7.2 100 12:18 22.01.2020
4022 Fog 5 1037 100 1200 7.2 100 12:18 22.01.2020
4023 Rain 6 1037 93 4000 5.1 90 11:55 22.01.2020
4024 Rain 6 1037 93 4000 5.1 90 11:55 22.01.2020
4025 Rain 6 1037 93 4000 5.1 90 11:36 22.01.2020
4026 Rain 6 1037 93 4000 5.1 90 11:18 22.01.2020
4027 Rain 24 1009 100 6000 2.6 290 10:42 22.01.2020
4028 Rain 24 1009 100 6000 2.6 290 10:19 22.01.2020
4029 Clouds 7 1035 81 10000 3.1 60 09:43 22.01.2020
4030 Clouds 7 1035 81 10000 3.1 60 09:24 22.01.2020
4031 Thunderstorm 7 1035 87 4000 4.1 90 08:57 22.01.2020
4032 Thunderstorm 7 1035 87 4000 4.1 90 08:39 22.01.2020
4033 Thunderstorm 7 1035 87 4000 4.1 90 08:20 22.01.2020
4034 Thunderstorm 9 1036 66 4000 2.1 50 07:46 22.01.2020
4035 Thunderstorm 9 1036 66 4000 2.1 50 07:28 22.01.2020
4036 Thunderstorm 8 1037 93 10000 1 0 06:38 22.01.2020
4037 Thunderstorm 8 1037 93 10000 1 0 06:20 22.01.2020
4038 Clouds 8 1037 93 10000 1 0 05:21 22.01.2020
4039 Clouds 10 1037 81 10000 2.1 140 03:30 22.01.2020
4040 Clouds 11 1036 76 10000 1.5 120 02:50 22.01.2020
4041 Clouds 11 1035 76 10000 3.1 100 01:42 22.01.2020
4042 Clouds 12 1034 54 10000 4.1 40 00:44 22.01.2020
4043 Clouds 12 1034 54 10000 4.1 40 00:25 22.01.2020
4044 Clouds 14 1033 54 10000 1.5 50 23:38 21.01.2020
4045 Clouds 14 1033 54 10000 1.5 50 23:20 21.01.2020
4046 Clouds 14 1033 58 10000 4.1 300 22:55 21.01.2020
4047 Clouds 14 1033 58 10000 4.1 300 22:36 21.01.2020
4048 Clouds 14 1033 58 10000 4.1 300 22:36 21.01.2020
4049 Clouds 14 1033 58 10000 4.1 300 22:18 21.01.2020
4050 Clouds 15 1034 51 10000 3.6 90 21:55 21.01.2020
4051 Clouds 15 1034 51 10000 3.6 90 21:36 21.01.2020
4052 Clouds 15 1034 51 10000 3.6 90 21:18 21.01.2020
4053 Clouds 13 1035 62 10000 3.1 60 20:39 21.01.2020
4054 Clouds 13 1035 62 10000 3.1 60 20:20 21.01.2020
4055 Clouds 12 1036 71 6000 4.6 90 19:58 21.01.2020
4056 Clouds 12 1036 71 6000 4.6 90 19:58 21.01.2020
4057 Clouds 12 1036 71 6000 4.6 90 19:39 21.01.2020
4058 Clouds 12 1036 71 6000 4.6 90 19:21 21.01.2020
4059 Clouds 12 1036 71 6000 5.1 70 18:57 21.01.2020
4060 Clouds 15 1037 54 10000 5.7 110 18:39 21.01.2020
4061 Clouds 15 1037 54 10000 5.7 110 18:20 21.01.2020
4062 Clouds 14 1038 58 10000 5.1 130 17:56 21.01.2020
4063 Clouds 14 1038 58 10000 5.1 130 17:38 21.01.2020
4064 Clouds 14 1038 58 10000 5.1 130 17:18 21.01.2020
4065 Clouds 13 1038 58 10000 2.6 90 16:38 21.01.2020
4066 Clouds 13 1038 58 10000 2.6 90 16:19 21.01.2020
4067 Clouds 13 1038 58 10000 2.6 90 16:19 21.01.2020
4068 Clouds 11 1038 66 10000 1 0 15:59 21.01.2020
4069 Clouds 11 1038 66 10000 1 0 15:38 21.01.2020
4070 Clouds 11 1038 66 10000 1 0 15:19 21.01.2020
4071 Clouds 10 1038 71 10000 1 0 14:39 21.01.2020
4072 Clouds 10 1038 71 10000 1 0 14:39 21.01.2020
4073 Clouds 10 1038 71 10000 1 0 14:21 21.01.2020
4074 Clouds 8 1038 81 10000 1 0 13:43 21.01.2020
4075 Clouds 8 1038 81 10000 1 0 13:20 21.01.2020
4076 Clouds 6 1037 93 10000 1 0 12:58 21.01.2020
4077 Clouds 6 1037 93 10000 1 0 12:39 21.01.2020
4078 Clouds 6 1037 93 10000 1 0 12:21 21.01.2020
4079 Rain 7 1037 93 8000 2.1 310 11:41 21.01.2020
4080 Rain 7 1037 93 8000 2.1 310 11:22 21.01.2020
4081 Rain 7 1036 93 4000 3.1 260 11:00 21.01.2020
4082 Rain 7 1036 93 4000 3.1 260 10:41 21.01.2020
4083 Rain 7 1036 93 4000 3.1 260 10:22 21.01.2020
4084 Rain 8 1036 87 4000 3.6 260 09:43 21.01.2020
4085 Rain 8 1036 87 4000 3.6 260 09:23 21.01.2020
4086 Clouds 8 1037 87 10000 3.6 270 08:56 21.01.2020
4087 Clouds 8 1037 87 10000 3.6 270 08:38 21.01.2020
4088 Clouds 8 1037 87 10000 3.6 270 08:19 21.01.2020
4089 Fog 9 1037 81 4000 1 0 07:41 21.01.2020
4090 Fog 9 1037 81 4000 1 0 07:22 21.01.2020
4091 Clouds 8 1038 87 10000 2.1 270 06:49 21.01.2020
4092 Clouds 8 1038 87 10000 2.1 270 06:30 21.01.2020
4093 Clouds 9 1039 81 10000 1 0 05:43 21.01.2020
4094 Clouds 8 1039 81 10000 1.5 90 04:41 21.01.2020
4095 Clouds 9 1037 76 10000 3.1 80 02:57 21.01.2020
4096 Clouds 10 1036 71 10000 4.1 100 01:56 21.01.2020
4097 Clouds 10 1036 71 10000 4.1 100 01:26 21.01.2020
4098 Clouds 12 1035 62 10000 5.1 120 00:37 21.01.2020
4099 Clouds 15 1035 44 10000 4.6 110 23:59 20.01.2020
4100 Clouds 15 1035 44 10000 4.6 110 23:39 20.01.2020
4101 Clouds 15 1035 44 10000 4.6 110 23:39 20.01.2020
4102 Clouds 15 1035 44 10000 4.6 110 23:19 20.01.2020
4103 Clouds 15 1035 47 10000 4.1 140 22:56 20.01.2020
4104 Clouds 15 1035 47 10000 4.1 140 22:37 20.01.2020
4105 Clouds 15 1035 47 10000 4.1 140 22:19 20.01.2020
4106 Clouds 14 1036 50 10000 2.6 110 21:57 20.01.2020
4107 Clouds 14 1036 50 10000 2.6 110 21:37 20.01.2020
4108 Clouds 14 1036 50 10000 2.6 110 21:19 20.01.2020
4109 Clouds 14 1037 54 10000 4.1 80 20:55 20.01.2020
4110 Clouds 14 1037 54 10000 4.1 80 20:36 20.01.2020
4111 Clouds 14 1037 54 10000 4.1 80 20:18 20.01.2020
4112 Clouds 14 1037 54 10000 4.1 80 20:18 20.01.2020
4113 Clouds 14 1039 50 10000 2.1 150 19:56 20.01.2020
4114 Clouds 14 1039 50 10000 2.1 150 19:37 20.01.2020
4115 Clouds 14 1039 50 10000 2.1 150 19:18 20.01.2020
4116 Rain 10 1040 71 8000 3.1 100 18:42 20.01.2020
4117 Rain 10 1040 71 8000 3.1 100 18:21 20.01.2020
4118 Rain 9 1041 81 8000 4.1 90 17:40 20.01.2020
4119 Rain 9 1041 81 8000 4.1 90 17:19 20.01.2020
4120 Clouds 8 1041 93 6000 2.6 200 16:58 20.01.2020
4121 Clouds 8 1041 93 6000 2.6 200 16:37 20.01.2020
4122 Clouds 8 1041 93 6000 2.6 200 16:18 20.01.2020
4123 Clouds 8 1041 93 6000 2.6 200 16:18 20.01.2020
4124 Clouds 8 1041 81 6000 3.6 230 15:41 20.01.2020
4125 Clouds 8 1041 81 6000 3.6 230 15:22 20.01.2020
4126 Clouds 8 1041 81 6000 4.1 250 15:00 20.01.2020
4127 Clouds 8 1041 81 6000 4.1 250 14:41 20.01.2020
4128 Clouds 8 1041 81 6000 4.1 250 14:21 20.01.2020
4129 Clouds 8 1040 87 6000 2.1 280 13:57 20.01.2020
4130 Clouds 8 1040 87 6000 2.1 280 13:38 20.01.2020
4131 Clouds 8 1040 87 6000 2.1 280 13:20 20.01.2020
4132 Fog 8 1039 87 4000 1 0 12:44 20.01.2020
4133 Fog 8 1039 87 4000 1 0 12:25 20.01.2020
4134 Fog 8 1039 87 4000 1 0 12:25 20.01.2020
4135 Fog 8 1038 87 4000 2.1 120 11:56 20.01.2020
4136 Fog 8 1038 87 4000 2.1 120 11:37 20.01.2020
4137 Fog 8 1038 87 4000 2.1 120 11:19 20.01.2020
4138 Fog 8 1038 87 4000 2.6 120 10:46 20.01.2020
4139 Fog 8 1038 87 4000 2.6 120 10:21 20.01.2020
4140 Fog 8 1038 87 4000 2.1 130 09:42 20.01.2020
4141 Fog 8 1038 87 4000 2.1 130 09:24 20.01.2020
4142 Fog 8 1038 87 4000 2.6 110 08:56 20.01.2020
4143 Fog 8 1038 87 4000 2.6 110 08:35 20.01.2020
4144 Fog 8 1038 87 4000 2.6 90 07:59 20.01.2020
4145 Fog 8 1038 87 4000 2.6 90 07:41 20.01.2020
4146 Fog 8 1038 87 4000 2.6 90 07:21 20.01.2020
4147 Fog 8 1040 87 4000 2.1 100 06:44 20.01.2020
4148 Fog 8 1040 87 4000 2.1 100 06:22 20.01.2020
4149 Clouds 8 1040 87 10000 2.6 80 05:38 20.01.2020
4150 Clouds 8 1040 87 10000 2.6 80 05:19 20.01.2020
4151 Clouds 8 1040 87 10000 2.6 80 04:23 20.01.2020
4152 Clouds 10 1038 71 10000 2.6 30 01:59 20.01.2020
4153 Clouds 10 1038 71 10000 2.6 30 01:40 20.01.2020
4154 Clouds 10 1038 71 10000 2.6 30 01:18 20.01.2020
4155 Clouds 12 1037 62 10000 3.1 70 00:42 20.01.2020
4156 Clouds 12 1037 62 10000 3.1 70 00:20 20.01.2020
4157 Clouds 13 1036 58 10000 3.1 90 23:38 19.01.2020
4158 Clouds 13 1036 58 10000 3.1 90 23:19 19.01.2020
4159 Clouds 13 1036 58 10000 2.1 310 22:56 19.01.2020
4160 Clouds 13 1036 58 10000 2.1 310 22:37 19.01.2020
4161 Clouds 13 1036 58 10000 2.1 310 22:19 19.01.2020
4162 Clouds 13 1037 54 10000 3.6 300 21:56 19.01.2020
4163 Clouds 13 1037 54 10000 3.6 300 21:38 19.01.2020
4164 Clouds 13 1037 54 10000 3.6 300 21:19 19.01.2020
4165 Clouds 13 1038 54 10000 5.1 270 20:56 19.01.2020
4166 Clouds 13 1038 54 10000 5.1 270 20:38 19.01.2020
4167 Clouds 13 1038 54 10000 5.1 270 20:38 19.01.2020
4168 Clouds 13 1038 54 10000 5.1 270 20:19 19.01.2020
4169 Clouds 15 1039 47 10000 4.1 110 19:55 19.01.2020
4170 Clouds 15 1039 47 10000 4.1 110 19:37 19.01.2020
4171 Clouds 15 1039 47 10000 4.1 110 19:19 19.01.2020
4172 Clouds 16 1040 44 10000 4.1 90 18:55 19.01.2020
4173 Clouds 16 1040 44 10000 4.1 90 18:37 19.01.2020
4174 Clouds 16 1040 44 10000 4.1 90 18:19 19.01.2020
4175 Clouds 16 1040 44 10000 4.1 90 18:19 19.01.2020
4176 Clouds 15 1040 51 10000 5.1 100 17:57 19.01.2020
4177 Clouds 15 1040 51 10000 5.1 100 17:38 19.01.2020
4178 Clouds 15 1040 51 10000 5.1 100 17:19 19.01.2020
4179 Clouds 14 1041 54 10000 6.2 100 16:57 19.01.2020
4180 Clouds 14 1041 54 10000 6.2 100 16:37 19.01.2020
4181 Clouds 14 1041 54 10000 6.2 100 16:19 19.01.2020
4182 Clouds 12 1041 62 10000 4.1 90 15:55 19.01.2020
4183 Clouds 12 1041 62 10000 4.1 90 15:37 19.01.2020
4184 Clouds 12 1041 62 10000 4.1 90 15:18 19.01.2020
4185 Clouds 10 1041 71 10000 3.1 140 14:41 19.01.2020
4186 Clouds 10 1041 71 10000 3.1 140 14:21 19.01.2020
4187 Clouds 8 1040 75 10000 1 0 13:59 19.01.2020
4188 Clouds 8 1040 75 10000 1 0 13:40 19.01.2020
4189 Clouds 8 1040 75 10000 1 0 13:22 19.01.2020
4190 Clouds 8 1040 75 10000 1 0 13:22 19.01.2020
4191 Fog 6 1040 93 4000 1 0 12:59 19.01.2020
4192 Fog 6 1040 93 4000 1 0 12:41 19.01.2020
4193 Fog 6 1040 93 4000 1 0 12:21 19.01.2020
4194 Fog 6 1039 87 4000 2.6 120 11:57 19.01.2020
4195 Fog 6 1039 87 4000 2.6 120 11:38 19.01.2020
4196 Fog 6 1039 87 4000 2.6 120 11:18 19.01.2020
4197 Fog 6 1039 87 3000 3.1 110 10:41 19.01.2020
4198 Fog 6 1039 87 3000 3.1 110 10:21 19.01.2020
4199 Fog 5 1039 93 3000 2.6 90 09:57 19.01.2020
4200 Fog 5 1039 93 3000 2.6 90 09:38 19.01.2020
4201 Fog 5 1039 93 3000 2.6 90 09:20 19.01.2020
4202 Fog 5 1039 93 3000 2.6 100 08:55 19.01.2020
4203 Fog 5 1039 93 3000 2.6 100 08:33 19.01.2020
4204 Fog 4 1039 93 3000 1 0 07:55 19.01.2020
4205 Fog 4 1039 93 3000 1 0 07:29 19.01.2020
4206 Fog 5 1039 93 3000 2.1 70 06:55 19.01.2020
4207 Fog 5 1039 93 3000 2.1 70 06:22 19.01.2020
4208 Clouds 7 1039 81 10000 4.1 70 03:58 19.01.2020
4209 Clouds 9 1038 70 10000 4.6 100 02:34 19.01.2020
4210 Clouds 10 1038 66 10000 3.6 100 01:42 19.01.2020
4211 Clouds 10 1038 66 10000 3.6 100 01:20 19.01.2020
4212 Clouds 12 1037 50 10000 2.6 70 00:44 19.01.2020
4213 Clouds 14 1037 47 10000 4.1 70 00:20 19.01.2020
4214 Clouds 14 1037 47 10000 4.1 70 23:47 18.01.2020
4215 Clouds 14 1037 47 10000 4.1 70 23:25 18.01.2020
4216 Clouds 14 1037 47 10000 4.6 80 22:58 18.01.2020
4217 Clouds 14 1037 47 10000 4.6 80 22:40 18.01.2020
4218 Clouds 14 1037 47 10000 4.6 80 22:21 18.01.2020
4219 Clouds 15 1038 44 10000 4.6 90 21:58 18.01.2020
4220 Clouds 15 1038 44 10000 4.6 90 21:38 18.01.2020
4221 Clouds 15 1038 44 10000 4.6 90 21:20 18.01.2020
4222 Clouds 15 1038 44 10000 4.6 90 21:20 18.01.2020
4223 Clouds 16 1039 41 10000 5.1 80 20:55 18.01.2020
4224 Clouds 16 1039 41 10000 5.1 80 20:36 18.01.2020
4225 Clouds 16 1039 41 10000 5.1 80 20:18 18.01.2020
4226 Clouds 15 1040 44 10000 4.1 70 19:42 18.01.2020
4227 Clouds 15 1040 44 10000 4.1 70 19:24 18.01.2020
4228 Clouds 14 1040 50 10000 6.2 70 18:43 18.01.2020
4229 Clouds 14 1040 50 10000 6.2 70 18:24 18.01.2020
4230 Clouds 13 1041 54 10000 5.7 90 17:57 18.01.2020
4231 Clouds 13 1041 54 10000 5.7 90 17:39 18.01.2020
4232 Clouds 13 1041 54 10000 5.7 90 17:19 18.01.2020
4233 Clouds 13 1041 54 10000 4.1 100 16:55 18.01.2020
4234 Clouds 13 1041 54 10000 4.1 100 16:36 18.01.2020
4235 Clouds 13 1041 54 10000 4.1 100 16:18 18.01.2020
4236 Clouds 12 1042 58 10000 3.6 110 16:18 18.01.2020
4237 Clouds 12 1042 58 10000 3.6 110 15:41 18.01.2020
4238 Clouds 12 1042 58 10000 3.6 110 15:23 18.01.2020
4239 Clouds 10 1042 66 10000 2.1 90 14:57 18.01.2020
4240 Clouds 10 1042 66 10000 2.1 90 14:39 18.01.2020
4241 Clouds 10 1042 66 10000 2.1 90 14:18 18.01.2020
4242 Clouds 6 1041 81 6000 1 0 13:43 18.01.2020
4243 Clouds 6 1041 81 6000 1 0 13:24 18.01.2020
4244 Fog 5 1041 93 4000 2.6 110 12:57 18.01.2020
4245 Fog 5 1041 93 4000 2.6 110 12:38 18.01.2020
4246 Fog 5 1041 93 4000 2.6 110 12:19 18.01.2020
4247 Fog 4 1040 93 4000 1 0 11:44 18.01.2020
4248 Fog 4 1040 93 4000 1 0 11:21 18.01.2020
4249 Fog 4 1040 93 4000 1 0 10:56 18.01.2020
4250 Fog 4 1040 93 4000 1 0 10:38 18.01.2020
4251 Fog 4 1040 93 4000 1 0 10:18 18.01.2020
4252 Fog 4 1040 93 4000 1 0 10:18 18.01.2020
4253 Fog 4 1040 93 4000 1 0 09:42 18.01.2020
4254 Fog 4 1040 93 4000 1 0 09:24 18.01.2020
4255 Fog 4 1040 93 4000 1 0 08:55 18.01.2020
4256 Clouds 4 1021 90 0 2.35 42 08:37 18.01.2020
4257 Clouds 4 1041 93 10000 2.98 32 08:18 18.01.2020
4258 Clouds 4 1041 93 10000 2.98 32 07:40 18.01.2020
4259 Clouds 4 1041 93 10000 2.98 32 07:20 18.01.2020
4260 Clouds 5 1041 93 10000 1 0 06:45 18.01.2020
4261 Clouds 7 1041 65 10000 3.1 80 05:53 18.01.2020
4262 Clouds 8 1042 61 10000 5.7 50 04:28 18.01.2020
4263 Clouds 8 1040 65 10000 7.7 50 02:49 18.01.2020
4264 Clouds 9 1040 61 10000 6.7 50 01:47 18.01.2020
4265 Clouds 10 1039 57 10000 6.2 50 00:39 18.01.2020
4266 Clouds 10 1039 57 10000 6.2 50 00:20 18.01.2020
4267 Clouds 13 1038 50 10000 5.7 90 23:58 17.01.2020
4268 Clouds 13 1038 50 10000 5.7 90 23:39 17.01.2020
4269 Clouds 13 1038 50 10000 5.7 90 23:18 17.01.2020
4270 Clouds 14 1038 47 10000 6.7 120 22:42 17.01.2020
4271 Clouds 14 1038 47 10000 6.7 120 22:20 17.01.2020
4272 Clouds 15 1039 41 10000 6.2 120 21:56 17.01.2020
4273 Clouds 15 1039 41 10000 6.2 120 21:38 17.01.2020
4274 Clouds 15 1039 41 10000 6.2 120 21:19 17.01.2020
4275 Clouds 14 1040 44 10000 6.2 90 20:43 17.01.2020
4276 Clouds 14 1040 44 10000 6.2 90 20:21 17.01.2020
4277 Clouds 14 1041 50 10000 6.2 110 19:58 17.01.2020
4278 Clouds 14 1041 50 10000 6.2 110 19:39 17.01.2020
4279 Clouds 14 1041 50 10000 6.2 110 19:20 17.01.2020
4280 Clouds 14 1041 54 10000 4.6 120 18:58 17.01.2020
4281 Clouds 14 1041 54 10000 4.6 120 18:39 17.01.2020
4282 Clouds 14 1041 54 10000 4.6 120 18:21 17.01.2020
4283 Clouds 14 1042 54 10000 5.1 80 17:40 17.01.2020
4284 Clouds 14 1042 54 10000 5.1 80 17:22 17.01.2020
4285 Clouds 12 1042 58 8000 4.1 90 16:57 17.01.2020
4286 Clouds 12 1042 58 8000 4.1 90 16:38 17.01.2020
4287 Clouds 12 1042 58 8000 4.1 90 16:19 17.01.2020
4288 Clouds 11 1042 62 8000 2.6 90 15:45 17.01.2020
4289 Clouds 11 1042 62 8000 2.6 90 15:26 17.01.2020
4290 Clouds 8 1042 75 6000 2.1 140 14:45 17.01.2020
4291 Clouds 8 1042 75 6000 2.1 140 14:27 17.01.2020
4292 Clouds 6 1042 81 6000 1.5 20 13:58 17.01.2020
4293 Clouds 6 1042 81 6000 1.5 20 13:37 17.01.2020
4294 Clouds 6 1042 81 6000 1.5 20 13:19 17.01.2020
4295 Fog 5 1041 93 4000 4.1 90 12:42 17.01.2020
4296 Fog 5 1041 93 4000 4.1 90 12:42 17.01.2020
4297 Fog 5 1041 93 4000 4.1 90 12:21 17.01.2020
4298 Fog 5 1040 93 4000 2.1 90 11:38 17.01.2020
4299 Fog 5 1040 93 4000 2.1 90 11:18 17.01.2020
4300 Fog 6 1040 87 4000 5.7 110 10:43 17.01.2020
4301 Fog 6 1040 87 4000 5.7 110 10:23 17.01.2020
4302 Fog 6 1040 93 4000 4.1 110 09:58 17.01.2020
4303 Fog 6 1040 93 4000 4.1 110 09:38 17.01.2020
4304 Fog 6 1040 93 4000 4.1 110 09:19 17.01.2020
4305 Fog 6 1040 93 4000 4.1 110 08:43 17.01.2020
4306 Fog 6 1040 93 4000 4.1 110 08:24 17.01.2020
4307 Fog 6 1040 87 4000 3.1 70 07:53 17.01.2020
4308 Fog 6 1040 87 4000 3.1 70 07:31 17.01.2020
4309 Clouds 7 1041 75 10000 1 0 06:57 17.01.2020
4310 Clouds 7 1041 75 10000 1 0 06:38 17.01.2020
4311 Clouds 8 1041 61 10000 5.7 60 05:28 17.01.2020
4312 Rain 6 1021 86 0 4.72 48 03:39 17.01.2020
4313 Rain 6 1021 86 0 4.72 48 02:45 17.01.2020
4314 Rain 5 1017 83 0 5.46 44 01:46 17.01.2020
4315 Clouds 5 1017 83 0 5.28 43 01:27 17.01.2020
4316 Clouds 5 1017 83 0 5.28 43 00:44 17.01.2020
4317 Clouds 13 1037 47 10000 5.7 80 00:20 17.01.2020
4318 Clouds 13 1037 47 10000 5.7 80 23:42 16.01.2020
4319 Clouds 13 1037 47 10000 5.7 80 23:24 16.01.2020
4320 Clouds 14 1037 44 10000 6.7 90 22:43 16.01.2020
4321 Clouds 14 1037 44 10000 6.7 90 22:22 16.01.2020
4322 Clouds 15 1037 44 10000 8.2 60 21:57 16.01.2020
4323 Clouds 15 1037 44 10000 8.2 60 21:39 16.01.2020
4324 Clouds 15 1037 44 10000 8.2 60 21:19 16.01.2020
4325 Clouds 16 1039 38 10000 5.1 60 20:59 16.01.2020
4326 Clouds 16 1039 38 10000 5.1 60 20:40 16.01.2020
4327 Clouds 16 1039 38 10000 5.1 60 20:20 16.01.2020
4328 Clouds 15 1039 47 10000 6.7 60 19:57 16.01.2020
4329 Clouds 15 1039 47 10000 6.7 60 19:39 16.01.2020
4330 Clouds 15 1039 47 10000 6.7 60 19:20 16.01.2020
4331 Clouds 14 1039 50 10000 5.7 90 18:56 16.01.2020
4332 Clouds 14 1039 50 10000 5.7 90 18:37 16.01.2020
4333 Clouds 14 1039 50 10000 5.7 90 18:18 16.01.2020
4334 Clouds 15 1040 51 10000 6.7 100 17:44 16.01.2020
4335 Clouds 15 1040 51 10000 6.7 100 17:23 16.01.2020
4336 Clouds 13 1041 62 10000 5.1 100 16:57 16.01.2020
4337 Clouds 13 1041 62 10000 5.1 100 16:39 16.01.2020
4338 Clouds 13 1041 62 10000 5.1 100 16:21 16.01.2020
4339 Clouds 11 1041 76 10000 4.1 120 15:44 16.01.2020
4340 Clouds 11 1041 76 10000 4.1 120 15:44 16.01.2020
4341 Clouds 11 1041 76 10000 4.1 120 15:24 16.01.2020
4342 Clouds 11 1041 76 10000 4.1 120 15:24 16.01.2020
4343 Clouds 10 1041 76 6000 3.6 100 14:59 16.01.2020
4344 Clouds 10 1041 76 6000 3.6 100 14:41 16.01.2020
4345 Clouds 10 1041 76 6000 3.6 100 14:22 16.01.2020
4346 Fog 8 1040 87 4000 3.6 100 13:45 16.01.2020
4347 Fog 8 1040 87 4000 3.6 100 13:26 16.01.2020
4348 Mist 7 1039 93 3000 3.6 90 12:48 16.01.2020
4349 Mist 7 1039 93 3000 3.6 90 12:29 16.01.2020
4350 Fog 6 1038 100 4000 3.1 90 11:59 16.01.2020
4351 Fog 6 1038 100 500 3.6 100 11:41 16.01.2020
4352 Fog 6 1038 100 500 3.6 100 11:41 16.01.2020
4353 Fog 6 1038 100 500 3.6 100 11:23 16.01.2020
4354 Fog 6 1037 100 4000 2.6 110 10:55 16.01.2020
4355 Fog 6 1037 100 4000 2.6 110 10:36 16.01.2020
4356 Fog 6 1037 100 4000 2.6 110 10:18 16.01.2020
4357 Fog 6 1038 100 4000 2.6 90 09:42 16.01.2020
4358 Fog 6 1038 100 4000 2.6 90 09:24 16.01.2020
4359 Fog 6 1038 93 4000 2.1 60 08:56 16.01.2020
4360 Fog 6 1038 93 4000 2.1 60 08:36 16.01.2020
4361 Fog 6 1038 93 4000 2.1 60 08:18 16.01.2020
4362 Fog 7 1038 93 4000 1 0 07:42 16.01.2020
4363 Fog 7 1038 93 4000 1 0 07:23 16.01.2020
4364 Fog 7 1038 93 3000 1 0 06:48 16.01.2020
4365 Fog 7 1038 93 3000 1 0 06:28 16.01.2020
4366 Fog 7 1038 93 3000 1 0 06:28 16.01.2020
4367 Fog 7 1039 93 3000 2.6 100 05:46 16.01.2020
4368 Fog 8 1038 93 4000 1 0 04:46 16.01.2020
4369 Fog 8 1038 93 4000 1 0 04:46 16.01.2020
4370 Clouds 8 1038 87 10000 2.1 60 03:29 16.01.2020
4371 Clouds 8 1037 81 10000 2.1 50 02:44 16.01.2020
4372 Clouds 10 1036 66 10000 1 0 01:24 16.01.2020
4373 Clouds 11 1035 66 10000 3.1 260 00:25 16.01.2020
4374 Clouds 12 1035 62 10000 4.1 300 23:56 15.01.2020
4375 Clouds 12 1035 62 10000 4.1 300 23:38 15.01.2020
4376 Clouds 12 1035 62 10000 4.1 300 23:18 15.01.2020
4377 Clouds 11 1035 76 10000 5.1 300 22:42 15.01.2020
4378 Clouds 11 1035 76 10000 5.1 300 22:20 15.01.2020
4379 Clouds 13 1035 62 10000 4.1 320 21:59 15.01.2020
4380 Clouds 13 1035 62 10000 4.1 320 21:41 15.01.2020
4381 Clouds 13 1035 62 10000 4.1 320 21:23 15.01.2020
4382 Clouds 14 1035 54 10000 1.5 50 20:59 15.01.2020
4383 Clouds 14 1035 54 10000 1.5 50 20:41 15.01.2020
4384 Clouds 14 1035 54 10000 1.5 50 20:23 15.01.2020
4385 Rain 13 1036 66 8000 2.1 280 19:57 15.01.2020
4386 Rain 13 1036 66 8000 2.1 280 19:39 15.01.2020
4387 Rain 13 1036 66 8000 2.1 280 19:20 15.01.2020
4388 Rain 10 1037 71 8000 2.1 120 18:57 15.01.2020
4389 Rain 10 1037 71 8000 2.1 120 18:57 15.01.2020
4390 Clouds 11 1037 66 4000 4.1 30 18:38 15.01.2020
4391 Clouds 11 1037 66 4000 4.1 30 18:20 15.01.2020
4392 Clouds 13 1037 66 10000 5.1 110 17:58 15.01.2020
4393 Clouds 13 1037 66 10000 5.1 110 17:40 15.01.2020
4394 Clouds 13 1037 66 10000 5.1 110 17:21 15.01.2020
4395 Clouds 12 1038 66 10000 3.1 110 16:55 15.01.2020
4396 Clouds 12 1038 66 10000 3.1 110 16:55 15.01.2020
4397 Clouds 12 1038 66 10000 3.1 110 16:36 15.01.2020
4398 Clouds 12 1038 66 10000 3.1 110 16:18 15.01.2020
4399 Clouds 11 1038 76 8000 3.6 130 15:42 15.01.2020
4400 Clouds 11 1038 76 8000 3.6 130 15:20 15.01.2020
4401 Clouds 10 1038 76 6000 4.1 100 14:45 15.01.2020
4402 Clouds 10 1038 76 6000 4.1 100 14:23 15.01.2020
4403 Clouds 8 1038 87 6000 2.6 130 13:58 15.01.2020
4404 Clouds 8 1038 87 6000 2.6 130 13:40 15.01.2020
4405 Clouds 8 1038 87 6000 2.6 130 13:40 15.01.2020
4406 Clouds 8 1038 87 6000 2.6 130 13:22 15.01.2020
4407 Fog 7 1037 87 4000 2.1 130 12:55 15.01.2020
4408 Fog 7 1037 87 4000 2.1 130 12:36 15.01.2020
4409 Fog 7 1037 87 4000 2.1 130 12:18 15.01.2020
4410 Fog 7 1036 87 4000 1 0 11:38 15.01.2020
4411 Fog 7 1036 87 4000 1 0 11:20 15.01.2020
4412 Fog 7 1036 87 4000 1 0 10:47 15.01.2020
4413 Fog 7 1036 87 4000 1 0 10:28 15.01.2020
4414 Fog 6 1035 93 4000 1 0 09:57 15.01.2020
4415 Fog 6 1035 93 4000 1 0 09:57 15.01.2020
4416 Fog 6 1035 93 4000 1 0 09:38 15.01.2020
4417 Fog 6 1035 93 4000 1 0 09:19 15.01.2020
4418 Fog 5 1036 100 4000 2.1 80 08:44 15.01.2020
4419 Fog 5 1036 100 4000 2.1 80 08:24 15.01.2020
4420 Fog 6 1036 93 4000 2.6 70 07:54 15.01.2020
4421 Fog 6 1036 93 4000 2.6 70 07:33 15.01.2020
4422 Fog 6 1036 93 4000 1 0 06:49 15.01.2020
4423 Fog 6 1036 93 4000 1 0 06:26 15.01.2020
4424 Fog 7 1037 93 4000 1 0 04:46 15.01.2020
4425 Clouds 7 1035 87 10000 2.6 70 02:40 15.01.2020
4426 Clouds 8 1035 81 10000 4.1 90 01:43 15.01.2020
4427 Clouds 8 1035 81 10000 4.1 90 01:20 15.01.2020
4428 Clouds 11 1034 76 10000 4.1 110 00:36 15.01.2020
4429 Clouds 11 1034 76 10000 4.1 110 00:18 15.01.2020
4430 Clouds 12 1033 71 10000 3.6 110 23:45 14.01.2020
4431 Clouds 12 1033 71 10000 3.6 110 23:24 14.01.2020
4432 Clouds 14 1033 58 10000 3.6 80 22:41 14.01.2020
4433 Clouds 14 1033 58 10000 3.6 80 22:20 14.01.2020
4434 Rain 13 1034 62 8000 1 0 21:59 14.01.2020
4435 Rain 13 1034 62 8000 1 0 21:41 14.01.2020
4436 Rain 13 1034 62 8000 1 0 21:23 14.01.2020
4437 Clouds 11 1035 71 10000 2.6 270 21:00 14.01.2020
4438 Thunderstorm 8 1036 87 8000 4.1 270 20:41 14.01.2020
4439 Thunderstorm 8 1036 87 8000 4.1 270 20:21 14.01.2020
4440 Thunderstorm 8 1036 87 8000 4.1 270 19:56 14.01.2020
4441 Thunderstorm 8 1036 87 4000 6.2 340 19:38 14.01.2020
4442 Thunderstorm 8 1036 87 4000 6.2 340 19:19 14.01.2020
4443 Thunderstorm 12 1037 81 10000 5.1 130 18:56 14.01.2020
4444 Rain 10 1011 75 0 3.62 50 18:37 14.01.2020
4445 Rain 13 1037 62 8000 4.6 90 18:19 14.01.2020
4446 Rain 13 1037 62 8000 4.6 90 17:39 14.01.2020
4447 Rain 13 1037 62 8000 4.6 90 17:19 14.01.2020
4448 Clouds 12 1038 66 8000 4.1 120 16:55 14.01.2020
4449 Clouds 12 1038 66 8000 4.1 120 16:37 14.01.2020
4450 Clouds 12 1038 66 8000 4.1 120 16:19 14.01.2020
4451 Clouds 12 1038 66 8000 4.6 110 15:43 14.01.2020
4452 Clouds 12 1038 66 8000 4.6 110 15:19 14.01.2020
4453 Clouds 10 1038 71 6000 2.6 100 14:57 14.01.2020
4454 Clouds 10 1038 71 6000 2.6 100 14:39 14.01.2020
4455 Clouds 10 1038 71 6000 2.6 100 14:18 14.01.2020
4456 Clouds 9 1038 81 6000 2.1 120 13:42 14.01.2020
4457 Clouds 9 1038 81 6000 2.1 120 13:19 14.01.2020
4458 Fog 6 1037 93 4000 2.1 130 12:43 14.01.2020
4459 Fog 6 1037 93 4000 2.1 130 12:24 14.01.2020
4460 Fog 6 1036 93 4000 1.5 30 11:58 14.01.2020
4461 Fog 6 1036 93 4000 1.5 30 11:40 14.01.2020
4462 Fog 6 1036 93 4000 1.5 30 11:22 14.01.2020
4463 Fog 7 1036 87 4000 1 0 10:56 14.01.2020
4464 Fog 7 1036 87 4000 1 0 10:37 14.01.2020
4465 Fog 7 1036 87 4000 1 0 10:19 14.01.2020
4466 Fog 7 1036 93 4000 1 0 09:43 14.01.2020
4467 Fog 7 1036 93 4000 1 0 09:24 14.01.2020
4468 Fog 6 1036 93 4000 1 0 08:58 14.01.2020
4469 Fog 6 1036 93 4000 1 0 08:39 14.01.2020
4470 Fog 6 1036 93 4000 1 0 08:20 14.01.2020
4471 Fog 7 1036 93 4000 2.6 80 07:46 14.01.2020
4472 Fog 7 1036 93 4000 2.6 80 07:18 14.01.2020
4473 Fog 7 1036 93 4000 2.6 80 07:18 14.01.2020
4474 Fog 7 1037 93 4000 1.5 80 06:42 14.01.2020
4475 Clouds 7 1038 93 10000 1.5 120 05:57 14.01.2020
4476 Fog 8 1038 87 4000 3.1 60 04:49 14.01.2020
4477 Clouds 8 1037 87 10000 3.1 80 03:45 14.01.2020
4478 Clouds 9 1037 87 10000 3.6 100 02:32 14.01.2020
4479 Clouds 9 1036 87 10000 3.1 130 01:19 14.01.2020
4480 Clouds 11 1035 71 10000 3.1 130 00:47 14.01.2020
4481 Clouds 11 1035 71 10000 3.1 130 00:21 14.01.2020
4482 Clouds 11 1035 71 10000 1 0 23:42 13.01.2020
4483 Clouds 11 1035 71 10000 1 0 23:18 13.01.2020
4484 Clouds 11 1035 71 10000 1 0 23:18 13.01.2020
4485 Clouds 12 1034 66 10000 2.6 100 22:55 13.01.2020
4486 Clouds 12 1034 66 10000 2.6 100 22:37 13.01.2020
4487 Clouds 12 1034 66 10000 2.6 100 22:19 13.01.2020
4488 Clouds 12 1035 71 10000 2.1 200 21:54 13.01.2020
4489 Clouds 12 1035 71 10000 2.1 200 21:54 13.01.2020
4490 Clouds 12 1035 71 10000 2.1 200 21:54 13.01.2020
4491 Clouds 12 1035 71 10000 2.1 200 21:36 13.01.2020
4492 Clouds 12 1035 71 10000 2.1 200 21:18 13.01.2020
4493 Clouds 11 1036 71 10000 2.1 110 20:42 13.01.2020
4494 Clouds 11 1036 71 10000 2.1 110 20:22 13.01.2020
4495 Rain 10 1037 81 6000 3.6 60 19:59 13.01.2020
4496 Rain 10 1037 81 6000 3.6 60 19:40 13.01.2020
4497 Rain 10 1037 81 6000 3.6 60 19:20 13.01.2020
4498 Clouds 10 1038 76 10000 2.1 170 18:58 13.01.2020
4499 Clouds 10 1038 76 10000 2.1 170 18:37 13.01.2020
4500 Clouds 10 1038 76 10000 2.1 170 18:19 13.01.2020
4501 Rain 9 1039 81 8000 1 0 17:55 13.01.2020
4502 Rain 9 1039 81 8000 1 0 17:36 13.01.2020
4503 Rain 9 1039 81 8000 1 0 17:18 13.01.2020
4504 Rain 4 1019 91 0 0.77 123 16:40 13.01.2020
4505 Rain 4 1019 91 0 0.77 123 16:40 13.01.2020
4506 Rain 4 1019 91 0 0.77 123 16:21 13.01.2020
4507 Rain 4 1019 91 0 0.77 123 16:21 13.01.2020
4508 Rain 4 1019 91 0 0.77 123 15:55 13.01.2020
4509 Rain 4 1019 91 0 0.77 123 15:36 13.01.2020
4510 Rain 4 1019 91 0 0.77 123 15:18 13.01.2020
4511 Rain 4 1019 91 0 0.77 123 14:40 13.01.2020
4512 Rain 4 1019 91 0 0.77 123 14:22 13.01.2020
4513 Rain 5 1018 93 0 1.87 47 13:56 13.01.2020
4514 Rain 5 1018 93 0 1.87 47 13:56 13.01.2020
4515 Rain 5 1018 93 0 1.87 47 13:37 13.01.2020
4516 Rain 6 1018 88 0 1.81 86 13:19 13.01.2020
4517 Rain 6 1018 88 0 1.81 86 12:43 13.01.2020
4518 Rain 6 1038 93 4000 2.6 250 12:23 13.01.2020
4519 Rain 6 1038 93 4000 2.6 250 12:23 13.01.2020
4520 Rain 6 1038 93 4000 2.6 250 11:59 13.01.2020
4521 Rain 6 1038 93 4000 2.6 250 11:38 13.01.2020
4522 Rain 6 1038 93 4000 2.6 250 11:38 13.01.2020
4523 Rain 6 1038 93 4000 2.6 250 11:19 13.01.2020
4524 Rain 7 1037 87 4000 2.6 290 10:56 13.01.2020
4525 Rain 7 1037 87 4000 2.6 290 10:38 13.01.2020
4526 Rain 7 1037 87 4000 2.6 290 10:19 13.01.2020
4527 Rain 8 1037 87 4000 1 0 09:44 13.01.2020
4528 Rain 8 1037 87 4000 1 0 09:24 13.01.2020
4529 Fog 8 1037 87 4000 1 0 08:57 13.01.2020
4530 Fog 8 1037 87 4000 1 0 08:37 13.01.2020
4531 Fog 8 1037 87 4000 1 0 08:18 13.01.2020
4532 Fog 8 1038 87 4000 1 0 07:43 13.01.2020
4533 Fog 8 1038 87 4000 1 0 07:24 13.01.2020
4534 Fog 8 1038 93 4000 1 0 06:37 13.01.2020
4535 Rain 9 1039 87 4000 1 0 05:37 13.01.2020
4536 Rain 9 1039 87 4000 1 0 05:37 13.01.2020
4537 Clouds 8 1039 81 10000 2.1 70 04:56 13.01.2020
4538 Fog 9 1039 87 4000 2.1 100 03:38 13.01.2020
4539 Clouds 9 1038 76 10000 2.1 150 02:49 13.01.2020
4540 Clouds 9 1038 76 10000 2.1 150 02:30 13.01.2020
4541 Clouds 9 1038 76 10000 2.1 150 02:30 13.01.2020
4542 Clouds 8 1037 75 10000 2.6 80 01:33 13.01.2020
4543 Clouds 11 1036 62 10000 3.1 90 00:44 13.01.2020
4544 Clouds 11 1036 62 10000 3.1 90 00:25 13.01.2020
4545 Clouds 13 1036 54 10000 4.1 90 23:57 12.01.2020
4546 Clouds 13 1036 54 10000 4.1 90 23:38 12.01.2020
4547 Clouds 13 1036 54 10000 4.1 90 23:20 12.01.2020
4548 Clouds 13 1036 54 10000 3.1 60 22:43 12.01.2020
4549 Clouds 13 1036 54 10000 3.1 60 22:24 12.01.2020
4550 Clouds 12 1037 54 10000 3.1 310 21:59 12.01.2020
4551 Clouds 12 1037 54 10000 3.1 310 21:59 12.01.2020
4552 Clouds 12 1037 54 10000 3.1 310 21:40 12.01.2020
4553 Clouds 12 1037 54 10000 3.1 310 21:20 12.01.2020
4554 Clouds 13 1038 47 10000 2.1 270 20:57 12.01.2020
4555 Clouds 13 1038 47 10000 2.1 270 20:39 12.01.2020
4556 Clouds 13 1038 47 10000 2.1 270 20:20 12.01.2020
4557 Clouds 12 1039 50 10000 6.2 140 19:56 12.01.2020
4558 Clouds 12 1039 50 10000 6.2 140 19:38 12.01.2020
4559 Clouds 12 1039 50 10000 6.2 140 19:19 12.01.2020
4560 Thunderstorm 12 1039 58 10000 4.6 340 18:57 12.01.2020
4561 Thunderstorm 12 1039 58 10000 4.6 340 18:39 12.01.2020
4562 Thunderstorm 12 1039 58 10000 4.6 340 18:21 12.01.2020
4563 Clouds 15 1040 47 10000 1 0 17:56 12.01.2020
4564 Clouds 15 1040 47 10000 1 0 17:37 12.01.2020
4565 Clouds 15 1040 47 10000 1 0 17:18 12.01.2020
4566 Clouds 13 1040 54 10000 1 0 16:54 12.01.2020
4567 Clouds 13 1040 54 10000 1 0 16:36 12.01.2020
4568 Clouds 13 1040 54 10000 1 0 16:18 12.01.2020
4569 Clouds 12 1041 62 10000 1 0 15:42 12.01.2020
4570 Clouds 12 1041 62 10000 1 0 15:23 12.01.2020
4571 Clouds 11 1040 66 10000 3.1 240 14:55 12.01.2020
4572 Clouds 11 1040 66 10000 3.1 240 14:36 12.01.2020
4573 Clouds 11 1040 66 10000 3.1 240 14:18 12.01.2020
4574 Clouds 10 1040 61 10000 1 0 13:42 12.01.2020
4575 Clouds 10 1040 61 10000 1 0 13:23 12.01.2020
4576 Clouds 6 1039 93 10000 1 0 12:58 12.01.2020
4577 Clouds 6 1039 93 10000 1 0 12:38 12.01.2020
4578 Clouds 6 1039 93 10000 1 0 12:19 12.01.2020
4579 Clouds 4 1038 93 10000 1 0 11:43 12.01.2020
4580 Clouds 4 1038 93 10000 1 0 11:23 12.01.2020
4581 Clouds 6 1038 87 10000 1 0 10:59 12.01.2020
4582 Clouds 6 1038 87 10000 1 0 10:40 12.01.2020
4583 Clouds 6 1038 87 10000 1 0 10:21 12.01.2020
4584 Clouds 5 1038 93 10000 1 0 09:44 12.01.2020
4585 Clouds 5 1038 93 10000 1 0 09:24 12.01.2020
4586 Clouds 5 1038 93 10000 1 0 08:57 12.01.2020
4587 Clouds 5 1038 93 10000 1 0 08:38 12.01.2020
4588 Clouds 5 1038 93 10000 1 0 08:19 12.01.2020
4589 Clouds 5 1039 93 10000 1 0 07:38 12.01.2020
4590 Clouds 5 1039 93 10000 1 0 07:19 12.01.2020
4591 Rain 6 1018 88 0 1.36 89 06:41 12.01.2020
4592 Clouds 6 1040 87 10000 1 0 06:18 12.01.2020
4593 Clouds 6 1040 87 10000 1 0 05:20 12.01.2020
4594 Fog 6 1040 93 4000 2.1 160 03:44 12.01.2020
4595 Fog 6 1038 93 4000 3.1 100 02:55 12.01.2020
4596 Fog 6 1038 93 4000 3.1 100 02:30 12.01.2020
4597 Fog 6 1038 93 4000 4.6 80 01:39 12.01.2020
4598 Fog 7 1038 93 4000 4.6 70 00:57 12.01.2020
4599 Fog 7 1038 93 4000 4.6 70 00:37 12.01.2020
4600 Fog 7 1038 93 4000 4.6 70 00:18 12.01.2020
4601 Rain 8 1038 70 8000 4.6 340 23:41 11.01.2020
4602 Rain 8 1038 70 8000 4.6 340 23:19 11.01.2020
4603 Rain 8 1037 70 8000 5.1 330 22:56 11.01.2020
4604 Rain 8 1037 70 8000 5.1 330 22:38 11.01.2020
4605 Rain 8 1037 70 8000 5.1 330 22:20 11.01.2020
4606 Thunderstorm 7 1037 75 10000 6.7 320 21:44 11.01.2020
4607 Thunderstorm 7 1037 75 10000 6.7 320 21:20 11.01.2020
4608 Thunderstorm 8 1037 75 5000 7.2 320 20:59 11.01.2020
4609 Clouds 9 1037 70 5000 7.2 310 20:39 11.01.2020
4610 Clouds 9 1037 70 5000 7.2 310 20:19 11.01.2020
4611 Clouds 9 1037 76 6000 7.7 310 19:57 11.01.2020
4612 Rain 10 1038 71 8000 4.6 90 19:38 11.01.2020
4613 Rain 10 1038 71 8000 4.6 90 19:38 11.01.2020
4614 Rain 10 1038 71 8000 4.6 90 19:38 11.01.2020
4615 Rain 10 1038 71 8000 4.6 90 19:38 11.01.2020
4616 Rain 10 1038 71 8000 4.6 90 19:20 11.01.2020
4617 Clouds 12 1038 62 10000 4.6 90 18:55 11.01.2020
4618 Clouds 12 1038 62 10000 4.6 90 18:36 11.01.2020
4619 Clouds 12 1038 62 10000 4.6 90 18:18 11.01.2020
4620 Clouds 10 1039 76 10000 5.7 60 17:57 11.01.2020
4621 Clouds 10 1039 76 10000 5.7 60 17:38 11.01.2020
4622 Clouds 10 1039 76 10000 5.7 60 17:18 11.01.2020
4623 Clouds 8 1040 81 6000 2.1 290 16:43 11.01.2020
4624 Clouds 8 1040 81 6000 2.1 290 16:24 11.01.2020
4625 Thunderstorm 7 1039 87 6000 4.6 330 15:56 11.01.2020
4626 Thunderstorm 7 1039 87 6000 4.6 330 15:37 11.01.2020
4627 Thunderstorm 7 1039 87 6000 4.6 330 15:19 11.01.2020
4628 Thunderstorm 8 1039 87 8000 5.1 330 14:44 11.01.2020
4629 Clouds 10 1039 71 6000 1 0 14:24 11.01.2020
4630 Fog 6 1039 87 4000 1 0 13:56 11.01.2020
4631 Fog 6 1039 87 4000 1 0 13:37 11.01.2020
4632 Fog 6 1039 87 4000 1 0 13:19 11.01.2020
4633 Clouds 6 1038 93 10000 1 0 12:44 11.01.2020
4634 Clouds 6 1038 93 10000 1 0 12:26 11.01.2020
4635 Clouds 5 1037 93 10000 1 0 11:55 11.01.2020
4636 Clouds 5 1037 93 10000 1 0 11:37 11.01.2020
4637 Clouds 5 1037 93 10000 1 0 11:18 11.01.2020
4638 Clouds 5 1037 93 10000 1 0 11:18 11.01.2020
4639 Clouds 4 1036 93 10000 2.1 100 10:43 11.01.2020
4640 Clouds 4 1036 93 10000 2.1 100 10:24 11.01.2020
4641 Clouds 5 1036 86 10000 2.1 90 09:40 11.01.2020
4642 Clouds 5 1036 86 10000 2.1 90 09:21 11.01.2020
4643 Clouds 7 1037 81 10000 3.6 70 08:43 11.01.2020
4644 Clouds 7 1037 81 10000 3.6 70 08:43 11.01.2020
4645 Clouds 7 1037 81 10000 3.6 70 08:23 11.01.2020
4646 Fog 8 1038 87 4000 2.6 110 07:45 11.01.2020
4647 Fog 8 1038 87 4000 2.6 110 07:26 11.01.2020
4648 Clouds 8 1038 75 10000 1 0 06:55 11.01.2020
4649 Clouds 8 1038 75 10000 1 0 06:19 11.01.2020
4650 Clouds 9 1039 66 10000 1 0 04:48 11.01.2020
4651 Clouds 9 1039 66 10000 1 0 04:29 11.01.2020
4652 Clouds 6 1038 75 10000 1 0 03:28 11.01.2020
4653 Clouds 9 1037 66 10000 1 0 02:40 11.01.2020
4654 Clouds 10 1036 57 10000 4.1 330 01:44 11.01.2020
4655 Clouds 10 1036 57 10000 4.1 330 01:20 11.01.2020
4656 Clouds 10 1036 61 10000 5.7 290 00:44 11.01.2020
4657 Clouds 10 1036 61 10000 5.7 290 00:20 11.01.2020
4658 Clouds 12 1035 50 10000 6.2 290 23:41 10.01.2020
4659 Clouds 12 1035 50 10000 6.2 290 23:41 10.01.2020
4660 Clouds 12 1035 50 10000 6.2 290 23:22 10.01.2020
4661 Clouds 16 1034 36 10000 4.6 280 22:59 10.01.2020
4662 Clouds 16 1034 36 10000 4.6 280 22:40 10.01.2020
4663 Clouds 16 1034 36 10000 4.6 280 22:20 10.01.2020
4664 Clouds 16 1034 59 10000 4.1 290 21:57 10.01.2020
4665 Clouds 16 1034 59 10000 4.1 290 21:37 10.01.2020
4666 Clouds 16 1034 59 10000 4.1 290 21:19 10.01.2020
4667 Clouds 15 1035 41 10000 5.1 130 20:43 10.01.2020
4668 Clouds 15 1035 41 10000 5.1 130 20:24 10.01.2020
4669 Thunderstorm 15 1036 44 10000 4.6 180 19:59 10.01.2020
4670 Thunderstorm 15 1036 44 10000 4.6 180 19:38 10.01.2020
4671 Thunderstorm 15 1036 44 10000 4.6 180 19:19 10.01.2020
4672 Thunderstorm 15 1037 41 10000 4.1 140 18:43 10.01.2020
4673 Thunderstorm 15 1037 41 10000 4.1 140 18:19 10.01.2020
4674 Thunderstorm 14 1037 47 8000 3.6 120 17:57 10.01.2020
4675 Thunderstorm 14 1037 47 8000 3.6 120 17:57 10.01.2020
4676 Clouds 15 1037 41 10000 2.1 200 17:39 10.01.2020
4677 Clouds 15 1037 41 10000 2.1 200 17:20 10.01.2020
4678 Clouds 14 1038 47 10000 2.6 200 16:57 10.01.2020
4679 Clouds 14 1038 47 10000 2.6 200 16:38 10.01.2020
4680 Clouds 14 1038 47 10000 2.6 200 16:19 10.01.2020
4681 Clouds 13 1039 54 8000 1 0 15:56 10.01.2020
4682 Clouds 13 1039 54 8000 1 0 15:36 10.01.2020
4683 Clouds 13 1039 54 8000 1 0 15:18 10.01.2020
4684 Clouds 12 1039 58 6000 2.1 260 14:54 10.01.2020
4685 Clouds 12 1039 58 6000 2.1 260 14:36 10.01.2020
4686 Clouds 12 1039 58 6000 2.1 260 14:18 10.01.2020
4687 Clouds 11 1038 66 10000 1 0 13:42 10.01.2020
4688 Clouds 11 1038 66 10000 1 0 13:23 10.01.2020
4689 Clouds 6 1037 100 6000 1.5 70 12:58 10.01.2020
4690 Clouds 6 1037 100 6000 1.5 70 12:39 10.01.2020
4691 Clouds 6 1037 100 6000 1.5 70 12:39 10.01.2020
4692 Clouds 6 1037 100 6000 1.5 70 12:19 10.01.2020
4693 Fog 4 1036 100 3000 2.1 70 11:55 10.01.2020
4694 Fog 4 1036 100 3000 2.1 70 11:37 10.01.2020
4695 Fog 4 1036 100 3000 2.1 70 11:18 10.01.2020
4696 Fog 4 1036 100 3000 2.1 70 11:18 10.01.2020
4697 Fog 6 1036 100 4000 2.6 70 10:43 10.01.2020
4698 Fog 6 1036 100 4000 2.6 70 10:24 10.01.2020
4699 Fog 6 1036 87 4000 1.5 100 09:56 10.01.2020
4700 Fog 6 1036 87 4000 1.5 100 09:38 10.01.2020
4701 Fog 6 1036 87 4000 1.5 100 09:20 10.01.2020
4702 Clouds 6 1036 75 10000 1 0 08:42 10.01.2020
4703 Clouds 6 1036 75 10000 1 0 08:23 10.01.2020
4704 Clouds 6 1036 75 10000 1 0 08:23 10.01.2020
4705 Clouds 5 1036 80 10000 1 0 07:45 10.01.2020
4706 Clouds 5 1036 80 10000 1 0 07:26 10.01.2020
4707 Fog 4 1036 86 4000 1 0 06:46 10.01.2020
4708 Fog 4 1036 86 4000 1 0 06:26 10.01.2020
4709 Clouds 7 1037 81 10000 1 0 05:51 10.01.2020
4710 Clouds 9 1036 61 10000 2.6 90 03:37 10.01.2020
4711 Clouds 9 1036 61 10000 2.6 90 03:18 10.01.2020
4712 Clouds 9 1035 61 10000 3.6 70 02:47 10.01.2020
4713 Clouds 10 1035 57 10000 4.1 60 01:44 10.01.2020
4714 Clouds 10 1035 57 10000 4.1 60 01:26 10.01.2020
4715 Clouds 14 1035 84 10000 1 0 00:40 10.01.2020
4716 Clouds 12 1035 54 10000 6.2 200 23:58 09.01.2020
4717 Clouds 12 1035 54 10000 6.2 200 23:38 09.01.2020
4718 Clouds 12 1035 54 10000 6.2 200 23:20 09.01.2020
4719 Clouds 16 1034 26 10000 4.6 120 22:57 09.01.2020
4720 Clouds 16 1034 26 10000 4.6 120 22:38 09.01.2020
4721 Clouds 16 1034 26 10000 4.6 120 22:19 09.01.2020
4722 Clouds 19 1034 24 10000 4.6 300 21:57 09.01.2020
4723 Clouds 19 1034 24 10000 4.6 300 21:37 09.01.2020
4724 Clouds 19 1034 24 10000 4.6 300 21:37 09.01.2020
4725 Clouds 19 1034 24 10000 4.6 300 21:37 09.01.2020
4726 Clouds 19 1034 24 10000 4.6 300 21:37 09.01.2020
4727 Clouds 19 1034 24 10000 4.6 300 21:37 09.01.2020
4728 Clouds 19 1034 24 10000 4.6 300 21:19 09.01.2020
4729 Clouds 15 1035 65 10000 7.7 20 20:56 09.01.2020
4730 Clouds 15 1035 65 10000 7.7 20 20:38 09.01.2020
4731 Clouds 15 1035 56 10000 7.7 20 20:19 09.01.2020
4732 Clouds 15 1035 67 10000 7.7 20 20:19 09.01.2020
4733 Thunderstorm 17 1036 56 10000 5.1 90 19:56 09.01.2020
4734 Thunderstorm 17 1036 56 10000 5.1 90 19:37 09.01.2020
4735 Thunderstorm 17 1036 56 10000 5.1 90 19:18 09.01.2020
4736 Clouds 17 1036 29 10000 3.6 110 18:54 09.01.2020
4737 Clouds 17 1036 29 10000 3.6 110 18:54 09.01.2020
4738 Clouds 17 1036 29 10000 3.6 110 18:36 09.01.2020
4739 Clouds 17 1036 29 10000 3.6 110 18:18 09.01.2020
4740 Clouds 17 1037 39 10000 3.6 130 17:41 09.01.2020
4741 Clouds 17 1037 39 10000 3.6 130 17:18 09.01.2020
4742 Clouds 16 1038 44 10000 2.1 160 16:47 09.01.2020
4743 Clouds 16 1038 44 10000 2.1 160 16:22 09.01.2020
4744 Clouds 14 1038 35 10000 1 0 15:44 09.01.2020
4745 Clouds 14 1038 35 10000 1 0 15:25 09.01.2020
4746 Clouds 10 1038 37 10000 1 0 14:59 09.01.2020
4747 Clouds 10 1038 37 10000 1 0 14:41 09.01.2020
4748 Clouds 10 1038 37 10000 1 0 14:19 09.01.2020
4749 Clouds 10 1038 46 10000 1 0 13:57 09.01.2020
4750 Clouds 10 1038 46 10000 1 0 13:38 09.01.2020
4751 Clouds 10 1038 46 10000 1 0 13:19 09.01.2020
4752 Clouds 5 1037 93 10000 1.5 80 12:57 09.01.2020
4753 Clouds 5 1037 93 10000 1.5 80 12:38 09.01.2020
4754 Clouds 5 1037 93 10000 1.5 80 12:18 09.01.2020
4755 Fog 2 1036 100 4000 2.6 70 11:43 09.01.2020
4756 Fog 2 1036 100 4000 2.6 70 11:25 09.01.2020
4757 Fog 2 1035 100 4000 2.6 80 10:59 09.01.2020
4758 Fog 2 1035 100 4000 2.6 80 10:41 09.01.2020
4759 Fog 2 1035 100 4000 2.6 80 10:21 09.01.2020
4760 Clouds 5 1014 81 0 0.46 269 09:47 09.01.2020
4761 Fog 2 1035 93 4000 2.1 60 09:25 09.01.2020
4762 Fog 2 1035 93 4000 2.1 60 08:59 09.01.2020
4763 Fog 2 1035 93 4000 2.1 60 08:39 09.01.2020
4764 Fog 2 1035 93 4000 2.1 60 08:21 09.01.2020
4765 Fog 4 1035 93 4000 2.6 90 07:48 09.01.2020
4766 Fog 4 1035 93 4000 2.6 90 07:30 09.01.2020
4767 Fog 4 1036 100 4000 2.1 100 06:40 09.01.2020
4768 Fog 4 1036 93 1200 2.6 90 06:22 09.01.2020
4769 Clouds 7 1036 42 10000 1 0 05:51 09.01.2020
4770 Clouds 7 1036 42 10000 1 0 05:20 09.01.2020
4771 Clouds 9 1036 82 10000 2.1 260 04:39 09.01.2020
4772 Clouds 9 1036 76 10000 2.1 60 03:27 09.01.2020
4773 Clouds 9 1035 76 10000 2.1 100 02:46 09.01.2020
4774 Clouds 12 1034 50 10000 2.1 120 01:42 09.01.2020
4775 Clouds 16 1033 25 10000 2.1 280 00:59 09.01.2020
4776 Clouds 16 1033 25 10000 2.1 280 00:37 09.01.2020
4777 Clouds 16 1033 25 10000 2.1 280 00:19 09.01.2020
4778 Clouds 17 1033 39 10000 2.1 260 23:39 08.01.2020
4779 Clouds 17 1033 39 10000 2.1 260 23:20 08.01.2020
4780 Clouds 17 1033 27 10000 3.1 250 22:40 08.01.2020
4781 Clouds 17 1033 27 10000 3.1 250 22:22 08.01.2020
4782 Clouds 17 1034 23 10000 3.1 240 21:59 08.01.2020
4783 Clouds 17 1034 23 10000 3.1 240 21:40 08.01.2020
4784 Clouds 17 1034 23 10000 3.1 240 21:40 08.01.2020
4785 Clouds 17 1034 23 10000 3.1 240 21:21 08.01.2020
4786 Clouds 18 1034 23 10000 4.1 300 20:59 08.01.2020
4787 Clouds 18 1034 23 10000 4.1 300 20:59 08.01.2020
4788 Clouds 17 1035 23 10000 3.6 270 20:41 08.01.2020
4789 Clouds 17 1035 23 10000 3.6 270 20:21 08.01.2020
4790 Clouds 17 1036 27 10000 4.6 280 19:58 08.01.2020
4791 Clouds 17 1036 27 10000 4.6 280 19:38 08.01.2020
4792 Clouds 17 1036 27 10000 4.6 280 19:19 08.01.2020
4793 Clouds 16 1037 38 10000 4.6 300 18:58 08.01.2020
4794 Clouds 16 1037 38 10000 4.6 300 18:39 08.01.2020
4795 Clouds 16 1037 38 10000 4.6 300 18:19 08.01.2020
4796 Clouds 14 1037 41 10000 5.1 260 17:56 08.01.2020
4797 Clouds 14 1037 41 10000 5.1 260 17:38 08.01.2020
4798 Clouds 14 1037 41 10000 5.1 260 17:19 08.01.2020
4799 Clouds 13 1038 47 10000 4.6 290 16:55 08.01.2020
4800 Clouds 13 1038 47 10000 4.6 290 16:37 08.01.2020
4801 Clouds 13 1038 47 10000 4.6 290 16:18 08.01.2020
4802 Clouds 12 1038 58 10000 4.1 270 15:44 08.01.2020
4803 Clouds 12 1038 58 10000 4.1 270 15:21 08.01.2020
4804 Clouds 11 1038 62 10000 2.6 300 14:57 08.01.2020
4805 Clouds 11 1038 62 10000 2.6 300 14:39 08.01.2020
4806 Clouds 11 1038 62 10000 2.6 300 14:20 08.01.2020
4807 Clouds 9 1037 66 10000 1 0 13:40 08.01.2020
4808 Clouds 9 1037 66 10000 1 0 13:19 08.01.2020
4809 Clouds 6 1037 93 10000 1.5 90 12:43 08.01.2020
4810 Clouds 6 1037 93 10000 1.5 90 12:20 08.01.2020
4811 Clouds 5 1036 93 10000 2.1 100 11:59 08.01.2020
4812 Clouds 5 1036 93 10000 2.1 100 11:40 08.01.2020
4813 Clouds 5 1036 93 10000 2.1 100 11:19 08.01.2020
4814 Clouds 6 1036 87 10000 1 0 10:55 08.01.2020
4815 Clouds 6 1036 87 10000 1 0 10:37 08.01.2020
4816 Clouds 6 1036 87 10000 1 0 10:37 08.01.2020
4817 Clouds 6 1036 87 10000 1 0 10:19 08.01.2020
4818 Clouds 6 1035 93 10000 2.1 60 09:42 08.01.2020
4819 Clouds 6 1035 93 10000 2.1 60 09:19 08.01.2020
4820 Clouds 7 1035 81 10000 3.1 210 08:57 08.01.2020
4821 Clouds 7 1035 81 10000 3.1 210 08:37 08.01.2020
4822 Clouds 7 1035 81 10000 3.1 210 08:19 08.01.2020
4823 Clouds 8 1035 70 10000 4.1 350 07:48 08.01.2020
4824 Clouds 8 1035 70 10000 4.1 350 07:29 08.01.2020
4825 Clouds 7 1036 75 10000 2.6 10 06:45 08.01.2020
4826 Clouds 7 1036 75 10000 2.6 10 06:19 08.01.2020
4827 Clouds 7 1038 81 10000 3.1 50 05:41 08.01.2020
4828 Clouds 7 1038 81 10000 3.1 50 05:41 08.01.2020
4829 Thunderstorm 7 1038 75 10000 2.1 180 04:56 08.01.2020
4830 Thunderstorm 7 1038 75 10000 2.1 180 04:24 08.01.2020
4831 Clouds 8 1035 81 10000 2.1 70 02:45 08.01.2020
4832 Clouds 8 1035 81 10000 2.1 70 02:21 08.01.2020
4833 Clouds 10 1034 71 10000 4.1 110 01:42 08.01.2020
4834 Clouds 12 1033 54 10000 4.1 100 00:59 08.01.2020
4835 Clouds 12 1033 54 10000 4.1 100 00:27 08.01.2020
4836 Clouds 13 1033 50 10000 4.6 90 23:47 07.01.2020
4837 Clouds 13 1033 50 10000 4.6 90 23:22 07.01.2020
4838 Rain 14 1032 44 8000 1 0 22:58 07.01.2020
4839 Rain 14 1032 44 8000 1 0 22:39 07.01.2020
4840 Rain 14 1032 44 8000 1 0 22:19 07.01.2020
4841 Thunderstorm 15 1033 38 8000 6.2 300 21:54 07.01.2020
4842 Thunderstorm 15 1033 38 8000 6.2 300 21:36 07.01.2020
4843 Thunderstorm 15 1033 38 8000 6.2 300 21:36 07.01.2020
4844 Thunderstorm 15 1033 38 8000 6.2 300 21:18 07.01.2020
4845 Clouds 16 1033 38 10000 6.2 300 20:42 07.01.2020
4846 Clouds 16 1033 38 10000 6.2 300 20:23 07.01.2020
4847 Clouds 16 1034 36 10000 3.6 260 19:59 07.01.2020
4848 Clouds 16 1034 36 10000 3.6 260 19:38 07.01.2020
4849 Clouds 16 1034 36 10000 3.6 260 19:19 07.01.2020
4850 Clouds 15 1035 44 10000 3.6 210 18:57 07.01.2020
4851 Clouds 15 1035 44 10000 3.6 210 18:38 07.01.2020
4852 Clouds 15 1035 44 10000 3.6 210 18:18 07.01.2020
4853 Clouds 14 1036 50 10000 2.1 220 17:57 07.01.2020
4854 Clouds 14 1036 50 10000 2.1 220 17:37 07.01.2020
4855 Clouds 14 1036 50 10000 2.1 220 17:19 07.01.2020
4856 Clouds 13 1036 54 10000 1 0 16:55 07.01.2020
4857 Clouds 13 1036 54 10000 1 0 16:37 07.01.2020
4858 Clouds 13 1036 54 10000 1 0 16:18 07.01.2020
4859 Clouds 10 1037 71 6000 1 0 15:43 07.01.2020
4860 Clouds 10 1037 71 6000 1 0 15:24 07.01.2020
4861 Clouds 8 1036 87 6000 3.1 240 14:59 07.01.2020
4862 Clouds 8 1036 87 6000 3.1 240 14:40 07.01.2020
4863 Clouds 8 1036 87 6000 3.1 240 14:22 07.01.2020
4864 Fog 8 1036 93 4000 1 0 13:46 07.01.2020
4865 Fog 8 1036 93 4000 1 0 13:21 07.01.2020
4866 Fog 7 1035 93 4000 1 0 12:56 07.01.2020
4867 Fog 7 1035 93 4000 1 0 12:38 07.01.2020
4868 Fog 7 1035 93 4000 1 0 12:19 07.01.2020
4869 Fog 7 1035 93 4000 2.6 110 11:42 07.01.2020
4870 Fog 7 1035 93 4000 2.6 110 11:23 07.01.2020
4871 Fog 7 1034 93 4000 2.6 120 10:57 07.01.2020
4872 Fog 7 1034 93 4000 2.6 120 10:57 07.01.2020
4873 Fog 7 1034 93 4000 2.6 120 10:39 07.01.2020
4874 Fog 7 1034 93 4000 2.6 120 10:39 07.01.2020
4875 Fog 7 1034 93 4000 2.6 120 10:39 07.01.2020
4876 Fog 7 1034 93 4000 2.6 120 10:39 07.01.2020
4877 Fog 7 1034 93 4000 2.6 120 10:39 07.01.2020
4878 Fog 7 1034 93 4000 2.6 120 10:21 07.01.2020
4879 Fog 6 1034 93 4000 2.6 90 09:39 07.01.2020
4880 Fog 6 1034 93 4000 2.6 90 09:21 07.01.2020
4881 Fog 6 1034 93 4000 2.6 90 09:21 07.01.2020
4882 Fog 6 1034 93 4000 2.6 90 09:21 07.01.2020
4883 Clouds 7 1034 65 10000 1 0 08:59 07.01.2020
4884 Clouds 7 1034 65 10000 1 0 08:41 07.01.2020
4885 Clouds 7 1034 65 10000 1 0 08:18 07.01.2020
4886 Clouds 8 1034 61 10000 1.5 270 07:42 07.01.2020
4887 Clouds 8 1034 61 10000 1.5 270 07:20 07.01.2020
4888 Clouds 9 1035 49 10000 2.1 260 06:49 07.01.2020
4889 Clouds 9 1035 49 10000 2.1 260 06:29 07.01.2020
4890 Clouds 8 1036 65 10000 2.1 250 05:41 07.01.2020
4891 Clouds 10 1035 61 10000 4.6 240 03:46 07.01.2020
4892 Clouds 10 1035 61 10000 4.6 240 03:24 07.01.2020
4893 Clouds 9 1033 76 10000 1.5 100 02:19 07.01.2020
4894 Clouds 13 1032 83 10000 2.6 20 01:40 07.01.2020
4895 Clouds 15 1032 33 10000 3.6 300 00:57 07.01.2020
4896 Clouds 15 1032 33 10000 3.6 300 00:21 07.01.2020
4897 Clouds 16 1031 36 10000 3.1 280 23:57 06.01.2020
4898 Clouds 16 1031 36 10000 3.1 280 23:37 06.01.2020
4899 Clouds 16 1031 36 10000 3.1 280 23:19 06.01.2020
4900 Clouds 18 1031 34 10000 5.1 260 22:44 06.01.2020
4901 Clouds 18 1031 34 10000 5.1 260 22:24 06.01.2020
4902 Clouds 17 1032 38 10000 3.1 50 21:58 06.01.2020
4903 Clouds 17 1032 38 10000 3.1 50 21:39 06.01.2020
4904 Clouds 17 1032 38 10000 3.1 50 21:20 06.01.2020
4905 Clouds 17 1032 38 10000 3.1 50 21:20 06.01.2020
4906 Clouds 17 1033 27 10000 4.1 240 20:57 06.01.2020
4907 Clouds 17 1033 27 10000 4.1 240 20:38 06.01.2020
4908 Clouds 17 1033 27 10000 4.1 240 20:38 06.01.2020
4909 Clouds 17 1033 27 10000 4.1 240 20:20 06.01.2020
4910 Clouds 15 1034 30 10000 3.6 260 19:56 06.01.2020
4911 Clouds 15 1034 30 10000 3.6 260 19:38 06.01.2020
4912 Clouds 15 1034 30 10000 3.6 260 19:20 06.01.2020
4913 Clouds 14 1034 35 10000 3.1 210 18:48 06.01.2020
4914 Clouds 14 1034 35 10000 3.1 210 18:22 06.01.2020
4915 Clouds 13 1035 37 10000 2.6 230 17:58 06.01.2020
4916 Clouds 13 1035 37 10000 2.6 230 17:38 06.01.2020
4917 Clouds 13 1035 37 10000 2.6 230 17:18 06.01.2020
4918 Clouds 12 1035 47 10000 3.6 270 16:44 06.01.2020
4919 Clouds 12 1035 47 10000 3.6 270 16:25 06.01.2020
4920 Clouds 11 1036 50 10000 2.1 260 15:59 06.01.2020
4921 Clouds 11 1036 50 10000 2.1 260 15:39 06.01.2020
4922 Clouds 11 1036 50 10000 2.1 260 15:18 06.01.2020
4923 Clouds 10 1036 46 10000 1.5 250 14:56 06.01.2020
4924 Clouds 10 1036 46 10000 1.5 250 14:37 06.01.2020
4925 Clouds 10 1036 46 10000 1.5 250 14:18 06.01.2020
4926 Clouds 9 1035 52 10000 1 0 13:41 06.01.2020
4927 Clouds 9 1035 50 10000 1 0 13:22 06.01.2020
4928 Clouds 6 1034 56 10000 1 0 12:59 06.01.2020
4929 Clouds 6 1034 56 10000 1 0 12:41 06.01.2020
4930 Clouds 6 1034 56 10000 1 0 12:20 06.01.2020
4931 Clouds 6 1034 56 10000 1 0 12:20 06.01.2020
4932 Clouds 4 1034 80 10000 3.55 241 11:55 06.01.2020
4933 Clouds 4 1034 80 10000 3.55 241 11:37 06.01.2020
4934 Clouds 4 1034 80 10000 2.87 275 11:19 06.01.2020
4935 Clouds 5 1033 58 10000 1 0 10:42 06.01.2020
4936 Clouds 5 1033 58 10000 1 0 10:21 06.01.2020
4937 Clouds 5 1033 75 10000 2.1 220 09:42 06.01.2020
4938 Clouds 5 1033 75 10000 2.1 220 09:24 06.01.2020
4939 Clouds 5 1033 75 10000 2.1 220 09:24 06.01.2020
4940 Clouds 7 1033 87 10000 2.1 260 08:58 06.01.2020
4941 Clouds 7 1033 87 10000 2.1 260 08:39 06.01.2020
4942 Clouds 7 1033 87 10000 2.1 260 08:21 06.01.2020
4943 Clouds 7 1034 87 10000 2.1 280 07:45 06.01.2020
4944 Clouds 7 1034 75 10000 1 0 06:55 06.01.2020
4945 Clouds 7 1034 75 10000 1 0 06:35 06.01.2020
4946 Clouds 7 1035 81 10000 3.1 40 05:48 06.01.2020
4947 Clouds 7 1035 81 10000 3.1 40 05:24 06.01.2020
4948 Rain 7 1036 81 10000 4.6 60 04:24 06.01.2020
4949 Rain 7 1036 87 8000 2.1 30 03:51 06.01.2020
4950 Thunderstorm 7 1035 87 7000 5.1 220 02:28 06.01.2020
4951 Thunderstorm 10 1033 87 10000 3.1 60 01:53 06.01.2020
4952 Thunderstorm 10 1033 87 10000 3.1 60 01:30 06.01.2020
4953 Clouds 11 1033 71 10000 3.1 40 00:46 06.01.2020
4954 Clouds 11 1033 71 10000 3.1 40 00:27 06.01.2020
4955 Clouds 11 1032 76 10000 2.6 100 23:57 05.01.2020
4956 Clouds 11 1032 76 10000 2.6 100 23:38 05.01.2020
4957 Clouds 11 1032 76 10000 2.6 100 23:19 05.01.2020
4958 Thunderstorm 12 1032 71 8000 5.1 90 22:40 05.01.2020
4959 Thunderstorm 12 1032 71 8000 5.1 90 22:20 05.01.2020
4960 Thunderstorm 12 1032 71 8000 5.1 90 22:20 05.01.2020
4961 Thunderstorm 13 1032 62 10000 6.2 130 21:57 05.01.2020
4962 Clouds 15 1032 54 10000 4.6 100 21:39 05.01.2020
4963 Clouds 15 1032 54 10000 4.6 100 21:20 05.01.2020
4964 Clouds 15 1033 47 10000 2.6 30 20:56 05.01.2020
4965 Clouds 15 1033 47 10000 2.6 30 20:38 05.01.2020
4966 Clouds 15 1033 47 10000 2.6 30 20:19 05.01.2020
4967 Rain 13 1034 58 10000 3.6 130 19:58 05.01.2020
4968 Rain 13 1034 58 10000 3.6 130 19:38 05.01.2020
4969 Rain 13 1034 58 10000 3.6 130 19:19 05.01.2020
4970 Clouds 13 1035 58 10000 2.6 90 18:55 05.01.2020
4971 Clouds 13 1035 58 10000 2.6 90 18:37 05.01.2020
4972 Clouds 13 1035 58 10000 2.6 90 18:37 05.01.2020
4973 Clouds 13 1035 58 10000 2.6 90 18:18 05.01.2020
4974 Clouds 13 1036 58 10000 1 0 17:57 05.01.2020
4975 Clouds 13 1036 58 10000 1 0 17:37 05.01.2020
4976 Clouds 13 1036 58 10000 1 0 17:19 05.01.2020
4977 Clouds 13 1036 58 10000 1 0 17:19 05.01.2020
4978 Clouds 12 1037 66 10000 2.1 90 16:55 05.01.2020
4979 Clouds 12 1037 66 10000 2.1 90 16:37 05.01.2020
4980 Clouds 12 1037 66 10000 2.1 90 16:19 05.01.2020
4981 Clouds 12 1037 66 10000 2.1 90 16:19 05.01.2020
4982 Clouds 10 1038 71 6000 1 0 15:37 05.01.2020
4983 Clouds 10 1038 71 6000 1 0 15:18 05.01.2020
4984 Clouds 8 1038 87 6000 3.1 80 14:55 05.01.2020
4985 Clouds 8 1038 87 6000 3.1 80 14:36 05.01.2020
4986 Clouds 8 1038 87 6000 3.1 80 14:18 05.01.2020
4987 Clouds 7 1037 87 6000 2.1 60 13:40 05.01.2020
4988 Clouds 7 1037 87 6000 2.1 60 13:21 05.01.2020
4989 Rain 6 1037 93 4000 2.1 50 12:58 05.01.2020
4990 Rain 6 1037 93 4000 2.1 50 12:39 05.01.2020
4991 Rain 6 1037 93 4000 2.1 50 12:21 05.01.2020
4992 Rain 6 1037 93 4000 2.1 50 12:21 05.01.2020
4993 Rain 6 1036 93 4000 1 0 11:56 05.01.2020
4994 Rain 6 1036 93 4000 1 0 11:37 05.01.2020
4995 Rain 6 1036 93 4000 1 0 11:19 05.01.2020
4996 Rain 6 1036 93 4000 1 0 10:55 05.01.2020
4997 Rain 6 1036 93 4000 1 0 10:36 05.01.2020
4998 Rain 6 1036 93 4000 1 0 10:36 05.01.2020
4999 Rain 6 1036 93 4000 1 0 10:18 05.01.2020
5000 Rain 6 1036 93 4000 1 0 09:41 05.01.2020
5001 Rain 6 1036 93 4000 1 0 09:21 05.01.2020
5002 Rain 6 1036 100 4000 2.1 130 08:45 05.01.2020
5003 Rain 6 1036 100 4000 2.1 130 08:26 05.01.2020
5004 Rain 6 1036 93 4000 2.1 70 07:55 05.01.2020
5005 Rain 6 1036 93 4000 2.1 70 07:32 05.01.2020
5006 Rain 6 1037 93 4000 3.1 70 06:57 05.01.2020
5007 Rain 7 1038 93 4000 3.6 80 05:53 05.01.2020
5008 Rain 7 1038 93 4000 3.6 80 05:28 05.01.2020
5009 Rain 8 1038 87 4000 4.6 100 04:24 05.01.2020
5010 Fog 8 1038 93 4000 3.6 70 03:45 05.01.2020
5011 Rain 8 1037 81 8000 1 0 02:41 05.01.2020
5012 Rain 8 1037 81 8000 1 0 02:19 05.01.2020
5013 Thunderstorm 8 1036 81 10000 4.1 240 01:36 05.01.2020
5014 Thunderstorm 8 1036 81 10000 4.1 240 01:18 05.01.2020
5015 Clouds 10 1035 66 10000 3.1 340 00:40 05.01.2020
5016 Clouds 10 1035 66 10000 3.1 340 00:21 05.01.2020
5017 Clouds 11 1035 66 10000 4.1 310 23:58 04.01.2020
5018 Clouds 11 1035 66 10000 4.1 310 23:38 04.01.2020
5019 Clouds 11 1035 66 10000 4.1 310 23:18 04.01.2020
5020 Clouds 14 1034 54 10000 3.1 140 22:39 04.01.2020
5021 Clouds 14 1034 54 10000 3.1 140 22:20 04.01.2020
5022 Clouds 15 1034 51 10000 4.1 150 21:56 04.01.2020
5023 Clouds 15 1034 51 10000 4.1 150 21:37 04.01.2020
5024 Clouds 15 1034 51 10000 4.1 150 21:19 04.01.2020
5025 Clouds 15 1035 51 10000 3.1 90 20:55 04.01.2020
5026 Clouds 15 1035 51 10000 3.1 90 20:36 04.01.2020
5027 Clouds 15 1035 51 10000 3.1 90 20:18 04.01.2020
5028 Clouds 15 1036 47 10000 1 0 19:41 04.01.2020
5029 Clouds 15 1036 47 10000 1 0 19:23 04.01.2020
5030 Clouds 12 1038 62 10000 2.6 260 18:58 04.01.2020
5031 Clouds 12 1038 62 10000 2.6 260 18:39 04.01.2020
5032 Clouds 12 1038 62 10000 2.6 260 18:20 04.01.2020
5033 Clouds 11 1039 71 10000 2.6 300 17:56 04.01.2020
5034 Clouds 11 1039 71 10000 2.6 300 17:38 04.01.2020
5035 Clouds 11 1039 71 10000 2.6 300 17:20 04.01.2020
5036 Clouds 13 1040 66 10000 3.6 90 16:41 04.01.2020
5037 Clouds 13 1040 66 10000 3.6 90 16:23 04.01.2020
5038 Clouds 10 1040 81 6000 2.6 60 15:57 04.01.2020
5039 Clouds 10 1040 81 6000 2.6 60 15:38 04.01.2020
5040 Clouds 10 1040 81 6000 2.6 60 15:19 04.01.2020
5041 Clouds 9 1040 87 6000 2.6 130 14:56 04.01.2020
5042 Clouds 9 1040 87 6000 2.6 130 14:37 04.01.2020
5043 Clouds 9 1040 87 6000 2.6 130 14:19 04.01.2020
5044 Clouds 8 1039 81 10000 1 0 13:54 04.01.2020
5045 Clouds 8 1039 81 10000 1 0 13:36 04.01.2020
5046 Clouds 8 1039 81 10000 1 0 13:18 04.01.2020
5047 Clouds 7 1039 93 10000 1 0 12:41 04.01.2020
5048 Clouds 7 1039 93 10000 1 0 12:19 04.01.2020
5049 Clouds 5 1038 93 10000 3.6 70 11:57 04.01.2020
5050 Clouds 5 1038 93 10000 3.6 70 11:38 04.01.2020
5051 Clouds 5 1038 93 10000 3.6 70 11:19 04.01.2020
5052 Fog 6 1038 93 4000 3.1 60 10:41 04.01.2020
5053 Fog 6 1038 93 4000 3.1 60 10:22 04.01.2020
5054 Rain 6 1038 93 4000 2.6 120 09:50 04.01.2020
5055 Rain 6 1038 93 4000 2.6 120 09:26 04.01.2020
5056 Rain 6 1039 93 4000 3.6 160 08:58 04.01.2020
5057 Rain 6 1039 93 4000 3.6 160 08:39 04.01.2020
5058 Rain 6 1039 93 4000 3.6 160 08:20 04.01.2020
5059 Thunderstorm 6 1039 93 4000 5.7 170 07:42 04.01.2020
5060 Fog 8 1039 93 4000 1.5 50 06:52 04.01.2020
5061 Fog 8 1039 93 4000 1.5 50 06:33 04.01.2020
5062 Fog 8 1040 93 4000 1.5 100 05:18 04.01.2020
5063 Fog 8 1040 93 4000 3.1 70 04:33 04.01.2020
5064 Clouds 10 1040 66 10000 2.6 350 03:43 04.01.2020
5065 Clouds 10 1040 66 10000 2.6 350 03:18 04.01.2020
5066 Clouds 9 1039 76 10000 4.1 330 02:21 04.01.2020
5067 Clouds 9 1038 81 10000 1 0 01:53 04.01.2020
5068 Clouds 9 1038 81 10000 1 0 01:30 04.01.2020
5069 Clouds 11 1037 71 10000 3.1 120 00:41 04.01.2020
5070 Clouds 11 1037 71 10000 3.1 120 00:22 04.01.2020
5071 Clouds 12 1036 62 10000 3.6 110 23:42 03.01.2020
5072 Clouds 12 1036 62 10000 3.6 110 23:23 03.01.2020
5073 Clouds 13 1036 54 10000 4.1 90 22:41 03.01.2020
5074 Clouds 13 1036 54 10000 4.1 90 22:20 03.01.2020
5075 Clouds 12 1037 62 10000 5.1 80 21:58 03.01.2020
5076 Clouds 12 1037 62 10000 5.1 80 21:38 03.01.2020
5077 Clouds 12 1037 62 10000 5.1 80 21:19 03.01.2020
5078 Clouds 12 1037 62 10000 5.1 80 21:19 03.01.2020
5079 Thunderstorm 15 1037 51 10000 6.2 100 20:58 03.01.2020
5080 Thunderstorm 15 1037 51 10000 6.2 100 20:40 03.01.2020
5081 Thunderstorm 15 1037 51 10000 6.2 100 20:18 03.01.2020
5082 Clouds 16 1038 51 10000 6.2 100 19:55 03.01.2020
5083 Clouds 16 1038 51 10000 6.2 100 19:55 03.01.2020
5084 Clouds 16 1038 51 10000 6.2 100 19:37 03.01.2020
5085 -273 0 0 0 0 0 19:18 03.01.2020
5086 Clouds 14 1039 58 10000 5.1 110 18:43 03.01.2020
5087 Clouds 14 1039 58 10000 5.1 110 18:24 03.01.2020
5088 Clouds 13 1040 62 10000 5.1 130 17:55 03.01.2020
5089 Clouds 13 1040 62 10000 5.1 130 17:37 03.01.2020
5090 Clouds 13 1040 62 10000 5.1 130 17:18 03.01.2020
5091 Clouds 12 1041 66 10000 4.1 120 16:42 03.01.2020
5092 Clouds 12 1041 66 10000 4.1 120 16:22 03.01.2020
5093 Clouds 9 1041 76 8000 4.6 120 15:44 03.01.2020
5094 Clouds 9 1041 76 8000 4.6 120 15:19 03.01.2020
5095 Clouds 9 1041 76 6000 3.6 120 14:59 03.01.2020
5096 Clouds 9 1041 76 6000 3.6 120 14:38 03.01.2020
5097 Clouds 9 1041 76 6000 3.6 120 14:19 03.01.2020
5098 Clouds 8 1040 81 6000 2.6 100 13:43 03.01.2020
5099 Clouds 8 1040 81 6000 2.6 100 13:24 03.01.2020
5100 Fog 5 1039 100 4000 1 0 12:58 03.01.2020
5101 Fog 5 1039 100 4000 1 0 12:38 03.01.2020
5102 Fog 5 1039 100 4000 1 0 12:20 03.01.2020
5103 Fog 5 1038 93 4000 3.6 110 11:44 03.01.2020
5104 Fog 5 1038 93 4000 3.6 110 11:20 03.01.2020
5105 Fog 5 1038 93 4000 4.1 100 10:44 03.01.2020
5106 Fog 5 1038 93 4000 4.1 100 10:25 03.01.2020
5107 Fog 5 1037 93 4000 3.6 80 09:57 03.01.2020
5108 Fog 5 1037 93 4000 3.6 80 09:39 03.01.2020
5109 Fog 5 1037 93 4000 3.6 80 09:21 03.01.2020
5110 Fog 5 1037 93 4000 3.6 80 09:21 03.01.2020
5111 Fog 6 1038 93 4000 2.1 90 08:56 03.01.2020
5112 Fog 6 1038 93 4000 2.1 90 08:36 03.01.2020
5113 Fog 6 1038 93 4000 2.1 90 08:18 03.01.2020
5114 Fog 6 1038 93 4000 1 0 07:39 03.01.2020
5115 Fog 6 1038 93 4000 1 0 07:18 03.01.2020
5116 Fog 6 1039 93 4000 2.6 40 06:43 03.01.2020
5117 Fog 6 1039 93 4000 2.6 40 06:24 03.01.2020
5118 Fog 6 1039 93 4000 3.6 60 05:28 03.01.2020
5119 Fog 7 1039 87 4000 4.6 60 03:55 03.01.2020
5120 Clouds 8 1038 81 10000 3.1 70 02:55 03.01.2020
5121 Clouds 8 1037 75 10000 4.6 50 01:54 03.01.2020
5122 Clouds 8 1037 75 10000 4.6 50 01:36 03.01.2020
5123 Clouds 8 1037 75 10000 4.6 50 01:36 03.01.2020
5124 Clouds 10 1036 61 10000 5.1 40 00:46 03.01.2020
5125 Clouds 10 1036 61 10000 5.1 40 00:26 03.01.2020
5126 Clouds 12 1036 58 10000 4.1 80 23:39 02.01.2020
5127 Clouds 12 1036 58 10000 4.1 80 23:21 02.01.2020
5128 Clouds 12 1035 62 10000 4.6 70 22:59 02.01.2020
5129 Clouds 12 1035 62 10000 4.6 70 22:41 02.01.2020
5130 Clouds 12 1035 62 10000 4.6 70 22:20 02.01.2020
5131 Clouds 12 1035 62 10000 5.7 100 21:57 02.01.2020
5132 Clouds 12 1035 62 10000 5.7 100 21:38 02.01.2020
5133 Clouds 12 1035 62 10000 5.7 100 21:19 02.01.2020
5134 Clouds 11 1036 66 10000 5.7 100 20:56 02.01.2020
5135 Clouds 11 1036 66 10000 5.7 100 20:37 02.01.2020
5136 Clouds 11 1036 66 10000 5.7 100 20:19 02.01.2020
5137 Rain 10 1037 81 8000 6.2 120 19:54 02.01.2020
5138 Rain 10 1037 81 8000 6.2 120 19:54 02.01.2020
5139 Rain 10 1037 81 8000 6.2 120 19:36 02.01.2020
5140 Rain 10 1037 81 8000 6.2 120 19:18 02.01.2020
5141 Rain 10 1037 81 8000 6.2 120 19:18 02.01.2020
5142 Clouds 12 1037 66 10000 6.2 90 18:43 02.01.2020
5143 Clouds 12 1037 66 10000 6.2 90 18:25 02.01.2020
5144 Clouds 11 1038 76 10000 5.7 110 17:59 02.01.2020
5145 Clouds 11 1038 76 10000 5.7 110 17:39 02.01.2020
5146 Clouds 11 1038 76 10000 5.7 110 17:21 02.01.2020
5147 Clouds 10 1038 76 10000 4.1 90 16:59 02.01.2020
5148 Clouds 10 1038 76 10000 4.1 90 16:41 02.01.2020
5149 Clouds 10 1038 76 10000 4.1 90 16:20 02.01.2020
5150 Clouds 9 1039 81 6000 3.6 100 15:58 02.01.2020
5151 Clouds 9 1039 81 6000 3.6 100 15:58 02.01.2020
5152 Clouds 9 1039 81 6000 3.6 100 15:40 02.01.2020
5153 Rain 8 1038 87 6000 3.6 120 15:21 02.01.2020
5154 Rain 8 1038 87 6000 3.6 120 14:57 02.01.2020
5155 Rain 8 1038 87 6000 3.6 120 14:36 02.01.2020
5156 Rain 6 1038 100 2000 4.1 120 14:18 02.01.2020
5157 Rain 6 1038 100 2000 4.1 120 13:48 02.01.2020
5158 Rain 6 1038 100 2000 4.1 120 13:48 02.01.2020
5159 Rain 6 1038 100 2000 4.1 120 13:30 02.01.2020
5160 Rain 25 1013 88 4000 3.1 180 12:46 02.01.2020
5161 Fog 6 1036 93 4000 3.1 100 12:25 02.01.2020
5162 Fog 6 1036 93 4000 3.1 100 11:58 02.01.2020
5163 Fog 6 1036 93 4000 3.1 100 11:40 02.01.2020
5164 Fog 6 1036 93 4000 3.1 100 11:19 02.01.2020
5165 Fog 6 1035 93 4000 1 0 10:43 02.01.2020
5166 Fog 6 1035 93 4000 1 0 10:25 02.01.2020
5167 Fog 6 1035 93 4000 1 0 09:46 02.01.2020
5168 Fog 6 1035 93 4000 1 0 09:28 02.01.2020
5169 Clouds 6 1035 93 10000 2.1 200 08:45 02.01.2020
5170 Clouds 6 1035 93 10000 2.1 200 08:27 02.01.2020
5171 Clouds 6 1036 93 10000 1 0 07:51 02.01.2020
5172 Clouds 6 1036 93 10000 1 0 07:30 02.01.2020
5173 Clouds 6 1036 87 10000 4.1 60 06:45 02.01.2020
5174 Clouds 6 1036 87 10000 4.1 60 06:26 02.01.2020
5175 Clouds 7 1037 93 10000 2.1 260 05:21 02.01.2020
5176 Rain 7 1037 87 10000 1 0 04:31 02.01.2020
5177 Rain 8 1036 87 4000 2.6 50 02:37 02.01.2020
5178 Fog 9 1035 87 4000 4.1 110 01:58 02.01.2020
5179 Fog 9 1035 87 4000 4.1 110 01:33 02.01.2020
5180 Fog 9 1035 87 4000 4.1 110 01:33 02.01.2020
5181 Clouds 9 1034 93 10000 4.6 120 00:57 02.01.2020
5182 Clouds 9 1034 93 10000 4.6 120 00:33 02.01.2020
5183 Clouds 10 1033 87 10000 4.1 130 23:49 01.01.2020
5184 Clouds 10 1033 87 10000 4.1 130 23:27 01.01.2020
5185 Clouds 11 1033 81 10000 3.1 150 22:56 01.01.2020
5186 Clouds 11 1033 81 10000 3.1 150 22:37 01.01.2020
5187 Clouds 11 1033 81 10000 3.1 150 22:19 01.01.2020
5188 Rain 12 1033 66 8000 3.6 90 21:55 01.01.2020
5189 Rain 12 1033 66 8000 3.6 90 21:37 01.01.2020
5190 Rain 12 1033 66 8000 3.6 90 21:18 01.01.2020
5191 Clouds 14 1034 58 10000 3.6 100 20:42 01.01.2020
5192 Clouds 14 1034 58 10000 3.6 100 20:22 01.01.2020
5193 Clouds 13 1035 62 10000 3.6 90 19:58 01.01.2020
5194 Clouds 13 1035 62 10000 3.6 90 19:39 01.01.2020
5195 Clouds 13 1035 62 10000 3.6 90 19:21 01.01.2020
5196 Rain 10 1036 81 8000 6.7 110 18:59 01.01.2020
5197 Rain 10 1036 81 8000 6.7 110 18:39 01.01.2020
5198 Rain 10 1036 81 8000 6.7 110 18:20 01.01.2020
5199 Clouds 10 1037 81 6000 4.1 110 17:59 01.01.2020
5200 Clouds 10 1037 81 6000 4.1 110 17:40 01.01.2020
5201 Clouds 10 1037 81 6000 4.1 110 17:20 01.01.2020
5202 Rain 8 1038 87 6000 5.1 110 16:59 01.01.2020
5203 Rain 8 1038 87 6000 5.1 110 16:38 01.01.2020
5204 Rain 8 1038 87 6000 5.1 110 16:20 01.01.2020
5205 Fog 8 1038 87 4000 4.6 130 15:57 01.01.2020
5206 Fog 8 1038 87 4000 4.6 130 15:38 01.01.2020
5207 Fog 8 1038 87 4000 4.6 130 15:20 01.01.2020
5208 Fog 8 1038 87 4000 3.1 140 14:56 01.01.2020
5209 Fog 8 1038 87 4000 3.1 140 14:37 01.01.2020
5210 Fog 8 1038 87 4000 3.1 140 14:19 01.01.2020
5211 Rain 7 1037 93 4000 2.6 160 13:55 01.01.2020
5212 Rain 7 1037 93 4000 2.6 160 13:55 01.01.2020
5213 Rain 7 1037 93 4000 2.6 160 13:36 01.01.2020
5214 Rain 7 1037 93 4000 2.6 160 13:18 01.01.2020
5215 Rain 7 1037 87 3000 2.1 150 12:40 01.01.2020
5216 Rain 7 1037 87 3000 2.1 150 12:19 01.01.2020
5217 Fog 6 1036 93 4000 3.1 110 11:57 01.01.2020
5218 Fog 6 1036 93 4000 3.1 110 11:38 01.01.2020
5219 Fog 6 1036 93 4000 3.1 110 11:19 01.01.2020
5220 Fog 7 1035 93 4000 1.5 130 10:55 01.01.2020
5221 Fog 7 1035 93 4000 1.5 130 10:36 01.01.2020
5222 Fog 7 1035 93 4000 1.5 130 10:18 01.01.2020
5223 Fog 7 1035 93 4000 2.1 90 09:40 01.01.2020
5224 Rain 7 1035 93 4000 2.6 110 09:20 01.01.2020
5225 Rain 7 1035 93 4000 2.6 110 08:57 01.01.2020
5226 Rain 7 1035 93 4000 2.6 110 08:37 01.01.2020
5227 Rain 7 1035 93 4000 2.6 110 08:37 01.01.2020
5228 Rain 7 1035 93 4000 2.6 110 08:19 01.01.2020
5229 Rain 7 1036 93 4000 2.6 90 07:56 01.01.2020
5230 Rain 7 1036 93 4000 2.6 90 07:38 01.01.2020
5231 Rain 8 1037 87 4000 2.1 100 06:46 01.01.2020
5232 Rain 8 1037 87 4000 2.1 100 06:22 01.01.2020
5233 Fog 8 1037 87 4000 1 0 05:45 01.01.2020
5234 Fog 8 1037 87 4000 4.1 90 03:48 01.01.2020
5235 Fog 8 1037 87 4000 4.1 90 03:28 01.01.2020
5236 Clouds 7 1036 93 10000 3.6 70 02:59 01.01.2020
5237 Clouds 7 1036 93 10000 3.6 70 02:40 01.01.2020
5238 Clouds 7 1036 93 10000 3.6 70 02:21 01.01.2020
5239 Clouds 7 1035 93 10000 4.6 90 01:39 01.01.2020
5240 Clouds 7 1035 93 10000 4.6 90 01:39 01.01.2020
5241 Clouds 7 1035 93 10000 4.6 90 01:21 01.01.2020
5242 Clouds 8 1034 81 10000 2.1 90 00:44 01.01.2020
5243 Clouds 8 1034 81 10000 2.1 90 00:25 01.01.2020
5244 Clouds 9 1033 81 10000 3.1 80 23:41 31.12.2019
5245 Clouds 9 1033 81 10000 3.1 80 23:22 31.12.2019
5246 Clouds 9 1034 81 10000 2.6 80 22:58 31.12.2019
5247 Clouds 9 1034 81 10000 2.6 80 22:39 31.12.2019
5248 Clouds 9 1034 81 10000 2.6 80 22:39 31.12.2019
5249 Clouds 9 1034 81 10000 2.6 80 22:20 31.12.2019
5250 Clouds 9 1035 81 10000 4.6 80 21:57 31.12.2019
5251 Clouds 9 1035 81 10000 4.6 80 21:39 31.12.2019
5252 Clouds 9 1035 81 10000 4.6 80 21:20 31.12.2019
5253 Clouds 8 1035 93 10000 8.2 100 20:55 31.12.2019
5254 Clouds 8 1035 93 10000 8.2 100 20:37 31.12.2019
5255 Clouds 8 1035 93 10000 8.2 100 20:18 31.12.2019
5256 Thunderstorm 11 1035 71 8000 9.3 120 19:43 31.12.2019
5257 Thunderstorm 11 1035 71 8000 9.3 120 19:24 31.12.2019
5258 Thunderstorm 16 1036 41 10000 4.1 120 18:59 31.12.2019
5259 Thunderstorm 16 1036 41 10000 4.1 120 18:40 31.12.2019
5260 Thunderstorm 16 1036 41 10000 4.1 120 18:20 31.12.2019
5261 Clouds 14 1036 50 10000 4.1 90 17:57 31.12.2019
5262 Clouds 14 1036 50 10000 4.1 90 17:57 31.12.2019
5263 Clouds 14 1036 50 10000 4.1 90 17:38 31.12.2019
5264 Clouds 14 1036 50 10000 4.1 90 17:19 31.12.2019
5265 Clouds 13 1037 58 10000 3.1 140 16:57 31.12.2019
5266 Clouds 13 1037 58 10000 3.1 140 16:38 31.12.2019
5267 Clouds 13 1037 58 10000 3.1 140 16:19 31.12.2019
5268 Clouds 11 1037 62 10000 3.1 130 15:57 31.12.2019
5269 Clouds 11 1037 62 10000 3.1 130 15:38 31.12.2019
5270 Clouds 11 1037 62 10000 3.1 130 15:20 31.12.2019
5271 Clouds 10 1037 71 10000 2.1 140 14:58 31.12.2019
5272 Clouds 10 1037 71 10000 2.1 140 14:38 31.12.2019
5273 Clouds 10 1037 71 10000 2.1 140 14:19 31.12.2019
5274 Clouds 9 1036 81 6000 2.6 100 13:57 31.12.2019
5275 Clouds 9 1036 81 6000 2.6 100 13:39 31.12.2019
5276 Clouds 9 1036 81 6000 2.6 100 13:20 31.12.2019
5277 Fog 7 1036 93 4000 2.1 70 12:56 31.12.2019
5278 Fog 7 1036 93 4000 2.1 70 12:38 31.12.2019
5279 Fog 7 1036 93 4000 2.1 70 12:20 31.12.2019
5280 Fog 7 1035 93 6000 2.6 110 11:56 31.12.2019
5281 Fog 7 1035 93 6000 2.6 110 11:56 31.12.2019
5282 Fog 7 1035 93 6000 2.6 110 11:56 31.12.2019
5283 Fog 7 1035 93 6000 2.6 110 11:38 31.12.2019
5284 Fog 7 1035 93 6000 2.6 110 11:19 31.12.2019
5285 Fog 6 1034 93 3000 1.5 60 10:57 31.12.2019
5286 Fog 6 1034 93 3000 1.5 60 10:57 31.12.2019
5287 Fog 6 1034 93 3000 1.5 60 10:38 31.12.2019
5288 Fog 6 1034 93 3000 1.5 60 10:20 31.12.2019
5289 Fog 7 1035 93 4000 1 0 09:58 31.12.2019
5290 Fog 7 1035 93 4000 1 0 09:39 31.12.2019
5291 Fog 7 1035 93 4000 1 0 09:20 31.12.2019
5292 Fog 7 1035 93 3000 2.1 240 08:57 31.12.2019
5293 Fog 7 1035 93 3000 2.1 240 08:37 31.12.2019
5294 Fog 7 1035 93 3000 2.1 240 08:37 31.12.2019
5295 Fog 7 1035 93 3000 2.1 240 08:18 31.12.2019
5296 Fog 8 1035 87 4000 1 0 07:41 31.12.2019
5297 Fog 8 1035 87 4000 1 0 07:19 31.12.2019
5298 Fog 8 1036 93 4000 3.1 90 06:48 31.12.2019
5299 Fog 7 1036 93 4000 1 0 05:54 31.12.2019
5300 Fog 8 1036 87 4000 2.6 120 04:27 31.12.2019
5301 Clouds 9 1035 76 10000 4.1 70 03:27 31.12.2019
5302 Clouds 10 1035 71 10000 3.6 40 02:39 31.12.2019
5303 Clouds 10 1035 81 10000 4.1 100 01:53 31.12.2019
5304 Clouds 10 1035 81 10000 4.1 100 01:34 31.12.2019
5305 Thunderstorm 10 1034 76 10000 4.1 160 00:56 31.12.2019
5306 Thunderstorm 10 1034 76 10000 4.1 160 00:37 31.12.2019
5307 Thunderstorm 10 1034 76 10000 4.1 160 00:18 31.12.2019
5308 Thunderstorm 10 1034 76 10000 4.1 160 00:18 31.12.2019
5309 Thunderstorm 13 1034 62 10000 5.7 110 23:55 30.12.2019
5310 Thunderstorm 13 1034 62 10000 5.7 110 23:36 30.12.2019
5311 Thunderstorm 13 1034 62 10000 5.7 110 23:18 30.12.2019
5312 Thunderstorm 14 1033 50 10000 4.1 110 22:54 30.12.2019
5313 Thunderstorm 14 1033 50 10000 4.1 110 22:36 30.12.2019
5314 Thunderstorm 14 1033 50 10000 4.1 110 22:18 30.12.2019
5315 Thunderstorm 14 1033 50 10000 4.1 110 22:18 30.12.2019
5316 Thunderstorm 15 1033 44 10000 4.1 90 21:55 30.12.2019
5317 Thunderstorm 15 1033 44 10000 4.1 90 21:55 30.12.2019
5318 Clouds 17 1033 36 10000 4.6 100 21:36 30.12.2019
5319 Clouds 17 1033 36 10000 4.6 100 21:18 30.12.2019
5320 Clouds 16 1034 36 10000 4.6 140 20:41 30.12.2019
5321 Clouds 16 1034 36 10000 4.6 140 20:20 30.12.2019
5322 Clouds 13 1036 50 10000 2.1 130 19:59 30.12.2019
5323 Clouds 13 1036 50 10000 2.1 130 19:40 30.12.2019
5324 Clouds 13 1036 50 10000 2.1 130 19:20 30.12.2019
5325 Clouds 14 1036 50 10000 2.6 110 18:59 30.12.2019
5326 Clouds 14 1036 50 10000 2.6 110 18:41 30.12.2019
5327 Clouds 14 1036 50 10000 2.6 110 18:20 30.12.2019
5328 Clouds 13 1037 50 10000 4.6 120 17:58 30.12.2019
5329 Clouds 13 1037 50 10000 4.6 120 17:40 30.12.2019
5330 Clouds 13 1037 50 10000 4.6 120 17:19 30.12.2019
5331 Clouds 12 1038 58 10000 3.6 130 16:58 30.12.2019
5332 Clouds 12 1038 58 10000 3.6 130 16:37 30.12.2019
5333 Clouds 12 1038 58 10000 3.6 130 16:19 30.12.2019
5334 Clouds 10 1038 66 10000 3.6 120 15:56 30.12.2019
5335 Clouds 10 1038 66 10000 3.6 120 15:37 30.12.2019
5336 Clouds 10 1038 66 10000 3.6 120 15:18 30.12.2019
5337 Clouds 9 1038 70 10000 2.1 140 14:43 30.12.2019
5338 Clouds 9 1038 70 10000 2.1 140 14:20 30.12.2019
5339 Clouds 8 1037 70 10000 1 0 13:58 30.12.2019
5340 Clouds 8 1037 70 10000 1 0 13:40 30.12.2019
5341 Clouds 8 1037 70 10000 1 0 13:21 30.12.2019
5342 Clouds 8 1037 70 10000 1 0 13:21 30.12.2019
5343 Clouds 7 1037 75 10000 1 0 12:56 30.12.2019
5344 Clouds 7 1037 75 10000 1 0 12:37 30.12.2019
5345 Clouds 7 1037 75 10000 1 0 12:18 30.12.2019
5346 Clouds 7 1036 81 10000 1 0 11:42 30.12.2019
5347 Clouds 7 1036 81 10000 1 0 11:20 30.12.2019
5348 Clouds 6 1036 87 10000 1 0 10:58 30.12.2019
5349 Clouds 6 1036 87 10000 1 0 10:40 30.12.2019
5350 Clouds 6 1036 87 10000 1 0 10:40 30.12.2019
5351 Clouds 6 1036 87 10000 1 0 10:18 30.12.2019
5352 Clouds 6 1036 81 10000 2.6 40 09:42 30.12.2019
5353 Clouds 6 1036 81 10000 2.6 40 09:20 30.12.2019
5354 Clouds 5 1036 86 10000 3.1 60 08:55 30.12.2019
5355 Clouds 5 1036 86 10000 3.1 60 08:36 30.12.2019
5356 Clouds 5 1036 86 10000 3.1 60 08:18 30.12.2019
5357 Rain 5 1037 93 4000 4.6 70 07:41 30.12.2019
5358 Rain 5 1038 93 4000 4.6 100 06:58 30.12.2019
5359 Rain 5 1038 93 4000 4.6 100 06:23 30.12.2019
5360 Rain 5 1038 93 4000 4.6 100 06:23 30.12.2019
5361 Clouds 8 1038 75 10000 5.7 210 03:58 30.12.2019
5362 Clouds 8 1038 75 10000 5.7 210 03:32 30.12.2019
5363 Clouds 9 1037 76 10000 6.2 240 02:40 30.12.2019
5364 Clouds 10 1036 66 10000 2.6 110 01:56 30.12.2019
5365 Clouds 10 1036 66 10000 2.6 110 01:25 30.12.2019
5366 Clouds 11 1034 57 10000 3.6 40 00:45 30.12.2019
5367 Clouds 11 1034 57 10000 3.6 40 00:23 30.12.2019
5368 Clouds 11 1035 57 10000 4.6 180 23:39 29.12.2019
5369 Clouds 11 1035 57 10000 4.6 180 23:21 29.12.2019
5370 Clouds 13 1034 58 10000 5.7 100 22:55 29.12.2019
5371 Clouds 13 1034 58 10000 5.7 100 22:37 29.12.2019
5372 Clouds 13 1034 58 10000 5.7 100 22:18 29.12.2019
5373 Clouds 13 1034 58 10000 5.1 120 21:43 29.12.2019
5374 Clouds 13 1034 58 10000 5.1 120 21:21 29.12.2019
5375 Clouds 14 1035 54 10000 4.6 100 20:57 29.12.2019
5376 Clouds 14 1035 54 10000 4.6 100 20:39 29.12.2019
5377 Clouds 14 1035 54 10000 4.6 100 20:21 29.12.2019
5378 Clouds 13 1036 58 10000 5.1 100 19:59 29.12.2019
5379 Clouds 13 1036 58 10000 5.1 100 19:40 29.12.2019
5380 Clouds 13 1036 58 10000 5.1 100 19:21 29.12.2019
5381 Clouds 15 1037 51 10000 5.7 110 18:57 29.12.2019
5382 Clouds 15 1037 51 10000 5.7 110 18:38 29.12.2019
5383 Clouds 15 1037 51 10000 5.7 110 18:19 29.12.2019
5384 Clouds 13 1037 58 10000 5.7 100 17:58 29.12.2019
5385 Clouds 13 1037 58 10000 5.7 100 17:39 29.12.2019
5386 Clouds 13 1037 58 10000 5.7 100 17:20 29.12.2019
5387 Clouds 13 1038 58 10000 4.1 140 16:56 29.12.2019
5388 Clouds 13 1038 58 10000 4.1 140 16:37 29.12.2019
5389 Clouds 13 1038 58 10000 4.1 140 16:19 29.12.2019
5390 Clouds 29 1012 74 6000 5.1 340 15:57 29.12.2019
5391 Clouds 29 1012 74 6000 5.1 340 15:38 29.12.2019
5392 Clouds 29 1012 74 6000 5.1 340 15:19 29.12.2019
5393 Clouds 10 1037 71 6000 1 0 14:56 29.12.2019
5394 Clouds 10 1037 71 6000 1 0 14:38 29.12.2019
5395 Clouds 10 1037 71 6000 1 0 14:18 29.12.2019
5396 Clouds 10 1037 71 6000 1 0 14:18 29.12.2019
5397 Clouds 8 1037 81 6000 1 0 13:55 29.12.2019
5398 Clouds 8 1037 81 6000 1 0 13:55 29.12.2019
5399 Clouds 8 1037 81 6000 1 0 13:37 29.12.2019
5400 Clouds 8 1037 81 6000 1 0 13:18 29.12.2019
5401 Clouds 7 1037 81 6000 1 0 12:43 29.12.2019
5402 Clouds 7 1037 81 6000 1 0 12:25 29.12.2019
5403 Clouds 7 1037 81 6000 1 0 12:25 29.12.2019
5404 Fog 7 1036 87 4000 1 0 11:56 29.12.2019
5405 Fog 7 1036 87 4000 1 0 11:37 29.12.2019
5406 Fog 7 1036 87 4000 1 0 11:37 29.12.2019
5407 Fog 7 1036 87 4000 1 0 11:37 29.12.2019
5408 Fog 7 1036 87 4000 1 0 11:19 29.12.2019
5409 Fog 6 1036 93 4000 1 0 10:42 29.12.2019
5410 Fog 6 1036 93 4000 1 0 10:22 29.12.2019
5411 Clouds 4 1016 89 0 0.86 181 09:56 29.12.2019
5412 Clouds 4 1016 89 0 0.86 181 09:38 29.12.2019
5413 Fog 6 1036 93 4000 3.1 80 09:19 29.12.2019
5414 Fog 6 1036 93 4000 3.1 80 08:46 29.12.2019
5415 Fog 6 1036 93 4000 3.1 80 08:24 29.12.2019
5416 Clouds 6 1036 81 10000 3.1 70 07:54 29.12.2019
5417 Clouds 6 1036 81 10000 3.1 70 07:28 29.12.2019
5418 Clouds 7 1037 75 10000 2.6 80 06:53 29.12.2019
5419 Clouds 7 1037 75 10000 2.6 80 06:23 29.12.2019
5420 Clouds 8 1038 70 10000 1 0 05:50 29.12.2019
5421 Clouds 7 1038 75 10000 3.1 360 04:35 29.12.2019
5422 Clouds 6 1039 87 10000 4.1 300 03:40 29.12.2019
5423 Clouds 6 1039 87 10000 4.1 300 03:19 29.12.2019
5424 Clouds 9 1038 66 10000 4.6 170 02:19 29.12.2019
5425 Clouds 9 1036 76 10000 4.6 110 01:31 29.12.2019
5426 Clouds 9 1036 76 10000 4.6 110 01:31 29.12.2019
5427 Clouds 11 1034 66 10000 5.1 110 00:51 29.12.2019
5428 Clouds 11 1034 66 10000 5.1 110 00:27 29.12.2019
5429 Clouds 13 1034 58 10000 4.6 100 23:57 28.12.2019
5430 Clouds 13 1034 58 10000 4.6 100 23:39 28.12.2019
5431 Clouds 13 1034 58 10000 4.6 100 23:18 28.12.2019
5432 Clouds 15 1034 51 10000 4.1 110 22:39 28.12.2019
5433 Clouds 15 1034 51 10000 4.1 110 22:19 28.12.2019
5434 Thunderstorm 13 1035 54 10000 4.6 110 21:57 28.12.2019
5435 Thunderstorm 13 1035 54 10000 4.6 110 21:38 28.12.2019
5436 Thunderstorm 13 1035 54 10000 4.6 110 21:20 28.12.2019
5437 Clouds 15 1036 54 10000 5.1 120 20:55 28.12.2019
5438 Clouds 15 1036 54 10000 5.1 120 20:36 28.12.2019
5439 Clouds 15 1036 54 10000 5.1 120 20:18 28.12.2019
5440 Clouds 15 1036 47 10000 5.7 100 19:54 28.12.2019
5441 Clouds 15 1036 47 10000 5.7 100 19:36 28.12.2019
5442 Clouds 15 1036 47 10000 5.7 100 19:18 28.12.2019
5443 Clouds 14 1037 50 10000 5.7 130 18:43 28.12.2019
5444 Clouds 14 1037 50 10000 5.7 130 18:21 28.12.2019
5445 Clouds 14 1038 50 10000 5.1 110 17:59 28.12.2019
5446 Clouds 14 1038 50 10000 5.1 110 17:41 28.12.2019
5447 Clouds 14 1038 50 10000 5.1 110 17:21 28.12.2019
5448 Clouds 13 1038 54 10000 4.1 110 16:55 28.12.2019
5449 Clouds 13 1038 54 10000 4.1 110 16:36 28.12.2019
5450 Clouds 13 1038 54 10000 4.1 110 16:36 28.12.2019
5451 Clouds 13 1038 54 10000 4.1 110 16:18 28.12.2019
5452 Clouds 11 1038 62 10000 4.1 130 15:41 28.12.2019
5453 Clouds 11 1038 62 10000 4.1 130 15:21 28.12.2019
5454 Clouds 11 1038 62 10000 4.1 130 15:21 28.12.2019
5455 Clouds 9 1039 70 10000 3.6 100 14:48 28.12.2019
5456 Clouds 9 1039 70 10000 3.6 100 14:26 28.12.2019
5457 Clouds 8 1038 81 6000 2.6 90 13:58 28.12.2019
5458 Clouds 8 1038 81 6000 2.6 90 13:39 28.12.2019
5459 Clouds 8 1038 81 6000 2.6 90 13:20 28.12.2019
5460 Fog 6 1038 93 4000 2.1 100 12:56 28.12.2019
5461 Fog 6 1038 93 4000 2.1 100 12:37 28.12.2019
5462 Fog 6 1038 93 4000 2.1 100 12:19 28.12.2019
5463 Rain 6 1037 93 4000 4.1 100 11:40 28.12.2019
5464 Rain 6 1037 93 4000 4.1 100 11:21 28.12.2019
5465 Fog 6 1036 93 4000 3.6 130 10:47 28.12.2019
5466 Fog 6 1036 93 4000 3.6 130 10:23 28.12.2019
5467 Fog 6 1036 93 4000 2.6 90 09:58 28.12.2019
5468 Fog 6 1036 93 4000 2.6 90 09:40 28.12.2019
5469 Fog 6 1036 93 4000 2.6 90 09:21 28.12.2019
5470 Fog 7 1037 93 4000 2.6 80 08:45 28.12.2019
5471 Fog 7 1037 93 4000 2.6 80 08:27 28.12.2019
5472 Clouds 7 1037 87 10000 1 0 07:57 28.12.2019
5473 Clouds 7 1037 87 10000 1 0 07:39 28.12.2019
5474 Clouds 7 1038 87 10000 1 0 06:42 28.12.2019
5475 Clouds 7 1038 81 10000 2.6 110 05:19 28.12.2019
5476 Clouds 8 1038 81 10000 4.1 200 03:47 28.12.2019
5477 Clouds 9 1038 81 10000 3.6 220 02:49 28.12.2019
5478 Clouds 9 1038 81 10000 3.6 220 02:19 28.12.2019
5479 Clouds 9 1037 81 10000 2.1 230 01:42 28.12.2019
5480 Clouds 9 1037 81 10000 2.1 230 01:18 28.12.2019
5481 Clouds 9 1036 76 10000 1 0 00:40 28.12.2019
5482 Clouds 9 1036 76 10000 1 0 00:21 28.12.2019
5483 Clouds 10 1035 76 10000 2.1 180 23:45 27.12.2019
5484 Clouds 10 1035 76 10000 2.1 180 23:20 27.12.2019
5485 Clouds 12 1036 58 10000 3.6 230 22:58 27.12.2019
5486 Clouds 12 1036 58 10000 3.6 230 22:39 27.12.2019
5487 Clouds 12 1036 58 10000 3.6 230 22:20 27.12.2019
5488 Clouds 11 1037 66 10000 3.1 260 21:56 27.12.2019
5489 Clouds 11 1037 66 10000 3.1 260 21:37 27.12.2019
5490 Clouds 11 1037 66 10000 3.1 260 21:19 27.12.2019
5491 Rain 10 1037 71 10000 2.6 330 20:42 27.12.2019
5492 Rain 10 1037 71 10000 2.6 330 20:23 27.12.2019
5493 Clouds 11 1038 62 8000 5.1 40 19:43 27.12.2019
5494 Clouds 11 1038 62 8000 5.1 40 19:21 27.12.2019
5495 Clouds 11 1038 62 8000 5.1 40 19:21 27.12.2019
5496 Clouds 13 1038 50 10000 5.7 70 18:59 27.12.2019
5497 Clouds 13 1038 50 10000 5.7 70 18:39 27.12.2019
5498 Clouds 13 1038 50 10000 5.7 70 18:39 27.12.2019
5499 Clouds 13 1038 50 10000 5.7 70 18:21 27.12.2019
5500 Clouds 12 1039 62 10000 4.1 110 17:57 27.12.2019
5501 Clouds 12 1039 62 10000 4.1 110 17:39 27.12.2019
5502 Clouds 12 1039 62 10000 4.1 110 17:19 27.12.2019
5503 Clouds 11 1039 57 10000 4.1 170 16:58 27.12.2019
5504 Clouds 11 1039 57 10000 4.1 170 16:38 27.12.2019
5505 Clouds 11 1039 57 10000 4.1 170 16:19 27.12.2019
5506 Clouds 9 1040 70 10000 1 0 15:44 27.12.2019
5507 Clouds 9 1040 70 10000 1 0 15:22 27.12.2019
5508 Clouds 8 1039 75 10000 1 0 14:57 27.12.2019
5509 Clouds 8 1039 75 10000 1 0 14:39 27.12.2019
5510 Clouds 8 1039 75 10000 1 0 14:20 27.12.2019
5511 Clouds 8 1039 81 10000 1 0 13:48 27.12.2019
5512 Clouds 8 1039 81 10000 1 0 13:48 27.12.2019
5513 Clouds 8 1039 81 10000 1 0 13:25 27.12.2019
5514 Clouds 7 1039 81 10000 1 0 12:58 27.12.2019
5515 Clouds 7 1039 81 10000 1 0 12:40 27.12.2019
5516 Clouds 7 1039 81 10000 1 0 12:21 27.12.2019
5517 Clouds 6 1038 87 10000 1 0 11:45 27.12.2019
5518 Clouds 6 1038 87 10000 1 0 11:26 27.12.2019
5519 Clouds 6 1038 87 10000 2.1 280 10:56 27.12.2019
5520 Clouds 6 1038 87 10000 2.1 280 10:38 27.12.2019
5521 Clouds 6 1038 87 10000 2.1 280 10:20 27.12.2019
5522 Clouds 6 1038 87 10000 3.1 280 09:42 27.12.2019
5523 Clouds 6 1038 87 10000 3.1 280 09:21 27.12.2019
5524 Clouds 6 1038 87 10000 3.1 270 08:56 27.12.2019
5525 Clouds 6 1038 87 10000 3.1 270 08:36 27.12.2019
5526 Rain 7 1039 81 8000 3.6 310 07:51 27.12.2019
5527 Rain 7 1039 81 8000 3.6 310 07:31 27.12.2019
5528 Clouds 6 1039 87 10000 3.6 320 06:37 27.12.2019
5529 Clouds 7 1040 75 10000 6.7 310 05:28 27.12.2019
5530 Clouds 9 1039 76 10000 4.1 280 03:26 27.12.2019
5531 Clouds 10 1036 53 10000 3.1 100 01:59 27.12.2019
5532 Clouds 10 1036 53 10000 3.1 100 01:24 27.12.2019
5533 Clouds 11 1036 53 10000 4.6 70 00:58 27.12.2019
5534 Clouds 11 1036 53 10000 4.6 70 00:40 27.12.2019
5535 Clouds 11 1036 53 10000 4.6 70 00:21 27.12.2019
5536 Clouds 13 1035 43 10000 4.1 100 23:41 26.12.2019
5537 Clouds 13 1035 43 10000 4.1 100 23:22 26.12.2019
5538 Clouds 14 1035 41 10000 5.1 80 22:45 26.12.2019
5539 Clouds 14 1035 41 10000 5.1 80 22:23 26.12.2019
5540 Clouds 16 1035 38 10000 6.2 60 21:59 26.12.2019
5541 Clouds 16 1035 38 10000 6.2 60 21:38 26.12.2019
5542 Clouds 16 1035 38 10000 6.2 60 21:20 26.12.2019
5543 Clouds 15 1036 41 10000 5.7 60 20:46 26.12.2019
5544 Clouds 15 1036 41 10000 5.7 60 20:23 26.12.2019
5545 Clouds 16 1037 41 10000 5.1 100 19:59 26.12.2019
5546 Clouds 16 1037 41 10000 5.1 100 19:39 26.12.2019
5547 Clouds 16 1037 41 10000 5.1 100 19:39 26.12.2019
5548 Clouds 16 1037 41 10000 5.1 100 19:20 26.12.2019
5549 Clouds 15 1038 47 10000 4.6 110 18:57 26.12.2019
5550 Clouds 15 1038 47 10000 4.6 110 18:38 26.12.2019
5551 Clouds 15 1038 47 10000 4.6 110 18:19 26.12.2019
5552 Clouds 13 1039 54 10000 4.6 100 17:43 26.12.2019
5553 Clouds 13 1039 54 10000 4.6 100 17:22 26.12.2019
5554 Thunderstorm 14 1038 50 10000 5.1 100 16:58 26.12.2019
5555 Thunderstorm 14 1038 50 10000 5.1 100 16:39 26.12.2019
5556 Thunderstorm 14 1038 50 10000 5.1 100 16:20 26.12.2019
5557 Clouds 13 1039 58 10000 3.6 120 15:41 26.12.2019
5558 Clouds 13 1039 58 10000 3.6 120 15:20 26.12.2019
5559 Clouds 12 1039 66 8000 4.1 130 14:54 26.12.2019
5560 Clouds 12 1039 66 8000 4.1 130 14:36 26.12.2019
5561 Clouds 12 1039 66 8000 4.1 130 14:36 26.12.2019
5562 Clouds 12 1039 66 8000 4.1 130 14:18 26.12.2019
5563 Clouds 10 1039 71 6000 2.6 130 13:42 26.12.2019
5564 Clouds 10 1039 71 6000 2.6 130 13:19 26.12.2019
5565 Fog 8 1038 87 4000 3.6 80 12:56 26.12.2019
5566 Fog 8 1038 87 4000 3.6 80 12:37 26.12.2019
5567 Fog 8 1038 87 4000 3.6 80 12:18 26.12.2019
5568 Fog 7 1037 93 4000 3.6 100 11:43 26.12.2019
5569 Fog 7 1037 93 4000 3.6 100 11:23 26.12.2019
5570 Fog 5 1036 93 4000 2.6 90 10:57 26.12.2019
5571 Fog 5 1036 93 4000 2.6 90 10:57 26.12.2019
5572 Fog 5 1036 93 4000 2.6 90 10:39 26.12.2019
5573 Fog 5 1036 93 4000 2.6 90 10:18 26.12.2019
5574 Clouds 7 1037 70 10000 1.8 44 09:42 26.12.2019
5575 Clouds 7 1037 70 10000 1.8 44 09:24 26.12.2019
5576 Clouds 8 1037 65 10000 1 0 08:42 26.12.2019
5577 Clouds 8 1037 65 10000 1 0 08:23 26.12.2019
5578 Clouds 8 1037 65 10000 1 0 07:50 26.12.2019
5579 Clouds 8 1037 65 10000 1 0 07:26 26.12.2019
5580 Clouds 9 1038 61 10000 1 0 06:44 26.12.2019
5581 Clouds 9 1038 61 10000 1 0 06:25 26.12.2019
5582 Clouds 9 1038 61 10000 2.1 220 05:43 26.12.2019
5583 Clouds 9 1039 66 10000 1 200 04:38 26.12.2019
5584 Clouds 10 1038 61 10000 2.1 120 03:46 26.12.2019
5585 Clouds 11 1037 53 10000 3.1 120 02:49 26.12.2019
5586 Clouds 11 1037 53 10000 3.1 120 02:31 26.12.2019
5587 Clouds 11 1037 53 10000 3.1 120 02:31 26.12.2019
5588 Clouds 11 1035 82 10000 4.6 80 01:45 26.12.2019
5589 Clouds 11 1035 82 10000 4.6 80 01:26 26.12.2019
5590 Clouds 12 1034 46 10000 5.1 90 00:47 26.12.2019
5591 Clouds 12 1034 46 10000 5.1 90 00:23 26.12.2019
5592 Clouds 13 1033 37 10000 5.1 40 23:58 25.12.2019
5593 Clouds 13 1033 37 10000 5.1 40 23:37 25.12.2019
5594 Clouds 13 1033 37 10000 5.1 40 23:19 25.12.2019
5595 Clouds 13 1033 37 10000 5.1 40 23:19 25.12.2019
5596 Clouds 14 1032 58 10000 6.7 40 22:57 25.12.2019
5597 Clouds 14 1032 58 10000 6.7 40 22:37 25.12.2019
5598 Clouds 14 1032 58 10000 6.7 40 22:19 25.12.2019
5599 Clouds 16 1033 58 10000 7.2 40 21:55 25.12.2019
5600 Clouds 16 1033 58 10000 7.2 40 21:37 25.12.2019
5601 Clouds 16 1033 58 10000 7.2 40 21:19 25.12.2019
5602 Clouds 18 1033 58 10000 4.1 90 20:40 25.12.2019
5603 Clouds 18 1033 65 10000 4.1 90 20:21 25.12.2019
5604 Clouds 16 1034 36 10000 5.7 70 19:59 25.12.2019
5605 Clouds 16 1034 36 10000 5.7 70 19:41 25.12.2019
5606 Clouds 16 1034 36 10000 5.7 70 19:21 25.12.2019
5607 Clouds 17 1035 65 10000 2.1 360 18:40 25.12.2019
5608 Clouds 17 1035 65 10000 2.1 360 18:21 25.12.2019
5609 Clouds 17 1035 65 10000 2.1 360 18:21 25.12.2019
5610 Clouds 16 1037 36 10000 3.6 260 17:57 25.12.2019
5611 Clouds 16 1037 36 10000 3.6 260 17:39 25.12.2019
5612 Clouds 16 1037 36 10000 3.6 260 17:18 25.12.2019
5613 Clouds 14 1037 41 10000 2.1 230 16:39 25.12.2019
5614 Clouds 14 1037 41 10000 2.1 230 16:20 25.12.2019
5615 Clouds 14 1038 47 10000 2.1 240 15:58 25.12.2019
5616 Clouds 14 1038 47 10000 2.1 240 15:40 25.12.2019
5617 Clouds 14 1038 47 10000 2.1 240 15:21 25.12.2019
5618 Clouds 13 1038 54 10000 1 0 14:59 25.12.2019
5619 Clouds 13 1038 54 10000 1 0 14:40 25.12.2019
5620 Clouds 13 1038 54 10000 1 0 14:21 25.12.2019
5621 Clouds 11 1037 66 10000 1 0 13:57 25.12.2019
5622 Clouds 11 1037 66 10000 1 0 13:38 25.12.2019
5623 Clouds 11 1037 66 10000 1 0 13:19 25.12.2019
5624 Fog 7 1037 93 4000 1.5 80 12:42 25.12.2019
5625 Fog 7 1037 93 4000 1.5 80 12:20 25.12.2019
5626 Clouds 3 1036 93 10000 1.5 60 11:56 25.12.2019
5627 Clouds 3 1036 93 10000 1.5 60 11:56 25.12.2019
5628 Clouds 3 1036 93 10000 1.5 60 11:38 25.12.2019
5629 Clouds 3 1036 93 10000 1.5 60 11:18 25.12.2019
5630 Fog 6 1035 93 4000 1.5 140 10:38 25.12.2019
5631 Fog 6 1035 93 4000 1.5 140 10:20 25.12.2019
5632 Fog 5 1035 86 4000 1 0 09:51 25.12.2019
5633 Fog 5 1035 86 4000 1 0 09:32 25.12.2019
5634 Fog 6 1036 93 4000 1 0 08:51 25.12.2019
5635 Fog 6 1036 93 4000 1 0 08:31 25.12.2019
5636 Fog 5 1036 100 4000 2.6 10 07:50 25.12.2019
5637 Fog 4 1037 93 4000 1 0 07:32 25.12.2019
5638 Fog 4 1037 93 4000 1 0 06:51 25.12.2019
5639 Fog 4 1037 93 4000 1 0 06:23 25.12.2019
5640 Clouds 5 1037 86 10000 1 0 05:18 25.12.2019
5641 Clouds 7 1037 81 10000 1 0 04:39 25.12.2019
5642 Clouds 7 1037 81 10000 1 0 04:20 25.12.2019
5643 Clouds 8 1036 75 10000 2.6 110 03:41 25.12.2019
5644 Clouds 9 1036 61 10000 2.6 60 02:53 25.12.2019
5645 Clouds 9 1036 61 10000 2.6 60 02:20 25.12.2019
5646 Clouds 10 1035 53 10000 2.6 70 01:25 25.12.2019
5647 Clouds 13 1034 43 10000 4.1 110 00:53 25.12.2019
5648 Clouds 13 1034 43 10000 4.1 110 00:30 25.12.2019
5649 Clouds 15 1033 41 10000 3.6 140 23:56 24.12.2019
5650 Clouds 15 1033 41 10000 3.6 140 23:38 24.12.2019
5651 Clouds 15 1033 41 10000 3.6 140 23:20 24.12.2019
5652 Thunderstorm 15 1033 30 10000 2.1 340 22:40 24.12.2019
5653 Thunderstorm 15 1033 30 10000 2.1 340 22:21 24.12.2019
5654 Clouds 18 1033 31 10000 4.6 130 21:43 24.12.2019
5655 Clouds 18 1033 31 10000 4.6 130 21:23 24.12.2019
5656 Clouds 16 1034 31 10000 2.1 140 20:55 24.12.2019
5657 Clouds 16 1034 31 10000 2.1 140 20:36 24.12.2019
5658 Clouds 16 1034 31 10000 2.1 140 20:18 24.12.2019
5659 Clouds 16 1035 31 10000 3.6 130 19:43 24.12.2019
5660 Clouds 16 1035 31 10000 3.6 130 19:19 24.12.2019
5661 Clouds 16 1036 31 10000 4.1 100 18:43 24.12.2019
5662 Clouds 16 1036 31 10000 4.1 100 18:24 24.12.2019
5663 Clouds 16 1037 57 10000 4.1 160 17:58 24.12.2019
5664 Clouds 16 1037 57 10000 4.1 160 17:37 24.12.2019
5665 Clouds 16 1037 47 10000 4.1 160 17:19 24.12.2019
5666 Clouds 14 1038 41 10000 3.1 170 16:55 24.12.2019
5667 Clouds 14 1038 41 10000 3.1 170 16:36 24.12.2019
5668 Clouds 14 1038 41 10000 3.1 170 16:18 24.12.2019
5669 Clouds 13 1039 50 10000 2.6 140 15:54 24.12.2019
5670 Clouds 13 1039 50 10000 2.6 140 15:36 24.12.2019
5671 Clouds 13 1039 50 10000 2.6 140 15:36 24.12.2019
5672 Clouds 13 1039 50 10000 2.6 140 15:18 24.12.2019
5673 Clouds 12 1039 58 10000 2.1 150 14:41 24.12.2019
5674 Clouds 12 1039 58 10000 2.1 150 14:22 24.12.2019
5675 Clouds 10 1039 61 10000 1 0 13:57 24.12.2019
5676 Clouds 10 1039 61 10000 1 0 13:39 24.12.2019
5677 Clouds 10 1039 61 10000 1 0 13:21 24.12.2019
5678 Clouds 7 1038 87 10000 2.1 60 12:58 24.12.2019
5679 Clouds 7 1038 87 10000 2.1 60 12:58 24.12.2019
5680 Clouds 7 1038 87 10000 2.1 60 12:38 24.12.2019
5681 Clouds 7 1038 87 10000 2.1 60 12:19 24.12.2019
5682 Fog 5 1037 93 4000 3.1 80 11:58 24.12.2019
5683 Fog 5 1037 93 4000 3.1 80 11:38 24.12.2019
5684 Fog 5 1037 93 4000 3.1 80 11:20 24.12.2019
5685 Fog 5 1037 93 4000 3.6 90 10:57 24.12.2019
5686 Fog 5 1037 93 4000 3.6 90 10:38 24.12.2019
5687 Fog 5 1037 93 4000 3.6 90 10:20 24.12.2019
5688 Fog 5 1037 93 4000 3.1 80 09:59 24.12.2019
5689 Fog 5 1037 93 4000 3.1 80 09:41 24.12.2019
5690 Fog 5 1037 93 4000 3.1 80 09:22 24.12.2019
5691 Fog 6 1037 93 4000 3.1 80 08:56 24.12.2019
5692 Fog 6 1037 93 4000 3.1 80 08:37 24.12.2019
5693 Fog 6 1037 93 4000 3.1 80 08:18 24.12.2019
5694 Fog 6 1038 93 4000 4.1 80 07:43 24.12.2019
5695 Fog 6 1038 93 4000 4.1 80 07:21 24.12.2019
5696 Fog 7 1038 93 4000 1 0 06:40 24.12.2019
5697 Fog 7 1038 93 4000 1 0 06:22 24.12.2019
5698 Fog 7 1039 93 4000 2.1 100 05:55 24.12.2019
5699 Fog 7 1039 93 4000 2.1 100 05:19 24.12.2019
5700 Fog 7 1039 93 4000 3.1 70 04:21 24.12.2019
5701 Clouds 9 1039 81 10000 3.1 110 03:48 24.12.2019
5702 Clouds 10 1038 81 10000 2.1 70 02:29 24.12.2019
5703 Clouds 11 1037 66 10000 3.1 110 01:55 24.12.2019
5704 Clouds 11 1037 66 10000 3.1 110 01:26 24.12.2019
5705 Clouds 12 1036 62 10000 4.1 100 00:58 24.12.2019
5706 Clouds 12 1036 62 10000 4.1 100 00:39 24.12.2019
5707 Clouds 12 1036 62 10000 4.1 100 00:20 24.12.2019
5708 Clouds 14 1035 41 10000 5.1 40 23:42 23.12.2019
5709 Clouds 14 1035 41 10000 5.1 40 23:24 23.12.2019
5710 Clouds 16 1035 38 10000 5.1 60 22:57 23.12.2019
5711 Clouds 16 1035 38 10000 5.1 60 22:38 23.12.2019
5712 Clouds 16 1035 38 10000 5.1 60 22:38 23.12.2019
5713 Clouds 16 1035 38 10000 5.1 60 22:20 23.12.2019
5714 Clouds 14 1035 47 10000 3.1 40 21:56 23.12.2019
5715 Clouds 14 1035 47 10000 3.1 40 21:37 23.12.2019
5716 Clouds 14 1035 47 10000 3.1 40 21:19 23.12.2019
5717 Clouds 14 1035 47 10000 3.1 40 21:19 23.12.2019
5718 Clouds 13 1036 50 10000 3.6 270 20:58 23.12.2019
5719 Clouds 13 1036 50 10000 3.6 270 20:40 23.12.2019
5720 Thunderstorm 12 1036 62 10000 5.1 300 20:18 23.12.2019
5721 Thunderstorm 17 1036 45 10000 4.6 60 19:56 23.12.2019
5722 Thunderstorm 17 1036 45 10000 4.6 60 19:38 23.12.2019
5723 Thunderstorm 17 1036 45 10000 4.6 60 19:19 23.12.2019
5724 Clouds 16 1037 48 10000 4.6 130 18:58 23.12.2019
5725 Clouds 16 1037 48 10000 4.6 130 18:39 23.12.2019
5726 Clouds 16 1037 48 10000 4.6 130 18:20 23.12.2019
5727 Clouds 15 1038 54 10000 3.6 100 17:57 23.12.2019
5728 Clouds 15 1038 54 10000 3.6 100 17:38 23.12.2019
5729 Clouds 15 1038 54 10000 3.6 100 17:19 23.12.2019
5730 Clouds 15 1038 54 10000 3.6 100 17:19 23.12.2019
5731 Clouds 13 1039 62 10000 4.1 140 16:55 23.12.2019
5732 Clouds 13 1039 62 10000 4.1 140 16:55 23.12.2019
5733 Clouds 13 1039 62 10000 4.1 140 16:36 23.12.2019
5734 Clouds 13 1039 62 10000 4.1 140 16:18 23.12.2019
5735 Clouds 12 1039 66 10000 3.6 90 15:55 23.12.2019
5736 Clouds 12 1039 66 10000 3.6 90 15:36 23.12.2019
5737 Clouds 12 1039 66 10000 3.6 90 15:18 23.12.2019
5738 Clouds 11 1039 66 10000 4.1 90 14:45 23.12.2019
5739 Clouds 11 1039 66 10000 4.1 90 14:26 23.12.2019
5740 Fog 9 1038 87 4000 2.6 90 13:59 23.12.2019
5741 Fog 9 1038 87 4000 2.6 90 13:41 23.12.2019
5742 Fog 9 1038 87 4000 2.6 90 13:22 23.12.2019
5743 Fog 9 1038 87 4000 2.6 90 13:22 23.12.2019
5744 Fog 6 1038 93 4000 3.1 80 12:58 23.12.2019
5745 Fog 6 1038 93 4000 3.1 80 12:39 23.12.2019
5746 Fog 6 1038 93 4000 3.1 80 12:20 23.12.2019
5747 Fog 6 1037 93 4000 3.1 80 11:45 23.12.2019
5748 Fog 6 1037 93 4000 3.1 80 11:26 23.12.2019
5749 Fog 5 1037 93 3000 3.1 60 10:59 23.12.2019
5750 Fog 5 1037 93 3000 3.1 60 10:41 23.12.2019
5751 Fog 5 1037 93 3000 3.1 60 10:21 23.12.2019
5752 Fog 4 1036 93 4000 2.6 80 09:59 23.12.2019
5753 Fog 4 1036 93 4000 2.6 80 09:40 23.12.2019
5754 Fog 4 1036 93 4000 2.6 80 09:21 23.12.2019
5755 Fog 5 1037 93 4000 2.6 70 08:56 23.12.2019
5756 Fog 5 1037 93 4000 2.6 70 08:38 23.12.2019
5757 Fog 5 1037 93 4000 2.6 70 08:20 23.12.2019
5758 Fog 6 1037 93 4000 3.1 70 07:43 23.12.2019
5759 Fog 6 1037 93 4000 3.1 70 07:20 23.12.2019
5760 Fog 5 1038 86 4000 1 0 06:53 23.12.2019
5761 Clouds 7 1038 75 10000 2.1 30 06:25 23.12.2019
5762 Clouds 7 1038 75 10000 2.1 30 05:50 23.12.2019
5763 Clouds 7 1038 75 10000 2.1 30 05:27 23.12.2019
5764 Clouds 8 1039 81 10000 1 0 04:31 23.12.2019
5765 Clouds 7 1038 70 10000 1.5 60 02:58 23.12.2019
5766 Clouds 7 1038 70 10000 1.5 60 02:40 23.12.2019
5767 Clouds 7 1038 70 10000 1.5 60 02:18 23.12.2019
5768 Clouds 9 1037 61 10000 4.6 60 01:41 23.12.2019
5769 Clouds 9 1037 61 10000 4.6 60 01:19 23.12.2019
5770 Clouds 11 1035 53 10000 5.1 50 00:41 23.12.2019
5771 Clouds 11 1035 53 10000 5.1 50 00:19 23.12.2019
5772 Clouds 14 1035 47 10000 5.7 50 23:39 22.12.2019
5773 Clouds 14 1035 47 10000 5.7 50 23:39 22.12.2019
5774 Clouds 14 1035 47 10000 5.7 50 23:20 22.12.2019
5775 Clouds 15 1034 41 10000 6.7 50 22:58 22.12.2019
5776 Clouds 15 1034 41 10000 6.7 50 22:39 22.12.2019
5777 Clouds 15 1034 41 10000 6.7 50 22:19 22.12.2019
5778 Clouds 13 1035 50 10000 4.1 50 21:57 22.12.2019
5779 Clouds 13 1035 50 10000 4.1 50 21:39 22.12.2019
5780 Clouds 13 1035 50 10000 4.1 50 21:20 22.12.2019
5781 Thunderstorm 12 1036 50 10000 5.7 40 20:56 22.12.2019
5782 Thunderstorm 12 1036 50 10000 5.7 40 20:38 22.12.2019
5783 Thunderstorm 12 1036 50 10000 5.7 40 20:18 22.12.2019
5784 Clouds 16 1036 44 10000 1 0 19:41 22.12.2019
5785 Clouds 16 1036 44 10000 1 0 19:21 22.12.2019
5786 Thunderstorm 16 1036 48 10000 3.6 60 18:58 22.12.2019
5787 Thunderstorm 16 1036 48 10000 3.6 60 18:38 22.12.2019
5788 Clouds 17 1037 42 10000 3.6 110 18:19 22.12.2019
5789 Clouds 16 1037 51 10000 4.6 90 17:55 22.12.2019
5790 Clouds 16 1037 51 10000 4.6 90 17:37 22.12.2019
5791 Clouds 16 1037 51 10000 4.6 90 17:18 22.12.2019
5792 Clouds 14 1038 58 10000 4.1 90 16:43 22.12.2019
5793 Clouds 14 1038 58 10000 4.1 90 16:43 22.12.2019
5794 Clouds 14 1038 58 10000 4.1 90 16:23 22.12.2019
5795 Clouds 13 1038 62 10000 3.1 90 15:59 22.12.2019
5796 Clouds 13 1038 62 10000 3.1 90 15:59 22.12.2019
5797 Clouds 13 1038 62 10000 3.1 90 15:39 22.12.2019
5798 Clouds 13 1038 62 10000 3.1 90 15:21 22.12.2019
5799 Clouds 13 1038 62 10000 3.1 90 15:21 22.12.2019
5800 Clouds 10 1039 71 6000 4.6 90 14:59 22.12.2019
5801 Clouds 10 1039 71 6000 4.6 90 14:39 22.12.2019
5802 Clouds 10 1039 71 6000 4.6 90 14:19 22.12.2019
5803 Clouds 8 1038 87 6000 4.1 100 13:56 22.12.2019
5804 Clouds 8 1038 87 6000 4.1 100 13:38 22.12.2019
5805 Clouds 8 1038 87 6000 4.1 100 13:19 22.12.2019
5806 Fog 7 1037 93 4000 3.6 80 12:57 22.12.2019
5807 Fog 7 1037 93 4000 3.6 80 12:57 22.12.2019
5808 Fog 7 1037 93 4000 3.6 80 12:38 22.12.2019
5809 Fog 7 1037 93 4000 3.6 80 12:19 22.12.2019
5810 Fog 7 1037 93 4000 3.6 80 12:19 22.12.2019
5811 Fog 7 1037 93 4000 3.6 80 12:19 22.12.2019
5812 Fog 6 1037 93 4000 2.6 120 11:58 22.12.2019
5813 Fog 6 1037 93 4000 2.6 120 11:39 22.12.2019
5814 Fog 6 1037 93 4000 2.6 120 11:19 22.12.2019
5815 Fog 6 1036 93 4000 2.6 100 10:57 22.12.2019
5816 Fog 6 1036 93 4000 2.6 100 10:38 22.12.2019
5817 Fog 6 1036 93 4000 2.6 100 10:19 22.12.2019
5818 Fog 6 1035 93 4000 2.1 60 09:57 22.12.2019
5819 Fog 6 1035 93 4000 2.1 60 09:57 22.12.2019
5820 Fog 6 1035 93 4000 2.1 60 09:39 22.12.2019
5821 Fog 6 1035 93 4000 2.1 60 09:20 22.12.2019
5822 Rain 5 1016 91 0 2.18 42 08:45 22.12.2019
5823 Clouds 7 1036 87 10000 3.1 320 08:22 22.12.2019
5824 Clouds 7 1036 87 10000 3.1 320 07:44 22.12.2019
5825 Clouds 7 1036 87 10000 3.1 320 07:21 22.12.2019
5826 Clouds 7 1036 87 10000 3.1 320 07:21 22.12.2019
5827 Clouds 7 1036 87 10000 3.1 320 07:21 22.12.2019
5828 Clouds 8 1037 75 10000 1.5 330 06:55 22.12.2019
5829 Clouds 8 1037 75 10000 1.5 330 06:26 22.12.2019
5830 Clouds 8 1038 87 10000 2.1 280 05:33 22.12.2019
5831 Clouds 8 1038 81 10000 4.1 10 04:55 22.12.2019
5832 Clouds 8 1038 81 10000 4.1 10 04:25 22.12.2019
5833 Clouds 9 1035 76 10000 4.6 90 02:46 22.12.2019
5834 Clouds 9 1035 76 10000 4.6 90 02:21 22.12.2019
5835 Clouds 9 1034 66 10000 7.2 50 01:31 22.12.2019
5836 Thunderstorm 10 1035 61 8000 3.6 200 00:54 22.12.2019
5837 Thunderstorm 10 1035 61 8000 3.6 200 00:36 22.12.2019
5838 Thunderstorm 10 1035 61 8000 3.6 200 00:18 22.12.2019
5839 Thunderstorm 11 1035 57 8000 4.6 200 23:40 21.12.2019
5840 Clouds 12 1034 58 10000 3.1 70 23:21 21.12.2019
5841 Clouds 12 1033 54 10000 4.6 50 22:47 21.12.2019
5842 Clouds 12 1033 54 10000 4.6 50 22:20 21.12.2019
5843 Clouds 13 1033 50 10000 5.1 40 21:59 21.12.2019
5844 Clouds 13 1033 50 10000 5.1 40 21:40 21.12.2019
5845 Clouds 13 1033 50 10000 5.1 40 21:40 21.12.2019
5846 Clouds 13 1033 50 10000 5.1 40 21:21 21.12.2019
5847 Clouds 16 1034 44 10000 2.6 150 20:59 21.12.2019
5848 Clouds 16 1034 44 10000 2.6 150 20:59 21.12.2019
5849 Clouds 16 1034 44 10000 2.6 150 20:41 21.12.2019
5850 Clouds 16 1034 44 10000 2.6 150 20:22 21.12.2019
5851 Thunderstorm 15 1034 47 10000 1 0 19:59 21.12.2019
5852 Thunderstorm 15 1034 47 10000 1 0 19:59 21.12.2019
5853 Thunderstorm 15 1034 47 10000 1 0 19:41 21.12.2019
5854 Thunderstorm 14 1035 50 10000 1 0 19:41 21.12.2019
5855 Thunderstorm 14 1035 50 10000 1 0 19:20 21.12.2019
5856 Thunderstorm 12 1036 62 10000 5.1 100 18:59 21.12.2019
5857 Thunderstorm 12 1036 62 10000 5.1 100 18:40 21.12.2019
5858 Thunderstorm 12 1036 62 10000 5.1 100 18:22 21.12.2019
5859 Thunderstorm 14 1036 50 10000 2.1 190 17:55 21.12.2019
5860 Thunderstorm 14 1036 50 10000 2.1 190 17:37 21.12.2019
5861 Thunderstorm 14 1036 50 10000 2.1 190 17:18 21.12.2019
5862 Clouds 14 1037 54 10000 3.6 280 16:41 21.12.2019
5863 Clouds 14 1037 54 10000 3.6 280 16:19 21.12.2019
5864 Clouds 12 1038 62 10000 3.1 280 15:58 21.12.2019
5865 Clouds 12 1038 62 10000 3.1 280 15:39 21.12.2019
5866 Clouds 12 1038 62 10000 3.1 280 15:20 21.12.2019
5867 Clouds 11 1038 66 10000 2.1 260 14:59 21.12.2019
5868 Clouds 11 1038 66 10000 2.1 260 14:40 21.12.2019
5869 Clouds 11 1038 66 10000 2.1 260 14:22 21.12.2019
5870 Clouds 8 1037 81 10000 1 0 13:57 21.12.2019
5871 Clouds 8 1037 81 10000 1 0 13:38 21.12.2019
5872 Clouds 8 1037 81 10000 1 0 13:18 21.12.2019
5873 Clouds 6 1036 87 10000 1 0 12:56 21.12.2019
5874 Clouds 6 1036 87 10000 1 0 12:37 21.12.2019
5875 Clouds 6 1036 87 10000 1 0 12:19 21.12.2019
5876 Clouds 5 1035 93 10000 1 0 11:45 21.12.2019
5877 Clouds 5 1035 93 10000 1 0 11:26 21.12.2019
5878 Clouds 5 1035 93 10000 2.6 120 10:57 21.12.2019
5879 Clouds 5 1035 93 10000 2.6 120 10:39 21.12.2019
5880 Clouds 5 1035 93 10000 2.6 120 10:21 21.12.2019
5881 Clouds 5 1035 93 10000 1 0 09:56 21.12.2019
5882 Clouds 5 1035 93 10000 1 0 09:37 21.12.2019
5883 Clouds 5 1035 93 10000 1 0 09:18 21.12.2019
5884 Clouds 4 1035 93 10000 1 0 08:44 21.12.2019
5885 Clouds 4 1035 93 10000 1.5 30 08:25 21.12.2019
5886 Clouds 4 1035 93 10000 1.5 30 07:46 21.12.2019
5887 Clouds 4 1035 93 10000 1.5 30 07:22 21.12.2019
5888 Clouds 5 1036 93 10000 1.22 11 06:46 21.12.2019
5889 Clouds 5 1036 93 10000 1.22 11 06:26 21.12.2019
5890 Clouds 6 1037 87 10000 2.1 240 05:55 21.12.2019
5891 Clouds 7 1037 87 10000 2.6 70 04:58 21.12.2019
5892 Clouds 7 1037 87 10000 2.6 70 04:58 21.12.2019
5893 Clouds 8 1037 70 10000 4.6 340 03:59 21.12.2019
5894 Clouds 8 1037 70 10000 4.6 340 03:18 21.12.2019
5895 Clouds 7 1038 81 10000 3.1 340 02:18 21.12.2019
5896 Rain 7 1038 87 6000 3.1 170 01:38 21.12.2019
5897 Rain 7 1038 87 6000 3.1 170 01:20 21.12.2019
5898 Thunderstorm 7 1035 81 6000 6.7 150 00:37 21.12.2019
5899 Thunderstorm 7 1035 81 6000 6.7 150 00:18 21.12.2019
5900 Thunderstorm 9 1034 70 8000 7.7 180 23:38 20.12.2019
5901 Thunderstorm 9 1034 70 8000 7.7 180 23:19 20.12.2019
5902 Clouds 14 1033 54 10000 5.1 250 22:41 20.12.2019
5903 Clouds 15 1032 41 10000 1 0 22:21 20.12.2019
5904 Clouds 14 1033 47 10000 3.1 40 21:59 20.12.2019
5905 Clouds 14 1033 47 10000 3.1 40 21:40 20.12.2019
5906 Clouds 14 1033 47 10000 3.1 40 21:20 20.12.2019
5907 Clouds 14 1034 50 10000 2.1 330 20:41 20.12.2019
5908 Clouds 14 1034 50 10000 2.1 330 20:21 20.12.2019
5909 Clouds 14 1035 44 10000 2.1 130 19:59 20.12.2019
5910 Clouds 14 1035 44 10000 2.1 130 19:40 20.12.2019
5911 Clouds 14 1035 44 10000 2.1 130 19:19 20.12.2019
5912 Rain 10 1036 76 10000 3.1 290 18:54 20.12.2019
5913 Rain 10 1036 76 10000 3.1 290 18:36 20.12.2019
5914 Rain 10 1036 76 10000 3.1 290 18:18 20.12.2019
5915 Thunderstorm 12 1037 54 8000 3.6 70 17:42 20.12.2019
5916 Thunderstorm 12 1037 54 8000 3.6 70 17:21 20.12.2019
5917 Clouds 13 1037 62 10000 3.6 130 16:59 20.12.2019
5918 Clouds 13 1037 62 10000 3.6 130 16:39 20.12.2019
5919 Clouds 13 1037 62 10000 3.6 130 16:20 20.12.2019
5920 Clouds 10 1038 76 10000 2.6 120 15:56 20.12.2019
5921 Clouds 10 1038 76 10000 2.6 120 15:38 20.12.2019
5922 Clouds 10 1038 76 10000 2.6 120 15:19 20.12.2019
5923 Fog 9 1038 87 4000 2.1 110 14:43 20.12.2019
5924 Fog 9 1038 87 4000 2.1 110 14:25 20.12.2019
5925 Fog 8 1038 87 4000 3.1 120 13:59 20.12.2019
5926 Fog 8 1038 87 4000 3.1 120 13:41 20.12.2019
5927 Fog 8 1038 87 4000 3.1 120 13:20 20.12.2019
5928 Fog 7 1037 87 4000 1.23 75 12:57 20.12.2019
5929 Fog 7 1037 87 4000 1.23 75 12:37 20.12.2019
5930 Fog 7 1037 87 4000 1.23 75 12:18 20.12.2019
5931 Fog 6 1036 93 4000 1.23 75 11:57 20.12.2019
5932 Fog 6 1036 93 4000 1.23 75 11:39 20.12.2019
5933 Fog 6 1036 93 4000 0.06 331 11:18 20.12.2019
5934 Rain 7 1036 87 4000 1 0 10:56 20.12.2019
5935 Rain 7 1036 87 4000 1 0 10:38 20.12.2019
5936 Rain 7 1036 87 4000 1 0 10:20 20.12.2019
5937 Rain 7 1036 87 4000 1 0 10:20 20.12.2019
5938 Fog 7 1035 93 4000 1.5 80 09:43 20.12.2019
5939 Fog 7 1035 93 4000 1.5 80 09:22 20.12.2019
5940 Fog 7 1036 93 4000 1 0 08:58 20.12.2019
5941 Fog 7 1036 93 4000 1 0 08:40 20.12.2019
5942 Fog 7 1036 93 4000 1 0 08:21 20.12.2019
5943 Fog 7 1036 87 4000 1 0 07:57 20.12.2019
5944 Fog 7 1036 87 4000 1 0 07:57 20.12.2019
5945 Clouds 5 1016 84 0 0.19 123 07:38 20.12.2019
5946 Clouds 8 1037 81 10000 1 0 07:18 20.12.2019
5947 Clouds 8 1037 81 10000 1 0 06:46 20.12.2019
5948 Clouds 8 1037 81 10000 1 0 06:28 20.12.2019
5949 Clouds 8 1038 75 10000 1 0 05:48 20.12.2019
5950 Clouds 8 1038 75 10000 1 0 05:18 20.12.2019
5951 Clouds 8 1038 81 10000 1 0 03:49 20.12.2019
5952 Clouds 8 1038 81 10000 1 0 03:20 20.12.2019
5953 Clouds 9 1037 70 10000 1 0 02:20 20.12.2019
5954 Clouds 8 1036 81 10000 1 0 01:36 20.12.2019
5955 Clouds 9 1035 76 10000 2.1 70 00:56 20.12.2019
5956 Clouds 9 1035 76 10000 2.1 70 00:35 20.12.2019
5957 Clouds 10 1035 66 10000 3.1 60 23:58 19.12.2019
5958 Clouds 10 1035 66 10000 3.1 60 23:40 19.12.2019
5959 Clouds 10 1035 66 10000 3.1 60 23:19 19.12.2019
5960 Clouds 10 1035 71 10000 4.1 70 22:40 19.12.2019
5961 Clouds 10 1035 71 10000 4.1 70 22:21 19.12.2019
5962 Rain 8 1035 87 8000 3.1 70 21:56 19.12.2019
5963 Rain 8 1035 87 8000 3.1 70 21:38 19.12.2019
5964 Thunderstorm 8 1036 87 8000 3.1 290 21:19 19.12.2019
5965 Thunderstorm 8 1036 87 8000 3.1 290 20:56 19.12.2019
5966 Thunderstorm 8 1036 87 8000 3.1 290 20:37 19.12.2019
5967 Thunderstorm 8 1036 87 8000 3.1 290 20:19 19.12.2019
5968 Thunderstorm 8 1036 87 6000 3.6 280 19:58 19.12.2019
5969 Clouds 8 1036 81 8000 5.1 290 19:39 19.12.2019
5970 Clouds 8 1036 81 8000 5.1 290 19:19 19.12.2019
5971 Clouds 8 1036 81 8000 5.1 290 19:19 19.12.2019
5972 Thunderstorm 11 1036 71 8000 6.7 70 18:56 19.12.2019
5973 -273 0 0 0 0 0 18:38 19.12.2019
5974 Thunderstorm 11 1036 71 8000 6.7 70 18:18 19.12.2019
5975 Clouds 15 1036 47 10000 5.1 100 17:55 19.12.2019
5976 Clouds 15 1036 47 10000 5.1 100 17:37 19.12.2019
5977 Clouds 15 1036 47 10000 5.1 100 17:18 19.12.2019
5978 Clouds 15 1036 47 10000 5.1 100 17:18 19.12.2019
5979 Clouds 14 1037 54 10000 4.6 120 16:54 19.12.2019
5980 Clouds 14 1037 54 10000 4.6 120 16:36 19.12.2019
5981 Clouds 14 1037 54 10000 4.6 120 16:18 19.12.2019
5982 Clouds 12 1038 62 10000 4.6 100 15:54 19.12.2019
5983 Clouds 12 1038 62 10000 4.6 100 15:36 19.12.2019
5984 Clouds 12 1038 62 10000 4.6 100 15:36 19.12.2019
5985 Clouds 12 1038 62 10000 4.6 100 15:18 19.12.2019
5986 Clouds 10 1038 71 10000 3.6 100 14:42 19.12.2019
5987 Clouds 10 1038 71 10000 3.6 100 14:20 19.12.2019
5988 Clouds 8 1037 81 6000 2.6 110 13:57 19.12.2019
5989 Clouds 8 1037 81 6000 2.6 110 13:38 19.12.2019
5990 Clouds 8 1037 81 6000 2.6 110 13:19 19.12.2019
5991 Fog 5 1036 100 4000 2.6 100 12:55 19.12.2019
5992 Fog 5 1036 100 4000 2.6 100 12:37 19.12.2019
5993 Fog 5 1036 100 4000 2.6 100 12:18 19.12.2019
5994 Fog 2 1035 100 6000 2.1 70 11:57 19.12.2019
5995 Fog 2 1035 100 6000 2.1 70 11:39 19.12.2019
5996 Fog 2 1035 100 6000 2.1 70 11:18 19.12.2019
5997 Fog 2 1035 100 6000 2.1 70 11:18 19.12.2019
5998 Fog 4 1035 93 4000 3.1 80 10:55 19.12.2019
5999 Fog 4 1035 93 4000 3.1 80 10:36 19.12.2019
6000 Fog 4 1035 93 4000 3.1 80 10:18 19.12.2019
6001 Fog 4 1035 93 4000 3.1 80 10:18 19.12.2019
6002 Fog 4 1035 93 4000 3.1 80 10:18 19.12.2019
6003 Fog 5 1034 93 4000 3.6 80 09:38 19.12.2019
6004 Fog 5 1034 93 4000 3.6 80 09:20 19.12.2019
6005 Fog 5 1034 93 4000 3.6 80 09:20 19.12.2019
6006 Fog 5 1034 93 4000 3.6 80 09:20 19.12.2019
6007 Fog 5 1034 93 4000 3.6 80 09:20 19.12.2019
6008 Fog 5 1035 93 4000 2.6 100 08:58 19.12.2019
6009 Fog 5 1035 93 4000 2.6 100 08:39 19.12.2019
6010 Fog 5 1035 93 4000 2.6 100 08:19 19.12.2019
6011 Fog 6 1035 87 4000 1 0 07:56 19.12.2019
6012 Fog 6 1035 87 4000 1 0 07:38 19.12.2019
6013 Fog 6 1035 87 4000 1 0 07:19 19.12.2019
6014 Fog 6 1036 93 4000 1 0 06:46 19.12.2019
6015 Fog 6 1036 93 4000 1 0 06:27 19.12.2019
6016 Fog 7 1036 93 4000 1 0 05:52 19.12.2019
6017 Fog 7 1036 93 4000 1 0 05:32 19.12.2019
6018 Fog 8 1037 87 4000 1 0 04:43 19.12.2019
6019 Clouds 8 1035 87 10000 3.1 100 02:48 19.12.2019
6020 Clouds 10 1034 76 10000 5.1 110 01:46 19.12.2019
6021 Clouds 10 1034 76 10000 5.1 110 01:21 19.12.2019
6022 Clouds 11 1033 71 10000 3.1 60 00:39 19.12.2019
6023 Clouds 11 1033 71 10000 3.1 60 00:39 19.12.2019
6024 Clouds 11 1033 71 10000 3.1 60 00:39 19.12.2019
6025 Clouds 11 1033 71 10000 3.1 60 00:39 19.12.2019
6026 Clouds 11 1033 71 10000 3.1 60 00:19 19.12.2019
6027 Clouds 13 1033 58 10000 3.1 80 23:45 18.12.2019
6028 Clouds 13 1033 58 10000 3.1 80 23:19 18.12.2019
6029 Clouds 15 1032 47 10000 4.1 90 22:58 18.12.2019
6030 Clouds 15 1032 47 10000 4.1 90 22:40 18.12.2019
6031 Clouds 15 1032 47 10000 4.1 90 22:22 18.12.2019
6032 Clouds 15 1033 44 10000 3.6 80 21:59 18.12.2019
6033 Clouds 15 1033 44 10000 3.6 80 21:41 18.12.2019
6034 Clouds 15 1033 44 10000 3.6 80 21:21 18.12.2019
6035 Clouds 15 1033 44 10000 3.6 80 21:21 18.12.2019
6036 Clouds 14 1033 41 10000 4.6 60 20:57 18.12.2019
6037 Clouds 14 1033 41 10000 4.6 60 20:57 18.12.2019
6038 Clouds 14 1033 41 10000 4.6 60 20:39 18.12.2019
6039 Clouds 14 1033 41 10000 4.6 60 20:20 18.12.2019
6040 Clouds 14 1033 41 10000 4.6 60 20:20 18.12.2019
6041 Thunderstorm 13 1034 43 10000 6.7 60 19:57 18.12.2019
6042 Thunderstorm 13 1034 43 10000 6.7 60 19:39 18.12.2019
6043 Thunderstorm 13 1034 43 10000 6.7 60 19:19 18.12.2019
6044 Clouds 14 1034 54 10000 4.1 140 18:56 18.12.2019
6045 Clouds 14 1034 54 10000 4.1 140 18:37 18.12.2019
6046 Clouds 14 1034 54 10000 4.1 140 18:18 18.12.2019
6047 Clouds 14 1035 58 10000 4.1 140 17:55 18.12.2019
6048 Clouds 14 1035 58 10000 4.1 140 17:37 18.12.2019
6049 Clouds 14 1035 58 10000 4.1 140 17:37 18.12.2019
6050 Clouds 14 1035 58 10000 4.1 140 17:18 18.12.2019
6051 Clouds 14 1036 58 10000 2.6 100 16:42 18.12.2019
6052 Clouds 14 1036 58 10000 2.6 100 16:23 18.12.2019
6053 Clouds 11 1036 66 8000 2.6 130 15:57 18.12.2019
6054 Clouds 11 1036 66 8000 2.6 130 15:39 18.12.2019
6055 Clouds 11 1036 66 8000 2.6 130 15:21 18.12.2019
6056 Clouds 10 1036 66 6000 2.6 100 14:56 18.12.2019
6057 Clouds 10 1036 66 6000 2.6 100 14:38 18.12.2019
6058 Clouds 10 1036 66 6000 2.6 100 14:19 18.12.2019
6059 Fog 7 1035 87 4000 3.1 100 13:55 18.12.2019
6060 Fog 7 1035 87 4000 3.1 100 13:36 18.12.2019
6061 Fog 7 1035 87 4000 3.1 100 13:18 18.12.2019
6062 Fog 7 1035 87 4000 3.1 100 13:18 18.12.2019
6063 Fog 6 1035 87 4000 3.6 100 12:40 18.12.2019
6064 Fog 6 1035 87 4000 3.6 100 12:21 18.12.2019
6065 Fog 5 1033 93 4000 3.6 80 11:57 18.12.2019
6066 Fog 5 1033 93 4000 3.6 80 11:39 18.12.2019
6067 Fog 5 1033 93 4000 3.6 80 11:20 18.12.2019
6068 Fog 6 1033 93 4000 4.6 90 10:58 18.12.2019
6069 Fog 6 1033 93 4000 4.6 90 10:39 18.12.2019
6070 Fog 6 1033 93 4000 4.6 90 10:20 18.12.2019
6071 Fog 6 1033 93 4000 4.6 90 10:20 18.12.2019
6072 Mist 5 1033 100 3000 4.6 70 09:57 18.12.2019
6073 Mist 5 1033 100 3000 4.6 70 09:20 18.12.2019
6074 Clouds 6 1033 75 10000 2.6 30 08:43 18.12.2019
6075 Clouds 6 1033 75 10000 2.6 30 08:24 18.12.2019
6076 Clouds 7 1034 75 10000 4.1 330 07:57 18.12.2019
6077 Clouds 7 1034 75 10000 4.1 330 07:39 18.12.2019
6078 Clouds 7 1034 75 10000 4.1 330 07:19 18.12.2019
6079 Clouds 7 1035 75 10000 5.1 310 06:51 18.12.2019
6080 Clouds 7 1035 75 10000 5.1 310 06:23 18.12.2019
6081 Clouds 7 1036 87 10000 0.01 90 05:35 18.12.2019
6082 Clouds 7 1036 87 10000 0.01 90 05:35 18.12.2019
6083 Clouds 8 1036 81 10000 1 0 03:49 18.12.2019
6084 Clouds 8 1034 87 10000 6.2 110 02:46 18.12.2019
6085 Clouds 8 1034 87 10000 6.2 110 02:27 18.12.2019
6086 Clouds 9 1032 70 10000 4.6 110 01:43 18.12.2019
6087 Clouds 9 1032 70 10000 4.6 110 01:25 18.12.2019
6088 Clouds 10 1031 53 10000 5.1 40 00:42 18.12.2019
6089 Clouds 10 1031 53 10000 5.1 40 00:24 18.12.2019
6090 Clouds 11 1031 53 10000 5.1 60 23:58 17.12.2019
6091 Clouds 11 1031 53 10000 5.1 60 23:58 17.12.2019
6092 Clouds 11 1031 53 10000 5.1 60 23:39 17.12.2019
6093 Clouds 11 1031 53 10000 5.1 60 23:21 17.12.2019
6094 Clouds 13 1031 43 10000 6.2 70 22:57 17.12.2019
6095 Clouds 13 1031 43 10000 6.2 70 22:38 17.12.2019
6096 Clouds 13 1031 43 10000 6.2 70 22:19 17.12.2019
6097 Clouds 14 1032 33 10000 3.1 250 21:57 17.12.2019
6098 Clouds 14 1032 33 10000 3.1 250 21:38 17.12.2019
6099 Clouds 14 1032 33 10000 3.1 250 21:20 17.12.2019
6100 Clouds 12 1033 46 10000 5.1 350 20:58 17.12.2019
6101 Clouds 12 1033 46 10000 5.1 350 20:39 17.12.2019
6102 Clouds 12 1033 46 10000 5.1 350 20:18 17.12.2019
6103 Clouds 13 1033 61 8000 5.7 50 19:56 17.12.2019
6104 Clouds 13 1033 61 8000 5.7 50 19:38 17.12.2019
6105 Clouds 13 1033 61 8000 5.7 50 19:18 17.12.2019
6106 Clouds 16 1033 48 8000 5.7 70 18:54 17.12.2019
6107 Clouds 16 1033 48 8000 5.7 70 18:36 17.12.2019
6108 Clouds 16 1033 48 8000 5.7 70 18:18 17.12.2019
6109 Clouds 16 1033 48 8000 5.7 70 18:18 17.12.2019
6110 Clouds 15 1034 54 10000 4.1 110 17:42 17.12.2019
6111 Clouds 15 1034 54 10000 4.1 110 17:21 17.12.2019
6112 Clouds 13 1035 62 10000 4.1 110 16:57 17.12.2019
6113 Clouds 13 1035 62 10000 4.1 110 16:38 17.12.2019
6114 Clouds 13 1035 62 10000 4.1 110 16:19 17.12.2019
6115 Clouds 12 1035 71 6000 2.6 110 15:58 17.12.2019
6116 Clouds 12 1035 71 6000 2.6 110 15:37 17.12.2019
6117 Clouds 12 1035 71 6000 2.6 110 15:37 17.12.2019
6118 Clouds 12 1035 71 6000 2.6 110 15:19 17.12.2019
6119 Clouds 11 1035 76 6000 3.6 70 14:55 17.12.2019
6120 Clouds 11 1035 76 6000 3.6 70 14:55 17.12.2019
6121 Clouds 11 1035 76 6000 3.6 70 14:37 17.12.2019
6122 Clouds 11 1035 76 6000 3.6 70 14:18 17.12.2019
6123 Clouds 11 1035 76 6000 3.6 70 14:18 17.12.2019
6124 Clouds 11 1035 76 6000 1 0 13:55 17.12.2019
6125 Clouds 11 1035 76 6000 1 0 13:37 17.12.2019
6126 Clouds 11 1035 76 6000 1 0 13:18 17.12.2019
6127 Fog 6 1034 93 4000 2.1 80 12:41 17.12.2019
6128 Fog 6 1034 93 4000 2.1 80 12:19 17.12.2019
6129 Rain 19 1013 100 4000 6.2 170 11:59 17.12.2019
6130 Rain 19 1013 100 4000 6.2 170 11:38 17.12.2019
6131 Rain 19 1013 100 4000 6.2 170 11:19 17.12.2019
6132 Fog 3 1033 93 4000 1 0 10:59 17.12.2019
6133 Fog 3 1033 93 4000 1 0 10:41 17.12.2019
6134 Fog 3 1033 93 4000 1 0 10:41 17.12.2019
6135 Fog 3 1033 93 4000 1 0 10:22 17.12.2019
6136 Clouds 3 1033 86 10000 2.1 130 09:59 17.12.2019
6137 Clouds 3 1033 86 10000 2.1 130 09:41 17.12.2019
6138 Clouds 3 1033 86 10000 2.1 130 09:20 17.12.2019
6139 Clouds 4 1034 93 10000 2.1 60 08:56 17.12.2019
6140 Clouds 4 1034 93 10000 2.1 60 08:38 17.12.2019
6141 Clouds 4 1034 93 10000 2.1 60 08:19 17.12.2019
6142 Fog 4 1034 93 4000 2.6 80 07:47 17.12.2019
6143 Fog 4 1034 93 4000 2.6 80 07:27 17.12.2019
6144 Clouds 5 1034 80 10000 1 0 06:59 17.12.2019
6145 Clouds 5 1034 80 10000 1 0 06:35 17.12.2019
6146 Clouds 7 1035 70 10000 1 0 05:53 17.12.2019
6147 Clouds 7 1035 70 10000 1 0 05:35 17.12.2019
6148 Clouds 8 1035 65 10000 3.1 270 04:30 17.12.2019
6149 Clouds 22 1010 94 10000 3.6 190 02:34 17.12.2019
6150 Clouds 22 1010 94 10000 3.6 190 02:34 17.12.2019
6151 Thunderstorm 9 1035 61 10000 2.6 210 01:55 17.12.2019
6152 Thunderstorm 8 1034 70 8000 5.7 190 00:58 17.12.2019
6153 Thunderstorm 8 1034 70 8000 5.7 190 00:37 17.12.2019
6154 Thunderstorm 8 1034 70 8000 5.7 190 00:19 17.12.2019
6155 Clouds 14 1030 33 10000 3.1 30 23:41 16.12.2019
6156 Clouds 14 1030 33 10000 3.1 30 23:19 16.12.2019
6157 Clouds 14 1030 33 10000 3.1 30 23:19 16.12.2019
6158 Clouds 14 1032 28 10000 3.6 100 22:56 16.12.2019
6159 Clouds 14 1032 28 10000 3.6 100 22:37 16.12.2019
6160 Clouds 14 1032 28 10000 3.6 100 22:19 16.12.2019
6161 Thunderstorm 13 1032 47 10000 3.6 360 21:55 16.12.2019
6162 Thunderstorm 13 1032 47 10000 3.6 360 21:37 16.12.2019
6163 Thunderstorm 13 1032 47 10000 3.6 360 21:37 16.12.2019
6164 Thunderstorm 13 1032 47 10000 3.6 360 21:37 16.12.2019
6165 Thunderstorm 13 1032 47 10000 3.6 360 21:18 16.12.2019
6166 Thunderstorm 14 1032 47 10000 4.6 40 20:56 16.12.2019
6167 Thunderstorm 14 1032 47 10000 4.6 40 20:56 16.12.2019
6168 Thunderstorm 14 1032 47 10000 4.6 40 20:37 16.12.2019
6169 Thunderstorm 14 1032 47 10000 4.6 40 20:19 16.12.2019
6170 Clouds 15 1033 44 10000 4.1 30 19:55 16.12.2019
6171 Clouds 15 1033 44 10000 4.1 30 19:36 16.12.2019
6172 Clouds 15 1033 44 10000 4.1 30 19:18 16.12.2019
6173 Clouds 15 1034 54 10000 2.6 130 18:55 16.12.2019
6174 Clouds 15 1034 54 10000 2.6 130 18:37 16.12.2019
6175 Clouds 15 1034 54 10000 2.6 130 18:18 16.12.2019
6176 Clouds 14 1035 50 10000 2.6 120 17:56 16.12.2019
6177 Clouds 14 1035 50 10000 2.6 120 17:37 16.12.2019
6178 Clouds 14 1035 50 10000 2.6 120 17:18 16.12.2019
6179 Clouds 15 1036 47 10000 3.1 80 16:54 16.12.2019
6180 Clouds 15 1036 47 10000 3.1 80 16:36 16.12.2019
6181 Clouds 15 1036 47 10000 3.1 80 16:18 16.12.2019
6182 Clouds 12 1036 54 10000 2.6 260 15:54 16.12.2019
6183 Clouds 12 1036 54 10000 2.6 260 15:36 16.12.2019
6184 Clouds 12 1036 54 10000 2.6 260 15:18 16.12.2019
6185 Clouds 13 1037 54 10000 2.1 80 14:54 16.12.2019
6186 Clouds 13 1037 54 10000 2.1 80 14:36 16.12.2019
6187 Clouds 13 1037 54 10000 2.1 80 14:18 16.12.2019
6188 Clouds 10 1037 76 6000 2.6 90 13:38 16.12.2019
6189 Clouds 10 1037 76 6000 2.6 90 13:20 16.12.2019
6190 Fog 6 1036 93 4000 2.6 80 12:58 16.12.2019
6191 Fog 6 1036 93 4000 2.6 80 12:40 16.12.2019
6192 Fog 6 1036 93 4000 2.6 80 12:20 16.12.2019
6193 Fog 5 1035 93 4000 1.5 20 11:59 16.12.2019
6194 Fog 5 1035 93 4000 1.5 20 11:41 16.12.2019
6195 Fog 5 1035 93 4000 1.5 20 11:21 16.12.2019
6196 Fog 4 1035 100 4000 2.1 70 10:58 16.12.2019
6197 Fog 4 1035 100 4000 2.1 70 10:40 16.12.2019
6198 Fog 4 1035 100 4000 2.1 70 10:20 16.12.2019
6199 Fog 6 1035 93 4000 1.5 80 09:46 16.12.2019
6200 Fog 6 1035 93 4000 1.5 80 09:27 16.12.2019
6201 Fog 6 1035 93 4000 3.1 70 08:57 16.12.2019
6202 Clouds 6 1014 83 0 1.91 48 08:38 16.12.2019
6203 Fog 6 1036 93 4000 3.6 90 08:18 16.12.2019
6204 Fog 6 1036 93 4000 3.6 90 07:47 16.12.2019
6205 Fog 6 1036 93 4000 3.6 90 07:28 16.12.2019
6206 Clouds 8 1036 75 10000 1 0 06:45 16.12.2019
6207 Clouds 8 1036 75 10000 1 0 06:25 16.12.2019
6208 Clouds 9 1037 76 10000 2.6 360 05:50 16.12.2019
6209 Clouds 9 1037 76 10000 2.6 360 05:31 16.12.2019
6210 Clouds 9 1037 76 10000 3.6 310 04:22 16.12.2019
6211 Clouds 10 1035 61 10000 3.1 320 02:19 16.12.2019
6212 Clouds 9 1034 81 10000 1 0 01:44 16.12.2019
6213 Clouds 12 1034 58 10000 2.1 60 00:43 16.12.2019
6214 Clouds 12 1034 58 10000 2.1 60 00:25 16.12.2019
6215 Clouds 14 1034 41 10000 3.6 50 23:58 15.12.2019
6216 Clouds 14 1034 41 10000 3.6 50 23:39 15.12.2019
6217 Clouds 14 1034 41 10000 3.6 50 23:20 15.12.2019
6218 Clouds 14 1034 47 10000 4.1 60 22:56 15.12.2019
6219 Clouds 14 1034 47 10000 4.1 60 22:37 15.12.2019
6220 Clouds 14 1034 47 10000 4.1 60 22:18 15.12.2019
6221 Clouds 14 1034 47 10000 4.1 60 22:18 15.12.2019
6222 Clouds 14 1034 44 10000 3.6 110 21:55 15.12.2019
6223 Clouds 14 1034 44 10000 3.6 110 21:37 15.12.2019
6224 Clouds 14 1034 44 10000 3.6 110 21:19 15.12.2019
6225 Clouds 16 1035 38 10000 3.6 100 20:55 15.12.2019
6226 Clouds 16 1035 38 10000 3.6 100 20:37 15.12.2019
6227 Clouds 16 1035 38 10000 3.6 100 20:18 15.12.2019
6228 Clouds 16 1035 38 10000 3.6 100 20:18 15.12.2019
6229 Thunderstorm 14 1036 68 10000 5.1 160 19:55 15.12.2019
6230 Thunderstorm 14 1036 68 10000 5.1 160 19:37 15.12.2019
6231 Thunderstorm 14 1036 68 10000 5.1 160 19:18 15.12.2019
6232 Thunderstorm 15 1037 47 10000 4.1 140 18:55 15.12.2019
6233 Thunderstorm 15 1037 47 10000 4.1 140 18:36 15.12.2019
6234 Thunderstorm 15 1037 47 10000 4.1 140 18:18 15.12.2019
6235 Thunderstorm 15 1036 47 10000 4.6 100 17:55 15.12.2019
6236 Clouds 14 1037 50 10000 4.1 120 17:36 15.12.2019
6237 Clouds 12 1038 71 10000 3.6 100 17:18 15.12.2019
6238 Clouds 12 1038 71 10000 3.6 100 16:42 15.12.2019
6239 Clouds 12 1038 71 10000 3.6 100 16:23 15.12.2019
6240 Clouds 11 1038 66 10000 2.6 80 15:57 15.12.2019
6241 Clouds 11 1038 66 10000 2.6 80 15:39 15.12.2019
6242 Clouds 11 1038 66 10000 2.6 80 15:19 15.12.2019
6243 Clouds 10 1038 76 10000 2.6 120 14:56 15.12.2019
6244 Clouds 10 1038 76 10000 2.6 120 14:37 15.12.2019
6245 Clouds 10 1038 76 10000 2.6 120 14:19 15.12.2019
6246 Clouds 11 1038 62 10000 0.4 147 13:58 15.12.2019
6247 Clouds 11 1038 62 10000 0.4 147 13:38 15.12.2019
6248 Clouds 11 1038 62 10000 0.08 2 13:19 15.12.2019
6249 Clouds 7 1037 87 10000 2.1 60 12:57 15.12.2019
6250 Clouds 7 1037 87 10000 2.1 60 12:39 15.12.2019
6251 Clouds 7 1037 87 10000 2.1 60 12:20 15.12.2019
6252 Clouds 7 1037 87 10000 2.1 60 12:20 15.12.2019
6253 Rain 6 1037 87 10000 3.6 60 11:56 15.12.2019
6254 Rain 6 1037 87 10000 3.6 60 11:37 15.12.2019
6255 Rain 5 1036 93 8000 5.1 60 11:18 15.12.2019
6256 Rain 5 1036 93 8000 5.1 60 10:55 15.12.2019
6257 Rain 5 1036 93 8000 5.1 60 10:37 15.12.2019
6258 Rain 5 1036 93 8000 5.1 60 10:18 15.12.2019
6259 Rain 5 1036 93 4000 6.7 60 09:41 15.12.2019
6260 Rain 5 1036 93 4000 6.7 60 09:20 15.12.2019
6261 Rain 6 1036 93 3000 6.2 90 08:58 15.12.2019
6262 Clouds 6 1037 87 10000 5.1 150 08:39 15.12.2019
6263 Clouds 6 1037 87 10000 5.1 150 08:21 15.12.2019
6264 Fog 8 1037 81 4000 3.6 110 07:56 15.12.2019
6265 Fog 8 1037 81 4000 3.6 110 07:34 15.12.2019
6266 Clouds 8 1037 70 10000 2.6 80 06:51 15.12.2019
6267 Clouds 8 1037 70 10000 2.6 80 06:20 15.12.2019
6268 Clouds 7 1038 81 10000 3.6 340 05:26 15.12.2019
6269 Clouds 7 1038 87 10000 4.6 300 04:47 15.12.2019
6270 Rain 7 1038 93 7000 4.6 290 03:29 15.12.2019
6271 Clouds 7 1037 93 10000 4.6 270 02:34 15.12.2019
6272 Thunderstorm 8 1036 75 8000 5.1 210 01:47 15.12.2019
6273 Thunderstorm 8 1036 75 8000 5.1 210 01:28 15.12.2019
6274 Clouds 11 1034 57 10000 3.1 50 00:57 15.12.2019
6275 Clouds 11 1034 57 10000 3.1 50 00:38 15.12.2019
6276 Clouds 11 1034 57 10000 3.1 50 00:20 15.12.2019
6277 Clouds 14 1033 47 10000 5.7 40 23:39 14.12.2019
6278 Clouds 14 1033 47 10000 5.7 40 23:19 14.12.2019
6279 Clouds 16 1033 41 10000 6.2 90 22:57 14.12.2019
6280 Clouds 16 1033 41 10000 6.2 90 22:57 14.12.2019
6281 Clouds 16 1033 41 10000 6.2 90 22:39 14.12.2019
6282 Clouds 16 1033 41 10000 6.2 90 22:20 14.12.2019
6283 Clouds 16 1034 38 10000 6.2 100 21:56 14.12.2019
6284 Clouds 16 1034 38 10000 6.2 100 21:37 14.12.2019
6285 Clouds 16 1034 38 10000 6.2 100 21:18 14.12.2019
6286 Clouds 18 1035 34 10000 2.6 70 20:55 14.12.2019
6287 Clouds 18 1035 34 10000 2.6 70 20:37 14.12.2019
6288 Clouds 18 1035 34 10000 2.6 70 20:19 14.12.2019
6289 Clouds 17 1036 33 10000 2.6 130 19:40 14.12.2019
6290 Clouds 17 1036 33 10000 2.6 130 19:21 14.12.2019
6291 Clouds 15 1037 38 10000 2.6 130 18:58 14.12.2019
6292 Clouds 15 1037 38 10000 2.6 130 18:39 14.12.2019
6293 Clouds 15 1037 38 10000 2.6 130 18:21 14.12.2019
6294 Clouds 15 1037 41 10000 3.6 120 17:59 14.12.2019
6295 Clouds 15 1037 41 10000 3.6 120 17:41 14.12.2019
6296 Clouds 14 1038 47 10000 4.1 110 17:22 14.12.2019
6297 Clouds 14 1038 47 10000 4.1 110 16:41 14.12.2019
6298 Clouds 14 1038 47 10000 4.1 110 16:19 14.12.2019
6299 Clouds 13 1038 54 10000 3.6 120 15:56 14.12.2019
6300 Clouds 13 1038 54 10000 3.6 120 15:38 14.12.2019
6301 Clouds 13 1038 54 10000 3.6 120 15:19 14.12.2019
6302 Clouds 11 1038 62 10000 4.6 110 14:56 14.12.2019
6303 Clouds 11 1038 62 10000 4.6 110 14:37 14.12.2019
6304 Clouds 11 1038 62 10000 4.6 110 14:37 14.12.2019
6305 Clouds 11 1038 62 10000 4.6 110 14:18 14.12.2019
6306 Clouds 11 1038 62 10000 4.6 110 14:18 14.12.2019
6307 Clouds 9 1037 70 6000 3.6 90 13:44 14.12.2019
6308 Clouds 9 1037 70 6000 3.6 90 13:19 14.12.2019
6309 Fog 6 1037 87 4000 2.6 110 12:58 14.12.2019
6310 Fog 6 1037 87 4000 2.6 110 12:39 14.12.2019
6311 Fog 6 1037 87 4000 2.6 110 12:20 14.12.2019
6312 Fog 4 1036 93 4000 2.6 100 11:58 14.12.2019
6313 Fog 4 1036 93 4000 2.6 100 11:39 14.12.2019
6314 Fog 4 1036 93 4000 2.6 100 11:19 14.12.2019
6315 Fog 6 1036 87 4000 2.1 110 10:56 14.12.2019
6316 Fog 6 1036 87 4000 2.1 110 10:38 14.12.2019
6317 Fog 6 1036 87 4000 2.1 110 10:19 14.12.2019
6318 Fog 4 1036 93 4000 1 0 09:43 14.12.2019
6319 Fog 4 1036 93 4000 1 0 09:23 14.12.2019
6320 Fog 5 1036 93 4000 1.5 130 08:57 14.12.2019
6321 Fog 5 1036 93 4000 1.5 130 08:38 14.12.2019
6322 Fog 5 1036 93 4000 1.5 130 08:38 14.12.2019
6323 Fog 5 1036 93 4000 1.5 130 08:19 14.12.2019
6324 Fog 6 1036 93 4000 1 0 07:40 14.12.2019
6325 Fog 6 1037 87 4000 1 0 07:21 14.12.2019
6326 Fog 6 1037 87 4000 1 0 07:21 14.12.2019
6327 Fog 6 1037 87 4000 1 0 06:48 14.12.2019
6328 Fog 6 1037 87 4000 1 0 06:30 14.12.2019
6329 Clouds 6 1037 87 10000 3.1 80 05:43 14.12.2019
6330 Clouds 8 1036 70 10000 5.7 90 03:44 14.12.2019
6331 Clouds 9 1035 61 10000 6.2 60 02:23 14.12.2019
6332 Clouds 10 1034 57 10000 6.2 50 01:44 14.12.2019
6333 Clouds 11 1033 53 10000 6.2 50 00:59 14.12.2019
6334 Clouds 11 1033 53 10000 6.2 50 00:40 14.12.2019
6335 Clouds 11 1033 53 10000 6.2 50 00:20 14.12.2019
6336 Clouds 15 1033 80 10000 5.7 80 23:41 13.12.2019
6337 Clouds 15 1033 65 10000 5.7 80 23:19 13.12.2019
6338 Clouds 15 1033 65 10000 5.7 90 22:56 13.12.2019
6339 Clouds 15 1033 65 10000 5.7 90 22:37 13.12.2019
6340 Clouds 15 1033 65 10000 5.7 90 22:18 13.12.2019
6341 Clouds 15 1033 65 10000 5.7 90 22:18 13.12.2019
6342 Clouds 16 1034 31 10000 5.7 80 21:42 13.12.2019
6343 Clouds 16 1034 31 10000 5.7 80 21:21 13.12.2019
6344 Clouds 16 1035 31 10000 4.6 150 20:58 13.12.2019
6345 Rain 9 1009 64 0 5.31 43 20:39 13.12.2019
6346 Clouds 15 1036 55 10000 6.7 140 20:20 13.12.2019
6347 Clouds 15 1036 55 10000 6.7 140 19:56 13.12.2019
6348 Clouds 15 1036 55 10000 6.7 140 19:38 13.12.2019
6349 Clouds 15 1036 55 10000 6.7 140 19:19 13.12.2019
6350 Clouds 15 1036 41 10000 4.6 140 18:42 13.12.2019
6351 Clouds 15 1036 41 10000 4.6 140 18:20 13.12.2019
6352 Clouds 14 1037 44 10000 4.6 110 18:00 13.12.2019
6353 Clouds 14 1037 44 10000 4.6 110 17:39 13.12.2019
6354 Clouds 14 1037 44 10000 4.6 110 17:18 13.12.2019
6355 Clouds 14 1037 44 10000 4.6 110 17:18 13.12.2019
6356 Clouds 12 1038 54 10000 5.1 120 16:56 13.12.2019
6357 Clouds 12 1038 54 10000 5.1 120 16:38 13.12.2019
6358 Clouds 12 1038 54 10000 5.1 120 16:38 13.12.2019
6359 Clouds 12 1038 54 10000 5.1 120 16:20 13.12.2019
6360 Clouds 11 1038 50 10000 4.1 90 15:42 13.12.2019
6361 Clouds 11 1038 50 10000 4.1 90 15:42 13.12.2019
6362 Clouds 11 1038 50 10000 4.1 90 15:21 13.12.2019
6363 Clouds 9 1038 66 10000 3.1 130 14:57 13.12.2019
6364 Clouds 9 1038 66 10000 3.1 130 14:37 13.12.2019
6365 Clouds 9 1038 66 10000 3.1 130 14:19 13.12.2019
6366 Clouds 8 1038 70 10000 3.1 100 13:43 13.12.2019
6367 Clouds 8 1038 70 10000 3.1 100 13:24 13.12.2019
6368 Clouds 8 1038 70 10000 3.1 100 13:24 13.12.2019
6369 Clouds 6 1038 81 10000 3.1 100 12:57 13.12.2019
6370 Clouds 6 1038 81 10000 3.1 100 12:39 13.12.2019
6371 Clouds 6 1038 81 10000 3.1 100 12:18 13.12.2019
6372 Clouds 4 1036 86 10000 3.1 80 11:43 13.12.2019
6373 Clouds 4 1036 86 10000 3.1 80 11:25 13.12.2019
6374 Clouds 4 1035 80 10000 2.1 110 10:56 13.12.2019
6375 Clouds 4 1035 80 10000 2.1 110 10:38 13.12.2019
6376 Clouds 4 1035 80 10000 2.1 110 10:20 13.12.2019
6377 Clouds 6 1035 70 10000 3.6 60 09:42 13.12.2019
6378 Clouds 6 1035 70 10000 3.6 60 09:21 13.12.2019
6379 Clouds 7 1035 84 10000 5.1 50 08:45 13.12.2019
6380 Clouds 7 1035 84 10000 5.1 50 08:27 13.12.2019
6381 Clouds 7 1035 78 10000 4.6 60 07:50 13.12.2019
6382 Clouds 7 1035 78 10000 4.6 60 07:27 13.12.2019
6383 Clouds 6 1036 78 10000 3.1 40 06:57 13.12.2019
6384 Clouds 6 1036 78 10000 3.1 40 06:32 13.12.2019
6385 Clouds 5 1037 75 10000 2.6 100 05:52 13.12.2019
6386 Clouds 5 1037 75 10000 2.6 100 05:33 13.12.2019
6387 Clouds 7 1037 65 10000 4.6 130 04:54 13.12.2019
6388 Clouds 6 1036 60 10000 4.1 60 03:52 13.12.2019
6389 Clouds 8 1036 86 10000 4.6 70 02:35 13.12.2019
6390 Clouds 8 1035 61 10000 6.7 70 01:51 13.12.2019
6391 Clouds 8 1035 61 10000 6.7 70 01:25 13.12.2019
6392 Clouds 9 1034 61 10000 6.2 70 00:46 13.12.2019
6393 Clouds 9 1034 61 10000 6.2 70 00:24 13.12.2019
6394 Clouds 11 1033 62 10000 5.1 50 23:42 12.12.2019
6395 Clouds 11 1033 62 10000 5.1 50 23:24 12.12.2019
6396 Clouds 10 1033 61 10000 6.2 30 22:56 12.12.2019
6397 Thunderstorm 8 1033 81 8000 7.2 50 22:38 12.12.2019
6398 Thunderstorm 8 1033 81 8000 7.2 50 22:19 12.12.2019
6399 Thunderstorm 11 1033 50 8000 5.1 180 21:55 12.12.2019
6400 Thunderstorm 11 1033 50 8000 5.1 180 21:37 12.12.2019
6401 Thunderstorm 11 1033 50 8000 5.1 180 21:19 12.12.2019
6402 Thunderstorm 11 1033 50 8000 8.2 200 20:57 12.12.2019
6403 Thunderstorm 16 1033 31 10000 6.7 70 20:38 12.12.2019
6404 Thunderstorm 16 1033 31 10000 6.7 70 20:20 12.12.2019
6405 Clouds 17 1033 33 10000 7.2 50 19:55 12.12.2019
6406 Clouds 17 1033 33 10000 7.2 50 19:37 12.12.2019
6407 Clouds 17 1033 33 10000 7.2 50 19:18 12.12.2019
6408 Clouds 18 1034 31 10000 6.2 70 18:55 12.12.2019
6409 Clouds 18 1034 31 10000 6.2 70 18:36 12.12.2019
6410 Clouds 17 1035 39 10000 6.7 110 18:18 12.12.2019
6411 Clouds 17 1035 39 10000 6.7 110 17:55 12.12.2019
6412 Clouds 17 1035 39 10000 6.7 110 17:55 12.12.2019
6413 Clouds 17 1035 39 10000 6.7 110 17:37 12.12.2019
6414 Clouds 17 1035 39 10000 6.7 110 17:18 12.12.2019
6415 Clouds 15 1035 41 10000 5.1 120 16:42 12.12.2019
6416 Clouds 15 1035 41 10000 5.1 120 16:21 12.12.2019
6417 Clouds 14 1036 50 10000 4.1 140 15:59 12.12.2019
6418 Clouds 14 1036 50 10000 4.1 140 15:41 12.12.2019
6419 Clouds 14 1036 50 10000 4.1 140 15:19 12.12.2019
6420 Clouds 14 1036 50 10000 4.1 140 15:19 12.12.2019
6421 Clouds 13 1036 54 10000 3.1 100 14:57 12.12.2019
6422 Clouds 13 1036 54 10000 3.1 100 14:36 12.12.2019
6423 Clouds 11 1036 66 10000 2.1 40 14:18 12.12.2019
6424 Clouds 11 1036 66 10000 2.1 40 13:54 12.12.2019
6425 Clouds 11 1036 66 10000 2.1 40 13:36 12.12.2019
6426 Fog 7 1035 93 4000 2.1 60 13:18 12.12.2019
6427 Fog 7 1035 93 4000 2.1 60 13:18 12.12.2019
6428 Fog 7 1035 93 4000 2.1 60 12:41 12.12.2019
6429 Fog 7 1035 93 4000 2.1 60 12:22 12.12.2019
6430 Fog 5 1034 100 4000 3.1 90 11:59 12.12.2019
6431 Fog 5 1034 100 4000 3.1 90 11:40 12.12.2019
6432 Fog 5 1034 100 4000 3.1 90 11:21 12.12.2019
6433 Clouds 4 1034 93 10000 1 0 10:58 12.12.2019
6434 Clouds 4 1034 93 10000 1 0 10:40 12.12.2019
6435 Clouds 4 1034 93 10000 1 0 10:21 12.12.2019
6436 Clouds 4 1034 93 10000 1 0 10:21 12.12.2019
6437 Clouds 7 1034 87 10000 1 0 09:56 12.12.2019
6438 Clouds 7 1034 87 10000 1 0 09:38 12.12.2019
6439 Clouds 7 1034 87 10000 1 0 09:19 12.12.2019
6440 Clouds 7 1034 93 10000 1 0 08:46 12.12.2019
6441 Clouds 7 1034 93 10000 1 0 08:27 12.12.2019
6442 Clouds 7 1034 81 10000 1 0 07:50 12.12.2019
6443 Clouds 7 1034 81 10000 1 0 07:27 12.12.2019
6444 Clouds 7 1034 93 10000 4.1 70 06:56 12.12.2019
6445 Clouds 7 1034 93 10000 4.1 70 06:35 12.12.2019
6446 Clouds 8 1035 87 10000 5.7 110 05:42 12.12.2019
6447 Clouds 24 1008 94 10000 4.6 350 04:55 12.12.2019
6448 Clouds 24 1008 94 10000 4.6 350 04:23 12.12.2019
6449 Clouds 10 1035 81 10000 2.6 130 02:40 12.12.2019
6450 Clouds 10 1035 81 10000 2.6 130 02:22 12.12.2019
6451 Clouds 9 1034 87 10000 1 0 01:46 12.12.2019
6452 Clouds 9 1034 87 10000 1 0 01:28 12.12.2019
6453 Clouds 11 1032 71 10000 6.2 120 00:47 12.12.2019
6454 Clouds 11 1032 71 10000 6.2 120 00:20 12.12.2019
6455 Clouds 13 1032 43 10000 5.1 60 23:45 11.12.2019
6456 Clouds 13 1032 43 10000 5.1 60 23:21 11.12.2019
6457 Clouds 13 1032 37 10000 5.7 70 22:58 11.12.2019
6458 Clouds 12 1033 66 10000 5.7 280 22:39 11.12.2019
6459 Clouds 12 1033 66 10000 5.7 280 22:20 11.12.2019
6460 Clouds 12 1032 66 10000 4.1 310 21:59 11.12.2019
6461 Clouds 12 1032 66 10000 4.1 310 21:39 11.12.2019
6462 Clouds 12 1032 66 10000 4.1 310 21:20 11.12.2019
6463 Clouds 15 1033 47 10000 3.1 50 20:56 11.12.2019
6464 Clouds 15 1033 47 10000 3.1 50 20:56 11.12.2019
6465 Clouds 15 1033 47 10000 3.1 50 20:38 11.12.2019
6466 Clouds 15 1033 47 10000 3.1 50 20:19 11.12.2019
6467 Thunderstorm 14 1034 54 10000 4.6 50 19:58 11.12.2019
6468 Thunderstorm 14 1034 54 10000 4.6 50 19:39 11.12.2019
6469 Thunderstorm 14 1034 54 10000 4.6 50 19:19 11.12.2019
6470 Clouds 17 1035 48 10000 4.6 90 18:42 11.12.2019
6471 Clouds 17 1035 48 10000 4.6 90 18:22 11.12.2019
6472 Clouds 16 1035 55 10000 4.6 120 17:57 11.12.2019
6473 Clouds 16 1035 55 10000 4.6 120 17:39 11.12.2019
6474 Clouds 16 1035 55 10000 4.6 120 17:19 11.12.2019
6475 Clouds 14 1036 62 10000 4.1 120 16:57 11.12.2019
6476 Clouds 14 1036 62 10000 4.1 120 16:39 11.12.2019
6477 Clouds 14 1036 62 10000 4.1 120 16:21 11.12.2019
6478 Clouds 13 1037 66 10000 4.6 120 15:59 11.12.2019
6479 Clouds 13 1037 66 10000 4.6 120 15:40 11.12.2019
6480 Clouds 13 1037 66 10000 4.6 120 15:22 11.12.2019
6481 Clouds 11 1036 76 10000 3.6 110 14:56 11.12.2019
6482 Clouds 11 1036 76 10000 3.6 110 14:37 11.12.2019
6483 Clouds 11 1036 76 10000 3.6 110 14:19 11.12.2019
6484 Clouds 10 1036 81 6000 3.6 100 13:55 11.12.2019
6485 Clouds 10 1036 81 6000 3.6 100 13:36 11.12.2019
6486 Clouds 10 1036 81 6000 3.6 100 13:18 11.12.2019
6487 Clouds 10 1036 81 6000 3.6 100 13:18 11.12.2019
6488 Fog 8 1035 93 4000 1.5 80 12:54 11.12.2019
6489 Fog 8 1035 93 4000 1.5 80 12:36 11.12.2019
6490 Fog 5 1035 100 4000 2.1 100 12:18 11.12.2019
6491 Fog 5 1035 100 4000 2.1 100 11:55 11.12.2019
6492 Fog 5 1035 100 4000 2.1 100 11:37 11.12.2019
6493 Fog 5 1035 100 4000 2.1 100 11:18 11.12.2019
6494 Fog 7 1035 93 4000 3.1 110 10:41 11.12.2019
6495 Fog 7 1035 93 4000 3.1 110 10:23 11.12.2019
6496 Fog 7 1034 93 4000 4.1 90 09:58 11.12.2019
6497 Fog 7 1034 93 4000 4.1 90 09:38 11.12.2019
6498 Fog 7 1034 93 4000 4.1 90 09:20 11.12.2019
6499 Fog 7 1034 93 4000 3.6 90 08:56 11.12.2019
6500 Fog 7 1034 93 4000 3.6 90 08:37 11.12.2019
6501 Fog 7 1035 93 4000 2.6 90 08:18 11.12.2019
6502 Fog 7 1035 93 4000 2.6 90 07:45 11.12.2019
6503 Fog 7 1035 93 4000 2.6 90 07:25 11.12.2019
6504 Fog 7 1036 93 4000 3.1 70 06:46 11.12.2019
6505 Fog 7 1036 93 4000 3.1 70 06:25 11.12.2019
6506 Clouds 9 1036 76 10000 2.6 330 05:56 11.12.2019
6507 Clouds 9 1036 76 10000 2.6 330 05:36 11.12.2019
6508 Clouds 9 1037 81 10000 3.1 330 04:53 11.12.2019
6509 Clouds 9 1036 81 10000 1 0 03:37 11.12.2019
6510 Clouds 10 1035 66 10000 4.6 70 02:38 11.12.2019
6511 Clouds 11 1033 62 10000 3.6 70 01:22 11.12.2019
6512 Clouds 12 1032 58 10000 6.7 50 00:43 11.12.2019
6513 Clouds 12 1032 58 10000 6.7 50 00:43 11.12.2019
6514 Clouds 12 1032 58 10000 6.7 50 00:19 11.12.2019
6515 Clouds 14 1032 47 10000 5.7 40 23:45 10.12.2019
6516 Clouds 14 1032 47 10000 5.7 40 23:26 10.12.2019
6517 Clouds 15 1032 47 10000 6.7 50 22:57 10.12.2019
6518 Clouds 15 1032 47 10000 6.7 50 22:38 10.12.2019
6519 Clouds 15 1032 47 10000 6.7 50 22:20 10.12.2019
6520 Clouds 16 1032 48 10000 4.6 90 21:54 10.12.2019
6521 Clouds 16 1032 48 10000 4.6 90 21:36 10.12.2019
6522 Clouds 16 1032 48 10000 4.6 90 21:18 10.12.2019
6523 Clouds 19 1033 34 10000 4.6 120 20:55 10.12.2019
6524 Clouds 19 1033 34 10000 4.6 120 20:36 10.12.2019
6525 Clouds 19 1033 34 10000 4.6 120 20:18 10.12.2019
6526 Clouds 19 1033 34 10000 4.6 120 20:18 10.12.2019
6527 Clouds 19 1033 34 10000 4.6 120 20:18 10.12.2019
6528 Clouds 17 1034 39 10000 2.6 160 19:42 10.12.2019
6529 Clouds 17 1034 39 10000 2.6 160 19:24 10.12.2019
6530 Clouds 17 1035 39 10000 2.1 150 18:57 10.12.2019
6531 Clouds 17 1035 39 10000 2.1 150 18:57 10.12.2019
6532 Clouds 17 1035 39 10000 2.1 150 18:38 10.12.2019
6533 Clouds 17 1035 39 10000 2.1 150 18:19 10.12.2019
6534 Clouds 14 1036 50 10000 2.6 140 17:54 10.12.2019
6535 Clouds 14 1036 50 10000 2.6 140 17:54 10.12.2019
6536 Clouds 14 1036 50 10000 2.6 140 17:36 10.12.2019
6537 Clouds 14 1036 50 10000 2.6 140 17:18 10.12.2019
6538 Clouds 13 1037 54 10000 1 0 16:42 10.12.2019
6539 Clouds 13 1037 54 10000 1 0 16:20 10.12.2019
6540 Clouds 13 1037 58 10000 1.5 120 15:40 10.12.2019
6541 Clouds 13 1037 58 10000 1.5 120 15:19 10.12.2019
6542 Clouds 11 1037 71 10000 1 0 14:59 10.12.2019
6543 Clouds 11 1037 71 10000 1 0 14:41 10.12.2019
6544 Clouds 11 1037 71 10000 1 0 14:23 10.12.2019
6545 Clouds 7 1037 87 10000 1 0 13:59 10.12.2019
6546 Clouds 7 1037 87 10000 1 0 13:40 10.12.2019
6547 Clouds 7 1037 87 10000 1 0 13:20 10.12.2019
6548 Clouds 5 1036 93 10000 1 0 12:55 10.12.2019
6549 Clouds 5 1036 93 10000 1 0 12:36 10.12.2019
6550 Clouds 5 1036 93 10000 1 0 12:18 10.12.2019
6551 Fog 5 1035 93 4000 1 0 11:40 10.12.2019
6552 Fog 5 1035 93 4000 1 0 11:22 10.12.2019
6553 Clouds 6 1034 81 10000 1 0 10:44 10.12.2019
6554 Clouds 6 1034 81 10000 1 0 10:25 10.12.2019
6555 Clouds 5 1034 93 10000 4.1 10 09:58 10.12.2019
6556 Clouds 5 1034 93 10000 4.1 10 09:40 10.12.2019
6557 Clouds 5 1034 93 10000 4.1 10 09:22 10.12.2019
6558 Clouds 5 1034 93 10000 4.1 10 09:22 10.12.2019
6559 Clouds 5 1035 93 10000 1 0 08:59 10.12.2019
6560 Thunderstorm 5 1036 93 6000 3.6 200 08:40 10.12.2019
6561 Thunderstorm 5 1036 93 6000 3.6 200 08:22 10.12.2019
6562 Clouds 5 1036 93 5000 8.7 190 07:54 10.12.2019
6563 Clouds 5 1036 93 5000 8.7 190 07:36 10.12.2019
6564 Clouds 5 1036 93 5000 8.7 190 07:18 10.12.2019
6565 Fog 8 1036 93 4000 2.6 60 06:42 10.12.2019
6566 Fog 8 1036 93 4000 2.6 60 06:19 10.12.2019
6567 Thunderstorm 7 1036 93 10000 1.49 57 05:51 10.12.2019
6568 Clouds 8 1037 87 10000 1.5 320 04:35 10.12.2019
6569 Clouds 8 1036 87 10000 3.1 270 03:27 10.12.2019
6570 Clouds 10 1035 71 10000 3.6 80 02:36 10.12.2019
6571 Clouds 10 1033 66 10000 5.1 60 01:40 10.12.2019
6572 Clouds 10 1033 66 10000 5.1 60 01:19 10.12.2019
6573 Clouds 12 1032 58 10000 5.7 50 00:31 10.12.2019
6574 Clouds 13 1032 50 10000 4.1 10 23:59 09.12.2019
6575 Clouds 13 1032 50 10000 4.1 10 23:59 09.12.2019
6576 Clouds 13 1032 50 10000 4.1 10 23:39 09.12.2019
6577 Clouds 13 1032 50 10000 4.1 10 23:21 09.12.2019
6578 Thunderstorm 14 1032 50 10000 4.1 60 22:57 09.12.2019
6579 Clouds 14 1032 50 10000 5.1 50 22:38 09.12.2019
6580 Clouds 14 1032 50 10000 5.1 50 22:18 09.12.2019
6581 Clouds 14 1032 50 10000 5.1 50 22:18 09.12.2019
6582 Clouds 16 1032 44 10000 4.6 90 21:55 09.12.2019
6583 Clouds 16 1032 44 10000 4.6 90 21:37 09.12.2019
6584 Clouds 16 1032 44 10000 4.6 90 21:18 09.12.2019
6585 Clouds 16 1032 41 10000 4.1 100 20:55 09.12.2019
6586 Clouds 16 1032 41 10000 4.1 100 20:37 09.12.2019
6587 Clouds 16 1032 41 10000 4.1 100 20:18 09.12.2019
6588 Clouds 15 1034 47 10000 5.1 10 19:55 09.12.2019
6589 Clouds 15 1034 47 10000 5.1 10 19:37 09.12.2019
6590 Clouds 15 1034 47 10000 5.1 10 19:18 09.12.2019
6591 Thunderstorm 15 1035 47 10000 2.6 100 18:54 09.12.2019
6592 Thunderstorm 15 1035 47 10000 2.6 100 18:54 09.12.2019
6593 Thunderstorm 15 1035 47 10000 2.6 100 18:36 09.12.2019
6594 Clouds 15 1035 58 10000 4.1 110 18:18 09.12.2019
6595 Clouds 15 1035 58 10000 4.1 110 17:54 09.12.2019
6596 Clouds 15 1035 58 10000 4.1 110 17:36 09.12.2019
6597 Clouds 15 1035 58 10000 4.1 110 17:18 09.12.2019
6598 Clouds 12 1036 71 6000 2.6 110 16:54 09.12.2019
6599 Clouds 12 1036 71 6000 2.6 110 16:36 09.12.2019
6600 Clouds 12 1036 71 6000 2.6 110 16:18 09.12.2019
6601 Fog 12 1036 81 4000 2.1 110 15:54 09.12.2019
6602 Fog 12 1036 81 4000 2.1 110 15:36 09.12.2019
6603 Fog 12 1036 81 4000 2.1 110 15:18 09.12.2019
6604 Fog 9 1036 93 6000 3.1 80 14:41 09.12.2019
6605 Fog 9 1036 93 6000 3.1 80 14:18 09.12.2019
6606 Fog 7 1035 93 2000 3.1 70 13:56 09.12.2019
6607 Fog 7 1035 93 2000 3.1 70 13:37 09.12.2019
6608 Fog 7 1035 93 2000 3.1 70 13:19 09.12.2019
6609 Fog 6 1035 100 2000 3.1 60 12:55 09.12.2019
6610 Fog 6 1035 100 2000 3.1 60 12:55 09.12.2019
6611 Fog 6 1035 100 3000 2.6 70 12:37 09.12.2019
6612 Fog 6 1035 100 3000 2.6 70 12:18 09.12.2019
6613 Fog 6 1034 100 800 3.1 80 11:40 09.12.2019
6614 Fog 6 1034 100 800 3.1 80 11:22 09.12.2019
6615 Mist 5 1034 100 2000 2.6 80 10:59 09.12.2019
6616 Fog 4 1033 93 4000 1.5 90 10:39 09.12.2019
6617 Fog 4 1033 93 4000 1.5 90 10:19 09.12.2019
6618 Fog 5 1033 93 4000 1.5 40 09:45 09.12.2019
6619 Fog 5 1033 93 4000 1.5 40 09:25 09.12.2019
6620 Fog 6 1033 100 4000 1.5 70 08:57 09.12.2019
6621 Fog 6 1033 100 4000 1.5 70 08:39 09.12.2019
6622 Fog 6 1033 100 4000 1.5 70 08:20 09.12.2019
6623 Mist 6 1034 100 4000 3.1 90 07:49 09.12.2019
6624 Mist 6 1034 100 4000 3.1 90 07:30 09.12.2019
6625 Fog 6 1034 93 4000 2.6 70 06:55 09.12.2019
6626 Fog 6 1034 93 4000 2.6 70 06:29 09.12.2019
6627 Fog 6 1035 100 500 3.6 80 05:31 09.12.2019
6628 Fog 5 1035 100 500 3.1 80 04:58 09.12.2019
6629 Clouds 6 1035 93 10000 2.1 100 04:25 09.12.2019
6630 Fog 8 1034 93 4000 4.1 80 02:28 09.12.2019
6631 Clouds 9 1033 81 10000 5.1 100 01:46 09.12.2019
6632 Clouds 10 1032 81 10000 2.6 60 00:57 09.12.2019
6633 Clouds 10 1032 81 10000 2.6 60 00:32 09.12.2019
6634 Clouds 11 1032 76 10000 5.7 100 23:54 08.12.2019
6635 Clouds 11 1032 76 10000 5.7 100 23:36 08.12.2019
6636 Clouds 11 1032 76 10000 5.7 100 23:18 08.12.2019
6637 Clouds 11 1032 66 10000 2.6 360 22:56 08.12.2019
6638 Clouds 11 1032 66 10000 2.6 360 22:38 08.12.2019
6639 Clouds 11 1032 66 10000 2.6 360 22:18 08.12.2019
6640 Clouds 10 1032 71 10000 3.1 30 21:55 08.12.2019
6641 Thunderstorm 8 1033 81 8000 5.1 40 21:37 08.12.2019
6642 Thunderstorm 8 1033 81 8000 5.1 40 21:18 08.12.2019
6643 Thunderstorm 11 1033 71 10000 11.8 230 20:54 08.12.2019
6644 Clouds 15 1033 44 10000 3.6 100 20:36 08.12.2019
6645 Clouds 15 1033 44 10000 3.6 100 20:18 08.12.2019
6646 Clouds 15 1033 47 10000 3.1 200 19:42 08.12.2019
6647 Clouds 15 1033 47 10000 3.1 200 19:24 08.12.2019
6648 Clouds 15 1034 51 10000 4.1 110 18:56 08.12.2019
6649 Clouds 15 1034 51 10000 4.1 110 18:38 08.12.2019
6650 Clouds 15 1034 51 10000 4.1 110 18:38 08.12.2019
6651 Clouds 15 1034 51 10000 4.1 110 18:19 08.12.2019
6652 Clouds 14 1035 54 10000 3.6 100 17:57 08.12.2019
6653 Clouds 14 1035 54 10000 3.6 100 17:39 08.12.2019
6654 Clouds 13 1036 58 10000 3.1 110 17:20 08.12.2019
6655 Clouds 13 1036 58 10000 3.1 110 16:58 08.12.2019
6656 Clouds 13 1036 58 10000 3.1 110 16:40 08.12.2019
6657 Clouds 13 1036 58 10000 3.1 110 16:21 08.12.2019
6658 Clouds 12 1036 62 10000 3.1 90 15:57 08.12.2019
6659 Clouds 12 1036 62 10000 3.1 90 15:37 08.12.2019
6660 Clouds 12 1036 62 10000 3.1 90 15:18 08.12.2019
6661 Clouds 10 1036 76 6000 3.1 90 14:44 08.12.2019
6662 Clouds 10 1036 76 6000 3.1 90 14:24 08.12.2019
6663 Fog 8 1035 93 4000 2.1 90 13:59 08.12.2019
6664 Fog 8 1035 93 4000 2.1 90 13:40 08.12.2019
6665 Fog 8 1035 93 4000 2.1 90 13:21 08.12.2019
6666 Fog 7 1035 87 4000 1 0 12:57 08.12.2019
6667 Fog 7 1035 87 4000 1 0 12:38 08.12.2019
6668 Fog 7 1035 87 4000 1 0 12:18 08.12.2019
6669 Fog 7 1035 87 4000 1 0 12:18 08.12.2019
6670 Fog 6 1034 93 4000 2.1 60 11:57 08.12.2019
6671 Fog 6 1034 93 4000 2.1 60 11:37 08.12.2019
6672 Fog 6 1034 93 4000 2.1 60 11:19 08.12.2019
6673 Mist 6 1034 93 3000 4.1 110 10:40 08.12.2019
6674 Mist 6 1034 93 3000 4.1 110 10:22 08.12.2019
6675 Fog 6 1034 93 3000 3.6 100 09:58 08.12.2019
6676 Fog 6 1034 93 3000 3.6 100 09:39 08.12.2019
6677 Fog 6 1034 93 3000 3.6 100 09:20 08.12.2019
6678 Fog 6 1034 93 4000 3.6 110 08:59 08.12.2019
6679 Fog 6 1034 93 4000 3.6 100 08:39 08.12.2019
6680 Fog 6 1034 93 4000 3.6 100 08:21 08.12.2019
6681 Fog 6 1034 93 4000 3.6 100 08:21 08.12.2019
6682 Fog 6 1034 93 3000 2.1 70 07:45 08.12.2019
6683 Fog 6 1034 93 3000 2.1 70 07:20 08.12.2019
6684 Fog 6 1035 93 3000 4.1 80 06:52 08.12.2019
6685 Rain 6 1014 87 0 1.69 21 06:23 08.12.2019
6686 Rain 6 1014 87 0 1.69 21 05:52 08.12.2019
6687 Clouds 8 1035 75 10000 3.1 20 05:18 08.12.2019
6688 Thunderstorm 7 1036 87 8000 4.6 10 03:54 08.12.2019
6689 Thunderstorm 7 1036 87 8000 4.6 10 03:36 08.12.2019
6690 Thunderstorm 7 1036 81 8000 4.6 230 02:40 08.12.2019
6691 Thunderstorm 7 1035 81 8000 4.6 250 01:56 08.12.2019
6692 Clouds 10 1034 71 10000 1 0 01:33 08.12.2019
6693 Clouds 10 1033 71 10000 1 0 00:42 08.12.2019
6694 Clouds 10 1033 71 10000 1 0 00:21 08.12.2019
6695 Clouds 11 1032 71 10000 4.1 60 23:42 07.12.2019
6696 Clouds 11 1032 71 10000 4.1 60 23:21 07.12.2019
6697 Clouds 11 1032 66 10000 3.6 20 22:58 07.12.2019
6698 Clouds 11 1032 66 10000 3.6 20 22:40 07.12.2019
6699 Clouds 11 1032 66 10000 3.6 20 22:22 07.12.2019
6700 Clouds 10 1033 71 10000 4.1 40 21:56 07.12.2019
6701 Clouds 10 1033 71 10000 4.1 40 21:38 07.12.2019
6702 Clouds 10 1033 71 10000 4.1 40 21:20 07.12.2019
6703 Clouds 10 1033 76 10000 2.6 60 20:59 07.12.2019
6704 Clouds 10 1033 76 10000 2.6 60 20:37 07.12.2019
6705 Clouds 10 1033 76 10000 2.6 60 20:19 07.12.2019
6706 Thunderstorm 9 1035 76 8000 6.2 70 19:56 07.12.2019
6707 Thunderstorm 9 1035 76 8000 6.2 70 19:38 07.12.2019
6708 Thunderstorm 9 1035 76 8000 6.2 70 19:20 07.12.2019
6709 Thunderstorm 11 1035 71 8000 3.1 300 18:44 07.12.2019
6710 Thunderstorm 11 1035 71 8000 3.1 300 18:21 07.12.2019
6711 Thunderstorm 13 1035 62 10000 2.6 270 17:59 07.12.2019
6712 Clouds 14 1036 50 10000 1 0 17:41 07.12.2019
6713 Clouds 14 1036 50 10000 1 0 17:23 07.12.2019
6714 Clouds 12 1037 58 10000 2.6 240 16:58 07.12.2019
6715 Clouds 12 1037 58 10000 2.6 240 16:39 07.12.2019
6716 Clouds 12 1037 58 10000 2.6 240 16:20 07.12.2019
6717 Clouds 10 1038 66 6000 3.1 280 15:57 07.12.2019
6718 Clouds 10 1038 66 6000 3.1 280 15:38 07.12.2019
6719 Clouds 10 1038 66 6000 3.1 280 15:20 07.12.2019
6720 Clouds 9 1038 76 6000 4.1 280 14:42 07.12.2019
6721 Clouds 9 1038 76 6000 4.1 280 14:19 07.12.2019
6722 Clouds 8 1038 81 6000 2.1 280 13:56 07.12.2019
6723 Clouds 8 1038 81 6000 2.1 280 13:56 07.12.2019
6724 Clouds 8 1038 81 6000 2.1 280 13:37 07.12.2019
6725 Clouds 8 1038 81 6000 2.1 280 13:19 07.12.2019
6726 Rain 6 1037 93 8000 2.1 250 12:41 07.12.2019
6727 Rain 6 1037 93 8000 2.1 250 12:23 07.12.2019
6728 Fog 6 1036 87 4000 2.1 250 11:58 07.12.2019
6729 Fog 6 1036 87 4000 2.1 250 11:40 07.12.2019
6730 Fog 6 1036 87 4000 2.1 250 11:22 07.12.2019
6731 Clouds 7 1036 75 10000 3.6 310 10:39 07.12.2019
6732 Clouds 7 1036 75 10000 3.6 310 10:20 07.12.2019
6733 Clouds 7 1036 81 10000 2.1 290 09:58 07.12.2019
6734 Clouds 7 1036 81 10000 2.1 290 09:38 07.12.2019
6735 Clouds 7 1036 81 10000 2.1 290 09:19 07.12.2019
6736 Clouds 7 1035 81 10000 2.1 210 08:43 07.12.2019
6737 Clouds 7 1035 81 10000 2.1 210 08:21 07.12.2019
6738 Clouds 6 1036 81 10000 1 0 07:47 07.12.2019
6739 Clouds 6 1036 81 10000 1 0 07:27 07.12